GFSMA_prec_precacc_027.txt.gz
Total_Precipitation_Accumulation
0.00 0.00 0.00 0.00 0.00 0.00 0.00 0.00 0.00 0.00 0.00 0.00 0.00 0.00 0.00 0.00 0.00 0.00 0.00 0.00 0.00 0.00 0.00 0.00 0.00 0.00 0.00 0.00 0.01 0.04 0.04 0.03 0.02 0.03 0.04 0.04 0.04 0.02 0.02 0.04 0.06 0.07 0.08
0.00 0.00 0.00 0.00 0.00 0.00 0.00 0.00 0.00 0.00 0.00 0.00 0.00 0.00 0.00 0.00 0.00 0.00 0.00 0.00 0.00 0.00 0.00 0.00 0.00 0.00 0.00 0.00 0.00 0.00 0.00 0.00 0.00 0.01 0.01 0.01 0.01 0.02 0.01 0.03 0.05 0.06 0.07
0.00 0.00 0.00 0.00 0.00 0.00 0.00 0.00 0.00 0.00 0.00 0.00 0.00 0.00 0.00 0.00 0.00 0.00 0.00 0.00 0.00 0.00 0.00 0.00 0.00 0.00 0.00 0.00 0.00 0.00 0.00 0.00 0.00 0.00 0.00 0.00 0.00 0.00 0.00 0.00 0.01 0.03 0.05
0.00 0.00 0.00 0.00 0.00 0.00 0.00 0.00 0.00 0.00 0.00 0.00 0.00 0.00 0.00 0.00 0.00 0.00 0.00 0.00 0.00 0.00 0.00 0.00 0.00 0.00 0.00 0.00 0.00 0.00 0.00 0.00 0.00 0.00 0.00 0.00 0.00 0.00 0.00 0.00 0.00 0.00 0.00
0.00 0.00 0.00 0.00 0.00 0.00 0.00 0.00 0.00 0.00 0.00 0.00 0.00 0.00 0.00 0.00 0.00 0.00 0.00 0.00 0.00 0.00 0.00 0.00 0.00 0.00 0.00 0.00 0.00 0.00 0.00 0.00 0.00 0.00 0.00 0.00 0.00 0.00 0.00 0.00 0.00 0.00 0.00
0.00 0.00 0.00 0.00 0.00 0.00 0.00 0.00 0.00 0.00 0.00 0.00 0.00 0.00 0.00 0.00 0.00 0.00 0.00 0.00 0.00 0.00 0.00 0.00 0.00 0.00 0.00 0.00 0.00 0.00 0.00 0.00 0.00 0.00 0.00 0.00 0.00 0.00 0.00 0.00 0.00 0.00 0.00
0.00 0.00 0.00 0.00 0.00 0.00 0.00 0.00 0.00 0.00 0.00 0.00 0.00 0.00 0.00 0.00 0.00 0.00 0.00 0.00 0.00 0.00 0.00 0.00 0.00 0.00 0.00 0.00 0.00 0.00 0.00 0.00 0.00 0.00 0.00 0.00 0.00 0.00 0.00 0.00 0.00 0.00 0.00
0.00 0.00 0.00 0.00 0.00 0.00 0.00 0.00 0.00 0.00 0.00 0.00 0.00 0.00 0.00 0.00 0.00 0.00 0.00 0.00 0.00 0.00 0.00 0.00 0.00 0.00 0.00 0.00 0.00 0.00 0.00 0.00 0.00 0.00 0.00 0.00 0.00 0.00 0.00 0.00 0.00 0.00 0.00
0.00 0.00 0.00 0.00 0.00 0.00 0.00 0.00 0.00 0.00 0.00 0.00 0.00 0.00 0.00 0.00 0.00 0.00 0.00 0.00 0.00 0.00 0.00 0.00 0.00 0.00 0.00 0.00 0.00 0.00 0.00 0.00 0.00 0.00 0.00 0.00 0.00 0.00 0.00 0.00 0.00 0.00 0.00
0.04 0.01 0.00 0.00 0.00 0.00 0.00 0.00 0.00 0.00 0.00 0.00 0.00 0.00 0.00 0.00 0.00 0.00 0.00 0.00 0.00 0.00 0.00 0.00 0.00 0.00 0.00 0.00 0.00 0.00 0.00 0.00 0.00 0.00 0.00 0.00 0.00 0.00 0.00 0.00 0.00 0.00 0.00
0.05 0.03 0.03 0.01 0.00 0.00 0.00 0.00 0.00 0.00 0.00 0.00 0.00 0.00 0.00 0.00 0.00 0.00 0.00 0.00 0.00 0.00 0.00 0.00 0.00 0.00 0.00 0.00 0.00 0.00 0.00 0.00 0.00 0.00 0.00 0.00 0.00 0.00 0.00 0.00 0.00 0.00 0.01
0.04 0.04 0.04 0.04 0.01 0.01 0.01 0.00 0.00 0.00 0.00 0.00 0.00 0.00 0.00 0.00 0.00 0.00 0.00 0.00 0.00 0.00 0.00 0.00 0.00 0.00 0.00 0.00 0.00 0.00 0.00 0.00 0.00 0.00 0.00 0.00 0.00 0.00 0.01 0.00 0.00 0.02 0.04
0.04 0.05 0.06 0.04 0.03 0.02 0.01 0.01 0.00 0.00 0.00 0.00 0.00 0.00 0.00 0.00 0.00 0.00 0.00 0.00 0.00 0.00 0.00 0.00 0.00 0.00 0.00 0.00 0.00 0.00 0.00 0.00 0.00 0.00 0.00 0.00 0.00 0.00 0.00 0.00 0.00 0.02 0.05
0.05 0.05 0.05 0.04 0.03 0.03 0.01 0.01 0.00 0.00 0.00 0.00 0.00 0.00 0.00 0.00 0.00 0.00 0.00 0.00 0.00 0.00 0.00 0.00 0.00 0.00 0.00 0.00 0.00 0.00 0.00 0.00 0.00 0.00 0.00 0.00 0.00 0.00 0.00 0.00 0.02 0.03 0.05
0.04 0.03 0.02 0.03 0.03 0.02 0.02 0.01 0.00 0.00 0.00 0.00 0.00 0.00 0.00 0.00 0.00 0.00 0.00 0.00 0.00 0.00 0.00 0.00 0.00 0.00 0.00 0.00 0.00 0.00 0.00 0.00 0.00 0.00 0.00 0.00 0.00 0.01 0.01 0.01 0.02 0.03 0.03
0.04 0.03 0.03 0.03 0.02 0.02 0.01 0.01 0.00 0.00 0.00 0.00 0.00 0.00 0.00 0.00 0.00 0.00 0.00 0.00 0.00 0.00 0.00 0.00 0.00 0.00 0.00 0.00 0.00 0.00 0.00 0.00 0.00 0.00 0.01 0.01 0.01 0.00 0.01 0.01 0.01 0.02 0.05
0.03 0.04 0.04 0.03 0.02 0.01 0.01 0.01 0.02 0.01 0.01 0.00 0.00 0.00 0.00 0.00 0.00 0.00 0.00 0.00 0.00 0.00 0.00 0.00 0.00 0.00 0.00 0.00 0.00 0.00 0.00 0.00 0.00 0.01 0.01 0.00 0.00 0.00 0.01 0.01 0.03 0.04 0.06
0.04 0.04 0.03 0.02 0.02 0.01 0.01 0.01 0.02 0.02 0.02 0.01 0.01 0.01 0.00 0.00 0.00 0.00 0.00 0.00 0.00 0.00 0.00 0.01 0.00 0.00 0.00 0.00 0.00 0.00 0.00 0.00 0.00 0.00 0.00 0.00 0.00 0.00 0.01 0.02 0.04 0.07 0.11
0.06 0.04 0.02 0.02 0.02 0.02 0.01 0.02 0.02 0.01 0.00 0.00 0.00 0.00 0.00 0.00 0.00 0.00 0.00 0.00 0.00 0.00 0.00 0.01 0.00 0.00 0.00 0.01 0.02 0.00 0.00 0.00 0.00 0.00 0.00 0.00 0.00 0.00 0.01 0.03 0.05 0.07 0.07
0.05 0.04 0.05 0.06 0.05 0.04 0.05 0.08 0.07 0.03 0.02 0.00 0.00 0.00 0.00 0.00 0.00 0.00 0.00 0.00 0.00 0.00 0.00 0.01 0.07 0.05 0.04 0.03 0.01 0.00 0.00 0.00 0.00 0.00 0.00 0.00 0.00 0.00 0.00 0.00 0.00 0.00 0.00
0.03 0.02 0.04 0.11 0.14 0.14 0.11 0.06 0.03 0.01 0.00 0.00 0.00 0.00 0.00 0.00 0.00 0.00 0.00 0.00 0.00 0.02 0.09 0.18 0.12 0.10 0.06 0.00 0.00 0.00 0.00 0.01 0.01 0.00 0.00 0.00 0.00 0.00 0.00 0.00 0.00 0.00 0.00
0.05 0.07 0.06 0.05 0.07 0.09 0.10 0.07 0.02 0.00 0.00 0.00 0.00 0.00 0.00 0.00 0.00 0.00 0.00 0.00 0.03 0.15 0.18 0.18 0.15 0.04 0.00 0.00 0.00 0.02 0.06 0.06 0.05 0.00 0.00 0.00 0.00 0.00 0.00 0.00 0.00 0.01 0.01
0.19 0.19 0.15 0.16 0.14 0.07 0.04 0.03 0.01 0.01 0.01 0.00 0.00 0.00 0.00 0.00 0.00 0.00 0.00 0.06 0.13 0.10 0.09 0.06 0.01 0.00 0.01 0.03 0.10 0.09 0.07 0.10 0.05 0.00 0.02 0.02 0.00 0.00 0.00 0.00 0.00 0.00 0.01
0.32 0.32 0.40 0.38 0.33 0.25 0.16 0.10 0.04 0.02 0.01 0.00 0.00 0.00 0.00 0.00 0.00 0.01 0.09 0.16 0.06 0.02 0.00 0.00 0.00 0.01 0.04 0.04 0.06 0.15 0.08 0.06 0.02 0.00 0.00 0.04 0.00 0.00 0.00 0.00 0.00 0.00 0.00
0.55 0.42 0.29 0.20 0.13 0.09 0.04 0.02 0.01 0.00 0.00 0.00 0.00 0.00 0.00 0.01 0.01 0.06 0.08 0.04 0.00 0.00 0.00 0.01 0.02 0.02 0.01 0.00 0.00 0.06 0.07 0.07 0.05 0.00 0.00 0.01 0.00 0.00 0.00 0.00 0.00 0.00 0.00
0.25 0.13 0.10 0.07 0.04 0.01 0.00 0.00 0.00 0.00 0.00 0.00 0.00 0.00 0.00 0.01 0.04 0.08 0.03 0.00 0.00 0.00 0.05 0.02 0.00 0.00 0.00 0.00 0.00 0.01 0.07 0.24 0.12 0.11 0.00 0.13 0.07 0.04 0.18 0.01 0.00 0.00 0.00

GFSMA_prec_precacc_030.txt.gz
Total_Precipitation_Accumulation
0.00 0.00 0.00 0.00 0.00 0.00 0.00 0.00 0.00 0.00 0.00 0.00 0.00 0.00 0.00 0.00 0.00 0.00 0.00 0.00 0.00 0.00 0.00 0.00 0.00 0.00 0.00 0.00 0.01 0.04 0.04 0.03 0.02 0.03 0.04 0.04 0.04 0.02 0.02 0.04 0.06 0.07 0.08
0.00 0.00 0.00 0.00 0.00 0.00 0.00 0.00 0.00 0.00 0.00 0.00 0.00 0.00 0.00 0.00 0.00 0.00 0.00 0.00 0.00 0.00 0.00 0.00 0.00 0.00 0.00 0.00 0.00 0.00 0.00 0.00 0.00 0.01 0.01 0.01 0.01 0.02 0.01 0.03 0.05 0.06 0.07
0.00 0.00 0.00 0.00 0.00 0.00 0.00 0.00 0.00 0.00 0.00 0.00 0.00 0.00 0.00 0.00 0.00 0.00 0.00 0.00 0.00 0.00 0.00 0.00 0.00 0.00 0.00 0.00 0.00 0.00 0.00 0.00 0.00 0.00 0.00 0.00 0.00 0.00 0.00 0.00 0.01 0.03 0.05
0.00 0.00 0.00 0.00 0.00 0.00 0.00 0.00 0.00 0.00 0.00 0.00 0.00 0.00 0.00 0.00 0.00 0.00 0.00 0.00 0.00 0.00 0.00 0.00 0.00 0.00 0.00 0.00 0.00 0.00 0.00 0.00 0.00 0.00 0.00 0.00 0.00 0.00 0.00 0.00 0.00 0.00 0.00
0.00 0.00 0.00 0.00 0.00 0.00 0.00 0.00 0.00 0.00 0.00 0.00 0.00 0.00 0.00 0.00 0.00 0.00 0.00 0.00 0.00 0.00 0.00 0.00 0.00 0.00 0.00 0.00 0.00 0.00 0.00 0.00 0.00 0.00 0.00 0.00 0.00 0.00 0.00 0.00 0.00 0.00 0.00
0.00 0.00 0.00 0.00 0.00 0.00 0.00 0.00 0.00 0.00 0.00 0.00 0.00 0.00 0.00 0.00 0.00 0.00 0.00 0.00 0.00 0.00 0.00 0.00 0.00 0.00 0.00 0.00 0.00 0.00 0.00 0.00 0.00 0.00 0.00 0.00 0.00 0.00 0.00 0.00 0.00 0.00 0.00
0.03 0.03 0.02 0.00 0.00 0.00 0.00 0.00 0.00 0.00 0.00 0.00 0.00 0.00 0.00 0.00 0.00 0.00 0.00 0.00 0.00 0.00 0.00 0.00 0.00 0.00 0.00 0.00 0.00 0.00 0.00 0.00 0.00 0.00 0.00 0.00 0.00 0.00 0.00 0.00 0.00 0.00 0.00
0.04 0.01 0.00 0.00 0.00 0.00 0.00 0.00 0.00 0.00 0.00 0.00 0.00 0.00 0.00 0.00 0.00 0.00 0.00 0.00 0.00 0.00 0.00 0.00 0.00 0.00 0.00 0.00 0.00 0.00 0.00 0.00 0.00 0.00 0.00 0.00 0.00 0.00 0.00 0.00 0.00 0.00 0.00
0.05 0.00 0.01 0.00 0.00 0.00 0.00 0.00 0.00 0.00 0.00 0.00 0.00 0.00 0.00 0.00 0.00 0.00 0.00 0.00 0.00 0.00 0.00 0.00 0.00 0.00 0.00 0.00 0.00 0.00 0.00 0.00 0.00 0.00 0.00 0.00 0.00 0.00 0.00 0.00 0.00 0.00 0.00
0.12 0.05 0.05 0.04 0.00 0.00 0.00 0.00 0.00 0.00 0.00 0.00 0.00 0.00 0.00 0.00 0.00 0.00 0.00 0.00 0.00 0.00 0.00 0.00 0.00 0.00 0.00 0.00 0.00 0.00 0.00 0.00 0.00 0.00 0.00 0.00 0.00 0.00 0.00 0.00 0.00 0.00 0.00
0.11 0.12 0.11 0.09 0.05 0.04 0.01 0.01 0.00 0.00 0.00 0.00 0.00 0.00 0.00 0.00 0.00 0.00 0.00 0.00 0.00 0.00 0.00 0.00 0.00 0.00 0.00 0.00 0.00 0.00 0.00 0.00 0.00 0.00 0.00 0.00 0.00 0.00 0.00 0.00 0.00 0.00 0.01
0.08 0.06 0.07 0.06 0.05 0.05 0.05 0.03 0.01 0.00 0.00 0.00 0.00 0.00 0.00 0.00 0.00 0.00 0.00 0.00 0.00 0.00 0.00 0.00 0.00 0.00 0.00 0.00 0.00 0.00 0.00 0.00 0.00 0.00 0.00 0.00 0.00 0.00 0.01 0.00 0.00 0.02 0.04
0.06 0.06 0.09 0.07 0.07 0.06 0.05 0.04 0.02 0.01 0.00 0.00 0.00 0.00 0.00 0.00 0.00 0.00 0.00 0.00 0.00 0.00 0.00 0.00 0.00 0.00 0.00 0.00 0.00 0.00 0.00 0.00 0.00 0.00 0.00 0.00 0.00 0.00 0.00 0.00 0.00 0.02 0.05
0.07 0.07 0.08 0.07 0.06 0.06 0.04 0.03 0.03 0.02 0.01 0.01 0.01 0.00 0.00 0.00 0.00 0.00 0.00 0.00 0.00 0.00 0.00 0.00 0.00 0.00 0.00 0.00 0.00 0.00 0.00 0.00 0.00 0.00 0.00 0.00 0.00 0.00 0.00 0.00 0.02 0.03 0.05
0.06 0.08 0.08 0.07 0.06 0.05 0.04 0.03 0.02 0.01 0.01 0.01 0.01 0.00 0.00 0.00 0.00 0.00 0.00 0.00 0.00 0.00 0.00 0.00 0.00 0.00 0.00 0.00 0.00 0.00 0.00 0.00 0.00 0.00 0.00 0.00 0.00 0.01 0.01 0.01 0.02 0.03 0.03
0.05 0.06 0.07 0.08 0.07 0.05 0.02 0.01 0.01 0.01 0.00 0.01 0.01 0.00 0.00 0.00 0.00 0.00 0.00 0.00 0.00 0.00 0.00 0.00 0.00 0.00 0.00 0.00 0.00 0.00 0.00 0.00 0.00 0.00 0.01 0.01 0.01 0.00 0.01 0.01 0.01 0.02 0.05
0.04 0.05 0.07 0.07 0.06 0.04 0.02 0.02 0.02 0.01 0.01 0.01 0.01 0.01 0.00 0.00 0.00 0.00 0.00 0.00 0.00 0.00 0.00 0.00 0.00 0.00 0.00 0.00 0.00 0.00 0.00 0.00 0.00 0.01 0.01 0.00 0.00 0.00 0.01 0.01 0.03 0.04 0.06
0.05 0.06 0.06 0.04 0.03 0.02 0.01 0.02 0.02 0.03 0.04 0.04 0.04 0.04 0.03 0.00 0.00 0.00 0.00 0.00 0.00 0.00 0.00 0.01 0.00 0.00 0.00 0.00 0.00 0.00 0.00 0.00 0.00 0.00 0.00 0.00 0.00 0.00 0.01 0.02 0.04 0.07 0.12
0.07 0.06 0.04 0.03 0.02 0.02 0.01 0.02 0.03 0.05 0.05 0.05 0.04 0.04 0.02 0.00 0.00 0.00 0.00 0.00 0.00 0.00 0.00 0.01 0.00 0.00 0.00 0.01 0.02 0.00 0.00 0.00 0.00 0.00 0.00 0.00 0.00 0.00 0.01 0.03 0.05 0.07 0.07
0.05 0.05 0.06 0.06 0.06 0.04 0.06 0.10 0.13 0.13 0.11 0.08 0.08 0.07 0.04 0.01 0.00 0.00 0.00 0.00 0.00 0.00 0.00 0.01 0.07 0.05 0.04 0.03 0.01 0.00 0.00 0.00 0.00 0.00 0.00 0.00 0.00 0.00 0.00 0.00 0.00 0.00 0.00
0.04 0.03 0.06 0.13 0.16 0.15 0.13 0.10 0.08 0.07 0.06 0.07 0.06 0.05 0.02 0.01 0.00 0.00 0.00 0.00 0.00 0.02 0.09 0.18 0.12 0.10 0.06 0.00 0.00 0.00 0.00 0.01 0.01 0.00 0.00 0.00 0.00 0.00 0.00 0.00 0.00 0.00 0.00
0.06 0.09 0.08 0.08 0.10 0.12 0.19 0.16 0.10 0.08 0.07 0.08 0.07 0.05 0.03 0.01 0.00 0.00 0.00 0.00 0.03 0.15 0.18 0.18 0.15 0.04 0.00 0.00 0.00 0.02 0.06 0.06 0.05 0.00 0.00 0.00 0.00 0.00 0.00 0.00 0.00 0.01 0.01
0.21 0.20 0.18 0.18 0.16 0.12 0.14 0.12 0.12 0.14 0.15 0.12 0.08 0.05 0.02 0.01 0.00 0.00 0.00 0.06 0.13 0.10 0.09 0.06 0.01 0.00 0.01 0.03 0.10 0.10 0.07 0.10 0.05 0.00 0.02 0.02 0.00 0.00 0.00 0.00 0.00 0.00 0.01
0.39 0.40 0.45 0.46 0.48 0.50 0.47 0.38 0.28 0.19 0.13 0.09 0.06 0.03 0.01 0.00 0.00 0.01 0.09 0.16 0.06 0.02 0.00 0.00 0.00 0.01 0.04 0.04 0.07 0.16 0.09 0.06 0.02 0.00 0.00 0.04 0.00 0.00 0.00 0.00 0.00 0.00 0.00
0.71 0.57 0.43 0.37 0.38 0.34 0.23 0.13 0.08 0.06 0.04 0.02 0.01 0.00 0.00 0.01 0.01 0.06 0.08 0.04 0.00 0.00 0.00 0.01 0.02 0.02 0.01 0.01 0.00 0.06 0.07 0.07 0.05 0.00 0.00 0.01 0.00 0.00 0.00 0.00 0.00 0.00 0.00
0.48 0.38 0.26 0.18 0.13 0.09 0.07 0.04 0.01 0.00 0.00 0.00 0.00 0.00 0.00 0.01 0.04 0.08 0.03 0.00 0.00 0.00 0.05 0.02 0.00 0.00 0.00 0.00 0.00 0.01 0.07 0.25 0.13 0.12 0.00 0.13 0.07 0.05 0.19 0.01 0.00 0.00 0.00

GFSMA_prec_precacc_033.txt.gz
Total_Precipitation_Accumulation
0.00 0.00 0.00 0.00 0.00 0.00 0.00 0.00 0.00 0.00 0.00 0.00 0.00 0.00 0.00 0.00 0.00 0.00 0.00 0.00 0.00 0.00 0.00 0.00 0.00 0.00 0.00 0.00 0.01 0.04 0.04 0.03 0.02 0.03 0.04 0.04 0.04 0.02 0.02 0.04 0.06 0.07 0.08
0.00 0.00 0.00 0.00 0.00 0.00 0.00 0.00 0.00 0.00 0.00 0.00 0.00 0.00 0.00 0.00 0.00 0.00 0.00 0.00 0.00 0.00 0.00 0.00 0.00 0.00 0.00 0.00 0.00 0.00 0.00 0.00 0.00 0.01 0.01 0.01 0.01 0.02 0.01 0.03 0.05 0.06 0.07
0.00 0.00 0.00 0.00 0.00 0.00 0.00 0.00 0.00 0.00 0.00 0.00 0.00 0.00 0.00 0.00 0.00 0.00 0.00 0.00 0.00 0.00 0.00 0.00 0.00 0.00 0.00 0.00 0.00 0.00 0.00 0.00 0.00 0.00 0.00 0.00 0.00 0.00 0.00 0.00 0.01 0.03 0.05
0.00 0.00 0.00 0.00 0.00 0.00 0.00 0.00 0.00 0.00 0.00 0.00 0.00 0.00 0.00 0.00 0.00 0.00 0.00 0.00 0.00 0.00 0.00 0.00 0.00 0.00 0.00 0.00 0.00 0.00 0.00 0.00 0.00 0.00 0.00 0.00 0.00 0.00 0.00 0.00 0.00 0.00 0.00
0.00 0.00 0.00 0.00 0.00 0.00 0.00 0.00 0.00 0.00 0.00 0.00 0.00 0.00 0.00 0.00 0.00 0.00 0.00 0.00 0.00 0.00 0.00 0.00 0.00 0.00 0.00 0.00 0.00 0.00 0.00 0.00 0.00 0.00 0.00 0.00 0.00 0.00 0.00 0.00 0.00 0.00 0.00
0.00 0.00 0.00 0.00 0.00 0.00 0.00 0.00 0.00 0.00 0.00 0.00 0.00 0.00 0.00 0.00 0.00 0.00 0.00 0.00 0.00 0.00 0.00 0.00 0.00 0.00 0.00 0.00 0.00 0.00 0.00 0.00 0.00 0.00 0.00 0.00 0.00 0.00 0.00 0.00 0.00 0.00 0.00
0.05 0.04 0.03 0.00 0.00 0.00 0.00 0.00 0.00 0.00 0.00 0.00 0.00 0.00 0.00 0.00 0.00 0.00 0.00 0.00 0.00 0.00 0.00 0.00 0.00 0.00 0.00 0.00 0.00 0.00 0.00 0.00 0.00 0.00 0.00 0.00 0.00 0.00 0.00 0.00 0.00 0.00 0.00
0.08 0.03 0.02 0.02 0.00 0.00 0.00 0.00 0.00 0.00 0.00 0.00 0.00 0.00 0.00 0.00 0.00 0.00 0.00 0.00 0.00 0.00 0.00 0.00 0.00 0.00 0.00 0.00 0.00 0.00 0.00 0.00 0.00 0.00 0.00 0.00 0.00 0.00 0.00 0.00 0.00 0.00 0.00
0.08 0.02 0.05 0.05 0.04 0.01 0.00 0.00 0.00 0.00 0.00 0.00 0.00 0.00 0.00 0.00 0.00 0.00 0.00 0.00 0.00 0.00 0.00 0.00 0.00 0.00 0.00 0.00 0.00 0.00 0.00 0.00 0.00 0.00 0.00 0.00 0.00 0.00 0.00 0.00 0.00 0.00 0.00
0.16 0.10 0.08 0.12 0.13 0.04 0.00 0.00 0.00 0.00 0.00 0.00 0.00 0.00 0.00 0.00 0.00 0.00 0.00 0.00 0.00 0.00 0.00 0.00 0.00 0.00 0.00 0.00 0.00 0.00 0.00 0.00 0.00 0.00 0.00 0.00 0.00 0.00 0.00 0.00 0.00 0.00 0.00
0.16 0.18 0.14 0.16 0.14 0.11 0.07 0.05 0.01 0.01 0.00 0.00 0.00 0.00 0.00 0.00 0.00 0.00 0.00 0.00 0.00 0.00 0.00 0.00 0.00 0.00 0.00 0.00 0.00 0.00 0.00 0.00 0.00 0.00 0.00 0.00 0.00 0.00 0.00 0.00 0.00 0.00 0.01
0.11 0.10 0.11 0.11 0.13 0.12 0.10 0.09 0.06 0.03 0.01 0.00 0.00 0.00 0.00 0.00 0.00 0.00 0.00 0.00 0.00 0.00 0.00 0.00 0.00 0.00 0.00 0.00 0.00 0.00 0.00 0.00 0.00 0.00 0.00 0.00 0.00 0.00 0.01 0.00 0.00 0.02 0.04
0.07 0.07 0.10 0.10 0.09 0.11 0.12 0.10 0.07 0.05 0.03 0.01 0.00 0.00 0.00 0.00 0.00 0.00 0.00 0.00 0.00 0.00 0.00 0.00 0.00 0.00 0.00 0.00 0.00 0.00 0.00 0.00 0.00 0.00 0.00 0.00 0.00 0.00 0.00 0.00 0.00 0.02 0.05
0.07 0.09 0.11 0.12 0.13 0.12 0.09 0.07 0.06 0.05 0.02 0.02 0.02 0.01 0.01 0.00 0.00 0.00 0.00 0.00 0.00 0.00 0.00 0.00 0.00 0.00 0.00 0.00 0.00 0.00 0.00 0.00 0.00 0.00 0.00 0.00 0.00 0.00 0.00 0.00 0.02 0.03 0.05
0.07 0.08 0.09 0.11 0.12 0.13 0.11 0.09 0.06 0.04 0.03 0.02 0.02 0.01 0.01 0.00 0.00 0.00 0.00 0.00 0.00 0.00 0.00 0.00 0.00 0.00 0.00 0.00 0.00 0.00 0.00 0.00 0.00 0.00 0.00 0.00 0.00 0.01 0.01 0.01 0.02 0.03 0.03
0.05 0.06 0.07 0.09 0.10 0.12 0.13 0.13 0.08 0.04 0.02 0.01 0.01 0.01 0.00 0.00 0.00 0.00 0.00 0.00 0.00 0.00 0.00 0.00 0.00 0.00 0.00 0.00 0.00 0.00 0.00 0.00 0.00 0.00 0.01 0.01 0.01 0.00 0.01 0.01 0.01 0.02 0.05
0.04 0.05 0.07 0.07 0.07 0.05 0.06 0.09 0.09 0.04 0.02 0.01 0.01 0.01 0.01 0.01 0.01 0.01 0.00 0.00 0.00 0.00 0.00 0.00 0.00 0.00 0.00 0.00 0.00 0.00 0.00 0.00 0.00 0.01 0.01 0.00 0.00 0.00 0.01 0.01 0.03 0.04 0.06
0.05 0.06 0.07 0.05 0.03 0.03 0.02 0.03 0.05 0.04 0.05 0.06 0.08 0.09 0.08 0.06 0.07 0.06 0.02 0.02 0.01 0.01 0.01 0.01 0.00 0.00 0.00 0.00 0.00 0.00 0.00 0.00 0.00 0.00 0.00 0.00 0.00 0.00 0.01 0.02 0.04 0.07 0.12
0.07 0.06 0.04 0.03 0.03 0.03 0.02 0.02 0.04 0.05 0.06 0.07 0.08 0.08 0.07 0.06 0.07 0.06 0.05 0.04 0.04 0.03 0.02 0.01 0.00 0.00 0.00 0.01 0.02 0.00 0.00 0.00 0.00 0.00 0.00 0.00 0.00 0.00 0.01 0.03 0.05 0.07 0.07
0.06 0.05 0.06 0.06 0.06 0.05 0.07 0.10 0.13 0.13 0.13 0.13 0.13 0.13 0.13 0.11 0.09 0.08 0.09 0.08 0.05 0.02 0.01 0.01 0.07 0.05 0.04 0.03 0.01 0.00 0.00 0.00 0.00 0.00 0.00 0.00 0.00 0.00 0.00 0.00 0.00 0.00 0.00
0.05 0.04 0.06 0.13 0.16 0.16 0.14 0.11 0.10 0.11 0.12 0.13 0.13 0.14 0.14 0.12 0.10 0.08 0.06 0.04 0.02 0.03 0.10 0.18 0.12 0.10 0.06 0.00 0.00 0.00 0.00 0.01 0.01 0.00 0.00 0.00 0.00 0.00 0.00 0.00 0.00 0.00 0.00
0.07 0.10 0.09 0.10 0.12 0.16 0.29 0.23 0.15 0.12 0.11 0.13 0.16 0.17 0.15 0.12 0.09 0.07 0.05 0.03 0.04 0.16 0.18 0.18 0.15 0.04 0.00 0.00 0.00 0.02 0.06 0.06 0.06 0.00 0.00 0.00 0.00 0.00 0.00 0.00 0.00 0.01 0.01
0.23 0.22 0.21 0.24 0.21 0.18 0.22 0.21 0.25 0.22 0.25 0.26 0.24 0.18 0.13 0.09 0.08 0.07 0.04 0.07 0.13 0.10 0.09 0.06 0.01 0.00 0.01 0.03 0.10 0.10 0.07 0.10 0.06 0.00 0.02 0.02 0.00 0.00 0.00 0.00 0.00 0.00 0.01
0.45 0.52 0.54 0.54 0.58 0.60 0.60 0.49 0.38 0.32 0.28 0.24 0.19 0.14 0.09 0.06 0.03 0.02 0.09 0.16 0.06 0.02 0.00 0.00 0.00 0.01 0.04 0.04 0.07 0.16 0.09 0.06 0.02 0.00 0.00 0.04 0.00 0.00 0.00 0.00 0.00 0.00 0.00
0.76 0.75 0.60 0.50 0.47 0.44 0.36 0.25 0.17 0.14 0.11 0.08 0.04 0.01 0.00 0.01 0.01 0.06 0.08 0.04 0.00 0.00 0.00 0.01 0.02 0.02 0.01 0.01 0.00 0.06 0.07 0.07 0.05 0.00 0.00 0.01 0.00 0.00 0.00 0.00 0.00 0.00 0.00
0.64 0.55 0.53 0.40 0.29 0.20 0.14 0.10 0.06 0.04 0.01 0.00 0.00 0.00 0.00 0.01 0.04 0.08 0.03 0.00 0.00 0.00 0.05 0.02 0.00 0.00 0.00 0.00 0.00 0.01 0.07 0.25 0.13 0.13 0.00 0.14 0.07 0.05 0.19 0.01 0.00 0.00 0.00

GFSMA_prec_precacc_036.txt.gz
Total_Precipitation_Accumulation
0.00 0.00 0.00 0.00 0.00 0.00 0.00 0.00 0.00 0.00 0.00 0.00 0.00 0.00 0.00 0.00 0.00 0.00 0.00 0.00 0.00 0.00 0.00 0.00 0.00 0.00 0.00 0.00 0.01 0.04 0.04 0.03 0.02 0.03 0.04 0.04 0.04 0.02 0.02 0.04 0.06 0.07 0.08
0.00 0.00 0.00 0.00 0.00 0.00 0.00 0.00 0.00 0.00 0.00 0.00 0.00 0.00 0.00 0.00 0.00 0.00 0.00 0.00 0.00 0.00 0.00 0.00 0.00 0.00 0.00 0.00 0.00 0.00 0.00 0.00 0.00 0.01 0.01 0.01 0.01 0.02 0.01 0.03 0.05 0.06 0.07
0.00 0.00 0.00 0.00 0.00 0.00 0.00 0.00 0.00 0.00 0.00 0.00 0.00 0.00 0.00 0.00 0.00 0.00 0.00 0.00 0.00 0.00 0.00 0.00 0.00 0.00 0.00 0.00 0.00 0.00 0.00 0.00 0.00 0.00 0.00 0.00 0.00 0.00 0.00 0.00 0.01 0.03 0.05
0.00 0.00 0.00 0.00 0.00 0.00 0.00 0.00 0.00 0.00 0.00 0.00 0.00 0.00 0.00 0.00 0.00 0.00 0.00 0.00 0.00 0.00 0.00 0.00 0.00 0.00 0.00 0.00 0.00 0.00 0.00 0.00 0.00 0.00 0.00 0.00 0.00 0.00 0.00 0.00 0.00 0.00 0.00
0.00 0.00 0.00 0.00 0.00 0.00 0.00 0.00 0.00 0.00 0.00 0.00 0.00 0.00 0.00 0.00 0.00 0.00 0.00 0.00 0.00 0.00 0.00 0.00 0.00 0.00 0.00 0.00 0.00 0.00 0.00 0.00 0.00 0.00 0.00 0.00 0.00 0.00 0.00 0.00 0.00 0.00 0.00
0.01 0.00 0.00 0.00 0.00 0.00 0.00 0.00 0.00 0.00 0.00 0.00 0.00 0.00 0.00 0.00 0.00 0.00 0.00 0.00 0.00 0.00 0.00 0.00 0.00 0.00 0.00 0.00 0.00 0.00 0.00 0.00 0.00 0.00 0.00 0.00 0.00 0.00 0.00 0.00 0.00 0.00 0.00
0.07 0.06 0.03 0.00 0.00 0.00 0.00 0.00 0.00 0.00 0.00 0.00 0.00 0.00 0.00 0.00 0.00 0.00 0.00 0.00 0.00 0.00 0.00 0.00 0.00 0.00 0.00 0.00 0.00 0.00 0.00 0.00 0.00 0.00 0.00 0.00 0.00 0.00 0.00 0.00 0.00 0.00 0.00
0.08 0.03 0.03 0.05 0.01 0.00 0.00 0.00 0.00 0.00 0.00 0.00 0.00 0.00 0.00 0.00 0.00 0.00 0.00 0.00 0.00 0.00 0.00 0.00 0.00 0.00 0.00 0.00 0.00 0.00 0.00 0.00 0.00 0.00 0.00 0.00 0.00 0.00 0.00 0.00 0.00 0.00 0.00
0.10 0.03 0.08 0.10 0.07 0.03 0.01 0.01 0.00 0.00 0.00 0.00 0.00 0.00 0.00 0.00 0.00 0.00 0.00 0.00 0.00 0.00 0.00 0.00 0.00 0.00 0.00 0.00 0.00 0.00 0.00 0.00 0.00 0.00 0.00 0.00 0.00 0.00 0.00 0.00 0.00 0.00 0.00
0.17 0.13 0.11 0.15 0.17 0.06 0.02 0.01 0.01 0.00 0.00 0.00 0.00 0.00 0.00 0.00 0.00 0.00 0.00 0.00 0.00 0.00 0.00 0.00 0.00 0.00 0.00 0.00 0.00 0.00 0.00 0.00 0.00 0.00 0.00 0.00 0.00 0.00 0.00 0.00 0.00 0.00 0.00
0.17 0.21 0.19 0.22 0.16 0.14 0.10 0.08 0.03 0.01 0.00 0.00 0.00 0.00 0.00 0.00 0.00 0.00 0.00 0.00 0.00 0.00 0.00 0.00 0.00 0.00 0.00 0.00 0.00 0.00 0.00 0.00 0.00 0.00 0.00 0.00 0.00 0.00 0.00 0.00 0.00 0.00 0.01
0.11 0.11 0.14 0.14 0.15 0.14 0.14 0.13 0.11 0.08 0.04 0.02 0.02 0.01 0.00 0.00 0.00 0.00 0.00 0.00 0.00 0.00 0.00 0.00 0.00 0.00 0.00 0.00 0.00 0.00 0.00 0.00 0.00 0.00 0.00 0.00 0.00 0.00 0.01 0.00 0.00 0.02 0.04
0.07 0.07 0.11 0.11 0.11 0.14 0.19 0.19 0.15 0.11 0.08 0.05 0.03 0.02 0.01 0.00 0.00 0.00 0.00 0.00 0.00 0.00 0.00 0.00 0.00 0.00 0.00 0.00 0.00 0.00 0.00 0.00 0.00 0.00 0.00 0.00 0.00 0.00 0.00 0.00 0.00 0.02 0.05
0.07 0.09 0.12 0.13 0.15 0.16 0.15 0.15 0.14 0.13 0.09 0.07 0.05 0.04 0.02 0.01 0.00 0.00 0.00 0.00 0.00 0.00 0.00 0.00 0.00 0.00 0.00 0.00 0.00 0.00 0.00 0.00 0.00 0.00 0.00 0.00 0.00 0.00 0.00 0.00 0.02 0.03 0.05
0.07 0.08 0.09 0.11 0.14 0.16 0.16 0.17 0.16 0.15 0.12 0.08 0.05 0.03 0.01 0.01 0.01 0.00 0.00 0.00 0.00 0.00 0.00 0.00 0.00 0.00 0.00 0.00 0.00 0.00 0.00 0.00 0.00 0.00 0.00 0.00 0.00 0.01 0.01 0.01 0.02 0.03 0.03
0.05 0.06 0.08 0.09 0.10 0.13 0.15 0.16 0.14 0.13 0.11 0.08 0.05 0.03 0.01 0.01 0.00 0.00 0.00 0.00 0.00 0.01 0.00 0.00 0.00 0.00 0.00 0.00 0.00 0.00 0.00 0.00 0.00 0.00 0.01 0.01 0.01 0.00 0.01 0.01 0.01 0.02 0.05
0.04 0.05 0.08 0.08 0.07 0.06 0.07 0.11 0.12 0.09 0.08 0.08 0.07 0.08 0.08 0.06 0.02 0.01 0.02 0.02 0.03 0.04 0.05 0.04 0.01 0.01 0.01 0.01 0.01 0.00 0.00 0.00 0.00 0.01 0.01 0.00 0.00 0.00 0.01 0.01 0.03 0.04 0.06
0.05 0.06 0.07 0.05 0.04 0.03 0.03 0.04 0.06 0.08 0.07 0.08 0.10 0.10 0.09 0.08 0.10 0.12 0.12 0.12 0.12 0.10 0.07 0.08 0.06 0.07 0.05 0.03 0.01 0.00 0.00 0.00 0.00 0.00 0.00 0.00 0.00 0.00 0.01 0.02 0.04 0.07 0.12
0.08 0.07 0.05 0.04 0.03 0.04 0.03 0.03 0.05 0.08 0.08 0.10 0.12 0.12 0.12 0.12 0.14 0.12 0.12 0.14 0.15 0.15 0.14 0.11 0.05 0.02 0.03 0.03 0.03 0.01 0.00 0.00 0.00 0.00 0.00 0.00 0.00 0.00 0.01 0.03 0.05 0.07 0.07
0.07 0.06 0.08 0.08 0.07 0.06 0.07 0.11 0.14 0.14 0.15 0.15 0.15 0.16 0.16 0.15 0.15 0.17 0.21 0.23 0.21 0.16 0.09 0.05 0.09 0.07 0.06 0.04 0.02 0.00 0.00 0.00 0.00 0.00 0.00 0.00 0.00 0.00 0.00 0.00 0.00 0.00 0.00
0.06 0.04 0.08 0.15 0.17 0.16 0.15 0.12 0.11 0.12 0.14 0.15 0.16 0.18 0.20 0.22 0.27 0.27 0.20 0.16 0.12 0.10 0.15 0.22 0.15 0.13 0.07 0.00 0.00 0.00 0.00 0.01 0.01 0.00 0.00 0.00 0.00 0.00 0.00 0.00 0.00 0.00 0.00
0.08 0.12 0.11 0.11 0.14 0.18 0.32 0.25 0.16 0.14 0.15 0.17 0.21 0.25 0.28 0.29 0.24 0.18 0.11 0.08 0.09 0.20 0.23 0.21 0.16 0.05 0.00 0.00 0.00 0.02 0.06 0.06 0.06 0.00 0.00 0.00 0.00 0.00 0.00 0.00 0.00 0.01 0.01
0.24 0.23 0.22 0.25 0.24 0.22 0.28 0.25 0.31 0.34 0.39 0.40 0.36 0.31 0.25 0.19 0.15 0.12 0.09 0.12 0.16 0.12 0.09 0.06 0.01 0.00 0.01 0.03 0.10 0.10 0.08 0.11 0.06 0.00 0.02 0.02 0.00 0.00 0.00 0.00 0.00 0.00 0.01
0.46 0.53 0.55 0.57 0.63 0.70 0.72 0.62 0.48 0.37 0.34 0.31 0.24 0.19 0.15 0.10 0.06 0.03 0.09 0.16 0.06 0.02 0.00 0.00 0.00 0.01 0.04 0.04 0.07 0.17 0.10 0.07 0.02 0.00 0.00 0.04 0.00 0.00 0.00 0.00 0.00 0.00 0.00
0.77 0.77 0.67 0.54 0.57 0.63 0.56 0.39 0.30 0.20 0.13 0.09 0.06 0.03 0.01 0.01 0.01 0.06 0.08 0.04 0.00 0.00 0.00 0.01 0.02 0.02 0.01 0.01 0.00 0.06 0.07 0.07 0.05 0.00 0.00 0.01 0.00 0.00 0.00 0.00 0.00 0.00 0.00
0.65 0.58 0.62 0.56 0.45 0.35 0.23 0.14 0.07 0.05 0.02 0.00 0.00 0.00 0.00 0.01 0.04 0.08 0.03 0.00 0.00 0.00 0.05 0.02 0.00 0.00 0.00 0.00 0.00 0.01 0.07 0.25 0.14 0.13 0.00 0.14 0.07 0.05 0.20 0.01 0.00 0.00 0.00

GFSMA_prec_precacc_039.txt.gz
Total_Precipitation_Accumulation
0.00 0.00 0.00 0.00 0.00 0.00 0.00 0.00 0.00 0.00 0.00 0.00 0.00 0.00 0.00 0.00 0.00 0.00 0.00 0.00 0.00 0.00 0.00 0.00 0.00 0.00 0.00 0.00 0.01 0.04 0.04 0.03 0.02 0.03 0.04 0.04 0.04 0.02 0.02 0.04 0.06 0.07 0.08
0.00 0.00 0.00 0.00 0.00 0.00 0.00 0.00 0.00 0.00 0.00 0.00 0.00 0.00 0.00 0.00 0.00 0.00 0.00 0.00 0.00 0.00 0.00 0.00 0.00 0.00 0.00 0.00 0.00 0.00 0.00 0.00 0.00 0.01 0.01 0.01 0.01 0.02 0.01 0.03 0.05 0.06 0.07
0.00 0.00 0.00 0.00 0.00 0.00 0.00 0.00 0.00 0.00 0.00 0.00 0.00 0.00 0.00 0.00 0.00 0.00 0.00 0.00 0.00 0.00 0.00 0.00 0.00 0.00 0.00 0.00 0.00 0.00 0.00 0.00 0.00 0.00 0.00 0.00 0.00 0.00 0.00 0.00 0.01 0.03 0.05
0.00 0.00 0.00 0.00 0.00 0.00 0.00 0.00 0.00 0.00 0.00 0.00 0.00 0.00 0.00 0.00 0.00 0.00 0.00 0.00 0.00 0.00 0.00 0.00 0.00 0.00 0.00 0.00 0.00 0.00 0.00 0.00 0.00 0.00 0.00 0.00 0.00 0.00 0.00 0.00 0.00 0.00 0.00
0.00 0.00 0.00 0.00 0.00 0.00 0.00 0.00 0.00 0.00 0.00 0.00 0.00 0.00 0.00 0.00 0.00 0.00 0.00 0.00 0.00 0.00 0.00 0.00 0.00 0.00 0.00 0.00 0.00 0.00 0.00 0.00 0.00 0.00 0.00 0.00 0.00 0.00 0.00 0.00 0.00 0.00 0.00
0.02 0.01 0.00 0.00 0.00 0.00 0.00 0.00 0.00 0.00 0.00 0.00 0.00 0.00 0.00 0.00 0.00 0.00 0.00 0.00 0.00 0.00 0.00 0.00 0.00 0.00 0.00 0.00 0.00 0.00 0.00 0.00 0.00 0.00 0.00 0.00 0.00 0.00 0.00 0.00 0.00 0.00 0.00
0.07 0.06 0.03 0.00 0.00 0.00 0.00 0.00 0.00 0.00 0.00 0.00 0.00 0.00 0.00 0.00 0.00 0.00 0.00 0.00 0.00 0.00 0.00 0.00 0.00 0.00 0.00 0.00 0.00 0.00 0.00 0.00 0.00 0.00 0.00 0.00 0.00 0.00 0.00 0.00 0.00 0.00 0.00
0.08 0.03 0.03 0.05 0.01 0.00 0.00 0.00 0.00 0.00 0.00 0.00 0.00 0.00 0.00 0.00 0.00 0.00 0.00 0.00 0.00 0.00 0.00 0.00 0.00 0.00 0.00 0.00 0.00 0.00 0.00 0.00 0.00 0.00 0.00 0.00 0.00 0.00 0.00 0.00 0.00 0.00 0.00
0.10 0.03 0.09 0.10 0.08 0.03 0.01 0.01 0.00 0.00 0.00 0.00 0.00 0.00 0.00 0.00 0.00 0.00 0.00 0.00 0.00 0.00 0.00 0.00 0.00 0.00 0.00 0.00 0.00 0.00 0.00 0.00 0.00 0.00 0.00 0.00 0.00 0.00 0.00 0.00 0.00 0.00 0.00
0.17 0.15 0.12 0.17 0.19 0.07 0.02 0.02 0.02 0.02 0.01 0.01 0.00 0.00 0.00 0.00 0.00 0.00 0.00 0.00 0.00 0.00 0.00 0.00 0.00 0.00 0.00 0.00 0.00 0.00 0.00 0.00 0.00 0.00 0.00 0.00 0.00 0.00 0.00 0.00 0.00 0.00 0.00
0.17 0.22 0.19 0.24 0.19 0.16 0.15 0.11 0.04 0.05 0.03 0.01 0.01 0.00 0.00 0.00 0.00 0.00 0.00 0.00 0.00 0.00 0.00 0.00 0.00 0.00 0.00 0.00 0.00 0.00 0.00 0.00 0.00 0.00 0.00 0.00 0.00 0.00 0.00 0.00 0.00 0.00 0.01
0.11 0.11 0.15 0.14 0.17 0.19 0.19 0.17 0.17 0.12 0.09 0.05 0.04 0.01 0.01 0.00 0.00 0.00 0.00 0.00 0.00 0.00 0.00 0.00 0.00 0.00 0.00 0.00 0.00 0.00 0.00 0.00 0.00 0.00 0.00 0.00 0.00 0.00 0.01 0.00 0.00 0.02 0.04
0.07 0.07 0.11 0.12 0.11 0.14 0.21 0.23 0.20 0.15 0.14 0.10 0.06 0.04 0.03 0.02 0.01 0.01 0.00 0.00 0.00 0.00 0.00 0.00 0.00 0.00 0.00 0.00 0.00 0.00 0.00 0.00 0.00 0.00 0.00 0.00 0.00 0.00 0.00 0.00 0.00 0.02 0.05
0.07 0.09 0.12 0.13 0.15 0.16 0.16 0.16 0.15 0.16 0.15 0.13 0.11 0.10 0.07 0.04 0.03 0.04 0.04 0.00 0.00 0.00 0.00 0.00 0.00 0.00 0.00 0.00 0.00 0.00 0.00 0.00 0.00 0.00 0.00 0.00 0.00 0.00 0.00 0.00 0.02 0.03 0.05
0.07 0.08 0.10 0.11 0.14 0.16 0.16 0.18 0.17 0.17 0.16 0.14 0.13 0.11 0.07 0.04 0.03 0.01 0.01 0.01 0.01 0.02 0.02 0.00 0.00 0.00 0.00 0.00 0.00 0.00 0.00 0.00 0.00 0.00 0.00 0.00 0.00 0.01 0.01 0.01 0.02 0.03 0.03
0.05 0.06 0.08 0.09 0.11 0.14 0.16 0.18 0.16 0.16 0.14 0.13 0.13 0.12 0.08 0.06 0.04 0.02 0.03 0.03 0.03 0.04 0.05 0.03 0.02 0.02 0.01 0.01 0.01 0.01 0.00 0.00 0.00 0.00 0.01 0.01 0.01 0.00 0.01 0.01 0.01 0.02 0.05
0.04 0.05 0.08 0.09 0.08 0.07 0.08 0.13 0.15 0.15 0.16 0.14 0.13 0.15 0.17 0.23 0.32 0.40 0.41 0.36 0.29 0.18 0.12 0.11 0.07 0.05 0.04 0.05 0.05 0.03 0.01 0.01 0.00 0.01 0.01 0.00 0.00 0.00 0.01 0.01 0.03 0.04 0.06
0.05 0.06 0.07 0.06 0.05 0.04 0.04 0.05 0.09 0.12 0.14 0.14 0.15 0.14 0.12 0.11 0.15 0.19 0.20 0.20 0.18 0.16 0.16 0.19 0.17 0.19 0.18 0.15 0.08 0.04 0.01 0.00 0.00 0.00 0.00 0.00 0.00 0.00 0.01 0.02 0.04 0.07 0.12
0.08 0.07 0.05 0.05 0.05 0.05 0.04 0.04 0.06 0.10 0.12 0.14 0.15 0.15 0.14 0.14 0.17 0.19 0.20 0.23 0.24 0.25 0.26 0.24 0.18 0.11 0.07 0.05 0.05 0.01 0.01 0.00 0.00 0.00 0.00 0.00 0.00 0.00 0.01 0.03 0.05 0.07 0.07
0.07 0.06 0.08 0.08 0.07 0.06 0.07 0.11 0.14 0.16 0.16 0.17 0.18 0.19 0.18 0.18 0.19 0.22 0.28 0.31 0.30 0.24 0.18 0.13 0.15 0.10 0.07 0.05 0.03 0.01 0.00 0.00 0.00 0.00 0.00 0.00 0.00 0.00 0.00 0.00 0.00 0.00 0.00
0.06 0.04 0.08 0.15 0.17 0.17 0.16 0.13 0.11 0.12 0.15 0.19 0.20 0.23 0.24 0.28 0.33 0.32 0.27 0.22 0.19 0.19 0.24 0.29 0.18 0.14 0.07 0.01 0.00 0.00 0.00 0.01 0.01 0.00 0.00 0.00 0.00 0.00 0.00 0.00 0.00 0.00 0.00
0.08 0.12 0.11 0.11 0.14 0.18 0.33 0.26 0.17 0.15 0.16 0.20 0.23 0.29 0.35 0.44 0.35 0.24 0.17 0.12 0.12 0.22 0.24 0.22 0.16 0.05 0.00 0.00 0.00 0.02 0.06 0.06 0.06 0.00 0.00 0.00 0.00 0.00 0.00 0.00 0.00 0.01 0.01
0.24 0.23 0.22 0.26 0.25 0.23 0.30 0.26 0.32 0.35 0.42 0.44 0.40 0.35 0.31 0.26 0.22 0.18 0.14 0.15 0.18 0.14 0.10 0.06 0.01 0.00 0.01 0.03 0.10 0.10 0.08 0.11 0.06 0.00 0.02 0.02 0.00 0.00 0.00 0.00 0.00 0.00 0.01
0.46 0.54 0.56 0.58 0.64 0.74 0.77 0.66 0.52 0.41 0.40 0.39 0.34 0.28 0.22 0.15 0.07 0.04 0.09 0.16 0.06 0.02 0.00 0.00 0.00 0.01 0.04 0.04 0.07 0.17 0.10 0.07 0.02 0.00 0.00 0.04 0.00 0.00 0.00 0.00 0.00 0.00 0.00
0.78 0.78 0.68 0.55 0.59 0.70 0.65 0.49 0.44 0.38 0.26 0.15 0.08 0.03 0.01 0.01 0.01 0.06 0.08 0.04 0.00 0.00 0.00 0.01 0.02 0.02 0.01 0.01 0.00 0.06 0.07 0.07 0.05 0.00 0.00 0.01 0.00 0.00 0.00 0.00 0.00 0.00 0.00
0.65 0.58 0.63 0.60 0.50 0.43 0.31 0.19 0.10 0.07 0.04 0.01 0.00 0.00 0.00 0.01 0.04 0.08 0.03 0.00 0.00 0.00 0.05 0.02 0.00 0.00 0.00 0.00 0.00 0.01 0.07 0.25 0.14 0.13 0.00 0.14 0.07 0.05 0.20 0.01 0.00 0.00 0.00

GFSMA_prec_precacc_042.txt.gz
Total_Precipitation_Accumulation
0.00 0.00 0.00 0.00 0.00 0.00 0.00 0.00 0.00 0.00 0.00 0.00 0.00 0.00 0.00 0.00 0.00 0.00 0.00 0.00 0.00 0.00 0.00 0.00 0.00 0.00 0.00 0.00 0.01 0.04 0.04 0.03 0.02 0.03 0.04 0.04 0.04 0.02 0.02 0.04 0.06 0.07 0.08
0.00 0.00 0.00 0.00 0.00 0.00 0.00 0.00 0.00 0.00 0.00 0.00 0.00 0.00 0.00 0.00 0.00 0.00 0.00 0.00 0.00 0.00 0.00 0.00 0.00 0.00 0.00 0.00 0.00 0.00 0.00 0.00 0.00 0.01 0.01 0.01 0.01 0.02 0.01 0.03 0.05 0.06 0.07
0.00 0.00 0.00 0.00 0.00 0.00 0.00 0.00 0.00 0.00 0.00 0.00 0.00 0.00 0.00 0.00 0.00 0.00 0.00 0.00 0.00 0.00 0.00 0.00 0.00 0.00 0.00 0.00 0.00 0.00 0.00 0.00 0.00 0.00 0.00 0.00 0.00 0.00 0.00 0.00 0.01 0.03 0.05
0.00 0.00 0.00 0.00 0.00 0.00 0.00 0.00 0.00 0.00 0.00 0.00 0.00 0.00 0.00 0.00 0.00 0.00 0.00 0.00 0.00 0.00 0.00 0.00 0.00 0.00 0.00 0.00 0.00 0.00 0.00 0.00 0.00 0.00 0.00 0.00 0.00 0.00 0.00 0.00 0.00 0.00 0.00
0.00 0.00 0.00 0.00 0.00 0.00 0.00 0.00 0.00 0.00 0.00 0.00 0.00 0.00 0.00 0.00 0.00 0.00 0.00 0.00 0.00 0.00 0.00 0.00 0.00 0.00 0.00 0.00 0.00 0.00 0.00 0.00 0.00 0.00 0.00 0.00 0.00 0.00 0.00 0.00 0.00 0.00 0.00
0.02 0.01 0.00 0.00 0.00 0.00 0.00 0.00 0.00 0.00 0.00 0.00 0.00 0.00 0.00 0.00 0.00 0.00 0.00 0.00 0.00 0.00 0.00 0.00 0.00 0.00 0.00 0.00 0.00 0.00 0.00 0.00 0.00 0.00 0.00 0.00 0.00 0.00 0.00 0.00 0.00 0.00 0.00
0.08 0.08 0.04 0.01 0.00 0.00 0.00 0.00 0.00 0.00 0.00 0.00 0.00 0.00 0.00 0.00 0.00 0.00 0.00 0.00 0.00 0.00 0.00 0.00 0.00 0.00 0.00 0.00 0.00 0.00 0.00 0.00 0.00 0.00 0.00 0.00 0.00 0.00 0.00 0.00 0.00 0.00 0.00
0.10 0.05 0.07 0.09 0.02 0.00 0.00 0.00 0.00 0.00 0.00 0.00 0.00 0.00 0.00 0.00 0.00 0.00 0.00 0.00 0.00 0.00 0.00 0.00 0.00 0.00 0.00 0.00 0.00 0.00 0.00 0.00 0.00 0.00 0.00 0.00 0.00 0.00 0.00 0.00 0.00 0.00 0.00
0.15 0.05 0.11 0.15 0.15 0.06 0.02 0.03 0.02 0.01 0.01 0.00 0.00 0.00 0.00 0.00 0.00 0.00 0.00 0.00 0.00 0.00 0.00 0.00 0.00 0.00 0.00 0.00 0.00 0.00 0.00 0.00 0.00 0.00 0.00 0.00 0.00 0.00 0.00 0.00 0.00 0.00 0.00
0.18 0.16 0.15 0.20 0.24 0.16 0.08 0.05 0.07 0.05 0.01 0.01 0.01 0.00 0.00 0.00 0.00 0.00 0.00 0.00 0.00 0.00 0.00 0.00 0.00 0.00 0.00 0.00 0.00 0.00 0.00 0.00 0.00 0.00 0.00 0.00 0.00 0.00 0.00 0.00 0.00 0.00 0.00
0.17 0.22 0.20 0.26 0.21 0.19 0.23 0.20 0.11 0.08 0.05 0.02 0.04 0.03 0.01 0.00 0.00 0.00 0.00 0.00 0.00 0.00 0.00 0.00 0.00 0.00 0.00 0.00 0.00 0.00 0.00 0.00 0.00 0.00 0.00 0.00 0.00 0.00 0.00 0.00 0.00 0.00 0.01
0.12 0.11 0.15 0.14 0.17 0.20 0.22 0.21 0.24 0.16 0.12 0.09 0.06 0.04 0.04 0.04 0.02 0.01 0.00 0.00 0.00 0.00 0.00 0.00 0.00 0.00 0.00 0.00 0.00 0.00 0.00 0.00 0.00 0.00 0.00 0.00 0.00 0.00 0.01 0.00 0.00 0.02 0.04
0.08 0.09 0.13 0.12 0.12 0.15 0.22 0.26 0.23 0.17 0.16 0.13 0.09 0.09 0.08 0.07 0.05 0.04 0.03 0.02 0.02 0.02 0.01 0.01 0.00 0.00 0.00 0.00 0.00 0.00 0.00 0.00 0.00 0.00 0.00 0.00 0.00 0.00 0.00 0.00 0.00 0.02 0.05
0.07 0.10 0.15 0.15 0.16 0.17 0.17 0.17 0.17 0.18 0.17 0.16 0.15 0.13 0.12 0.11 0.09 0.10 0.13 0.13 0.10 0.06 0.03 0.02 0.01 0.00 0.00 0.00 0.00 0.00 0.00 0.00 0.00 0.00 0.00 0.00 0.00 0.00 0.00 0.00 0.02 0.03 0.05
0.07 0.08 0.11 0.14 0.14 0.16 0.17 0.20 0.19 0.20 0.20 0.18 0.18 0.16 0.12 0.10 0.09 0.09 0.09 0.08 0.08 0.09 0.08 0.07 0.08 0.07 0.03 0.03 0.02 0.01 0.00 0.00 0.00 0.00 0.00 0.00 0.00 0.01 0.01 0.01 0.02 0.03 0.03
0.05 0.06 0.08 0.09 0.11 0.15 0.18 0.21 0.18 0.20 0.21 0.21 0.20 0.20 0.15 0.11 0.12 0.11 0.09 0.07 0.11 0.18 0.26 0.26 0.24 0.20 0.14 0.07 0.02 0.01 0.01 0.01 0.01 0.01 0.01 0.01 0.01 0.00 0.01 0.01 0.01 0.02 0.05
0.04 0.05 0.08 0.09 0.08 0.08 0.10 0.16 0.18 0.18 0.22 0.21 0.20 0.23 0.23 0.28 0.36 0.45 0.49 0.55 0.63 0.71 0.74 0.64 0.37 0.20 0.11 0.07 0.06 0.07 0.05 0.05 0.02 0.02 0.01 0.00 0.00 0.00 0.01 0.01 0.03 0.04 0.06
0.05 0.06 0.07 0.06 0.05 0.04 0.04 0.06 0.10 0.14 0.16 0.18 0.18 0.19 0.16 0.14 0.18 0.21 0.22 0.26 0.33 0.39 0.46 0.49 0.40 0.34 0.29 0.20 0.13 0.07 0.02 0.00 0.00 0.00 0.00 0.00 0.00 0.00 0.01 0.02 0.04 0.07 0.12
0.08 0.07 0.05 0.05 0.06 0.05 0.05 0.04 0.06 0.11 0.13 0.15 0.16 0.17 0.17 0.16 0.19 0.22 0.24 0.28 0.32 0.36 0.38 0.39 0.33 0.23 0.17 0.12 0.08 0.02 0.01 0.00 0.00 0.00 0.00 0.00 0.00 0.00 0.01 0.03 0.05 0.07 0.07
0.07 0.06 0.08 0.08 0.07 0.06 0.08 0.11 0.14 0.16 0.16 0.17 0.18 0.20 0.19 0.20 0.21 0.25 0.30 0.34 0.33 0.28 0.22 0.18 0.19 0.14 0.10 0.06 0.03 0.01 0.00 0.00 0.00 0.00 0.00 0.00 0.00 0.00 0.00 0.00 0.00 0.00 0.00
0.06 0.04 0.08 0.15 0.17 0.17 0.16 0.13 0.11 0.12 0.15 0.19 0.21 0.23 0.26 0.32 0.36 0.35 0.30 0.27 0.24 0.24 0.28 0.30 0.20 0.15 0.08 0.01 0.00 0.00 0.00 0.01 0.01 0.00 0.00 0.00 0.00 0.00 0.00 0.00 0.00 0.00 0.00
0.08 0.12 0.11 0.11 0.14 0.18 0.33 0.26 0.17 0.15 0.17 0.21 0.26 0.31 0.38 0.48 0.42 0.35 0.24 0.17 0.15 0.24 0.25 0.22 0.17 0.05 0.00 0.00 0.00 0.02 0.06 0.06 0.06 0.00 0.00 0.00 0.00 0.00 0.00 0.00 0.00 0.01 0.01
0.24 0.23 0.22 0.26 0.25 0.23 0.31 0.27 0.33 0.36 0.42 0.46 0.47 0.41 0.34 0.29 0.26 0.22 0.18 0.19 0.22 0.15 0.11 0.06 0.01 0.00 0.01 0.03 0.10 0.10 0.08 0.11 0.06 0.00 0.02 0.02 0.00 0.00 0.00 0.00 0.00 0.00 0.01
0.46 0.54 0.56 0.58 0.64 0.75 0.78 0.67 0.53 0.44 0.45 0.47 0.42 0.37 0.30 0.21 0.13 0.07 0.11 0.16 0.07 0.02 0.00 0.00 0.00 0.01 0.04 0.04 0.07 0.17 0.10 0.07 0.02 0.00 0.00 0.04 0.00 0.00 0.00 0.00 0.00 0.00 0.00
0.78 0.78 0.68 0.55 0.59 0.70 0.65 0.49 0.44 0.39 0.29 0.19 0.14 0.07 0.03 0.03 0.02 0.06 0.08 0.04 0.00 0.00 0.00 0.01 0.02 0.02 0.01 0.01 0.00 0.06 0.07 0.07 0.05 0.00 0.00 0.01 0.00 0.00 0.00 0.00 0.00 0.00 0.00
0.65 0.58 0.63 0.60 0.50 0.43 0.31 0.19 0.10 0.08 0.05 0.02 0.00 0.00 0.00 0.01 0.04 0.08 0.03 0.00 0.00 0.00 0.05 0.02 0.00 0.00 0.00 0.00 0.00 0.01 0.07 0.25 0.14 0.13 0.00 0.14 0.07 0.05 0.20 0.01 0.00 0.00 0.00

GFSMA_prec_precacc_045.txt.gz
Total_Precipitation_Accumulation
0.00 0.00 0.00 0.00 0.00 0.00 0.00 0.00 0.00 0.00 0.00 0.00 0.00 0.00 0.00 0.00 0.00 0.00 0.00 0.00 0.00 0.00 0.00 0.00 0.00 0.00 0.00 0.00 0.01 0.04 0.04 0.03 0.02 0.03 0.04 0.04 0.04 0.02 0.02 0.04 0.06 0.07 0.08
0.00 0.00 0.00 0.00 0.00 0.00 0.00 0.00 0.00 0.00 0.00 0.00 0.00 0.00 0.00 0.00 0.00 0.00 0.00 0.00 0.00 0.00 0.00 0.00 0.00 0.00 0.00 0.00 0.00 0.00 0.00 0.00 0.00 0.01 0.01 0.01 0.01 0.02 0.01 0.03 0.05 0.06 0.07
0.00 0.00 0.00 0.00 0.00 0.00 0.00 0.00 0.00 0.00 0.00 0.00 0.00 0.00 0.00 0.00 0.00 0.00 0.00 0.00 0.00 0.00 0.00 0.00 0.00 0.00 0.00 0.00 0.00 0.00 0.00 0.00 0.00 0.00 0.00 0.00 0.00 0.00 0.00 0.00 0.01 0.03 0.05
0.00 0.00 0.00 0.00 0.00 0.00 0.00 0.00 0.00 0.00 0.00 0.00 0.00 0.00 0.00 0.00 0.00 0.00 0.00 0.00 0.00 0.00 0.00 0.00 0.00 0.00 0.00 0.00 0.00 0.00 0.00 0.00 0.00 0.00 0.00 0.00 0.00 0.00 0.00 0.00 0.00 0.00 0.00
0.00 0.00 0.00 0.00 0.00 0.00 0.00 0.00 0.00 0.00 0.00 0.00 0.00 0.00 0.00 0.00 0.00 0.00 0.00 0.00 0.00 0.00 0.00 0.00 0.00 0.00 0.00 0.00 0.00 0.00 0.00 0.00 0.00 0.00 0.00 0.00 0.00 0.00 0.00 0.00 0.00 0.00 0.00
0.02 0.01 0.00 0.00 0.00 0.00 0.00 0.00 0.00 0.00 0.00 0.00 0.00 0.00 0.00 0.00 0.00 0.00 0.00 0.00 0.00 0.00 0.00 0.00 0.00 0.00 0.00 0.00 0.00 0.00 0.00 0.00 0.00 0.00 0.00 0.00 0.00 0.00 0.00 0.00 0.00 0.00 0.00
0.09 0.09 0.05 0.02 0.00 0.00 0.00 0.00 0.00 0.00 0.00 0.00 0.00 0.00 0.00 0.00 0.00 0.00 0.00 0.00 0.00 0.00 0.00 0.00 0.00 0.00 0.00 0.00 0.00 0.00 0.00 0.00 0.00 0.00 0.00 0.00 0.00 0.00 0.00 0.00 0.00 0.00 0.00
0.15 0.08 0.08 0.10 0.04 0.01 0.00 0.00 0.01 0.01 0.00 0.01 0.01 0.00 0.00 0.00 0.00 0.00 0.00 0.00 0.00 0.00 0.00 0.00 0.00 0.00 0.00 0.00 0.00 0.00 0.00 0.00 0.00 0.00 0.00 0.00 0.00 0.00 0.00 0.00 0.00 0.00 0.00
0.17 0.11 0.16 0.18 0.19 0.11 0.04 0.05 0.09 0.08 0.05 0.04 0.02 0.01 0.00 0.00 0.00 0.00 0.00 0.00 0.00 0.00 0.00 0.00 0.00 0.00 0.00 0.00 0.00 0.00 0.00 0.00 0.00 0.00 0.00 0.00 0.00 0.00 0.00 0.00 0.00 0.00 0.00
0.18 0.17 0.17 0.25 0.29 0.21 0.14 0.09 0.14 0.12 0.07 0.05 0.04 0.01 0.01 0.00 0.00 0.00 0.00 0.00 0.00 0.00 0.00 0.00 0.00 0.00 0.00 0.00 0.00 0.00 0.00 0.00 0.00 0.00 0.00 0.00 0.00 0.00 0.00 0.00 0.00 0.00 0.00
0.18 0.22 0.20 0.27 0.26 0.24 0.26 0.28 0.20 0.16 0.10 0.08 0.09 0.07 0.04 0.02 0.00 0.00 0.01 0.02 0.01 0.01 0.00 0.00 0.00 0.00 0.00 0.00 0.00 0.00 0.00 0.00 0.00 0.00 0.00 0.00 0.00 0.00 0.00 0.00 0.00 0.00 0.01
0.12 0.12 0.15 0.15 0.20 0.24 0.27 0.25 0.29 0.21 0.16 0.13 0.10 0.10 0.10 0.10 0.06 0.03 0.03 0.04 0.03 0.02 0.00 0.00 0.00 0.00 0.00 0.00 0.00 0.00 0.00 0.00 0.00 0.00 0.00 0.00 0.00 0.00 0.01 0.00 0.00 0.02 0.04
0.08 0.11 0.16 0.16 0.16 0.18 0.26 0.32 0.29 0.24 0.24 0.19 0.14 0.13 0.13 0.14 0.11 0.09 0.08 0.07 0.07 0.05 0.03 0.01 0.01 0.00 0.00 0.00 0.00 0.00 0.00 0.00 0.00 0.00 0.00 0.00 0.00 0.00 0.00 0.00 0.00 0.02 0.05
0.07 0.10 0.16 0.16 0.18 0.19 0.18 0.20 0.21 0.24 0.25 0.24 0.22 0.21 0.18 0.17 0.16 0.16 0.19 0.19 0.15 0.09 0.05 0.03 0.03 0.03 0.03 0.02 0.02 0.00 0.00 0.01 0.01 0.03 0.02 0.02 0.01 0.00 0.00 0.00 0.02 0.03 0.05
0.07 0.08 0.11 0.14 0.15 0.18 0.20 0.22 0.20 0.22 0.26 0.25 0.25 0.25 0.19 0.15 0.16 0.14 0.15 0.15 0.15 0.14 0.12 0.11 0.13 0.15 0.17 0.19 0.22 0.20 0.21 0.20 0.17 0.12 0.06 0.03 0.01 0.01 0.01 0.01 0.02 0.03 0.03
0.05 0.06 0.08 0.09 0.11 0.15 0.18 0.21 0.19 0.22 0.24 0.28 0.28 0.28 0.23 0.17 0.17 0.16 0.14 0.12 0.17 0.26 0.39 0.38 0.43 0.48 0.47 0.42 0.39 0.32 0.26 0.19 0.12 0.07 0.04 0.03 0.01 0.00 0.01 0.01 0.01 0.02 0.05
0.04 0.05 0.08 0.09 0.08 0.08 0.10 0.16 0.19 0.19 0.24 0.24 0.23 0.28 0.30 0.34 0.42 0.51 0.57 0.64 0.71 0.76 0.79 0.72 0.57 0.47 0.40 0.33 0.30 0.21 0.14 0.08 0.05 0.05 0.03 0.01 0.00 0.00 0.01 0.01 0.03 0.04 0.06
0.05 0.06 0.07 0.06 0.05 0.04 0.04 0.06 0.10 0.14 0.16 0.18 0.19 0.19 0.17 0.15 0.19 0.24 0.26 0.31 0.41 0.48 0.55 0.59 0.49 0.44 0.39 0.31 0.23 0.15 0.07 0.04 0.02 0.02 0.01 0.00 0.00 0.00 0.01 0.02 0.04 0.07 0.12
0.08 0.07 0.05 0.05 0.06 0.05 0.05 0.04 0.06 0.11 0.13 0.16 0.17 0.17 0.18 0.17 0.21 0.24 0.27 0.32 0.39 0.45 0.49 0.52 0.47 0.37 0.30 0.20 0.14 0.06 0.02 0.01 0.00 0.00 0.00 0.00 0.00 0.00 0.01 0.03 0.05 0.07 0.07
0.07 0.06 0.08 0.08 0.07 0.06 0.08 0.11 0.14 0.16 0.16 0.17 0.18 0.20 0.20 0.20 0.21 0.26 0.31 0.36 0.37 0.35 0.32 0.31 0.32 0.17 0.12 0.07 0.04 0.02 0.00 0.00 0.00 0.00 0.00 0.00 0.00 0.00 0.00 0.00 0.00 0.00 0.00
0.06 0.04 0.08 0.15 0.17 0.17 0.16 0.13 0.11 0.12 0.15 0.19 0.21 0.23 0.26 0.32 0.37 0.36 0.32 0.29 0.25 0.25 0.29 0.32 0.21 0.16 0.09 0.02 0.01 0.00 0.00 0.01 0.01 0.00 0.00 0.00 0.00 0.00 0.00 0.00 0.00 0.00 0.00
0.08 0.12 0.11 0.11 0.14 0.18 0.33 0.26 0.17 0.15 0.17 0.21 0.26 0.33 0.41 0.49 0.44 0.39 0.29 0.19 0.17 0.25 0.27 0.23 0.17 0.05 0.00 0.00 0.00 0.02 0.06 0.06 0.06 0.00 0.00 0.00 0.00 0.00 0.00 0.00 0.00 0.01 0.01
0.24 0.23 0.22 0.26 0.25 0.23 0.31 0.27 0.33 0.36 0.42 0.47 0.48 0.44 0.36 0.33 0.30 0.25 0.21 0.21 0.23 0.16 0.11 0.06 0.01 0.00 0.01 0.03 0.10 0.10 0.08 0.11 0.06 0.00 0.02 0.02 0.00 0.00 0.00 0.00 0.00 0.00 0.01
0.46 0.54 0.56 0.58 0.64 0.76 0.78 0.67 0.53 0.44 0.45 0.47 0.44 0.39 0.32 0.26 0.18 0.13 0.16 0.19 0.07 0.02 0.00 0.00 0.00 0.01 0.04 0.04 0.07 0.17 0.10 0.07 0.02 0.00 0.00 0.04 0.00 0.00 0.00 0.00 0.00 0.00 0.00
0.78 0.78 0.68 0.55 0.59 0.70 0.65 0.49 0.44 0.39 0.29 0.19 0.14 0.07 0.03 0.03 0.03 0.06 0.08 0.04 0.00 0.00 0.00 0.01 0.02 0.02 0.01 0.01 0.00 0.06 0.07 0.07 0.05 0.00 0.00 0.01 0.00 0.00 0.00 0.00 0.00 0.00 0.00
0.65 0.58 0.63 0.60 0.50 0.43 0.31 0.19 0.10 0.08 0.05 0.02 0.00 0.00 0.00 0.01 0.04 0.08 0.03 0.00 0.00 0.00 0.05 0.02 0.00 0.00 0.00 0.00 0.00 0.01 0.07 0.25 0.14 0.13 0.00 0.14 0.07 0.05 0.20 0.01 0.00 0.00 0.00

GFSMA_prec_precacc_048.txt.gz
Total_Precipitation_Accumulation
0.00 0.00 0.00 0.00 0.00 0.00 0.00 0.00 0.00 0.00 0.00 0.00 0.00 0.00 0.00 0.00 0.00 0.00 0.00 0.00 0.00 0.00 0.00 0.00 0.00 0.00 0.00 0.00 0.01 0.04 0.04 0.03 0.02 0.03 0.04 0.04 0.04 0.02 0.02 0.04 0.06 0.07 0.08
0.00 0.00 0.00 0.00 0.00 0.00 0.00 0.00 0.00 0.00 0.00 0.00 0.00 0.00 0.00 0.00 0.00 0.00 0.00 0.00 0.00 0.00 0.00 0.00 0.00 0.00 0.00 0.00 0.00 0.00 0.00 0.00 0.00 0.01 0.01 0.01 0.01 0.02 0.01 0.03 0.05 0.06 0.07
0.00 0.00 0.00 0.00 0.00 0.00 0.00 0.00 0.00 0.00 0.00 0.00 0.00 0.00 0.00 0.00 0.00 0.00 0.00 0.00 0.00 0.00 0.00 0.00 0.00 0.00 0.00 0.00 0.00 0.00 0.00 0.00 0.00 0.00 0.00 0.00 0.00 0.00 0.00 0.00 0.01 0.03 0.05
0.00 0.00 0.00 0.00 0.00 0.00 0.00 0.00 0.00 0.00 0.00 0.00 0.00 0.00 0.00 0.00 0.00 0.00 0.00 0.00 0.00 0.00 0.00 0.00 0.00 0.00 0.00 0.00 0.00 0.00 0.00 0.00 0.00 0.00 0.00 0.00 0.00 0.00 0.00 0.00 0.00 0.00 0.00
0.00 0.00 0.00 0.00 0.00 0.00 0.00 0.00 0.00 0.00 0.00 0.00 0.00 0.00 0.00 0.00 0.00 0.00 0.00 0.00 0.00 0.00 0.00 0.00 0.00 0.00 0.00 0.00 0.00 0.00 0.00 0.00 0.00 0.00 0.00 0.00 0.00 0.00 0.00 0.00 0.00 0.00 0.00
0.02 0.02 0.01 0.00 0.00 0.00 0.00 0.00 0.00 0.00 0.00 0.00 0.00 0.00 0.00 0.00 0.00 0.00 0.00 0.00 0.00 0.00 0.00 0.00 0.00 0.00 0.00 0.00 0.00 0.00 0.00 0.00 0.00 0.00 0.00 0.00 0.00 0.00 0.00 0.00 0.00 0.00 0.00
0.11 0.10 0.05 0.03 0.01 0.00 0.00 0.00 0.00 0.00 0.00 0.01 0.00 0.00 0.00 0.00 0.00 0.00 0.00 0.00 0.00 0.00 0.00 0.00 0.00 0.00 0.00 0.00 0.00 0.00 0.00 0.00 0.00 0.00 0.00 0.00 0.00 0.00 0.00 0.00 0.00 0.00 0.00
0.17 0.10 0.09 0.10 0.05 0.02 0.01 0.02 0.03 0.05 0.04 0.06 0.05 0.01 0.00 0.00 0.00 0.00 0.00 0.00 0.00 0.00 0.00 0.00 0.00 0.00 0.00 0.00 0.00 0.00 0.00 0.00 0.00 0.00 0.00 0.00 0.00 0.00 0.00 0.00 0.00 0.00 0.00
0.17 0.13 0.17 0.19 0.20 0.12 0.06 0.08 0.13 0.13 0.11 0.11 0.08 0.05 0.00 0.00 0.00 0.00 0.00 0.00 0.00 0.00 0.00 0.01 0.00 0.00 0.00 0.00 0.00 0.00 0.00 0.00 0.00 0.00 0.00 0.00 0.00 0.00 0.00 0.00 0.00 0.00 0.00
0.18 0.17 0.17 0.26 0.30 0.21 0.15 0.10 0.16 0.16 0.15 0.10 0.09 0.06 0.04 0.01 0.00 0.00 0.00 0.01 0.00 0.00 0.00 0.01 0.01 0.00 0.00 0.00 0.00 0.00 0.00 0.00 0.00 0.00 0.00 0.00 0.00 0.00 0.00 0.00 0.00 0.00 0.00
0.18 0.22 0.20 0.27 0.28 0.26 0.27 0.29 0.22 0.19 0.15 0.15 0.15 0.16 0.11 0.06 0.03 0.01 0.01 0.04 0.03 0.02 0.01 0.00 0.00 0.00 0.00 0.00 0.00 0.00 0.00 0.00 0.00 0.00 0.00 0.00 0.00 0.00 0.00 0.00 0.00 0.00 0.01
0.12 0.12 0.15 0.15 0.21 0.28 0.30 0.29 0.33 0.25 0.22 0.19 0.15 0.14 0.14 0.15 0.10 0.05 0.05 0.06 0.05 0.03 0.01 0.00 0.00 0.00 0.00 0.00 0.00 0.00 0.00 0.00 0.00 0.00 0.00 0.00 0.01 0.01 0.01 0.00 0.01 0.02 0.04
0.08 0.11 0.16 0.16 0.16 0.20 0.28 0.34 0.32 0.28 0.28 0.23 0.18 0.17 0.19 0.20 0.20 0.20 0.23 0.19 0.15 0.07 0.03 0.02 0.02 0.02 0.02 0.03 0.05 0.03 0.01 0.00 0.00 0.00 0.00 0.00 0.01 0.01 0.01 0.02 0.02 0.03 0.05
0.07 0.10 0.16 0.16 0.18 0.19 0.18 0.21 0.23 0.25 0.27 0.25 0.23 0.23 0.23 0.23 0.24 0.25 0.28 0.29 0.27 0.20 0.13 0.05 0.03 0.03 0.03 0.04 0.06 0.08 0.09 0.10 0.10 0.11 0.12 0.12 0.11 0.10 0.10 0.07 0.04 0.04 0.05
0.07 0.08 0.11 0.14 0.15 0.18 0.20 0.22 0.20 0.22 0.26 0.26 0.26 0.27 0.20 0.18 0.20 0.19 0.20 0.21 0.24 0.23 0.16 0.12 0.14 0.16 0.18 0.24 0.35 0.41 0.48 0.54 0.52 0.48 0.41 0.32 0.26 0.20 0.13 0.06 0.03 0.03 0.03
0.05 0.06 0.08 0.09 0.11 0.15 0.18 0.21 0.19 0.22 0.24 0.28 0.28 0.28 0.24 0.19 0.20 0.20 0.19 0.17 0.23 0.33 0.45 0.39 0.45 0.52 0.54 0.54 0.55 0.48 0.44 0.43 0.36 0.29 0.24 0.21 0.18 0.13 0.08 0.05 0.03 0.02 0.05
0.04 0.05 0.08 0.09 0.08 0.08 0.10 0.16 0.19 0.19 0.24 0.24 0.23 0.28 0.30 0.34 0.43 0.53 0.58 0.67 0.78 0.89 0.94 0.82 0.63 0.54 0.46 0.41 0.42 0.37 0.31 0.25 0.18 0.18 0.13 0.10 0.08 0.04 0.03 0.02 0.04 0.04 0.06
0.05 0.06 0.07 0.06 0.05 0.04 0.04 0.06 0.10 0.14 0.17 0.18 0.19 0.20 0.17 0.16 0.20 0.24 0.26 0.32 0.42 0.52 0.65 0.72 0.65 0.60 0.50 0.39 0.31 0.23 0.18 0.14 0.11 0.09 0.07 0.02 0.01 0.01 0.01 0.02 0.04 0.07 0.12
0.08 0.07 0.05 0.05 0.06 0.05 0.05 0.04 0.06 0.11 0.13 0.16 0.17 0.18 0.18 0.18 0.21 0.25 0.28 0.33 0.40 0.46 0.54 0.60 0.59 0.52 0.46 0.38 0.30 0.15 0.09 0.04 0.01 0.02 0.02 0.00 0.00 0.00 0.01 0.03 0.05 0.07 0.07
0.07 0.06 0.08 0.08 0.07 0.06 0.08 0.11 0.14 0.16 0.16 0.17 0.18 0.20 0.20 0.20 0.22 0.26 0.31 0.38 0.40 0.37 0.34 0.32 0.35 0.29 0.21 0.15 0.10 0.05 0.03 0.01 0.00 0.00 0.00 0.00 0.00 0.00 0.00 0.00 0.00 0.00 0.00
0.06 0.04 0.08 0.15 0.17 0.17 0.16 0.13 0.11 0.12 0.15 0.19 0.21 0.23 0.26 0.32 0.38 0.36 0.32 0.30 0.30 0.32 0.35 0.35 0.24 0.18 0.10 0.04 0.03 0.01 0.01 0.01 0.01 0.00 0.00 0.00 0.00 0.00 0.00 0.00 0.00 0.00 0.00
0.08 0.12 0.11 0.11 0.14 0.18 0.33 0.26 0.17 0.15 0.17 0.21 0.26 0.33 0.41 0.49 0.44 0.40 0.31 0.25 0.20 0.27 0.27 0.24 0.18 0.06 0.01 0.01 0.01 0.02 0.06 0.06 0.06 0.00 0.00 0.00 0.00 0.00 0.00 0.00 0.00 0.01 0.01
0.24 0.23 0.22 0.26 0.25 0.23 0.32 0.27 0.33 0.36 0.42 0.47 0.48 0.44 0.36 0.33 0.31 0.26 0.22 0.22 0.24 0.17 0.12 0.07 0.02 0.00 0.01 0.03 0.10 0.10 0.08 0.11 0.06 0.00 0.02 0.02 0.00 0.00 0.00 0.00 0.00 0.00 0.01
0.46 0.54 0.56 0.58 0.64 0.76 0.78 0.67 0.53 0.44 0.45 0.47 0.44 0.39 0.32 0.26 0.18 0.13 0.16 0.19 0.08 0.02 0.00 0.00 0.00 0.01 0.04 0.04 0.07 0.17 0.10 0.07 0.02 0.00 0.00 0.04 0.00 0.00 0.00 0.00 0.00 0.00 0.00
0.78 0.78 0.68 0.55 0.59 0.70 0.65 0.49 0.44 0.39 0.29 0.19 0.14 0.07 0.03 0.03 0.03 0.06 0.08 0.04 0.00 0.00 0.00 0.01 0.02 0.02 0.01 0.01 0.00 0.06 0.07 0.07 0.05 0.00 0.00 0.01 0.00 0.00 0.00 0.00 0.00 0.00 0.00
0.65 0.58 0.63 0.60 0.50 0.43 0.31 0.19 0.10 0.08 0.05 0.02 0.00 0.00 0.00 0.01 0.04 0.08 0.03 0.00 0.00 0.00 0.05 0.02 0.00 0.00 0.00 0.00 0.00 0.01 0.07 0.25 0.14 0.13 0.00 0.14 0.07 0.05 0.20 0.01 0.00 0.00 0.00

GFSMA_prec_precacc_051.txt.gz
Total_Precipitation_Accumulation
0.00 0.00 0.00 0.00 0.00 0.00 0.00 0.00 0.00 0.00 0.00 0.00 0.00 0.00 0.00 0.00 0.00 0.00 0.00 0.00 0.00 0.00 0.00 0.00 0.00 0.00 0.00 0.00 0.01 0.04 0.04 0.03 0.02 0.03 0.04 0.04 0.04 0.02 0.02 0.04 0.06 0.07 0.08
0.00 0.00 0.00 0.00 0.00 0.00 0.00 0.00 0.00 0.00 0.00 0.00 0.00 0.00 0.00 0.00 0.00 0.00 0.00 0.00 0.00 0.00 0.00 0.00 0.00 0.00 0.00 0.00 0.00 0.00 0.00 0.00 0.00 0.01 0.01 0.01 0.01 0.02 0.01 0.03 0.05 0.06 0.07
0.00 0.00 0.00 0.00 0.00 0.00 0.00 0.00 0.00 0.00 0.00 0.00 0.00 0.00 0.00 0.00 0.00 0.00 0.00 0.00 0.00 0.00 0.00 0.00 0.00 0.00 0.00 0.00 0.00 0.00 0.00 0.00 0.00 0.00 0.00 0.00 0.00 0.00 0.00 0.00 0.01 0.03 0.05
0.00 0.00 0.00 0.00 0.00 0.00 0.00 0.00 0.00 0.00 0.00 0.00 0.00 0.00 0.00 0.00 0.00 0.00 0.00 0.00 0.00 0.00 0.00 0.00 0.00 0.00 0.00 0.00 0.00 0.00 0.00 0.00 0.00 0.00 0.00 0.00 0.00 0.00 0.00 0.00 0.00 0.00 0.00
0.00 0.00 0.00 0.00 0.00 0.00 0.00 0.00 0.00 0.00 0.00 0.00 0.00 0.00 0.00 0.00 0.00 0.00 0.00 0.00 0.00 0.00 0.00 0.00 0.00 0.00 0.00 0.00 0.00 0.00 0.00 0.00 0.00 0.00 0.00 0.00 0.00 0.00 0.00 0.00 0.00 0.00 0.00
0.02 0.02 0.01 0.00 0.00 0.00 0.00 0.00 0.00 0.00 0.00 0.00 0.00 0.00 0.00 0.00 0.00 0.00 0.00 0.00 0.00 0.00 0.00 0.00 0.00 0.00 0.00 0.00 0.00 0.00 0.00 0.00 0.00 0.00 0.00 0.00 0.00 0.00 0.00 0.00 0.00 0.00 0.00
0.14 0.11 0.06 0.03 0.01 0.00 0.00 0.00 0.00 0.00 0.00 0.03 0.02 0.00 0.00 0.00 0.00 0.00 0.00 0.00 0.00 0.00 0.00 0.00 0.00 0.00 0.00 0.00 0.00 0.00 0.00 0.00 0.00 0.00 0.00 0.00 0.00 0.00 0.00 0.00 0.00 0.00 0.00
0.19 0.12 0.10 0.11 0.05 0.02 0.01 0.02 0.04 0.07 0.07 0.12 0.14 0.04 0.00 0.00 0.00 0.00 0.00 0.00 0.00 0.00 0.00 0.00 0.00 0.00 0.00 0.00 0.00 0.00 0.00 0.00 0.00 0.00 0.00 0.00 0.00 0.00 0.00 0.00 0.00 0.00 0.00
0.18 0.14 0.19 0.20 0.20 0.12 0.06 0.08 0.13 0.14 0.13 0.16 0.14 0.12 0.02 0.00 0.00 0.00 0.00 0.00 0.00 0.00 0.00 0.01 0.01 0.01 0.01 0.00 0.00 0.00 0.00 0.00 0.00 0.00 0.00 0.00 0.00 0.00 0.00 0.00 0.00 0.00 0.00
0.18 0.17 0.17 0.26 0.30 0.21 0.15 0.10 0.17 0.16 0.17 0.11 0.12 0.09 0.07 0.03 0.02 0.01 0.01 0.01 0.01 0.00 0.00 0.01 0.01 0.01 0.01 0.00 0.00 0.00 0.00 0.00 0.00 0.00 0.00 0.00 0.00 0.00 0.00 0.00 0.00 0.00 0.00
0.18 0.22 0.20 0.27 0.28 0.26 0.28 0.29 0.22 0.20 0.15 0.16 0.16 0.17 0.13 0.11 0.06 0.04 0.02 0.04 0.04 0.04 0.02 0.00 0.00 0.00 0.00 0.00 0.00 0.01 0.03 0.03 0.02 0.00 0.00 0.00 0.00 0.00 0.00 0.00 0.00 0.00 0.01
0.12 0.12 0.15 0.15 0.21 0.28 0.30 0.30 0.33 0.26 0.22 0.20 0.16 0.16 0.16 0.18 0.12 0.08 0.07 0.07 0.07 0.04 0.02 0.01 0.00 0.00 0.00 0.01 0.03 0.05 0.08 0.10 0.10 0.06 0.03 0.01 0.01 0.01 0.01 0.01 0.02 0.03 0.05
0.08 0.11 0.16 0.16 0.16 0.20 0.28 0.34 0.32 0.29 0.30 0.25 0.20 0.18 0.20 0.22 0.23 0.25 0.27 0.22 0.17 0.11 0.07 0.06 0.06 0.05 0.05 0.06 0.09 0.14 0.15 0.17 0.16 0.12 0.08 0.05 0.03 0.02 0.02 0.04 0.06 0.09 0.13
0.07 0.10 0.16 0.16 0.18 0.19 0.18 0.21 0.23 0.26 0.27 0.26 0.24 0.23 0.23 0.24 0.25 0.27 0.32 0.32 0.30 0.21 0.13 0.07 0.05 0.08 0.10 0.11 0.14 0.19 0.18 0.23 0.26 0.29 0.30 0.29 0.29 0.28 0.26 0.25 0.24 0.22 0.22
0.07 0.08 0.11 0.14 0.15 0.18 0.20 0.22 0.20 0.22 0.26 0.26 0.26 0.27 0.21 0.18 0.20 0.20 0.22 0.23 0.28 0.27 0.18 0.12 0.14 0.16 0.20 0.29 0.42 0.50 0.56 0.62 0.60 0.57 0.54 0.49 0.41 0.34 0.26 0.20 0.17 0.16 0.15
0.05 0.06 0.08 0.09 0.11 0.15 0.18 0.21 0.19 0.22 0.24 0.28 0.28 0.28 0.25 0.19 0.21 0.21 0.19 0.18 0.25 0.37 0.48 0.40 0.45 0.52 0.55 0.55 0.58 0.52 0.49 0.51 0.43 0.37 0.34 0.31 0.28 0.24 0.18 0.14 0.13 0.13 0.16
0.04 0.05 0.08 0.09 0.08 0.08 0.10 0.16 0.19 0.19 0.24 0.24 0.23 0.28 0.31 0.35 0.43 0.53 0.59 0.67 0.78 0.89 0.95 0.82 0.63 0.54 0.48 0.44 0.47 0.42 0.38 0.33 0.27 0.31 0.27 0.24 0.20 0.15 0.13 0.09 0.08 0.08 0.08
0.05 0.06 0.07 0.06 0.05 0.04 0.04 0.06 0.10 0.14 0.17 0.18 0.19 0.20 0.17 0.16 0.20 0.24 0.26 0.32 0.43 0.53 0.65 0.73 0.67 0.63 0.58 0.52 0.46 0.39 0.29 0.24 0.22 0.24 0.20 0.13 0.08 0.05 0.04 0.03 0.05 0.07 0.12
0.08 0.07 0.05 0.05 0.06 0.05 0.05 0.04 0.06 0.11 0.13 0.16 0.17 0.18 0.18 0.18 0.21 0.25 0.28 0.33 0.40 0.47 0.54 0.61 0.61 0.55 0.49 0.44 0.37 0.26 0.22 0.18 0.13 0.12 0.09 0.04 0.03 0.02 0.02 0.03 0.05 0.07 0.07
0.07 0.06 0.08 0.08 0.07 0.06 0.08 0.11 0.14 0.16 0.16 0.17 0.18 0.20 0.20 0.20 0.22 0.26 0.31 0.38 0.40 0.37 0.34 0.32 0.36 0.31 0.25 0.20 0.16 0.12 0.09 0.05 0.03 0.02 0.01 0.01 0.01 0.00 0.00 0.00 0.00 0.00 0.00
0.06 0.04 0.08 0.15 0.17 0.17 0.16 0.13 0.11 0.12 0.15 0.19 0.21 0.23 0.26 0.32 0.38 0.36 0.32 0.30 0.30 0.32 0.36 0.37 0.26 0.21 0.12 0.05 0.04 0.03 0.03 0.03 0.01 0.00 0.00 0.00 0.00 0.00 0.00 0.00 0.00 0.00 0.00
0.08 0.12 0.11 0.11 0.14 0.18 0.34 0.26 0.17 0.15 0.17 0.21 0.26 0.33 0.41 0.49 0.45 0.41 0.32 0.25 0.20 0.27 0.27 0.24 0.19 0.07 0.02 0.01 0.01 0.03 0.06 0.06 0.06 0.00 0.00 0.00 0.00 0.00 0.00 0.00 0.00 0.01 0.01
0.24 0.23 0.22 0.26 0.25 0.23 0.32 0.27 0.33 0.36 0.42 0.47 0.48 0.44 0.36 0.33 0.31 0.26 0.22 0.22 0.24 0.17 0.12 0.07 0.02 0.00 0.01 0.03 0.10 0.10 0.08 0.11 0.06 0.00 0.02 0.02 0.00 0.00 0.00 0.00 0.00 0.00 0.01
0.46 0.54 0.56 0.58 0.64 0.76 0.78 0.67 0.53 0.44 0.45 0.47 0.44 0.39 0.32 0.26 0.18 0.13 0.16 0.19 0.08 0.02 0.00 0.00 0.00 0.01 0.04 0.04 0.07 0.17 0.10 0.07 0.02 0.00 0.00 0.04 0.00 0.00 0.00 0.00 0.00 0.00 0.00
0.78 0.78 0.68 0.55 0.59 0.70 0.65 0.49 0.44 0.39 0.29 0.19 0.14 0.07 0.03 0.03 0.03 0.06 0.08 0.04 0.00 0.00 0.00 0.01 0.02 0.02 0.01 0.01 0.00 0.06 0.07 0.07 0.05 0.00 0.00 0.01 0.00 0.00 0.00 0.00 0.00 0.00 0.00
0.65 0.58 0.63 0.60 0.50 0.43 0.31 0.19 0.10 0.08 0.05 0.02 0.00 0.00 0.00 0.01 0.04 0.08 0.03 0.00 0.00 0.00 0.05 0.02 0.00 0.00 0.00 0.00 0.00 0.01 0.07 0.25 0.14 0.13 0.00 0.14 0.07 0.05 0.20 0.01 0.00 0.00 0.00

GFSMA_prec_precacc_054.txt.gz
Total_Precipitation_Accumulation
0.00 0.00 0.00 0.00 0.00 0.00 0.00 0.00 0.00 0.00 0.00 0.00 0.00 0.00 0.00 0.00 0.00 0.00 0.00 0.00 0.00 0.00 0.00 0.00 0.00 0.00 0.00 0.00 0.01 0.04 0.04 0.03 0.02 0.03 0.04 0.04 0.04 0.02 0.02 0.04 0.06 0.07 0.08
0.00 0.00 0.00 0.00 0.00 0.00 0.00 0.00 0.00 0.00 0.00 0.00 0.00 0.00 0.00 0.00 0.00 0.00 0.00 0.00 0.00 0.00 0.00 0.00 0.00 0.00 0.00 0.00 0.00 0.00 0.00 0.00 0.00 0.01 0.01 0.01 0.01 0.02 0.01 0.03 0.05 0.06 0.07
0.00 0.00 0.00 0.00 0.00 0.00 0.00 0.00 0.00 0.00 0.00 0.00 0.00 0.00 0.00 0.00 0.00 0.00 0.00 0.00 0.00 0.00 0.00 0.00 0.00 0.00 0.00 0.00 0.00 0.00 0.00 0.00 0.00 0.00 0.00 0.00 0.00 0.00 0.00 0.00 0.01 0.03 0.05
0.00 0.00 0.00 0.00 0.00 0.00 0.00 0.00 0.00 0.00 0.00 0.00 0.00 0.00 0.00 0.00 0.00 0.00 0.00 0.00 0.00 0.00 0.00 0.00 0.00 0.00 0.00 0.00 0.00 0.00 0.00 0.00 0.00 0.00 0.00 0.00 0.00 0.00 0.00 0.00 0.00 0.00 0.00
0.00 0.00 0.00 0.00 0.00 0.00 0.00 0.00 0.00 0.00 0.00 0.00 0.00 0.00 0.00 0.00 0.00 0.00 0.00 0.00 0.00 0.00 0.00 0.00 0.00 0.00 0.00 0.00 0.00 0.00 0.00 0.00 0.00 0.00 0.00 0.00 0.00 0.00 0.00 0.00 0.00 0.00 0.00
0.02 0.02 0.01 0.00 0.00 0.00 0.00 0.00 0.00 0.00 0.00 0.00 0.00 0.00 0.00 0.00 0.00 0.00 0.00 0.00 0.00 0.00 0.00 0.00 0.00 0.00 0.00 0.00 0.00 0.00 0.00 0.00 0.00 0.00 0.00 0.00 0.00 0.00 0.00 0.00 0.00 0.00 0.00
0.15 0.11 0.06 0.03 0.01 0.00 0.00 0.00 0.00 0.00 0.00 0.03 0.02 0.00 0.00 0.00 0.00 0.00 0.00 0.00 0.00 0.00 0.00 0.00 0.00 0.00 0.00 0.00 0.00 0.00 0.00 0.00 0.00 0.00 0.00 0.00 0.00 0.00 0.00 0.00 0.00 0.00 0.00
0.19 0.12 0.10 0.11 0.05 0.02 0.01 0.02 0.04 0.07 0.07 0.13 0.16 0.04 0.00 0.00 0.00 0.00 0.00 0.00 0.00 0.00 0.00 0.00 0.00 0.00 0.00 0.00 0.00 0.00 0.00 0.00 0.00 0.00 0.00 0.00 0.00 0.00 0.00 0.00 0.00 0.00 0.00
0.18 0.14 0.19 0.21 0.21 0.12 0.06 0.08 0.13 0.14 0.14 0.16 0.15 0.14 0.02 0.00 0.00 0.00 0.00 0.00 0.00 0.00 0.00 0.01 0.01 0.01 0.01 0.00 0.00 0.00 0.00 0.00 0.00 0.00 0.00 0.00 0.00 0.00 0.00 0.00 0.00 0.00 0.00
0.18 0.17 0.17 0.26 0.30 0.21 0.15 0.10 0.17 0.17 0.17 0.11 0.12 0.09 0.08 0.03 0.03 0.02 0.01 0.01 0.01 0.00 0.00 0.01 0.01 0.01 0.01 0.00 0.00 0.00 0.00 0.01 0.02 0.03 0.05 0.06 0.04 0.01 0.00 0.00 0.00 0.00 0.01
0.18 0.22 0.20 0.27 0.28 0.26 0.28 0.29 0.22 0.20 0.15 0.17 0.16 0.17 0.13 0.11 0.07 0.05 0.02 0.04 0.05 0.04 0.02 0.01 0.00 0.00 0.00 0.00 0.00 0.01 0.05 0.07 0.09 0.08 0.06 0.07 0.06 0.05 0.03 0.01 0.01 0.01 0.02
0.12 0.12 0.15 0.15 0.21 0.28 0.30 0.30 0.34 0.26 0.22 0.20 0.17 0.16 0.17 0.19 0.13 0.09 0.07 0.07 0.07 0.04 0.02 0.01 0.00 0.00 0.00 0.01 0.03 0.07 0.14 0.19 0.24 0.28 0.28 0.21 0.14 0.14 0.15 0.09 0.06 0.04 0.06
0.08 0.11 0.16 0.16 0.16 0.20 0.28 0.35 0.33 0.29 0.30 0.27 0.23 0.20 0.21 0.22 0.24 0.25 0.27 0.22 0.17 0.11 0.07 0.06 0.06 0.05 0.05 0.06 0.09 0.16 0.21 0.26 0.29 0.31 0.29 0.26 0.22 0.18 0.15 0.16 0.15 0.16 0.17
0.07 0.10 0.16 0.16 0.18 0.19 0.18 0.21 0.23 0.26 0.29 0.27 0.26 0.24 0.23 0.24 0.25 0.27 0.32 0.32 0.31 0.21 0.13 0.07 0.05 0.08 0.10 0.11 0.14 0.20 0.24 0.35 0.40 0.46 0.51 0.54 0.54 0.43 0.35 0.32 0.30 0.29 0.30
0.07 0.08 0.11 0.14 0.15 0.18 0.20 0.22 0.21 0.22 0.26 0.26 0.27 0.27 0.21 0.18 0.21 0.21 0.22 0.23 0.29 0.27 0.19 0.12 0.14 0.16 0.20 0.29 0.42 0.50 0.57 0.67 0.71 0.73 0.73 0.71 0.63 0.47 0.33 0.26 0.22 0.21 0.19
0.05 0.06 0.08 0.09 0.11 0.15 0.18 0.21 0.19 0.22 0.24 0.28 0.29 0.29 0.25 0.19 0.21 0.21 0.20 0.18 0.26 0.38 0.48 0.40 0.45 0.52 0.55 0.55 0.58 0.52 0.50 0.54 0.52 0.55 0.56 0.54 0.47 0.39 0.28 0.22 0.19 0.19 0.21
0.04 0.05 0.08 0.09 0.08 0.08 0.10 0.16 0.19 0.19 0.24 0.24 0.23 0.28 0.31 0.35 0.44 0.53 0.59 0.68 0.79 0.90 0.95 0.82 0.63 0.54 0.48 0.44 0.47 0.42 0.39 0.37 0.37 0.50 0.42 0.36 0.31 0.24 0.21 0.19 0.17 0.16 0.16
0.05 0.06 0.07 0.06 0.05 0.04 0.04 0.06 0.10 0.14 0.17 0.18 0.19 0.20 0.17 0.16 0.20 0.24 0.26 0.32 0.43 0.53 0.65 0.73 0.67 0.63 0.58 0.52 0.47 0.39 0.33 0.30 0.29 0.34 0.29 0.20 0.14 0.11 0.10 0.09 0.12 0.14 0.16
0.08 0.07 0.05 0.05 0.06 0.05 0.05 0.04 0.06 0.11 0.13 0.16 0.17 0.18 0.18 0.18 0.21 0.25 0.28 0.33 0.40 0.47 0.54 0.61 0.61 0.55 0.49 0.44 0.37 0.26 0.24 0.21 0.18 0.19 0.16 0.12 0.10 0.08 0.06 0.09 0.09 0.10 0.08
0.07 0.06 0.08 0.08 0.07 0.06 0.08 0.11 0.14 0.16 0.16 0.17 0.18 0.20 0.20 0.20 0.22 0.26 0.31 0.38 0.40 0.37 0.34 0.32 0.36 0.31 0.25 0.20 0.16 0.12 0.09 0.06 0.03 0.03 0.03 0.02 0.02 0.01 0.01 0.02 0.01 0.00 0.00
0.06 0.04 0.08 0.15 0.17 0.17 0.16 0.13 0.11 0.12 0.15 0.19 0.21 0.23 0.26 0.32 0.39 0.37 0.32 0.30 0.30 0.32 0.36 0.37 0.26 0.21 0.12 0.05 0.04 0.03 0.03 0.03 0.01 0.00 0.00 0.00 0.00 0.00 0.00 0.00 0.00 0.00 0.00
0.08 0.12 0.11 0.11 0.14 0.18 0.35 0.27 0.18 0.15 0.17 0.21 0.26 0.33 0.41 0.49 0.45 0.41 0.33 0.26 0.21 0.27 0.27 0.24 0.19 0.07 0.02 0.01 0.01 0.03 0.06 0.06 0.06 0.00 0.00 0.00 0.00 0.00 0.00 0.00 0.00 0.01 0.01
0.24 0.23 0.22 0.26 0.25 0.23 0.32 0.27 0.33 0.36 0.42 0.47 0.48 0.44 0.36 0.33 0.31 0.26 0.22 0.22 0.24 0.18 0.12 0.07 0.02 0.00 0.01 0.03 0.10 0.10 0.08 0.11 0.06 0.00 0.02 0.02 0.00 0.00 0.00 0.00 0.00 0.00 0.01
0.46 0.54 0.56 0.58 0.64 0.76 0.78 0.67 0.53 0.44 0.45 0.47 0.44 0.39 0.32 0.26 0.18 0.13 0.16 0.19 0.08 0.02 0.00 0.00 0.00 0.01 0.04 0.04 0.07 0.17 0.10 0.07 0.02 0.00 0.00 0.04 0.00 0.00 0.00 0.00 0.00 0.00 0.00
0.78 0.78 0.68 0.55 0.59 0.70 0.65 0.49 0.44 0.39 0.29 0.19 0.14 0.07 0.03 0.03 0.03 0.06 0.08 0.04 0.00 0.00 0.00 0.01 0.02 0.02 0.01 0.01 0.00 0.06 0.07 0.07 0.05 0.00 0.00 0.01 0.00 0.00 0.00 0.00 0.00 0.00 0.00
0.65 0.58 0.63 0.60 0.50 0.43 0.31 0.19 0.10 0.08 0.05 0.02 0.00 0.00 0.00 0.01 0.04 0.08 0.03 0.00 0.00 0.00 0.05 0.02 0.00 0.00 0.00 0.00 0.00 0.01 0.07 0.25 0.14 0.13 0.00 0.14 0.07 0.05 0.20 0.01 0.00 0.00 0.00

GFSMA_prec_precacc_057.txt.gz
Total_Precipitation_Accumulation
0.00 0.00 0.00 0.00 0.00 0.00 0.00 0.00 0.00 0.00 0.00 0.00 0.00 0.00 0.00 0.00 0.00 0.00 0.00 0.00 0.00 0.00 0.00 0.00 0.00 0.00 0.00 0.00 0.01 0.04 0.04 0.03 0.02 0.03 0.04 0.04 0.04 0.02 0.02 0.04 0.06 0.07 0.08
0.00 0.00 0.00 0.00 0.00 0.00 0.00 0.00 0.00 0.00 0.00 0.00 0.00 0.00 0.00 0.00 0.00 0.00 0.00 0.00 0.00 0.00 0.00 0.00 0.00 0.00 0.00 0.00 0.00 0.00 0.00 0.00 0.00 0.01 0.01 0.01 0.01 0.02 0.01 0.03 0.05 0.06 0.07
0.00 0.00 0.00 0.00 0.00 0.00 0.00 0.00 0.00 0.00 0.00 0.00 0.00 0.00 0.00 0.00 0.00 0.00 0.00 0.00 0.00 0.00 0.00 0.00 0.00 0.00 0.00 0.00 0.00 0.00 0.00 0.00 0.00 0.00 0.00 0.00 0.00 0.00 0.00 0.00 0.01 0.03 0.05
0.00 0.00 0.00 0.00 0.00 0.00 0.00 0.00 0.00 0.00 0.00 0.00 0.00 0.00 0.00 0.00 0.00 0.00 0.00 0.00 0.00 0.00 0.00 0.00 0.00 0.00 0.00 0.00 0.00 0.00 0.00 0.00 0.00 0.00 0.00 0.00 0.00 0.00 0.00 0.00 0.00 0.00 0.00
0.00 0.00 0.00 0.00 0.00 0.00 0.00 0.00 0.00 0.00 0.00 0.00 0.00 0.00 0.00 0.00 0.00 0.00 0.00 0.00 0.00 0.00 0.00 0.00 0.00 0.00 0.00 0.00 0.00 0.00 0.00 0.00 0.00 0.00 0.00 0.00 0.00 0.00 0.00 0.00 0.00 0.00 0.00
0.02 0.02 0.01 0.00 0.00 0.00 0.00 0.00 0.00 0.00 0.00 0.00 0.00 0.00 0.00 0.00 0.00 0.00 0.00 0.01 0.01 0.00 0.00 0.00 0.00 0.00 0.00 0.00 0.00 0.00 0.00 0.00 0.00 0.00 0.00 0.00 0.00 0.00 0.00 0.00 0.00 0.00 0.00
0.15 0.11 0.06 0.03 0.01 0.00 0.00 0.00 0.00 0.00 0.00 0.03 0.02 0.00 0.00 0.00 0.00 0.00 0.00 0.02 0.01 0.01 0.00 0.00 0.00 0.00 0.00 0.00 0.00 0.00 0.00 0.00 0.00 0.00 0.00 0.00 0.00 0.00 0.00 0.00 0.00 0.00 0.00
0.19 0.12 0.10 0.11 0.06 0.02 0.01 0.02 0.04 0.07 0.07 0.13 0.16 0.04 0.00 0.00 0.00 0.00 0.00 0.00 0.00 0.00 0.00 0.00 0.00 0.00 0.00 0.00 0.00 0.00 0.00 0.00 0.01 0.02 0.01 0.01 0.00 0.00 0.00 0.00 0.00 0.00 0.00
0.18 0.15 0.20 0.21 0.21 0.13 0.06 0.08 0.13 0.14 0.14 0.16 0.15 0.14 0.02 0.00 0.00 0.00 0.00 0.00 0.00 0.00 0.00 0.01 0.01 0.01 0.01 0.00 0.00 0.00 0.00 0.00 0.00 0.01 0.04 0.04 0.01 0.00 0.00 0.00 0.00 0.00 0.01
0.18 0.17 0.17 0.26 0.30 0.21 0.15 0.10 0.17 0.17 0.17 0.11 0.12 0.09 0.08 0.04 0.04 0.02 0.01 0.01 0.01 0.00 0.00 0.01 0.01 0.01 0.01 0.00 0.00 0.00 0.00 0.01 0.02 0.05 0.07 0.17 0.26 0.18 0.09 0.05 0.04 0.04 0.02
0.18 0.22 0.20 0.27 0.28 0.26 0.28 0.29 0.22 0.20 0.15 0.17 0.16 0.17 0.13 0.12 0.07 0.06 0.03 0.04 0.05 0.04 0.02 0.01 0.00 0.00 0.00 0.00 0.00 0.01 0.05 0.07 0.09 0.12 0.15 0.19 0.27 0.33 0.29 0.22 0.18 0.11 0.09
0.12 0.12 0.15 0.15 0.21 0.28 0.30 0.30 0.34 0.26 0.22 0.21 0.17 0.17 0.18 0.19 0.13 0.09 0.08 0.07 0.07 0.04 0.02 0.01 0.00 0.00 0.00 0.01 0.03 0.07 0.14 0.19 0.24 0.30 0.36 0.38 0.34 0.28 0.29 0.35 0.35 0.28 0.24
0.08 0.11 0.16 0.16 0.16 0.20 0.28 0.35 0.33 0.29 0.31 0.28 0.24 0.21 0.23 0.24 0.24 0.25 0.27 0.22 0.17 0.11 0.07 0.06 0.06 0.05 0.05 0.06 0.09 0.16 0.21 0.26 0.29 0.31 0.34 0.37 0.35 0.30 0.28 0.34 0.46 0.45 0.44
0.07 0.10 0.16 0.16 0.18 0.19 0.18 0.21 0.23 0.27 0.30 0.29 0.27 0.25 0.24 0.24 0.26 0.27 0.32 0.32 0.31 0.21 0.13 0.07 0.05 0.08 0.10 0.11 0.14 0.20 0.24 0.35 0.40 0.47 0.55 0.64 0.69 0.62 0.50 0.47 0.55 0.56 0.47
0.07 0.08 0.11 0.14 0.15 0.18 0.20 0.22 0.21 0.23 0.27 0.27 0.28 0.27 0.21 0.19 0.21 0.21 0.22 0.24 0.29 0.28 0.19 0.13 0.14 0.16 0.20 0.29 0.42 0.50 0.57 0.67 0.71 0.73 0.75 0.76 0.75 0.68 0.53 0.43 0.40 0.36 0.31
0.05 0.06 0.08 0.09 0.11 0.15 0.18 0.21 0.19 0.22 0.24 0.28 0.29 0.29 0.25 0.20 0.21 0.22 0.20 0.19 0.26 0.38 0.49 0.40 0.45 0.52 0.55 0.55 0.58 0.52 0.50 0.54 0.52 0.55 0.58 0.61 0.59 0.47 0.44 0.39 0.35 0.32 0.31
0.04 0.05 0.08 0.09 0.08 0.08 0.10 0.16 0.19 0.19 0.24 0.24 0.23 0.28 0.31 0.35 0.44 0.53 0.59 0.68 0.79 0.90 0.95 0.82 0.63 0.54 0.48 0.44 0.47 0.42 0.39 0.37 0.37 0.52 0.49 0.47 0.40 0.30 0.26 0.24 0.23 0.23 0.22
0.05 0.06 0.07 0.06 0.05 0.04 0.04 0.06 0.10 0.14 0.17 0.18 0.19 0.20 0.17 0.16 0.20 0.24 0.26 0.32 0.43 0.53 0.65 0.73 0.67 0.63 0.58 0.52 0.47 0.39 0.33 0.30 0.29 0.35 0.32 0.23 0.16 0.13 0.12 0.12 0.15 0.17 0.21
0.08 0.07 0.05 0.05 0.06 0.05 0.05 0.04 0.06 0.11 0.13 0.16 0.17 0.18 0.18 0.18 0.21 0.25 0.28 0.33 0.40 0.47 0.54 0.61 0.61 0.55 0.49 0.44 0.37 0.26 0.24 0.21 0.18 0.19 0.16 0.12 0.10 0.09 0.09 0.12 0.13 0.13 0.12
0.07 0.06 0.08 0.08 0.07 0.06 0.08 0.11 0.14 0.16 0.16 0.17 0.18 0.20 0.20 0.20 0.22 0.26 0.31 0.38 0.40 0.37 0.34 0.32 0.36 0.31 0.25 0.20 0.16 0.12 0.09 0.06 0.03 0.03 0.03 0.02 0.02 0.01 0.02 0.02 0.02 0.01 0.00
0.06 0.04 0.08 0.15 0.17 0.17 0.16 0.13 0.11 0.12 0.15 0.19 0.21 0.23 0.26 0.33 0.39 0.37 0.32 0.30 0.30 0.32 0.36 0.37 0.26 0.21 0.12 0.05 0.04 0.03 0.03 0.03 0.01 0.00 0.00 0.00 0.00 0.00 0.00 0.00 0.00 0.00 0.00
0.08 0.12 0.11 0.11 0.14 0.18 0.35 0.28 0.18 0.15 0.17 0.21 0.26 0.33 0.41 0.49 0.45 0.41 0.33 0.26 0.21 0.27 0.27 0.24 0.19 0.07 0.02 0.01 0.01 0.03 0.06 0.06 0.06 0.00 0.00 0.00 0.00 0.00 0.00 0.00 0.00 0.01 0.01
0.24 0.23 0.22 0.26 0.25 0.23 0.33 0.28 0.33 0.36 0.42 0.47 0.48 0.44 0.36 0.33 0.31 0.26 0.22 0.22 0.24 0.18 0.12 0.07 0.02 0.00 0.01 0.03 0.10 0.10 0.08 0.11 0.06 0.00 0.02 0.02 0.00 0.00 0.00 0.00 0.00 0.00 0.01
0.46 0.54 0.56 0.58 0.64 0.76 0.78 0.67 0.53 0.44 0.45 0.47 0.44 0.39 0.32 0.26 0.18 0.13 0.16 0.19 0.08 0.02 0.00 0.00 0.00 0.01 0.04 0.04 0.07 0.17 0.10 0.07 0.02 0.00 0.00 0.04 0.00 0.00 0.00 0.00 0.00 0.00 0.00
0.78 0.78 0.68 0.55 0.59 0.70 0.65 0.49 0.44 0.39 0.29 0.19 0.14 0.07 0.03 0.03 0.03 0.06 0.08 0.04 0.00 0.00 0.00 0.01 0.02 0.02 0.01 0.01 0.00 0.06 0.07 0.07 0.05 0.00 0.00 0.01 0.00 0.00 0.00 0.00 0.00 0.00 0.00
0.65 0.58 0.63 0.60 0.50 0.43 0.31 0.19 0.10 0.08 0.05 0.02 0.00 0.00 0.00 0.01 0.04 0.08 0.03 0.00 0.00 0.00 0.05 0.02 0.00 0.00 0.00 0.00 0.00 0.01 0.07 0.25 0.14 0.13 0.00 0.14 0.07 0.05 0.20 0.01 0.00 0.00 0.00

GFSMA_prec_precacc_060.txt.gz
Total_Precipitation_Accumulation
0.00 0.00 0.00 0.00 0.00 0.00 0.00 0.00 0.00 0.00 0.00 0.00 0.00 0.00 0.00 0.00 0.00 0.00 0.00 0.00 0.00 0.00 0.00 0.00 0.00 0.00 0.00 0.00 0.01 0.04 0.04 0.03 0.02 0.03 0.04 0.04 0.04 0.02 0.02 0.04 0.06 0.07 0.08
0.00 0.00 0.00 0.00 0.00 0.00 0.00 0.00 0.00 0.00 0.00 0.00 0.00 0.00 0.00 0.00 0.00 0.00 0.00 0.00 0.00 0.00 0.00 0.00 0.00 0.00 0.00 0.00 0.00 0.00 0.00 0.00 0.00 0.01 0.01 0.01 0.01 0.02 0.01 0.03 0.05 0.06 0.07
0.00 0.00 0.00 0.00 0.00 0.00 0.00 0.00 0.00 0.00 0.00 0.00 0.00 0.00 0.00 0.00 0.00 0.00 0.00 0.00 0.00 0.00 0.00 0.00 0.00 0.00 0.00 0.00 0.00 0.00 0.00 0.00 0.00 0.00 0.00 0.00 0.00 0.00 0.00 0.00 0.01 0.03 0.05
0.00 0.00 0.00 0.00 0.00 0.00 0.00 0.00 0.00 0.00 0.00 0.00 0.00 0.00 0.00 0.00 0.00 0.00 0.00 0.00 0.00 0.00 0.00 0.00 0.00 0.00 0.00 0.00 0.00 0.00 0.00 0.00 0.00 0.00 0.00 0.00 0.00 0.00 0.00 0.00 0.00 0.00 0.00
0.00 0.00 0.00 0.00 0.00 0.00 0.00 0.00 0.00 0.00 0.00 0.00 0.00 0.00 0.00 0.00 0.00 0.00 0.00 0.00 0.00 0.00 0.00 0.00 0.00 0.00 0.00 0.00 0.01 0.01 0.00 0.00 0.00 0.00 0.00 0.00 0.00 0.00 0.00 0.00 0.00 0.00 0.00
0.02 0.02 0.01 0.00 0.00 0.00 0.00 0.00 0.00 0.00 0.00 0.00 0.00 0.00 0.00 0.00 0.00 0.00 0.00 0.01 0.01 0.01 0.00 0.00 0.00 0.00 0.00 0.00 0.00 0.00 0.01 0.01 0.00 0.00 0.00 0.00 0.00 0.00 0.00 0.00 0.00 0.00 0.00
0.15 0.11 0.06 0.03 0.01 0.00 0.01 0.00 0.00 0.00 0.00 0.03 0.02 0.00 0.00 0.00 0.00 0.00 0.00 0.02 0.01 0.01 0.00 0.00 0.00 0.00 0.00 0.00 0.00 0.00 0.00 0.01 0.03 0.02 0.00 0.00 0.00 0.00 0.00 0.00 0.00 0.00 0.00
0.19 0.12 0.10 0.11 0.06 0.02 0.02 0.02 0.05 0.07 0.07 0.13 0.16 0.04 0.00 0.00 0.00 0.00 0.00 0.00 0.00 0.00 0.00 0.00 0.00 0.00 0.00 0.00 0.00 0.00 0.00 0.01 0.03 0.07 0.09 0.03 0.00 0.00 0.00 0.01 0.00 0.00 0.01
0.18 0.15 0.20 0.21 0.21 0.13 0.06 0.08 0.14 0.15 0.15 0.16 0.15 0.14 0.02 0.00 0.00 0.00 0.00 0.00 0.00 0.00 0.00 0.01 0.01 0.01 0.01 0.00 0.00 0.00 0.00 0.01 0.02 0.03 0.09 0.15 0.09 0.03 0.00 0.00 0.00 0.01 0.01
0.18 0.17 0.17 0.26 0.30 0.22 0.15 0.10 0.17 0.17 0.18 0.12 0.12 0.09 0.08 0.04 0.04 0.03 0.01 0.01 0.01 0.00 0.00 0.01 0.01 0.01 0.01 0.00 0.00 0.00 0.00 0.01 0.03 0.06 0.13 0.23 0.41 0.38 0.21 0.08 0.05 0.06 0.07
0.18 0.22 0.20 0.27 0.28 0.26 0.28 0.29 0.22 0.20 0.15 0.18 0.17 0.18 0.14 0.12 0.07 0.06 0.03 0.05 0.05 0.04 0.02 0.01 0.00 0.00 0.00 0.00 0.00 0.01 0.05 0.07 0.09 0.13 0.19 0.27 0.39 0.44 0.39 0.29 0.23 0.16 0.15
0.12 0.12 0.15 0.15 0.21 0.28 0.30 0.30 0.34 0.26 0.22 0.21 0.18 0.18 0.18 0.20 0.14 0.09 0.08 0.07 0.07 0.04 0.02 0.01 0.00 0.00 0.00 0.01 0.03 0.07 0.14 0.19 0.24 0.30 0.37 0.44 0.44 0.42 0.41 0.44 0.45 0.40 0.34
0.08 0.11 0.16 0.16 0.16 0.20 0.28 0.35 0.33 0.29 0.31 0.28 0.24 0.22 0.24 0.25 0.25 0.26 0.28 0.23 0.18 0.11 0.07 0.06 0.06 0.05 0.05 0.06 0.09 0.16 0.21 0.26 0.29 0.31 0.34 0.39 0.44 0.44 0.39 0.42 0.52 0.55 0.59
0.07 0.10 0.16 0.16 0.18 0.19 0.18 0.21 0.23 0.27 0.30 0.29 0.28 0.26 0.25 0.25 0.26 0.28 0.32 0.33 0.32 0.21 0.13 0.07 0.05 0.08 0.10 0.11 0.14 0.20 0.24 0.35 0.40 0.47 0.55 0.64 0.71 0.72 0.68 0.63 0.66 0.81 0.76
0.07 0.08 0.11 0.14 0.15 0.18 0.20 0.22 0.21 0.23 0.27 0.27 0.29 0.29 0.23 0.20 0.21 0.21 0.22 0.24 0.30 0.28 0.19 0.13 0.14 0.16 0.20 0.29 0.42 0.50 0.57 0.67 0.71 0.73 0.75 0.76 0.75 0.68 0.56 0.51 0.51 0.44 0.42
0.05 0.06 0.08 0.09 0.11 0.15 0.18 0.21 0.19 0.22 0.24 0.28 0.29 0.29 0.26 0.20 0.21 0.22 0.20 0.19 0.26 0.38 0.49 0.40 0.45 0.52 0.55 0.55 0.58 0.52 0.50 0.54 0.53 0.55 0.58 0.61 0.61 0.50 0.45 0.42 0.43 0.41 0.40
0.04 0.05 0.08 0.09 0.08 0.08 0.10 0.16 0.19 0.19 0.24 0.24 0.23 0.28 0.31 0.35 0.44 0.53 0.59 0.68 0.79 0.90 0.95 0.82 0.63 0.54 0.48 0.44 0.47 0.42 0.39 0.37 0.38 0.52 0.50 0.49 0.45 0.34 0.30 0.27 0.26 0.25 0.25
0.05 0.06 0.07 0.06 0.05 0.04 0.04 0.06 0.10 0.14 0.17 0.18 0.19 0.20 0.17 0.16 0.20 0.24 0.26 0.32 0.43 0.53 0.65 0.73 0.67 0.63 0.58 0.52 0.47 0.39 0.33 0.30 0.29 0.35 0.32 0.24 0.18 0.14 0.13 0.13 0.15 0.17 0.21
0.08 0.07 0.05 0.05 0.06 0.05 0.05 0.04 0.06 0.11 0.13 0.16 0.17 0.18 0.18 0.18 0.21 0.25 0.28 0.33 0.40 0.47 0.54 0.61 0.61 0.55 0.49 0.44 0.37 0.26 0.24 0.21 0.18 0.19 0.16 0.12 0.10 0.09 0.09 0.12 0.13 0.14 0.12
0.07 0.06 0.08 0.08 0.07 0.06 0.08 0.11 0.14 0.16 0.16 0.17 0.18 0.20 0.20 0.20 0.22 0.26 0.31 0.38 0.40 0.37 0.34 0.32 0.36 0.31 0.25 0.20 0.16 0.12 0.09 0.06 0.03 0.03 0.03 0.02 0.02 0.01 0.02 0.02 0.02 0.01 0.00
0.06 0.04 0.08 0.15 0.17 0.17 0.16 0.13 0.11 0.12 0.15 0.19 0.21 0.23 0.26 0.33 0.39 0.37 0.32 0.30 0.30 0.32 0.36 0.37 0.26 0.21 0.12 0.05 0.04 0.03 0.03 0.03 0.01 0.00 0.00 0.00 0.00 0.00 0.00 0.00 0.00 0.00 0.00
0.08 0.12 0.11 0.11 0.14 0.18 0.35 0.28 0.18 0.15 0.17 0.21 0.26 0.33 0.41 0.49 0.45 0.41 0.33 0.26 0.21 0.27 0.27 0.24 0.19 0.07 0.02 0.01 0.01 0.03 0.06 0.06 0.06 0.00 0.00 0.00 0.00 0.00 0.00 0.00 0.00 0.01 0.01
0.24 0.23 0.22 0.26 0.25 0.24 0.33 0.28 0.33 0.36 0.42 0.47 0.48 0.44 0.36 0.33 0.31 0.26 0.22 0.22 0.24 0.18 0.12 0.07 0.02 0.00 0.01 0.03 0.10 0.10 0.08 0.11 0.06 0.00 0.02 0.02 0.00 0.00 0.00 0.00 0.00 0.00 0.01
0.46 0.54 0.56 0.58 0.64 0.76 0.78 0.67 0.53 0.44 0.45 0.47 0.44 0.39 0.32 0.26 0.18 0.13 0.16 0.19 0.08 0.02 0.00 0.00 0.00 0.01 0.04 0.04 0.07 0.17 0.10 0.07 0.02 0.00 0.00 0.04 0.00 0.00 0.00 0.00 0.00 0.00 0.00
0.78 0.78 0.68 0.55 0.59 0.70 0.65 0.49 0.44 0.39 0.29 0.19 0.14 0.07 0.03 0.03 0.03 0.06 0.08 0.04 0.00 0.00 0.00 0.01 0.02 0.02 0.01 0.01 0.00 0.06 0.07 0.07 0.05 0.00 0.00 0.01 0.00 0.00 0.00 0.00 0.00 0.00 0.00
0.65 0.58 0.63 0.60 0.50 0.43 0.31 0.19 0.10 0.08 0.05 0.02 0.00 0.00 0.00 0.01 0.04 0.08 0.03 0.00 0.00 0.00 0.05 0.02 0.00 0.00 0.00 0.00 0.00 0.01 0.07 0.25 0.14 0.13 0.00 0.14 0.07 0.05 0.20 0.01 0.00 0.00 0.00

GFSMA_prec_precacc_063.txt.gz
Total_Precipitation_Accumulation
0.00 0.00 0.00 0.00 0.00 0.00 0.00 0.00 0.00 0.00 0.00 0.00 0.00 0.00 0.00 0.00 0.00 0.00 0.00 0.00 0.00 0.00 0.00 0.01 0.00 0.00 0.00 0.00 0.01 0.04 0.04 0.03 0.02 0.03 0.04 0.04 0.04 0.02 0.02 0.04 0.06 0.07 0.08
0.00 0.00 0.00 0.00 0.00 0.00 0.00 0.00 0.00 0.00 0.00 0.00 0.00 0.00 0.00 0.00 0.00 0.00 0.00 0.00 0.00 0.00 0.00 0.00 0.00 0.00 0.00 0.00 0.00 0.00 0.00 0.00 0.00 0.01 0.01 0.01 0.01 0.02 0.01 0.03 0.05 0.06 0.07
0.00 0.00 0.00 0.00 0.00 0.00 0.00 0.00 0.00 0.00 0.00 0.00 0.00 0.00 0.00 0.00 0.00 0.00 0.00 0.00 0.00 0.00 0.00 0.00 0.00 0.00 0.00 0.00 0.00 0.00 0.00 0.00 0.00 0.00 0.00 0.00 0.00 0.00 0.00 0.00 0.01 0.03 0.05
0.00 0.00 0.00 0.00 0.00 0.00 0.00 0.00 0.00 0.00 0.00 0.00 0.00 0.00 0.00 0.00 0.00 0.00 0.00 0.00 0.00 0.00 0.00 0.00 0.00 0.00 0.00 0.01 0.01 0.01 0.00 0.00 0.00 0.00 0.00 0.00 0.00 0.00 0.00 0.00 0.00 0.00 0.00
0.00 0.00 0.00 0.00 0.00 0.00 0.00 0.00 0.00 0.00 0.00 0.00 0.00 0.00 0.00 0.00 0.00 0.00 0.00 0.00 0.00 0.00 0.00 0.00 0.00 0.00 0.01 0.00 0.01 0.02 0.03 0.01 0.00 0.00 0.00 0.00 0.00 0.00 0.00 0.00 0.00 0.00 0.00
0.02 0.02 0.01 0.00 0.00 0.00 0.00 0.00 0.00 0.00 0.00 0.00 0.00 0.00 0.00 0.00 0.00 0.00 0.00 0.01 0.01 0.01 0.00 0.00 0.00 0.00 0.00 0.00 0.00 0.00 0.02 0.05 0.04 0.00 0.00 0.00 0.00 0.00 0.00 0.00 0.00 0.00 0.00
0.15 0.11 0.06 0.03 0.01 0.00 0.01 0.01 0.01 0.01 0.01 0.05 0.03 0.00 0.00 0.00 0.00 0.00 0.00 0.02 0.01 0.01 0.00 0.00 0.00 0.00 0.00 0.00 0.00 0.00 0.00 0.03 0.07 0.06 0.02 0.01 0.00 0.00 0.00 0.00 0.00 0.00 0.00
0.19 0.12 0.10 0.11 0.06 0.02 0.02 0.02 0.05 0.07 0.07 0.13 0.16 0.05 0.00 0.00 0.00 0.00 0.00 0.00 0.00 0.00 0.00 0.00 0.00 0.00 0.00 0.00 0.00 0.00 0.00 0.03 0.07 0.14 0.19 0.12 0.04 0.01 0.00 0.01 0.00 0.01 0.02
0.18 0.15 0.20 0.21 0.21 0.13 0.07 0.09 0.15 0.17 0.16 0.17 0.16 0.16 0.04 0.00 0.00 0.00 0.00 0.00 0.00 0.00 0.00 0.01 0.01 0.01 0.01 0.00 0.00 0.00 0.00 0.01 0.04 0.08 0.16 0.24 0.24 0.13 0.05 0.01 0.00 0.01 0.01
0.18 0.17 0.17 0.26 0.30 0.22 0.16 0.11 0.18 0.18 0.19 0.13 0.12 0.09 0.09 0.04 0.04 0.03 0.01 0.01 0.01 0.00 0.00 0.01 0.01 0.01 0.01 0.00 0.00 0.00 0.00 0.01 0.03 0.06 0.14 0.27 0.50 0.53 0.35 0.14 0.08 0.06 0.07
0.18 0.22 0.20 0.27 0.28 0.26 0.28 0.29 0.22 0.20 0.16 0.18 0.17 0.18 0.14 0.12 0.08 0.07 0.04 0.05 0.05 0.04 0.02 0.01 0.00 0.00 0.00 0.00 0.00 0.01 0.05 0.07 0.09 0.13 0.19 0.28 0.43 0.56 0.57 0.47 0.32 0.19 0.16
0.12 0.12 0.15 0.15 0.21 0.28 0.30 0.30 0.34 0.26 0.22 0.21 0.18 0.19 0.19 0.20 0.14 0.09 0.08 0.08 0.07 0.05 0.02 0.01 0.00 0.00 0.00 0.01 0.03 0.07 0.14 0.19 0.24 0.30 0.37 0.44 0.46 0.51 0.55 0.62 0.62 0.50 0.42
0.08 0.11 0.16 0.16 0.16 0.20 0.28 0.35 0.33 0.29 0.31 0.28 0.25 0.23 0.25 0.26 0.26 0.28 0.30 0.24 0.18 0.12 0.07 0.06 0.06 0.05 0.05 0.06 0.09 0.16 0.21 0.26 0.29 0.31 0.34 0.39 0.45 0.46 0.41 0.49 0.73 0.87 0.95
0.07 0.10 0.16 0.16 0.18 0.19 0.18 0.21 0.23 0.27 0.30 0.30 0.29 0.28 0.26 0.26 0.27 0.28 0.33 0.34 0.32 0.22 0.13 0.07 0.05 0.08 0.10 0.11 0.14 0.20 0.24 0.35 0.40 0.47 0.55 0.64 0.71 0.72 0.68 0.65 0.76 1.05 0.97
0.07 0.08 0.11 0.14 0.15 0.18 0.20 0.22 0.21 0.23 0.27 0.27 0.29 0.29 0.24 0.21 0.23 0.23 0.24 0.24 0.30 0.28 0.19 0.13 0.14 0.16 0.20 0.29 0.42 0.50 0.57 0.67 0.71 0.73 0.75 0.76 0.75 0.68 0.57 0.51 0.54 0.53 0.46
0.05 0.06 0.08 0.09 0.11 0.15 0.18 0.21 0.19 0.22 0.24 0.28 0.29 0.30 0.26 0.21 0.23 0.24 0.23 0.20 0.27 0.38 0.49 0.40 0.45 0.52 0.55 0.55 0.58 0.52 0.50 0.55 0.53 0.56 0.59 0.62 0.61 0.52 0.47 0.43 0.44 0.43 0.41
0.04 0.05 0.08 0.09 0.08 0.08 0.10 0.16 0.19 0.19 0.24 0.24 0.23 0.28 0.31 0.35 0.44 0.53 0.59 0.68 0.79 0.90 0.95 0.82 0.63 0.54 0.48 0.44 0.47 0.42 0.39 0.37 0.38 0.52 0.50 0.49 0.46 0.36 0.32 0.28 0.26 0.26 0.26
0.05 0.06 0.07 0.06 0.05 0.04 0.04 0.06 0.10 0.14 0.17 0.18 0.19 0.20 0.17 0.16 0.20 0.24 0.26 0.32 0.43 0.53 0.65 0.73 0.67 0.63 0.58 0.52 0.47 0.39 0.33 0.30 0.29 0.35 0.32 0.24 0.18 0.14 0.13 0.13 0.15 0.17 0.21
0.08 0.07 0.05 0.05 0.06 0.05 0.05 0.04 0.06 0.11 0.13 0.16 0.17 0.18 0.18 0.18 0.21 0.25 0.28 0.33 0.40 0.47 0.54 0.61 0.61 0.55 0.49 0.44 0.37 0.26 0.24 0.21 0.18 0.19 0.16 0.12 0.10 0.09 0.09 0.12 0.13 0.14 0.12
0.07 0.06 0.08 0.08 0.07 0.06 0.08 0.11 0.14 0.16 0.16 0.17 0.18 0.20 0.20 0.20 0.22 0.26 0.31 0.38 0.40 0.37 0.34 0.32 0.36 0.31 0.25 0.20 0.16 0.12 0.09 0.06 0.03 0.03 0.03 0.02 0.02 0.01 0.02 0.02 0.02 0.01 0.00
0.06 0.04 0.08 0.15 0.17 0.17 0.16 0.13 0.11 0.12 0.15 0.19 0.21 0.23 0.26 0.33 0.39 0.37 0.32 0.30 0.30 0.32 0.36 0.37 0.26 0.21 0.12 0.05 0.04 0.03 0.03 0.03 0.01 0.00 0.00 0.00 0.00 0.00 0.00 0.00 0.00 0.00 0.00
0.08 0.12 0.11 0.11 0.14 0.18 0.36 0.28 0.18 0.15 0.17 0.21 0.26 0.33 0.41 0.49 0.45 0.41 0.33 0.26 0.21 0.27 0.27 0.24 0.19 0.07 0.02 0.01 0.01 0.03 0.06 0.06 0.06 0.00 0.00 0.00 0.00 0.00 0.00 0.00 0.00 0.01 0.01
0.24 0.23 0.22 0.26 0.25 0.24 0.34 0.28 0.33 0.36 0.42 0.47 0.48 0.44 0.36 0.33 0.31 0.26 0.22 0.22 0.24 0.18 0.12 0.07 0.02 0.00 0.01 0.03 0.10 0.10 0.08 0.11 0.06 0.00 0.02 0.02 0.00 0.00 0.00 0.00 0.00 0.00 0.01
0.46 0.54 0.56 0.58 0.64 0.76 0.78 0.67 0.53 0.44 0.45 0.47 0.44 0.39 0.32 0.26 0.18 0.13 0.16 0.19 0.08 0.02 0.00 0.00 0.00 0.01 0.04 0.04 0.07 0.17 0.10 0.07 0.02 0.00 0.00 0.04 0.00 0.00 0.00 0.00 0.00 0.00 0.00
0.78 0.78 0.68 0.55 0.59 0.70 0.65 0.49 0.44 0.39 0.29 0.19 0.14 0.07 0.03 0.03 0.03 0.06 0.08 0.04 0.00 0.00 0.00 0.01 0.02 0.02 0.01 0.01 0.00 0.06 0.07 0.07 0.05 0.00 0.00 0.01 0.00 0.00 0.00 0.00 0.00 0.00 0.00
0.65 0.58 0.63 0.60 0.50 0.43 0.31 0.19 0.10 0.08 0.05 0.02 0.00 0.00 0.00 0.01 0.04 0.08 0.03 0.00 0.00 0.00 0.05 0.02 0.00 0.00 0.00 0.00 0.00 0.01 0.07 0.25 0.14 0.13 0.00 0.14 0.07 0.05 0.20 0.01 0.00 0.00 0.00

GFSMA_prec_precacc_066.txt.gz
Total_Precipitation_Accumulation
0.00 0.00 0.00 0.00 0.00 0.00 0.00 0.00 0.00 0.00 0.00 0.00 0.00 0.00 0.00 0.00 0.00 0.00 0.00 0.00 0.00 0.00 0.00 0.01 0.01 0.00 0.00 0.00 0.01 0.04 0.04 0.03 0.02 0.03 0.04 0.04 0.04 0.02 0.02 0.04 0.06 0.07 0.08
0.00 0.00 0.00 0.00 0.00 0.00 0.00 0.00 0.00 0.00 0.00 0.00 0.00 0.00 0.00 0.00 0.00 0.00 0.00 0.00 0.00 0.00 0.00 0.00 0.00 0.01 0.00 0.00 0.00 0.00 0.00 0.00 0.00 0.01 0.01 0.01 0.01 0.02 0.01 0.03 0.05 0.06 0.07
0.00 0.00 0.00 0.00 0.00 0.00 0.00 0.00 0.00 0.00 0.00 0.00 0.00 0.00 0.00 0.00 0.00 0.00 0.00 0.00 0.00 0.00 0.00 0.00 0.00 0.00 0.00 0.00 0.01 0.00 0.00 0.00 0.00 0.00 0.00 0.00 0.00 0.00 0.00 0.00 0.01 0.03 0.05
0.00 0.00 0.00 0.00 0.00 0.00 0.00 0.00 0.00 0.00 0.00 0.00 0.00 0.00 0.00 0.00 0.00 0.00 0.00 0.00 0.00 0.00 0.00 0.00 0.00 0.00 0.00 0.01 0.01 0.01 0.01 0.00 0.00 0.00 0.00 0.00 0.00 0.00 0.00 0.00 0.00 0.00 0.00
0.00 0.00 0.00 0.00 0.00 0.00 0.00 0.00 0.00 0.00 0.00 0.00 0.00 0.00 0.00 0.00 0.00 0.00 0.00 0.00 0.00 0.00 0.00 0.00 0.00 0.00 0.01 0.00 0.01 0.03 0.07 0.06 0.02 0.00 0.00 0.00 0.00 0.00 0.00 0.00 0.00 0.00 0.00
0.02 0.02 0.01 0.00 0.00 0.00 0.00 0.00 0.00 0.00 0.00 0.01 0.01 0.00 0.00 0.00 0.00 0.00 0.00 0.01 0.01 0.01 0.00 0.00 0.00 0.00 0.00 0.00 0.00 0.00 0.02 0.09 0.13 0.06 0.01 0.00 0.00 0.00 0.00 0.00 0.00 0.00 0.00
0.15 0.11 0.06 0.03 0.01 0.00 0.01 0.01 0.01 0.01 0.01 0.05 0.04 0.00 0.00 0.00 0.00 0.00 0.00 0.02 0.01 0.01 0.00 0.00 0.00 0.00 0.00 0.00 0.00 0.00 0.00 0.03 0.12 0.15 0.11 0.05 0.01 0.00 0.00 0.00 0.00 0.00 0.00
0.19 0.12 0.10 0.11 0.06 0.03 0.02 0.02 0.06 0.08 0.07 0.14 0.18 0.07 0.01 0.00 0.00 0.00 0.00 0.00 0.00 0.00 0.00 0.00 0.00 0.00 0.00 0.00 0.00 0.00 0.00 0.03 0.09 0.21 0.30 0.27 0.18 0.07 0.02 0.01 0.00 0.01 0.02
0.18 0.15 0.20 0.21 0.21 0.14 0.07 0.09 0.15 0.17 0.17 0.18 0.16 0.17 0.05 0.01 0.00 0.00 0.00 0.00 0.00 0.00 0.00 0.01 0.01 0.01 0.01 0.00 0.00 0.00 0.00 0.01 0.04 0.08 0.17 0.30 0.35 0.30 0.23 0.13 0.03 0.01 0.01
0.18 0.17 0.17 0.26 0.30 0.22 0.16 0.11 0.18 0.18 0.20 0.14 0.12 0.11 0.10 0.06 0.05 0.03 0.01 0.01 0.01 0.00 0.00 0.01 0.01 0.01 0.01 0.00 0.00 0.00 0.00 0.01 0.03 0.06 0.14 0.27 0.51 0.59 0.48 0.30 0.18 0.09 0.08
0.18 0.22 0.20 0.27 0.28 0.26 0.28 0.29 0.22 0.20 0.16 0.18 0.17 0.19 0.14 0.13 0.09 0.08 0.04 0.05 0.05 0.04 0.02 0.01 0.00 0.00 0.00 0.00 0.00 0.01 0.05 0.07 0.09 0.13 0.19 0.28 0.43 0.58 0.64 0.59 0.50 0.40 0.27
0.12 0.12 0.15 0.15 0.21 0.28 0.30 0.30 0.34 0.26 0.22 0.21 0.18 0.19 0.19 0.21 0.14 0.10 0.09 0.08 0.08 0.05 0.02 0.01 0.00 0.00 0.00 0.01 0.03 0.07 0.14 0.19 0.24 0.30 0.37 0.44 0.47 0.53 0.56 0.65 0.70 0.68 0.64
0.08 0.11 0.16 0.16 0.16 0.20 0.28 0.35 0.33 0.29 0.31 0.28 0.25 0.23 0.25 0.26 0.28 0.29 0.31 0.25 0.19 0.13 0.08 0.06 0.06 0.05 0.05 0.06 0.09 0.16 0.21 0.26 0.29 0.31 0.34 0.39 0.45 0.46 0.41 0.49 0.73 0.93 1.18
0.07 0.10 0.16 0.16 0.18 0.19 0.18 0.21 0.23 0.27 0.30 0.30 0.29 0.29 0.28 0.27 0.29 0.30 0.34 0.35 0.33 0.23 0.14 0.07 0.05 0.08 0.10 0.11 0.14 0.20 0.24 0.35 0.40 0.47 0.55 0.64 0.71 0.72 0.68 0.65 0.76 1.06 0.98
0.07 0.08 0.11 0.14 0.15 0.18 0.20 0.22 0.21 0.23 0.27 0.27 0.29 0.29 0.24 0.21 0.23 0.24 0.25 0.27 0.32 0.30 0.20 0.13 0.14 0.16 0.20 0.29 0.42 0.50 0.57 0.67 0.72 0.74 0.75 0.76 0.75 0.68 0.57 0.51 0.55 0.53 0.46
0.05 0.06 0.08 0.09 0.11 0.15 0.18 0.21 0.19 0.22 0.24 0.28 0.29 0.30 0.27 0.22 0.23 0.24 0.23 0.23 0.31 0.41 0.50 0.40 0.45 0.52 0.55 0.55 0.58 0.52 0.50 0.55 0.53 0.57 0.59 0.62 0.62 0.53 0.48 0.45 0.46 0.44 0.42
0.04 0.05 0.08 0.09 0.08 0.08 0.10 0.16 0.19 0.19 0.24 0.24 0.23 0.28 0.31 0.35 0.44 0.53 0.59 0.68 0.79 0.90 0.95 0.82 0.63 0.54 0.48 0.44 0.47 0.42 0.39 0.37 0.38 0.53 0.50 0.50 0.46 0.36 0.33 0.30 0.28 0.27 0.27
0.05 0.06 0.07 0.06 0.05 0.04 0.04 0.06 0.10 0.14 0.17 0.18 0.19 0.20 0.17 0.16 0.20 0.24 0.26 0.32 0.43 0.53 0.65 0.73 0.67 0.63 0.58 0.52 0.47 0.39 0.33 0.30 0.29 0.35 0.32 0.24 0.18 0.14 0.14 0.14 0.16 0.18 0.21
0.08 0.07 0.05 0.05 0.06 0.05 0.05 0.04 0.06 0.11 0.13 0.16 0.17 0.18 0.18 0.18 0.21 0.25 0.28 0.33 0.40 0.47 0.54 0.61 0.61 0.55 0.49 0.44 0.37 0.26 0.24 0.21 0.18 0.19 0.16 0.12 0.10 0.09 0.09 0.12 0.13 0.14 0.12
0.07 0.06 0.08 0.08 0.07 0.06 0.08 0.11 0.14 0.16 0.16 0.17 0.18 0.20 0.20 0.20 0.22 0.26 0.31 0.38 0.40 0.37 0.34 0.32 0.36 0.31 0.25 0.20 0.16 0.12 0.09 0.06 0.03 0.03 0.03 0.02 0.02 0.01 0.02 0.02 0.02 0.01 0.00
0.06 0.04 0.08 0.15 0.17 0.17 0.16 0.13 0.11 0.12 0.15 0.19 0.21 0.23 0.26 0.33 0.39 0.37 0.32 0.30 0.30 0.32 0.36 0.37 0.26 0.21 0.12 0.05 0.04 0.03 0.03 0.03 0.01 0.00 0.00 0.00 0.00 0.00 0.00 0.00 0.00 0.00 0.00
0.08 0.12 0.11 0.11 0.14 0.18 0.36 0.28 0.18 0.15 0.17 0.21 0.26 0.33 0.41 0.49 0.45 0.41 0.33 0.26 0.21 0.27 0.27 0.24 0.19 0.07 0.02 0.01 0.01 0.03 0.06 0.06 0.06 0.00 0.00 0.00 0.00 0.00 0.00 0.00 0.00 0.01 0.01
0.24 0.23 0.22 0.26 0.25 0.24 0.34 0.28 0.33 0.36 0.42 0.47 0.48 0.44 0.36 0.33 0.31 0.26 0.22 0.22 0.24 0.18 0.12 0.07 0.02 0.00 0.01 0.03 0.10 0.10 0.08 0.11 0.06 0.00 0.02 0.02 0.00 0.00 0.00 0.00 0.00 0.00 0.01
0.46 0.54 0.56 0.58 0.64 0.76 0.79 0.67 0.53 0.44 0.45 0.47 0.44 0.39 0.32 0.26 0.18 0.13 0.16 0.19 0.08 0.02 0.00 0.00 0.00 0.01 0.04 0.04 0.07 0.17 0.10 0.07 0.02 0.00 0.00 0.04 0.00 0.00 0.00 0.00 0.00 0.00 0.00
0.78 0.78 0.68 0.55 0.59 0.70 0.65 0.49 0.44 0.39 0.29 0.19 0.14 0.07 0.03 0.03 0.03 0.06 0.08 0.04 0.00 0.00 0.00 0.01 0.02 0.02 0.01 0.01 0.00 0.06 0.07 0.07 0.05 0.00 0.00 0.01 0.00 0.00 0.00 0.00 0.00 0.00 0.00
0.65 0.58 0.63 0.60 0.50 0.43 0.31 0.19 0.10 0.08 0.05 0.02 0.00 0.00 0.00 0.01 0.04 0.08 0.03 0.00 0.00 0.00 0.05 0.02 0.00 0.00 0.00 0.00 0.00 0.01 0.07 0.25 0.14 0.13 0.00 0.14 0.07 0.05 0.20 0.01 0.00 0.00 0.00

GFSMA_prec_precacc_069.txt.gz
Total_Precipitation_Accumulation
0.00 0.00 0.00 0.00 0.00 0.00 0.00 0.00 0.00 0.00 0.00 0.00 0.00 0.00 0.00 0.00 0.00 0.00 0.00 0.00 0.00 0.00 0.00 0.01 0.01 0.00 0.00 0.00 0.01 0.04 0.04 0.03 0.02 0.03 0.04 0.04 0.04 0.02 0.02 0.04 0.06 0.07 0.08
0.00 0.00 0.00 0.00 0.00 0.00 0.00 0.00 0.00 0.00 0.00 0.00 0.00 0.00 0.00 0.00 0.00 0.00 0.00 0.00 0.00 0.00 0.00 0.00 0.00 0.01 0.01 0.00 0.00 0.00 0.00 0.00 0.00 0.01 0.01 0.01 0.01 0.02 0.01 0.03 0.05 0.06 0.07
0.00 0.00 0.00 0.00 0.00 0.00 0.00 0.00 0.00 0.00 0.00 0.00 0.00 0.00 0.00 0.00 0.00 0.00 0.00 0.00 0.00 0.00 0.00 0.00 0.00 0.00 0.00 0.01 0.02 0.01 0.00 0.00 0.00 0.00 0.00 0.00 0.00 0.00 0.00 0.00 0.01 0.03 0.05
0.00 0.00 0.00 0.00 0.00 0.00 0.00 0.00 0.00 0.00 0.00 0.00 0.00 0.00 0.00 0.00 0.00 0.00 0.00 0.00 0.00 0.00 0.00 0.00 0.00 0.00 0.00 0.01 0.02 0.05 0.07 0.04 0.00 0.00 0.00 0.00 0.00 0.00 0.00 0.00 0.00 0.00 0.00
0.00 0.00 0.00 0.00 0.00 0.00 0.00 0.00 0.00 0.00 0.00 0.00 0.00 0.00 0.00 0.00 0.00 0.00 0.00 0.00 0.00 0.00 0.00 0.00 0.00 0.00 0.01 0.00 0.01 0.04 0.11 0.15 0.09 0.01 0.00 0.00 0.00 0.00 0.00 0.00 0.00 0.00 0.00
0.02 0.02 0.01 0.00 0.00 0.00 0.00 0.00 0.00 0.00 0.00 0.01 0.01 0.00 0.00 0.00 0.00 0.00 0.00 0.01 0.02 0.01 0.00 0.00 0.00 0.00 0.00 0.00 0.00 0.01 0.03 0.12 0.21 0.16 0.06 0.01 0.00 0.00 0.00 0.00 0.00 0.00 0.00
0.15 0.11 0.06 0.03 0.01 0.00 0.01 0.01 0.01 0.01 0.01 0.05 0.05 0.00 0.00 0.00 0.00 0.00 0.00 0.02 0.01 0.01 0.00 0.00 0.00 0.00 0.00 0.00 0.00 0.00 0.01 0.04 0.15 0.24 0.23 0.17 0.05 0.01 0.00 0.00 0.00 0.00 0.00
0.19 0.12 0.10 0.11 0.06 0.03 0.02 0.02 0.06 0.08 0.07 0.14 0.19 0.08 0.02 0.00 0.00 0.00 0.00 0.00 0.00 0.00 0.00 0.00 0.00 0.00 0.00 0.00 0.00 0.00 0.00 0.04 0.10 0.23 0.35 0.41 0.36 0.21 0.08 0.02 0.01 0.01 0.02
0.18 0.15 0.20 0.21 0.21 0.14 0.07 0.09 0.16 0.18 0.18 0.18 0.17 0.19 0.06 0.02 0.00 0.00 0.00 0.00 0.00 0.00 0.00 0.01 0.01 0.01 0.01 0.00 0.00 0.00 0.00 0.01 0.04 0.08 0.17 0.30 0.39 0.41 0.39 0.33 0.20 0.07 0.02
0.19 0.17 0.17 0.26 0.30 0.22 0.16 0.11 0.18 0.18 0.20 0.14 0.12 0.11 0.11 0.07 0.07 0.04 0.01 0.01 0.01 0.00 0.00 0.01 0.01 0.01 0.01 0.00 0.00 0.00 0.00 0.01 0.03 0.06 0.14 0.27 0.51 0.59 0.50 0.38 0.32 0.23 0.15
0.19 0.23 0.21 0.27 0.28 0.26 0.28 0.29 0.22 0.20 0.16 0.18 0.17 0.19 0.14 0.13 0.09 0.08 0.05 0.05 0.05 0.04 0.02 0.01 0.00 0.00 0.00 0.00 0.00 0.01 0.05 0.07 0.09 0.13 0.19 0.28 0.43 0.59 0.65 0.60 0.54 0.53 0.50
0.12 0.12 0.15 0.15 0.21 0.28 0.30 0.30 0.34 0.26 0.22 0.21 0.18 0.19 0.19 0.21 0.14 0.10 0.09 0.08 0.08 0.05 0.02 0.01 0.00 0.00 0.00 0.01 0.03 0.07 0.14 0.19 0.24 0.30 0.37 0.44 0.47 0.53 0.56 0.65 0.71 0.68 0.70
0.08 0.11 0.16 0.16 0.16 0.20 0.28 0.35 0.33 0.29 0.31 0.28 0.25 0.23 0.25 0.26 0.28 0.29 0.32 0.26 0.20 0.13 0.09 0.07 0.06 0.05 0.05 0.06 0.09 0.16 0.21 0.26 0.29 0.31 0.34 0.39 0.45 0.46 0.41 0.49 0.73 0.93 1.18
0.07 0.10 0.16 0.16 0.18 0.19 0.18 0.21 0.23 0.27 0.30 0.30 0.29 0.29 0.28 0.28 0.29 0.31 0.35 0.36 0.34 0.23 0.15 0.08 0.05 0.08 0.10 0.11 0.14 0.20 0.24 0.35 0.40 0.47 0.55 0.64 0.71 0.72 0.68 0.65 0.76 1.06 0.98
0.07 0.08 0.11 0.14 0.15 0.18 0.20 0.22 0.21 0.23 0.27 0.27 0.29 0.29 0.24 0.21 0.23 0.24 0.26 0.28 0.33 0.31 0.21 0.14 0.14 0.16 0.20 0.29 0.42 0.50 0.57 0.67 0.72 0.74 0.76 0.77 0.76 0.69 0.58 0.52 0.56 0.54 0.47
0.05 0.06 0.08 0.09 0.11 0.15 0.18 0.21 0.19 0.22 0.24 0.28 0.29 0.30 0.27 0.22 0.23 0.24 0.23 0.23 0.31 0.43 0.53 0.41 0.45 0.52 0.55 0.55 0.58 0.52 0.50 0.55 0.54 0.57 0.60 0.63 0.62 0.54 0.49 0.46 0.48 0.46 0.44
0.04 0.05 0.08 0.09 0.08 0.08 0.10 0.16 0.19 0.19 0.24 0.24 0.23 0.28 0.31 0.35 0.44 0.54 0.59 0.68 0.79 0.90 0.96 0.83 0.63 0.54 0.48 0.44 0.47 0.42 0.39 0.37 0.38 0.53 0.51 0.50 0.46 0.37 0.33 0.30 0.29 0.28 0.27
0.05 0.06 0.07 0.06 0.05 0.04 0.04 0.06 0.10 0.14 0.17 0.18 0.19 0.20 0.17 0.16 0.20 0.24 0.26 0.32 0.43 0.53 0.65 0.73 0.67 0.63 0.58 0.52 0.47 0.39 0.33 0.30 0.29 0.35 0.32 0.25 0.18 0.14 0.14 0.14 0.16 0.18 0.22
0.08 0.07 0.05 0.05 0.06 0.05 0.05 0.04 0.06 0.11 0.13 0.16 0.17 0.18 0.18 0.18 0.21 0.25 0.28 0.33 0.40 0.47 0.54 0.61 0.61 0.55 0.49 0.44 0.37 0.26 0.24 0.21 0.18 0.19 0.16 0.12 0.10 0.09 0.09 0.12 0.13 0.14 0.12
0.07 0.06 0.08 0.08 0.07 0.06 0.08 0.11 0.14 0.16 0.16 0.17 0.18 0.20 0.20 0.20 0.22 0.26 0.31 0.38 0.40 0.37 0.34 0.32 0.36 0.31 0.25 0.20 0.16 0.12 0.09 0.06 0.03 0.03 0.03 0.02 0.02 0.01 0.02 0.02 0.02 0.01 0.00
0.06 0.04 0.08 0.15 0.17 0.17 0.16 0.13 0.11 0.12 0.15 0.19 0.21 0.23 0.26 0.33 0.39 0.37 0.32 0.30 0.30 0.32 0.36 0.37 0.26 0.21 0.12 0.05 0.04 0.03 0.03 0.03 0.01 0.00 0.00 0.00 0.00 0.00 0.00 0.00 0.00 0.00 0.00
0.08 0.12 0.11 0.11 0.14 0.18 0.36 0.28 0.18 0.15 0.17 0.21 0.26 0.33 0.41 0.49 0.45 0.41 0.33 0.26 0.21 0.27 0.27 0.24 0.19 0.07 0.02 0.01 0.01 0.03 0.06 0.06 0.06 0.00 0.00 0.00 0.00 0.00 0.00 0.00 0.00 0.01 0.01
0.24 0.23 0.22 0.26 0.25 0.24 0.35 0.29 0.33 0.36 0.42 0.47 0.48 0.44 0.36 0.33 0.31 0.26 0.22 0.22 0.24 0.18 0.12 0.07 0.02 0.00 0.01 0.03 0.10 0.10 0.08 0.11 0.06 0.00 0.02 0.02 0.00 0.00 0.00 0.00 0.00 0.00 0.01
0.46 0.54 0.56 0.58 0.64 0.76 0.79 0.67 0.54 0.44 0.45 0.47 0.44 0.39 0.32 0.26 0.18 0.13 0.16 0.19 0.08 0.02 0.00 0.00 0.00 0.01 0.04 0.04 0.07 0.17 0.10 0.07 0.02 0.00 0.00 0.04 0.00 0.00 0.00 0.00 0.00 0.00 0.00
0.78 0.78 0.68 0.55 0.59 0.71 0.65 0.49 0.44 0.39 0.29 0.19 0.14 0.07 0.03 0.03 0.03 0.06 0.08 0.04 0.00 0.00 0.00 0.01 0.02 0.02 0.01 0.01 0.00 0.06 0.07 0.07 0.05 0.00 0.00 0.01 0.00 0.00 0.00 0.00 0.00 0.00 0.00
0.65 0.58 0.63 0.60 0.51 0.43 0.31 0.19 0.10 0.08 0.05 0.02 0.00 0.00 0.00 0.01 0.04 0.08 0.03 0.00 0.00 0.00 0.05 0.02 0.00 0.00 0.00 0.00 0.00 0.01 0.07 0.25 0.14 0.13 0.00 0.14 0.07 0.05 0.20 0.01 0.00 0.00 0.00

GFSMA_prec_precacc_072.txt.gz
Total_Precipitation_Accumulation
0.00 0.00 0.00 0.00 0.00 0.00 0.00 0.00 0.00 0.00 0.00 0.00 0.00 0.00 0.00 0.00 0.00 0.00 0.00 0.00 0.00 0.00 0.00 0.01 0.01 0.01 0.00 0.00 0.01 0.04 0.04 0.03 0.02 0.03 0.04 0.04 0.04 0.02 0.02 0.04 0.06 0.07 0.08
0.00 0.00 0.00 0.00 0.00 0.00 0.00 0.00 0.00 0.00 0.00 0.00 0.00 0.00 0.00 0.00 0.00 0.00 0.00 0.00 0.00 0.00 0.00 0.00 0.00 0.02 0.06 0.02 0.00 0.00 0.00 0.00 0.00 0.01 0.01 0.01 0.01 0.02 0.01 0.03 0.05 0.06 0.07
0.00 0.00 0.00 0.00 0.00 0.00 0.00 0.00 0.00 0.00 0.00 0.00 0.00 0.00 0.00 0.00 0.00 0.00 0.00 0.00 0.00 0.00 0.00 0.00 0.00 0.00 0.00 0.02 0.06 0.06 0.03 0.00 0.00 0.00 0.00 0.00 0.00 0.00 0.00 0.00 0.01 0.03 0.05
0.00 0.00 0.00 0.00 0.00 0.00 0.00 0.00 0.00 0.00 0.00 0.00 0.00 0.00 0.00 0.00 0.00 0.00 0.00 0.00 0.00 0.00 0.00 0.00 0.00 0.00 0.00 0.01 0.03 0.08 0.15 0.14 0.03 0.00 0.00 0.00 0.00 0.00 0.00 0.00 0.00 0.00 0.00
0.00 0.00 0.00 0.00 0.00 0.00 0.00 0.00 0.00 0.00 0.00 0.00 0.00 0.00 0.00 0.00 0.00 0.00 0.00 0.00 0.00 0.00 0.00 0.00 0.00 0.00 0.01 0.00 0.01 0.04 0.14 0.23 0.19 0.09 0.02 0.00 0.00 0.00 0.00 0.00 0.00 0.00 0.00
0.02 0.02 0.01 0.00 0.00 0.00 0.00 0.00 0.00 0.00 0.00 0.01 0.01 0.01 0.00 0.00 0.00 0.00 0.00 0.01 0.02 0.01 0.00 0.00 0.00 0.00 0.00 0.00 0.00 0.01 0.03 0.13 0.26 0.25 0.19 0.08 0.01 0.00 0.00 0.00 0.00 0.00 0.00
0.15 0.11 0.06 0.03 0.01 0.00 0.01 0.01 0.01 0.01 0.01 0.05 0.05 0.00 0.00 0.00 0.00 0.00 0.00 0.02 0.01 0.01 0.00 0.00 0.00 0.00 0.00 0.00 0.00 0.00 0.01 0.05 0.18 0.31 0.31 0.30 0.19 0.07 0.01 0.00 0.00 0.00 0.00
0.19 0.12 0.10 0.11 0.06 0.03 0.02 0.02 0.06 0.08 0.08 0.14 0.19 0.08 0.02 0.00 0.00 0.00 0.00 0.00 0.00 0.00 0.00 0.00 0.00 0.00 0.00 0.00 0.00 0.00 0.00 0.04 0.10 0.23 0.36 0.45 0.47 0.38 0.24 0.13 0.05 0.01 0.02
0.18 0.15 0.20 0.21 0.21 0.14 0.07 0.09 0.16 0.18 0.18 0.18 0.17 0.20 0.07 0.02 0.00 0.00 0.00 0.00 0.00 0.00 0.00 0.01 0.01 0.01 0.01 0.00 0.00 0.00 0.00 0.01 0.04 0.08 0.17 0.30 0.39 0.44 0.48 0.49 0.37 0.31 0.20
0.23 0.18 0.18 0.26 0.30 0.22 0.16 0.11 0.18 0.18 0.20 0.14 0.12 0.11 0.11 0.08 0.08 0.04 0.01 0.01 0.01 0.00 0.00 0.01 0.01 0.01 0.01 0.00 0.00 0.00 0.00 0.01 0.03 0.06 0.14 0.27 0.51 0.59 0.51 0.39 0.36 0.30 0.37
0.29 0.29 0.24 0.29 0.28 0.26 0.28 0.29 0.22 0.20 0.16 0.18 0.17 0.19 0.14 0.13 0.09 0.09 0.05 0.05 0.05 0.04 0.02 0.01 0.00 0.00 0.00 0.00 0.00 0.01 0.05 0.07 0.09 0.13 0.19 0.28 0.44 0.60 0.65 0.61 0.54 0.55 0.59
0.21 0.22 0.20 0.18 0.22 0.28 0.30 0.30 0.34 0.26 0.22 0.21 0.18 0.19 0.19 0.21 0.14 0.10 0.10 0.08 0.08 0.05 0.02 0.01 0.00 0.00 0.00 0.01 0.03 0.07 0.14 0.19 0.24 0.30 0.37 0.44 0.47 0.53 0.56 0.65 0.71 0.68 0.70
0.12 0.15 0.17 0.16 0.16 0.20 0.28 0.35 0.33 0.29 0.31 0.28 0.25 0.23 0.25 0.26 0.28 0.29 0.32 0.26 0.20 0.13 0.09 0.07 0.06 0.06 0.05 0.06 0.09 0.16 0.21 0.26 0.29 0.31 0.34 0.39 0.45 0.46 0.41 0.49 0.73 0.93 1.18
0.09 0.11 0.16 0.16 0.18 0.19 0.18 0.21 0.23 0.27 0.30 0.30 0.29 0.29 0.28 0.28 0.29 0.31 0.36 0.37 0.35 0.23 0.15 0.09 0.06 0.08 0.11 0.11 0.14 0.20 0.24 0.35 0.40 0.47 0.55 0.65 0.72 0.72 0.68 0.65 0.76 1.06 0.98
0.07 0.08 0.11 0.14 0.15 0.18 0.20 0.22 0.21 0.23 0.27 0.27 0.29 0.29 0.24 0.21 0.23 0.24 0.26 0.29 0.35 0.32 0.22 0.14 0.14 0.17 0.20 0.29 0.43 0.50 0.57 0.67 0.72 0.74 0.76 0.77 0.76 0.70 0.60 0.54 0.57 0.55 0.47
0.05 0.06 0.08 0.09 0.11 0.15 0.18 0.21 0.19 0.22 0.24 0.28 0.29 0.30 0.27 0.22 0.23 0.24 0.23 0.23 0.31 0.44 0.54 0.41 0.46 0.53 0.55 0.55 0.58 0.52 0.50 0.55 0.54 0.57 0.60 0.63 0.62 0.54 0.50 0.47 0.48 0.46 0.45
0.04 0.05 0.08 0.09 0.08 0.08 0.10 0.16 0.19 0.19 0.24 0.24 0.23 0.28 0.31 0.35 0.44 0.54 0.59 0.68 0.80 0.90 0.97 0.85 0.65 0.56 0.49 0.44 0.47 0.42 0.39 0.37 0.38 0.53 0.51 0.51 0.46 0.37 0.34 0.31 0.29 0.28 0.27
0.05 0.06 0.07 0.06 0.05 0.04 0.04 0.06 0.10 0.14 0.17 0.18 0.19 0.20 0.17 0.16 0.20 0.24 0.26 0.32 0.43 0.53 0.66 0.73 0.67 0.63 0.58 0.52 0.47 0.39 0.33 0.30 0.29 0.35 0.33 0.25 0.18 0.14 0.14 0.14 0.16 0.19 0.22
0.08 0.07 0.05 0.05 0.06 0.05 0.05 0.04 0.06 0.11 0.13 0.16 0.17 0.18 0.18 0.18 0.21 0.25 0.28 0.33 0.40 0.47 0.54 0.61 0.61 0.55 0.49 0.44 0.37 0.26 0.24 0.21 0.18 0.19 0.16 0.12 0.10 0.09 0.09 0.12 0.13 0.14 0.12
0.07 0.06 0.08 0.08 0.07 0.06 0.08 0.11 0.14 0.16 0.16 0.17 0.18 0.20 0.20 0.20 0.22 0.26 0.31 0.38 0.40 0.37 0.34 0.32 0.36 0.31 0.25 0.20 0.16 0.12 0.09 0.06 0.03 0.03 0.03 0.02 0.02 0.01 0.02 0.02 0.02 0.01 0.00
0.06 0.04 0.08 0.15 0.17 0.17 0.16 0.13 0.11 0.12 0.15 0.19 0.21 0.23 0.26 0.33 0.39 0.37 0.32 0.30 0.30 0.32 0.36 0.37 0.26 0.21 0.12 0.05 0.04 0.03 0.03 0.03 0.01 0.00 0.00 0.00 0.00 0.00 0.00 0.00 0.00 0.00 0.00
0.08 0.12 0.11 0.11 0.14 0.18 0.36 0.28 0.18 0.15 0.17 0.21 0.26 0.33 0.41 0.49 0.45 0.41 0.33 0.26 0.21 0.27 0.27 0.24 0.19 0.07 0.02 0.01 0.01 0.03 0.06 0.06 0.06 0.00 0.00 0.00 0.00 0.00 0.00 0.00 0.00 0.01 0.01
0.24 0.23 0.22 0.26 0.25 0.24 0.35 0.29 0.34 0.36 0.42 0.47 0.48 0.44 0.36 0.33 0.31 0.26 0.22 0.22 0.24 0.18 0.12 0.07 0.02 0.00 0.01 0.03 0.10 0.10 0.08 0.11 0.06 0.00 0.02 0.02 0.00 0.00 0.00 0.00 0.00 0.00 0.01
0.46 0.54 0.56 0.58 0.64 0.76 0.80 0.68 0.54 0.44 0.46 0.47 0.44 0.39 0.32 0.26 0.18 0.13 0.16 0.19 0.08 0.02 0.00 0.00 0.00 0.01 0.04 0.04 0.07 0.17 0.10 0.07 0.02 0.00 0.00 0.04 0.00 0.00 0.00 0.00 0.00 0.00 0.00
0.78 0.78 0.68 0.55 0.59 0.71 0.66 0.49 0.44 0.39 0.29 0.19 0.14 0.07 0.03 0.03 0.03 0.06 0.08 0.04 0.00 0.00 0.00 0.01 0.02 0.02 0.01 0.01 0.00 0.06 0.07 0.07 0.05 0.00 0.00 0.01 0.00 0.00 0.00 0.00 0.00 0.00 0.00
0.65 0.58 0.63 0.60 0.51 0.43 0.31 0.19 0.10 0.08 0.05 0.02 0.00 0.00 0.00 0.01 0.04 0.08 0.03 0.00 0.00 0.00 0.05 0.02 0.00 0.00 0.00 0.00 0.00 0.01 0.07 0.25 0.14 0.13 0.00 0.14 0.07 0.05 0.20 0.01 0.00 0.00 0.00

GFSMA_prec_precacc_075.txt.gz
Total_Precipitation_Accumulation
0.00 0.00 0.00 0.00 0.00 0.00 0.00 0.00 0.00 0.00 0.00 0.00 0.00 0.00 0.00 0.00 0.00 0.00 0.00 0.00 0.00 0.00 0.00 0.01 0.01 0.01 0.01 0.00 0.01 0.04 0.04 0.03 0.02 0.03 0.04 0.04 0.04 0.02 0.02 0.04 0.06 0.07 0.08
0.00 0.00 0.00 0.00 0.00 0.00 0.00 0.00 0.00 0.00 0.00 0.00 0.00 0.00 0.00 0.00 0.00 0.00 0.00 0.00 0.00 0.00 0.00 0.00 0.00 0.02 0.08 0.04 0.01 0.01 0.00 0.00 0.00 0.01 0.01 0.01 0.01 0.02 0.01 0.03 0.05 0.06 0.07
0.00 0.00 0.00 0.00 0.00 0.00 0.00 0.00 0.00 0.00 0.00 0.00 0.00 0.00 0.00 0.00 0.00 0.00 0.00 0.00 0.00 0.00 0.00 0.00 0.00 0.00 0.01 0.03 0.07 0.10 0.06 0.03 0.00 0.00 0.00 0.00 0.00 0.00 0.00 0.00 0.01 0.03 0.05
0.00 0.00 0.00 0.00 0.00 0.00 0.00 0.00 0.00 0.00 0.00 0.00 0.00 0.00 0.00 0.00 0.00 0.00 0.00 0.00 0.00 0.00 0.00 0.00 0.00 0.00 0.00 0.01 0.03 0.10 0.21 0.24 0.08 0.02 0.00 0.00 0.00 0.00 0.00 0.00 0.00 0.00 0.00
0.00 0.00 0.00 0.00 0.00 0.00 0.00 0.00 0.00 0.00 0.00 0.00 0.00 0.00 0.00 0.00 0.00 0.00 0.00 0.00 0.00 0.00 0.00 0.00 0.00 0.00 0.01 0.00 0.01 0.04 0.14 0.25 0.23 0.15 0.09 0.03 0.00 0.00 0.00 0.00 0.00 0.00 0.00
0.02 0.02 0.01 0.00 0.00 0.00 0.00 0.00 0.00 0.00 0.00 0.01 0.01 0.01 0.00 0.00 0.00 0.00 0.00 0.01 0.02 0.01 0.00 0.00 0.00 0.00 0.00 0.00 0.00 0.01 0.03 0.13 0.27 0.26 0.22 0.19 0.10 0.02 0.00 0.00 0.00 0.00 0.00
0.15 0.11 0.06 0.03 0.01 0.00 0.01 0.01 0.01 0.01 0.01 0.05 0.05 0.00 0.00 0.00 0.00 0.00 0.00 0.02 0.01 0.01 0.00 0.00 0.00 0.00 0.00 0.00 0.00 0.00 0.01 0.05 0.19 0.31 0.32 0.34 0.30 0.23 0.11 0.03 0.00 0.00 0.00
0.19 0.12 0.10 0.11 0.06 0.03 0.02 0.02 0.06 0.08 0.08 0.14 0.19 0.08 0.02 0.00 0.00 0.00 0.00 0.00 0.00 0.00 0.00 0.00 0.00 0.00 0.00 0.00 0.00 0.00 0.00 0.04 0.10 0.23 0.36 0.45 0.47 0.43 0.39 0.33 0.18 0.04 0.02
0.19 0.16 0.21 0.22 0.22 0.15 0.07 0.09 0.16 0.18 0.19 0.18 0.17 0.20 0.07 0.02 0.00 0.00 0.00 0.00 0.00 0.00 0.00 0.01 0.01 0.01 0.01 0.00 0.00 0.00 0.00 0.01 0.04 0.08 0.17 0.30 0.39 0.44 0.49 0.55 0.50 0.51 0.50
0.26 0.20 0.22 0.31 0.33 0.24 0.16 0.11 0.18 0.18 0.20 0.14 0.12 0.11 0.11 0.08 0.08 0.04 0.01 0.01 0.01 0.00 0.00 0.01 0.01 0.01 0.01 0.00 0.00 0.00 0.00 0.01 0.03 0.06 0.14 0.27 0.52 0.61 0.52 0.41 0.37 0.31 0.47
0.50 0.49 0.48 0.50 0.46 0.38 0.36 0.34 0.24 0.21 0.16 0.18 0.17 0.19 0.14 0.13 0.09 0.09 0.05 0.05 0.05 0.04 0.02 0.01 0.00 0.00 0.00 0.00 0.00 0.01 0.05 0.07 0.09 0.13 0.19 0.28 0.44 0.60 0.65 0.61 0.54 0.55 0.59
0.38 0.35 0.30 0.24 0.29 0.34 0.37 0.34 0.36 0.26 0.22 0.21 0.18 0.19 0.19 0.21 0.14 0.10 0.10 0.08 0.08 0.05 0.02 0.01 0.00 0.00 0.00 0.01 0.03 0.08 0.14 0.19 0.24 0.30 0.37 0.44 0.47 0.53 0.56 0.65 0.71 0.68 0.70
0.20 0.22 0.22 0.19 0.17 0.20 0.28 0.35 0.33 0.29 0.31 0.28 0.25 0.23 0.25 0.26 0.28 0.29 0.32 0.26 0.20 0.13 0.09 0.07 0.06 0.06 0.05 0.06 0.09 0.16 0.21 0.26 0.29 0.31 0.34 0.39 0.45 0.46 0.41 0.49 0.73 0.93 1.18
0.12 0.14 0.17 0.16 0.18 0.19 0.18 0.21 0.23 0.27 0.30 0.30 0.29 0.29 0.28 0.28 0.29 0.31 0.36 0.37 0.35 0.24 0.15 0.09 0.06 0.08 0.11 0.11 0.14 0.20 0.24 0.35 0.40 0.47 0.55 0.65 0.72 0.73 0.69 0.65 0.76 1.06 0.98
0.10 0.10 0.11 0.14 0.15 0.18 0.20 0.22 0.21 0.23 0.27 0.27 0.29 0.29 0.24 0.21 0.23 0.24 0.26 0.29 0.36 0.33 0.23 0.15 0.15 0.17 0.21 0.30 0.44 0.51 0.57 0.67 0.72 0.74 0.76 0.78 0.76 0.70 0.62 0.58 0.59 0.56 0.49
0.06 0.07 0.08 0.09 0.11 0.15 0.18 0.21 0.19 0.22 0.24 0.28 0.29 0.30 0.27 0.22 0.23 0.24 0.23 0.23 0.32 0.45 0.56 0.42 0.47 0.54 0.55 0.56 0.61 0.53 0.50 0.55 0.54 0.57 0.60 0.63 0.62 0.54 0.50 0.47 0.49 0.47 0.46
0.04 0.05 0.08 0.09 0.08 0.08 0.10 0.16 0.19 0.19 0.24 0.24 0.23 0.28 0.31 0.35 0.44 0.54 0.59 0.68 0.80 0.91 0.98 0.85 0.66 0.57 0.50 0.46 0.49 0.42 0.39 0.37 0.38 0.53 0.51 0.51 0.46 0.37 0.34 0.31 0.30 0.29 0.28
0.05 0.06 0.07 0.06 0.05 0.04 0.04 0.06 0.10 0.14 0.17 0.18 0.19 0.20 0.17 0.16 0.20 0.24 0.26 0.32 0.43 0.53 0.67 0.75 0.68 0.64 0.59 0.52 0.47 0.39 0.33 0.30 0.29 0.35 0.33 0.25 0.18 0.14 0.15 0.14 0.17 0.19 0.22
0.08 0.07 0.05 0.05 0.06 0.05 0.05 0.04 0.06 0.11 0.13 0.16 0.17 0.18 0.18 0.18 0.21 0.25 0.28 0.33 0.40 0.47 0.54 0.61 0.61 0.55 0.49 0.44 0.37 0.26 0.24 0.21 0.18 0.19 0.16 0.12 0.10 0.09 0.09 0.12 0.13 0.14 0.13
0.07 0.06 0.08 0.08 0.07 0.06 0.08 0.11 0.14 0.16 0.16 0.17 0.18 0.20 0.20 0.20 0.22 0.26 0.31 0.38 0.40 0.37 0.34 0.33 0.36 0.31 0.25 0.20 0.16 0.12 0.09 0.06 0.03 0.03 0.03 0.02 0.02 0.01 0.02 0.02 0.02 0.01 0.00
0.06 0.04 0.08 0.15 0.17 0.17 0.16 0.13 0.11 0.12 0.15 0.19 0.21 0.23 0.26 0.33 0.39 0.37 0.32 0.30 0.30 0.32 0.36 0.37 0.26 0.21 0.12 0.05 0.04 0.03 0.03 0.03 0.01 0.00 0.00 0.00 0.00 0.00 0.00 0.00 0.00 0.00 0.00
0.08 0.12 0.11 0.11 0.14 0.18 0.36 0.28 0.18 0.15 0.17 0.21 0.26 0.33 0.41 0.50 0.46 0.42 0.33 0.26 0.21 0.27 0.27 0.24 0.19 0.07 0.02 0.01 0.01 0.03 0.06 0.06 0.06 0.00 0.00 0.00 0.00 0.00 0.00 0.00 0.00 0.01 0.01
0.24 0.23 0.22 0.26 0.25 0.24 0.35 0.29 0.34 0.36 0.42 0.47 0.48 0.44 0.36 0.33 0.31 0.26 0.22 0.22 0.24 0.18 0.12 0.07 0.02 0.00 0.01 0.03 0.10 0.10 0.08 0.11 0.06 0.00 0.02 0.02 0.00 0.00 0.00 0.00 0.00 0.00 0.01
0.46 0.54 0.56 0.58 0.64 0.76 0.80 0.68 0.55 0.44 0.46 0.47 0.44 0.40 0.32 0.26 0.18 0.13 0.16 0.19 0.08 0.02 0.00 0.00 0.00 0.01 0.04 0.04 0.07 0.17 0.10 0.07 0.02 0.00 0.00 0.04 0.00 0.00 0.00 0.00 0.00 0.00 0.00
0.78 0.78 0.68 0.55 0.59 0.71 0.66 0.49 0.44 0.39 0.29 0.19 0.14 0.07 0.03 0.03 0.03 0.06 0.08 0.04 0.00 0.00 0.00 0.01 0.03 0.02 0.01 0.01 0.00 0.06 0.07 0.07 0.05 0.00 0.00 0.01 0.00 0.00 0.00 0.00 0.00 0.00 0.00
0.65 0.58 0.63 0.60 0.51 0.43 0.31 0.19 0.10 0.08 0.05 0.02 0.00 0.00 0.00 0.01 0.04 0.08 0.03 0.00 0.00 0.00 0.05 0.02 0.00 0.00 0.00 0.00 0.00 0.01 0.07 0.25 0.14 0.13 0.00 0.14 0.07 0.05 0.20 0.01 0.00 0.00 0.00

GFSMA_prec_precacc_078.txt.gz
Total_Precipitation_Accumulation
0.00 0.00 0.00 0.00 0.00 0.00 0.00 0.00 0.00 0.00 0.00 0.00 0.00 0.00 0.00 0.00 0.00 0.00 0.00 0.00 0.00 0.00 0.00 0.01 0.01 0.01 0.02 0.00 0.01 0.04 0.04 0.03 0.02 0.03 0.04 0.04 0.04 0.02 0.02 0.04 0.06 0.07 0.08
0.00 0.00 0.00 0.00 0.00 0.00 0.00 0.00 0.00 0.00 0.00 0.00 0.00 0.00 0.00 0.00 0.00 0.00 0.00 0.00 0.00 0.00 0.00 0.00 0.00 0.02 0.11 0.07 0.02 0.02 0.00 0.00 0.00 0.01 0.01 0.01 0.01 0.02 0.01 0.03 0.05 0.06 0.07
0.00 0.00 0.00 0.00 0.00 0.00 0.00 0.00 0.00 0.00 0.00 0.00 0.00 0.00 0.00 0.00 0.00 0.00 0.00 0.00 0.00 0.00 0.00 0.00 0.00 0.00 0.01 0.04 0.10 0.14 0.09 0.07 0.03 0.01 0.00 0.00 0.00 0.00 0.00 0.00 0.01 0.03 0.05
0.00 0.00 0.00 0.00 0.00 0.00 0.00 0.00 0.00 0.00 0.00 0.00 0.00 0.00 0.00 0.00 0.00 0.00 0.00 0.00 0.00 0.00 0.00 0.00 0.00 0.00 0.00 0.01 0.06 0.11 0.23 0.27 0.10 0.06 0.03 0.00 0.00 0.00 0.00 0.00 0.00 0.00 0.00
0.00 0.00 0.00 0.00 0.00 0.00 0.00 0.00 0.00 0.00 0.00 0.00 0.00 0.00 0.00 0.00 0.00 0.00 0.00 0.00 0.00 0.00 0.00 0.00 0.00 0.00 0.01 0.00 0.01 0.04 0.14 0.26 0.24 0.16 0.15 0.12 0.03 0.00 0.00 0.00 0.00 0.00 0.00
0.03 0.02 0.01 0.00 0.00 0.00 0.00 0.00 0.00 0.00 0.00 0.01 0.01 0.01 0.00 0.00 0.00 0.00 0.00 0.01 0.02 0.01 0.00 0.00 0.00 0.00 0.00 0.00 0.00 0.01 0.03 0.15 0.28 0.27 0.23 0.22 0.17 0.09 0.03 0.00 0.00 0.00 0.00
0.16 0.12 0.06 0.03 0.01 0.00 0.01 0.01 0.01 0.01 0.01 0.05 0.05 0.00 0.00 0.00 0.00 0.00 0.00 0.02 0.01 0.01 0.00 0.00 0.00 0.00 0.00 0.00 0.00 0.00 0.01 0.06 0.19 0.31 0.32 0.34 0.30 0.28 0.26 0.15 0.04 0.01 0.00
0.21 0.14 0.11 0.12 0.07 0.03 0.02 0.02 0.06 0.08 0.08 0.14 0.20 0.08 0.02 0.00 0.00 0.00 0.00 0.00 0.00 0.00 0.00 0.00 0.00 0.00 0.00 0.00 0.00 0.00 0.00 0.04 0.10 0.23 0.36 0.45 0.47 0.43 0.40 0.40 0.34 0.18 0.08
0.23 0.28 0.34 0.35 0.31 0.19 0.11 0.14 0.16 0.18 0.19 0.18 0.17 0.20 0.07 0.02 0.00 0.00 0.00 0.00 0.00 0.00 0.00 0.01 0.01 0.01 0.01 0.00 0.00 0.00 0.00 0.01 0.04 0.08 0.17 0.30 0.39 0.44 0.50 0.55 0.53 0.60 0.76
0.58 0.50 0.45 0.50 0.49 0.35 0.28 0.22 0.24 0.21 0.21 0.14 0.12 0.11 0.11 0.08 0.08 0.04 0.01 0.01 0.01 0.00 0.00 0.01 0.01 0.01 0.01 0.00 0.00 0.00 0.00 0.01 0.03 0.06 0.14 0.27 0.52 0.61 0.53 0.42 0.38 0.32 0.47
0.74 0.77 0.80 0.86 0.79 0.62 0.48 0.40 0.28 0.24 0.17 0.20 0.19 0.19 0.14 0.13 0.09 0.09 0.05 0.05 0.05 0.04 0.02 0.01 0.00 0.00 0.00 0.00 0.00 0.01 0.05 0.07 0.09 0.13 0.19 0.28 0.44 0.60 0.65 0.61 0.54 0.55 0.59
0.53 0.53 0.62 0.70 0.58 0.43 0.39 0.35 0.37 0.27 0.23 0.22 0.18 0.19 0.19 0.21 0.14 0.10 0.10 0.08 0.08 0.05 0.02 0.01 0.00 0.00 0.00 0.01 0.03 0.08 0.14 0.19 0.24 0.30 0.37 0.44 0.47 0.54 0.56 0.65 0.71 0.68 0.70
0.24 0.28 0.30 0.29 0.26 0.23 0.29 0.35 0.33 0.29 0.31 0.28 0.25 0.23 0.25 0.26 0.28 0.29 0.32 0.26 0.20 0.13 0.09 0.07 0.06 0.06 0.05 0.06 0.09 0.16 0.21 0.26 0.29 0.31 0.34 0.39 0.46 0.46 0.42 0.49 0.73 0.93 1.18
0.18 0.17 0.19 0.17 0.19 0.19 0.18 0.21 0.23 0.27 0.30 0.30 0.29 0.29 0.28 0.28 0.29 0.31 0.36 0.37 0.35 0.24 0.15 0.09 0.06 0.08 0.11 0.11 0.15 0.20 0.24 0.36 0.40 0.47 0.55 0.65 0.72 0.73 0.70 0.67 0.78 1.07 0.99
0.14 0.11 0.12 0.14 0.15 0.18 0.20 0.22 0.21 0.23 0.27 0.27 0.29 0.29 0.24 0.21 0.23 0.24 0.26 0.29 0.37 0.34 0.23 0.15 0.15 0.17 0.21 0.30 0.45 0.51 0.57 0.70 0.73 0.74 0.76 0.78 0.76 0.70 0.63 0.60 0.61 0.58 0.50
0.07 0.07 0.08 0.09 0.11 0.15 0.18 0.21 0.19 0.22 0.24 0.28 0.29 0.30 0.27 0.22 0.23 0.24 0.23 0.23 0.32 0.46 0.57 0.42 0.47 0.54 0.56 0.56 0.61 0.53 0.50 0.57 0.54 0.58 0.60 0.63 0.62 0.55 0.51 0.48 0.50 0.47 0.46
0.04 0.05 0.08 0.09 0.08 0.08 0.10 0.16 0.19 0.19 0.24 0.24 0.23 0.28 0.31 0.35 0.44 0.54 0.59 0.68 0.80 0.91 0.99 0.86 0.66 0.57 0.50 0.46 0.49 0.43 0.40 0.37 0.38 0.53 0.51 0.51 0.46 0.37 0.34 0.31 0.30 0.29 0.28
0.05 0.06 0.07 0.06 0.05 0.04 0.04 0.06 0.10 0.14 0.17 0.18 0.19 0.20 0.17 0.16 0.20 0.24 0.26 0.32 0.43 0.53 0.67 0.76 0.70 0.66 0.60 0.53 0.47 0.40 0.34 0.30 0.29 0.35 0.33 0.25 0.18 0.15 0.15 0.14 0.17 0.19 0.22
0.08 0.07 0.05 0.05 0.06 0.05 0.05 0.04 0.06 0.11 0.13 0.16 0.17 0.18 0.18 0.18 0.21 0.25 0.28 0.33 0.40 0.47 0.54 0.61 0.61 0.55 0.50 0.45 0.37 0.27 0.24 0.21 0.18 0.19 0.16 0.12 0.10 0.09 0.09 0.12 0.13 0.14 0.13
0.07 0.06 0.08 0.08 0.07 0.06 0.08 0.11 0.14 0.16 0.16 0.17 0.18 0.20 0.20 0.20 0.22 0.26 0.31 0.38 0.40 0.37 0.34 0.33 0.37 0.32 0.25 0.21 0.16 0.12 0.09 0.06 0.03 0.03 0.03 0.02 0.02 0.01 0.02 0.02 0.02 0.01 0.00
0.06 0.04 0.08 0.15 0.17 0.17 0.16 0.13 0.11 0.12 0.15 0.19 0.21 0.23 0.26 0.33 0.39 0.37 0.32 0.30 0.30 0.32 0.36 0.37 0.26 0.21 0.12 0.05 0.04 0.03 0.03 0.03 0.01 0.00 0.00 0.00 0.00 0.00 0.00 0.00 0.00 0.00 0.00
0.08 0.12 0.11 0.11 0.14 0.18 0.36 0.28 0.18 0.15 0.17 0.21 0.26 0.33 0.41 0.50 0.46 0.42 0.34 0.26 0.21 0.27 0.27 0.24 0.19 0.07 0.02 0.02 0.01 0.03 0.06 0.06 0.06 0.00 0.00 0.00 0.00 0.00 0.00 0.00 0.00 0.01 0.01
0.24 0.23 0.22 0.26 0.25 0.24 0.35 0.29 0.34 0.36 0.42 0.47 0.48 0.44 0.37 0.34 0.31 0.26 0.23 0.22 0.24 0.18 0.12 0.07 0.02 0.00 0.01 0.03 0.10 0.10 0.08 0.11 0.06 0.00 0.02 0.02 0.00 0.00 0.00 0.00 0.00 0.00 0.01
0.46 0.54 0.56 0.58 0.64 0.76 0.80 0.68 0.55 0.44 0.46 0.48 0.45 0.40 0.33 0.26 0.19 0.13 0.16 0.19 0.08 0.02 0.00 0.00 0.00 0.01 0.04 0.04 0.07 0.17 0.10 0.07 0.02 0.00 0.00 0.04 0.00 0.00 0.00 0.00 0.00 0.00 0.00
0.78 0.78 0.68 0.55 0.59 0.71 0.66 0.49 0.45 0.39 0.29 0.19 0.14 0.07 0.03 0.03 0.03 0.06 0.08 0.04 0.00 0.00 0.00 0.01 0.03 0.02 0.01 0.01 0.00 0.06 0.07 0.07 0.05 0.00 0.00 0.01 0.00 0.00 0.00 0.00 0.00 0.00 0.00
0.65 0.58 0.63 0.60 0.51 0.43 0.31 0.19 0.10 0.08 0.05 0.02 0.00 0.00 0.01 0.01 0.04 0.08 0.03 0.00 0.00 0.00 0.05 0.02 0.01 0.00 0.00 0.00 0.00 0.01 0.07 0.25 0.14 0.13 0.00 0.14 0.07 0.05 0.20 0.01 0.00 0.00 0.00

GFSMA_prec_precacc_081.txt.gz
Total_Precipitation_Accumulation
0.00 0.00 0.00 0.00 0.00 0.00 0.00 0.00 0.00 0.00 0.00 0.00 0.00 0.00 0.00 0.00 0.00 0.00 0.00 0.00 0.00 0.00 0.00 0.01 0.01 0.02 0.03 0.02 0.02 0.04 0.04 0.03 0.02 0.03 0.04 0.04 0.04 0.02 0.02 0.04 0.06 0.07 0.08
0.00 0.00 0.00 0.00 0.00 0.00 0.00 0.00 0.00 0.00 0.00 0.00 0.00 0.00 0.00 0.00 0.00 0.00 0.00 0.00 0.00 0.00 0.00 0.00 0.00 0.03 0.13 0.10 0.05 0.03 0.02 0.00 0.00 0.01 0.01 0.01 0.01 0.02 0.01 0.03 0.05 0.06 0.07
0.00 0.00 0.00 0.00 0.00 0.00 0.00 0.00 0.00 0.00 0.00 0.00 0.00 0.00 0.00 0.00 0.00 0.00 0.00 0.00 0.00 0.00 0.00 0.00 0.00 0.00 0.01 0.04 0.13 0.17 0.12 0.10 0.05 0.03 0.00 0.00 0.00 0.00 0.00 0.00 0.01 0.03 0.05
0.00 0.00 0.00 0.00 0.00 0.00 0.00 0.00 0.00 0.00 0.00 0.00 0.00 0.00 0.00 0.00 0.00 0.00 0.00 0.00 0.00 0.00 0.00 0.00 0.00 0.00 0.00 0.01 0.07 0.14 0.25 0.28 0.10 0.07 0.06 0.02 0.00 0.00 0.00 0.00 0.00 0.00 0.00
0.00 0.00 0.00 0.00 0.00 0.00 0.00 0.00 0.00 0.00 0.00 0.00 0.00 0.00 0.00 0.00 0.00 0.00 0.00 0.00 0.00 0.00 0.00 0.00 0.00 0.00 0.01 0.00 0.01 0.06 0.15 0.27 0.25 0.16 0.15 0.14 0.07 0.02 0.00 0.00 0.00 0.00 0.00
0.03 0.02 0.01 0.00 0.00 0.00 0.00 0.00 0.00 0.00 0.00 0.01 0.01 0.01 0.00 0.00 0.00 0.00 0.00 0.01 0.02 0.01 0.00 0.00 0.00 0.00 0.00 0.00 0.00 0.01 0.03 0.15 0.28 0.27 0.23 0.22 0.17 0.13 0.09 0.07 0.02 0.00 0.00
0.17 0.12 0.06 0.03 0.01 0.00 0.01 0.01 0.01 0.01 0.01 0.05 0.05 0.00 0.00 0.00 0.00 0.00 0.00 0.02 0.01 0.01 0.00 0.00 0.00 0.00 0.00 0.00 0.00 0.00 0.01 0.06 0.19 0.31 0.32 0.34 0.30 0.29 0.28 0.23 0.17 0.09 0.01
0.43 0.34 0.26 0.17 0.09 0.04 0.02 0.02 0.06 0.08 0.08 0.14 0.20 0.08 0.02 0.00 0.00 0.00 0.00 0.00 0.00 0.00 0.00 0.00 0.00 0.00 0.00 0.00 0.00 0.00 0.00 0.04 0.10 0.23 0.36 0.45 0.47 0.43 0.40 0.40 0.35 0.28 0.19
0.52 0.47 0.55 0.62 0.54 0.39 0.22 0.19 0.18 0.20 0.21 0.18 0.17 0.20 0.07 0.02 0.00 0.00 0.00 0.00 0.00 0.00 0.00 0.01 0.01 0.01 0.01 0.00 0.00 0.00 0.00 0.01 0.04 0.08 0.17 0.30 0.39 0.44 0.50 0.55 0.54 0.61 0.82
0.86 0.80 0.71 0.71 0.74 0.58 0.49 0.44 0.46 0.38 0.30 0.16 0.12 0.11 0.11 0.08 0.08 0.04 0.01 0.01 0.01 0.00 0.00 0.01 0.01 0.01 0.01 0.00 0.00 0.00 0.00 0.01 0.03 0.06 0.14 0.27 0.52 0.61 0.53 0.42 0.38 0.33 0.48
0.93 0.90 0.95 1.05 1.10 1.06 0.78 0.54 0.34 0.28 0.20 0.21 0.19 0.19 0.14 0.13 0.09 0.09 0.05 0.05 0.05 0.04 0.02 0.01 0.00 0.00 0.00 0.00 0.00 0.01 0.05 0.07 0.09 0.13 0.19 0.28 0.44 0.60 0.65 0.61 0.54 0.55 0.59
0.68 0.63 0.68 0.79 0.81 0.76 0.74 0.54 0.41 0.30 0.25 0.22 0.19 0.19 0.19 0.21 0.14 0.10 0.10 0.08 0.08 0.05 0.02 0.01 0.00 0.00 0.00 0.01 0.03 0.08 0.14 0.20 0.24 0.30 0.37 0.44 0.47 0.54 0.56 0.65 0.71 0.68 0.70
0.31 0.36 0.33 0.32 0.30 0.31 0.40 0.43 0.36 0.30 0.31 0.28 0.25 0.23 0.25 0.26 0.28 0.29 0.32 0.26 0.20 0.13 0.09 0.07 0.06 0.06 0.05 0.06 0.09 0.16 0.21 0.27 0.29 0.32 0.35 0.39 0.46 0.46 0.42 0.49 0.73 0.93 1.18
0.24 0.23 0.25 0.22 0.22 0.20 0.19 0.21 0.23 0.27 0.30 0.30 0.29 0.29 0.28 0.28 0.29 0.31 0.36 0.37 0.35 0.24 0.15 0.09 0.06 0.08 0.11 0.11 0.15 0.21 0.24 0.36 0.40 0.47 0.56 0.65 0.72 0.73 0.71 0.69 0.80 1.09 1.01
0.17 0.18 0.20 0.19 0.18 0.18 0.20 0.22 0.21 0.23 0.27 0.27 0.29 0.29 0.24 0.21 0.23 0.24 0.26 0.29 0.37 0.34 0.23 0.15 0.15 0.17 0.21 0.30 0.46 0.52 0.57 0.71 0.74 0.75 0.76 0.78 0.76 0.70 0.64 0.61 0.62 0.58 0.50
0.08 0.09 0.10 0.10 0.11 0.15 0.18 0.21 0.19 0.22 0.24 0.28 0.29 0.30 0.27 0.22 0.23 0.24 0.23 0.23 0.32 0.47 0.57 0.42 0.47 0.54 0.56 0.56 0.62 0.53 0.51 0.57 0.54 0.58 0.61 0.64 0.62 0.55 0.51 0.48 0.50 0.47 0.46
0.05 0.06 0.09 0.09 0.08 0.08 0.10 0.16 0.19 0.19 0.24 0.24 0.23 0.28 0.31 0.35 0.44 0.54 0.59 0.68 0.80 0.91 0.99 0.86 0.66 0.57 0.50 0.46 0.49 0.44 0.41 0.38 0.40 0.55 0.52 0.51 0.46 0.37 0.35 0.31 0.30 0.29 0.28
0.05 0.06 0.07 0.06 0.05 0.04 0.04 0.06 0.10 0.14 0.17 0.18 0.19 0.20 0.17 0.16 0.20 0.24 0.26 0.32 0.43 0.53 0.67 0.76 0.70 0.66 0.60 0.54 0.48 0.41 0.34 0.31 0.29 0.36 0.33 0.25 0.18 0.15 0.15 0.14 0.17 0.19 0.22
0.08 0.07 0.05 0.05 0.06 0.05 0.05 0.04 0.06 0.11 0.13 0.16 0.17 0.18 0.18 0.18 0.21 0.25 0.28 0.33 0.40 0.47 0.54 0.61 0.61 0.55 0.50 0.45 0.38 0.27 0.24 0.21 0.18 0.19 0.16 0.12 0.10 0.09 0.09 0.12 0.13 0.14 0.13
0.07 0.06 0.08 0.08 0.07 0.06 0.08 0.11 0.14 0.16 0.16 0.17 0.18 0.20 0.20 0.20 0.22 0.26 0.31 0.38 0.40 0.37 0.34 0.33 0.37 0.32 0.25 0.21 0.17 0.12 0.09 0.06 0.03 0.03 0.03 0.02 0.02 0.01 0.02 0.02 0.02 0.01 0.00
0.06 0.04 0.08 0.15 0.17 0.17 0.16 0.13 0.11 0.12 0.15 0.19 0.21 0.23 0.26 0.33 0.40 0.38 0.32 0.30 0.30 0.32 0.37 0.38 0.27 0.21 0.12 0.05 0.04 0.03 0.04 0.03 0.01 0.00 0.00 0.00 0.00 0.00 0.00 0.00 0.00 0.00 0.00
0.08 0.12 0.11 0.11 0.14 0.18 0.36 0.28 0.18 0.15 0.17 0.21 0.26 0.33 0.41 0.51 0.46 0.42 0.34 0.27 0.21 0.27 0.28 0.25 0.20 0.07 0.02 0.02 0.01 0.03 0.06 0.06 0.06 0.00 0.00 0.00 0.00 0.00 0.00 0.00 0.00 0.01 0.01
0.24 0.23 0.22 0.26 0.25 0.24 0.35 0.29 0.34 0.36 0.42 0.47 0.48 0.44 0.37 0.34 0.31 0.26 0.23 0.23 0.24 0.18 0.12 0.07 0.02 0.00 0.01 0.03 0.10 0.10 0.08 0.11 0.06 0.00 0.02 0.02 0.00 0.00 0.00 0.00 0.00 0.00 0.01
0.46 0.54 0.56 0.58 0.64 0.76 0.80 0.68 0.55 0.44 0.46 0.48 0.45 0.40 0.33 0.26 0.19 0.13 0.16 0.19 0.08 0.02 0.00 0.00 0.00 0.01 0.04 0.04 0.07 0.17 0.10 0.07 0.02 0.00 0.00 0.04 0.00 0.00 0.00 0.00 0.00 0.00 0.00
0.78 0.78 0.68 0.55 0.59 0.71 0.66 0.49 0.45 0.39 0.29 0.19 0.14 0.07 0.03 0.03 0.03 0.06 0.08 0.04 0.00 0.00 0.00 0.01 0.03 0.02 0.01 0.01 0.00 0.06 0.07 0.08 0.05 0.00 0.00 0.01 0.00 0.00 0.00 0.00 0.00 0.00 0.00
0.65 0.58 0.63 0.60 0.51 0.43 0.31 0.19 0.11 0.08 0.05 0.02 0.00 0.00 0.01 0.01 0.04 0.08 0.03 0.00 0.00 0.00 0.05 0.02 0.01 0.00 0.00 0.00 0.00 0.01 0.07 0.25 0.14 0.13 0.00 0.14 0.07 0.05 0.20 0.01 0.00 0.00 0.00

GFSMA_prec_precacc_084.txt.gz
Total_Precipitation_Accumulation
0.00 0.00 0.00 0.00 0.00 0.00 0.00 0.00 0.00 0.00 0.00 0.00 0.00 0.00 0.00 0.00 0.00 0.00 0.00 0.00 0.00 0.00 0.00 0.01 0.01 0.03 0.06 0.04 0.02 0.04 0.04 0.03 0.02 0.03 0.04 0.04 0.04 0.02 0.02 0.04 0.06 0.07 0.08
0.00 0.00 0.00 0.00 0.00 0.00 0.00 0.00 0.00 0.00 0.00 0.00 0.00 0.00 0.00 0.00 0.00 0.00 0.00 0.00 0.00 0.00 0.00 0.00 0.00 0.03 0.14 0.11 0.06 0.05 0.04 0.01 0.00 0.01 0.01 0.01 0.01 0.02 0.01 0.03 0.05 0.06 0.07
0.00 0.00 0.00 0.00 0.00 0.00 0.00 0.00 0.00 0.00 0.00 0.00 0.00 0.00 0.00 0.00 0.00 0.00 0.00 0.00 0.00 0.00 0.00 0.00 0.00 0.00 0.01 0.04 0.16 0.21 0.14 0.11 0.06 0.03 0.00 0.00 0.00 0.00 0.00 0.00 0.01 0.03 0.05
0.00 0.00 0.00 0.00 0.00 0.00 0.00 0.00 0.00 0.00 0.00 0.00 0.00 0.00 0.00 0.00 0.00 0.00 0.00 0.00 0.00 0.00 0.00 0.00 0.00 0.00 0.00 0.02 0.09 0.20 0.28 0.29 0.12 0.08 0.07 0.03 0.01 0.00 0.00 0.00 0.00 0.00 0.00
0.00 0.00 0.00 0.00 0.00 0.00 0.00 0.00 0.00 0.00 0.00 0.00 0.00 0.00 0.00 0.00 0.00 0.00 0.00 0.00 0.00 0.00 0.00 0.00 0.00 0.00 0.01 0.00 0.02 0.09 0.17 0.27 0.26 0.16 0.15 0.15 0.08 0.02 0.01 0.01 0.00 0.00 0.00
0.03 0.02 0.01 0.00 0.00 0.00 0.00 0.00 0.00 0.00 0.00 0.01 0.01 0.01 0.00 0.00 0.00 0.00 0.00 0.01 0.02 0.01 0.00 0.00 0.00 0.00 0.00 0.00 0.00 0.02 0.03 0.15 0.29 0.27 0.23 0.22 0.17 0.13 0.10 0.11 0.08 0.02 0.00
0.20 0.12 0.06 0.03 0.01 0.00 0.01 0.01 0.01 0.01 0.01 0.05 0.06 0.01 0.00 0.00 0.00 0.00 0.00 0.02 0.01 0.01 0.00 0.00 0.00 0.00 0.00 0.00 0.00 0.00 0.01 0.06 0.19 0.31 0.32 0.34 0.30 0.29 0.28 0.23 0.20 0.17 0.06
0.49 0.44 0.36 0.24 0.10 0.05 0.03 0.03 0.06 0.08 0.08 0.14 0.21 0.09 0.02 0.00 0.00 0.00 0.00 0.00 0.00 0.00 0.00 0.00 0.00 0.00 0.00 0.00 0.00 0.00 0.00 0.04 0.10 0.23 0.36 0.45 0.47 0.43 0.40 0.40 0.36 0.29 0.23
0.62 0.64 0.77 0.86 0.74 0.52 0.36 0.29 0.21 0.24 0.28 0.21 0.19 0.21 0.07 0.02 0.00 0.00 0.00 0.00 0.00 0.00 0.00 0.01 0.01 0.01 0.01 0.00 0.00 0.00 0.00 0.01 0.04 0.08 0.17 0.30 0.39 0.44 0.50 0.55 0.54 0.61 0.82
0.91 1.00 1.04 1.17 1.15 0.85 0.70 0.63 0.65 0.60 0.51 0.29 0.20 0.14 0.12 0.08 0.08 0.04 0.01 0.01 0.01 0.00 0.00 0.01 0.01 0.01 0.01 0.00 0.00 0.00 0.00 0.01 0.03 0.06 0.14 0.27 0.52 0.61 0.53 0.42 0.38 0.33 0.49
1.00 1.04 1.20 1.34 1.41 1.33 1.08 0.81 0.58 0.45 0.36 0.32 0.27 0.26 0.17 0.13 0.09 0.09 0.05 0.05 0.05 0.04 0.02 0.01 0.00 0.00 0.00 0.00 0.00 0.01 0.05 0.07 0.09 0.13 0.19 0.28 0.44 0.60 0.65 0.61 0.54 0.55 0.60
0.85 0.84 0.92 1.03 1.02 0.90 0.88 0.81 0.74 0.50 0.36 0.31 0.26 0.25 0.22 0.21 0.14 0.10 0.10 0.08 0.08 0.05 0.02 0.01 0.00 0.00 0.00 0.01 0.03 0.08 0.14 0.20 0.24 0.30 0.37 0.44 0.47 0.54 0.56 0.65 0.71 0.68 0.70
0.41 0.46 0.50 0.50 0.46 0.40 0.45 0.48 0.44 0.39 0.38 0.32 0.27 0.23 0.25 0.26 0.28 0.29 0.32 0.26 0.20 0.13 0.09 0.07 0.06 0.06 0.05 0.06 0.09 0.16 0.21 0.27 0.29 0.32 0.35 0.40 0.46 0.46 0.42 0.50 0.73 0.93 1.18
0.30 0.32 0.34 0.33 0.30 0.26 0.21 0.22 0.24 0.28 0.31 0.31 0.29 0.29 0.28 0.28 0.29 0.31 0.36 0.37 0.35 0.24 0.15 0.09 0.06 0.08 0.11 0.11 0.15 0.21 0.24 0.36 0.40 0.47 0.56 0.65 0.72 0.73 0.71 0.70 0.81 1.11 1.03
0.23 0.26 0.29 0.30 0.25 0.21 0.21 0.22 0.21 0.23 0.27 0.27 0.29 0.29 0.24 0.21 0.23 0.24 0.26 0.30 0.37 0.34 0.23 0.15 0.15 0.17 0.21 0.30 0.46 0.52 0.57 0.72 0.74 0.75 0.77 0.78 0.76 0.70 0.64 0.61 0.62 0.59 0.51
0.10 0.10 0.12 0.12 0.14 0.18 0.19 0.21 0.19 0.22 0.24 0.28 0.29 0.30 0.27 0.22 0.23 0.24 0.23 0.23 0.32 0.47 0.57 0.42 0.47 0.54 0.56 0.56 0.62 0.53 0.51 0.58 0.55 0.58 0.61 0.64 0.62 0.55 0.51 0.49 0.50 0.47 0.46
0.05 0.06 0.09 0.09 0.08 0.08 0.10 0.16 0.19 0.19 0.24 0.24 0.23 0.28 0.31 0.35 0.44 0.54 0.59 0.68 0.80 0.92 0.99 0.86 0.66 0.57 0.50 0.46 0.49 0.44 0.41 0.38 0.40 0.57 0.52 0.51 0.46 0.37 0.35 0.32 0.31 0.29 0.28
0.05 0.06 0.07 0.06 0.05 0.04 0.04 0.06 0.10 0.14 0.17 0.18 0.19 0.20 0.17 0.16 0.20 0.24 0.26 0.32 0.43 0.54 0.67 0.76 0.70 0.66 0.60 0.54 0.48 0.41 0.34 0.31 0.30 0.38 0.33 0.25 0.18 0.15 0.15 0.15 0.17 0.19 0.22
0.08 0.07 0.05 0.05 0.06 0.05 0.05 0.04 0.06 0.11 0.13 0.16 0.17 0.18 0.18 0.18 0.21 0.25 0.28 0.33 0.40 0.47 0.54 0.61 0.61 0.55 0.50 0.45 0.38 0.27 0.24 0.21 0.18 0.21 0.16 0.12 0.10 0.09 0.09 0.12 0.13 0.14 0.13
0.07 0.06 0.08 0.08 0.07 0.06 0.08 0.11 0.14 0.16 0.16 0.17 0.18 0.20 0.20 0.20 0.22 0.26 0.31 0.38 0.40 0.37 0.34 0.33 0.37 0.32 0.25 0.21 0.17 0.12 0.09 0.06 0.04 0.03 0.03 0.02 0.02 0.01 0.02 0.02 0.02 0.01 0.00
0.06 0.04 0.08 0.15 0.17 0.17 0.16 0.13 0.11 0.12 0.15 0.19 0.21 0.23 0.26 0.33 0.40 0.38 0.32 0.30 0.30 0.32 0.37 0.38 0.27 0.21 0.12 0.05 0.04 0.03 0.04 0.03 0.01 0.00 0.00 0.00 0.00 0.00 0.00 0.00 0.00 0.00 0.00
0.08 0.12 0.11 0.11 0.14 0.18 0.36 0.28 0.18 0.15 0.17 0.21 0.26 0.33 0.41 0.51 0.46 0.42 0.34 0.27 0.21 0.27 0.28 0.25 0.20 0.07 0.02 0.02 0.01 0.03 0.06 0.06 0.06 0.00 0.00 0.00 0.00 0.00 0.00 0.00 0.00 0.01 0.01
0.24 0.23 0.22 0.26 0.25 0.24 0.35 0.29 0.34 0.36 0.42 0.47 0.48 0.44 0.37 0.34 0.31 0.26 0.23 0.23 0.24 0.18 0.12 0.07 0.02 0.00 0.01 0.03 0.10 0.10 0.08 0.11 0.06 0.00 0.02 0.02 0.00 0.00 0.00 0.00 0.00 0.00 0.01
0.46 0.54 0.56 0.58 0.64 0.76 0.80 0.68 0.55 0.44 0.46 0.48 0.45 0.40 0.33 0.26 0.19 0.13 0.16 0.19 0.08 0.02 0.00 0.00 0.00 0.01 0.04 0.04 0.07 0.17 0.10 0.07 0.02 0.00 0.01 0.04 0.00 0.00 0.00 0.00 0.00 0.00 0.00
0.78 0.78 0.68 0.55 0.59 0.71 0.66 0.49 0.45 0.39 0.29 0.19 0.14 0.07 0.03 0.03 0.03 0.06 0.08 0.04 0.00 0.00 0.00 0.01 0.03 0.02 0.01 0.01 0.00 0.06 0.07 0.08 0.06 0.00 0.00 0.01 0.01 0.00 0.00 0.00 0.00 0.00 0.00
0.65 0.58 0.63 0.60 0.51 0.43 0.31 0.19 0.11 0.08 0.05 0.02 0.00 0.00 0.01 0.01 0.04 0.08 0.03 0.00 0.00 0.00 0.05 0.02 0.01 0.00 0.00 0.00 0.00 0.01 0.07 0.25 0.14 0.13 0.00 0.14 0.07 0.05 0.20 0.01 0.00 0.00 0.00

GFSMA_prec_precacc_087.txt.gz
Total_Precipitation_Accumulation
0.00 0.00 0.00 0.00 0.00 0.00 0.00 0.00 0.00 0.00 0.00 0.00 0.00 0.00 0.00 0.00 0.00 0.00 0.00 0.00 0.00 0.00 0.00 0.01 0.01 0.03 0.08 0.07 0.02 0.04 0.04 0.03 0.02 0.03 0.04 0.04 0.04 0.02 0.02 0.04 0.06 0.07 0.08
0.00 0.00 0.00 0.00 0.00 0.00 0.00 0.00 0.00 0.00 0.00 0.00 0.00 0.00 0.00 0.00 0.00 0.00 0.00 0.00 0.00 0.00 0.00 0.00 0.00 0.03 0.14 0.13 0.07 0.10 0.09 0.01 0.00 0.01 0.01 0.01 0.01 0.02 0.01 0.03 0.05 0.06 0.07
0.00 0.00 0.00 0.00 0.00 0.00 0.00 0.00 0.00 0.00 0.00 0.00 0.00 0.00 0.00 0.00 0.00 0.00 0.00 0.00 0.00 0.00 0.00 0.00 0.00 0.00 0.01 0.04 0.18 0.26 0.17 0.13 0.08 0.04 0.00 0.00 0.00 0.00 0.00 0.00 0.01 0.03 0.05
0.00 0.00 0.00 0.00 0.00 0.00 0.00 0.00 0.00 0.00 0.00 0.00 0.00 0.00 0.00 0.00 0.00 0.00 0.00 0.00 0.00 0.00 0.00 0.00 0.00 0.00 0.00 0.02 0.10 0.26 0.28 0.30 0.13 0.09 0.08 0.03 0.01 0.00 0.00 0.00 0.00 0.00 0.00
0.00 0.00 0.00 0.00 0.00 0.00 0.00 0.00 0.00 0.00 0.00 0.00 0.00 0.00 0.00 0.00 0.00 0.00 0.00 0.00 0.00 0.00 0.00 0.00 0.00 0.00 0.01 0.00 0.02 0.11 0.20 0.28 0.27 0.17 0.16 0.15 0.08 0.03 0.02 0.04 0.03 0.00 0.00
0.03 0.02 0.01 0.00 0.00 0.00 0.00 0.00 0.00 0.00 0.00 0.01 0.01 0.01 0.00 0.00 0.00 0.00 0.00 0.01 0.02 0.01 0.00 0.00 0.00 0.00 0.00 0.00 0.00 0.03 0.05 0.16 0.30 0.28 0.23 0.22 0.17 0.13 0.10 0.12 0.10 0.07 0.04
0.21 0.13 0.06 0.03 0.01 0.00 0.01 0.01 0.01 0.01 0.01 0.05 0.06 0.01 0.00 0.00 0.00 0.00 0.00 0.02 0.01 0.01 0.00 0.00 0.00 0.00 0.00 0.00 0.00 0.00 0.01 0.09 0.20 0.31 0.32 0.34 0.30 0.29 0.28 0.23 0.20 0.17 0.10
0.50 0.44 0.37 0.24 0.10 0.06 0.04 0.04 0.06 0.08 0.08 0.14 0.22 0.10 0.02 0.00 0.00 0.00 0.00 0.00 0.00 0.00 0.00 0.00 0.00 0.00 0.00 0.00 0.00 0.00 0.01 0.05 0.11 0.23 0.36 0.45 0.47 0.43 0.40 0.40 0.36 0.29 0.23
0.72 0.73 0.79 0.90 0.84 0.61 0.40 0.36 0.27 0.25 0.31 0.27 0.23 0.23 0.08 0.02 0.00 0.00 0.00 0.00 0.00 0.00 0.00 0.01 0.01 0.01 0.01 0.00 0.00 0.00 0.00 0.01 0.04 0.08 0.17 0.30 0.39 0.44 0.50 0.55 0.54 0.61 0.82
0.96 1.08 1.12 1.22 1.22 1.03 1.05 1.04 0.95 0.77 0.62 0.38 0.31 0.23 0.17 0.12 0.09 0.04 0.01 0.01 0.01 0.00 0.00 0.01 0.01 0.01 0.01 0.00 0.00 0.00 0.00 0.01 0.03 0.06 0.14 0.27 0.52 0.61 0.53 0.42 0.38 0.33 0.49
1.05 1.08 1.24 1.43 1.54 1.51 1.32 1.21 1.24 1.19 0.85 0.53 0.38 0.34 0.25 0.19 0.13 0.10 0.05 0.05 0.05 0.04 0.02 0.01 0.00 0.00 0.00 0.00 0.00 0.01 0.05 0.07 0.09 0.13 0.19 0.28 0.44 0.60 0.65 0.61 0.54 0.55 0.60
0.91 0.90 1.00 1.15 1.23 1.15 1.09 1.04 0.94 0.77 0.73 0.59 0.41 0.35 0.33 0.33 0.21 0.13 0.10 0.08 0.08 0.05 0.02 0.01 0.00 0.00 0.00 0.01 0.03 0.08 0.14 0.20 0.24 0.30 0.37 0.44 0.47 0.54 0.56 0.65 0.71 0.68 0.70
0.47 0.52 0.58 0.61 0.60 0.62 0.74 0.72 0.58 0.47 0.45 0.44 0.42 0.34 0.30 0.28 0.28 0.29 0.32 0.26 0.20 0.13 0.09 0.07 0.06 0.06 0.05 0.06 0.09 0.16 0.21 0.27 0.29 0.32 0.35 0.40 0.46 0.46 0.42 0.50 0.73 0.93 1.18
0.30 0.33 0.36 0.38 0.40 0.42 0.41 0.38 0.33 0.31 0.32 0.32 0.31 0.30 0.28 0.28 0.29 0.31 0.36 0.37 0.35 0.24 0.15 0.09 0.06 0.08 0.11 0.11 0.15 0.21 0.24 0.36 0.41 0.47 0.56 0.65 0.72 0.73 0.71 0.70 0.82 1.12 1.03
0.26 0.30 0.32 0.32 0.32 0.37 0.38 0.31 0.24 0.24 0.28 0.27 0.29 0.29 0.24 0.21 0.23 0.24 0.26 0.30 0.37 0.34 0.23 0.15 0.15 0.17 0.21 0.30 0.46 0.52 0.57 0.72 0.75 0.77 0.78 0.78 0.76 0.71 0.64 0.62 0.62 0.59 0.51
0.15 0.22 0.17 0.13 0.15 0.21 0.26 0.26 0.22 0.24 0.26 0.28 0.29 0.30 0.27 0.22 0.23 0.24 0.23 0.23 0.32 0.47 0.57 0.42 0.47 0.54 0.56 0.56 0.62 0.53 0.51 0.58 0.55 0.59 0.62 0.64 0.62 0.55 0.51 0.49 0.51 0.47 0.46
0.06 0.07 0.10 0.11 0.10 0.11 0.14 0.19 0.21 0.20 0.24 0.24 0.23 0.28 0.31 0.35 0.44 0.54 0.59 0.68 0.80 0.92 0.99 0.86 0.66 0.57 0.50 0.46 0.49 0.44 0.41 0.38 0.41 0.57 0.52 0.52 0.47 0.38 0.35 0.32 0.31 0.29 0.29
0.05 0.06 0.07 0.06 0.05 0.05 0.05 0.07 0.11 0.14 0.17 0.18 0.19 0.20 0.17 0.16 0.20 0.24 0.26 0.32 0.43 0.54 0.68 0.76 0.70 0.66 0.60 0.54 0.48 0.41 0.34 0.31 0.30 0.40 0.34 0.25 0.18 0.15 0.15 0.15 0.17 0.19 0.22
0.08 0.07 0.05 0.05 0.06 0.06 0.05 0.04 0.06 0.11 0.13 0.16 0.17 0.18 0.18 0.18 0.21 0.25 0.28 0.33 0.40 0.47 0.54 0.61 0.61 0.55 0.50 0.45 0.38 0.27 0.24 0.21 0.18 0.22 0.16 0.12 0.10 0.09 0.09 0.12 0.13 0.14 0.13
0.07 0.06 0.08 0.08 0.07 0.06 0.08 0.11 0.15 0.16 0.17 0.17 0.18 0.20 0.20 0.20 0.22 0.26 0.31 0.38 0.40 0.37 0.35 0.33 0.37 0.32 0.25 0.21 0.17 0.12 0.09 0.06 0.04 0.03 0.03 0.02 0.02 0.01 0.02 0.02 0.02 0.01 0.00
0.06 0.04 0.08 0.15 0.17 0.17 0.16 0.13 0.11 0.12 0.15 0.19 0.21 0.23 0.26 0.33 0.40 0.38 0.32 0.30 0.30 0.32 0.37 0.38 0.27 0.21 0.12 0.05 0.04 0.03 0.04 0.03 0.01 0.00 0.00 0.00 0.00 0.00 0.00 0.00 0.00 0.00 0.00
0.08 0.12 0.11 0.11 0.14 0.18 0.36 0.28 0.18 0.15 0.17 0.21 0.26 0.33 0.41 0.51 0.46 0.42 0.34 0.27 0.21 0.27 0.28 0.25 0.20 0.07 0.02 0.02 0.01 0.03 0.06 0.06 0.06 0.00 0.00 0.00 0.00 0.00 0.00 0.00 0.00 0.01 0.01
0.24 0.23 0.22 0.26 0.25 0.24 0.35 0.29 0.34 0.36 0.42 0.47 0.48 0.44 0.37 0.34 0.31 0.26 0.23 0.23 0.24 0.18 0.12 0.07 0.02 0.00 0.01 0.03 0.10 0.10 0.08 0.11 0.06 0.00 0.02 0.02 0.00 0.00 0.00 0.00 0.00 0.00 0.01
0.46 0.54 0.56 0.58 0.64 0.76 0.80 0.68 0.55 0.44 0.46 0.48 0.45 0.40 0.33 0.26 0.19 0.13 0.16 0.19 0.08 0.02 0.00 0.00 0.00 0.01 0.04 0.04 0.07 0.17 0.10 0.07 0.02 0.00 0.01 0.04 0.00 0.00 0.00 0.00 0.00 0.00 0.00
0.78 0.78 0.68 0.55 0.59 0.71 0.66 0.49 0.45 0.39 0.29 0.19 0.14 0.07 0.03 0.03 0.03 0.06 0.08 0.04 0.00 0.00 0.00 0.01 0.03 0.02 0.01 0.01 0.00 0.06 0.07 0.08 0.06 0.00 0.00 0.01 0.01 0.00 0.00 0.00 0.00 0.00 0.00
0.65 0.58 0.63 0.60 0.51 0.43 0.31 0.19 0.11 0.08 0.05 0.02 0.00 0.00 0.01 0.01 0.04 0.08 0.03 0.00 0.00 0.00 0.05 0.02 0.01 0.00 0.00 0.00 0.00 0.01 0.07 0.25 0.14 0.13 0.00 0.14 0.07 0.05 0.20 0.01 0.00 0.00 0.00

GFSMA_prec_precacc_090.txt.gz
Total_Precipitation_Accumulation
0.00 0.00 0.00 0.00 0.00 0.00 0.00 0.00 0.00 0.00 0.00 0.00 0.00 0.00 0.00 0.00 0.00 0.00 0.00 0.00 0.00 0.00 0.00 0.01 0.01 0.03 0.08 0.08 0.03 0.04 0.04 0.03 0.02 0.03 0.04 0.04 0.04 0.02 0.02 0.04 0.06 0.07 0.08
0.00 0.00 0.00 0.00 0.00 0.00 0.00 0.00 0.00 0.00 0.00 0.00 0.00 0.00 0.00 0.00 0.00 0.00 0.00 0.00 0.00 0.00 0.00 0.00 0.00 0.03 0.14 0.14 0.08 0.14 0.14 0.03 0.01 0.01 0.01 0.01 0.01 0.02 0.01 0.03 0.05 0.06 0.07
0.00 0.00 0.00 0.00 0.00 0.00 0.00 0.00 0.00 0.00 0.00 0.00 0.00 0.00 0.00 0.00 0.00 0.00 0.00 0.00 0.00 0.00 0.00 0.00 0.00 0.00 0.01 0.04 0.18 0.30 0.22 0.17 0.11 0.06 0.02 0.01 0.00 0.00 0.00 0.00 0.01 0.03 0.05
0.00 0.00 0.00 0.00 0.00 0.00 0.00 0.00 0.00 0.00 0.00 0.00 0.00 0.00 0.00 0.00 0.00 0.00 0.00 0.00 0.00 0.00 0.00 0.00 0.00 0.00 0.00 0.02 0.10 0.29 0.30 0.31 0.14 0.10 0.09 0.06 0.02 0.01 0.00 0.01 0.00 0.00 0.00
0.00 0.00 0.00 0.00 0.00 0.00 0.00 0.00 0.00 0.00 0.00 0.00 0.00 0.00 0.00 0.00 0.00 0.00 0.00 0.00 0.00 0.00 0.00 0.00 0.00 0.00 0.01 0.00 0.02 0.13 0.22 0.29 0.28 0.17 0.16 0.15 0.08 0.03 0.03 0.06 0.05 0.02 0.01
0.03 0.02 0.01 0.00 0.00 0.00 0.00 0.00 0.00 0.00 0.00 0.01 0.01 0.01 0.00 0.00 0.00 0.00 0.00 0.01 0.02 0.01 0.00 0.00 0.00 0.00 0.00 0.00 0.00 0.04 0.05 0.16 0.31 0.28 0.23 0.22 0.17 0.13 0.10 0.12 0.10 0.08 0.07
0.27 0.18 0.07 0.03 0.01 0.00 0.01 0.01 0.01 0.01 0.01 0.05 0.06 0.01 0.00 0.00 0.00 0.00 0.00 0.02 0.01 0.01 0.00 0.00 0.00 0.00 0.00 0.00 0.00 0.00 0.01 0.10 0.20 0.31 0.32 0.34 0.30 0.29 0.28 0.23 0.20 0.18 0.10
0.52 0.46 0.37 0.24 0.11 0.06 0.04 0.04 0.06 0.08 0.08 0.14 0.22 0.10 0.03 0.00 0.00 0.00 0.00 0.00 0.00 0.00 0.00 0.00 0.00 0.00 0.00 0.00 0.00 0.00 0.01 0.05 0.11 0.23 0.36 0.45 0.47 0.43 0.40 0.40 0.36 0.29 0.23
0.75 0.74 0.79 0.92 0.87 0.61 0.42 0.40 0.32 0.28 0.32 0.28 0.25 0.27 0.09 0.02 0.01 0.00 0.00 0.00 0.00 0.00 0.00 0.01 0.01 0.01 0.01 0.00 0.00 0.00 0.00 0.01 0.04 0.08 0.17 0.30 0.39 0.44 0.50 0.55 0.54 0.61 0.82
1.03 1.12 1.17 1.32 1.35 1.09 1.13 1.22 1.16 0.96 0.88 0.66 0.56 0.38 0.26 0.15 0.10 0.04 0.01 0.01 0.01 0.00 0.00 0.01 0.01 0.01 0.01 0.00 0.00 0.00 0.00 0.01 0.03 0.07 0.15 0.28 0.52 0.61 0.53 0.42 0.38 0.33 0.49
1.08 1.09 1.25 1.44 1.57 1.55 1.34 1.25 1.33 1.36 1.25 1.17 0.96 0.69 0.39 0.25 0.15 0.11 0.05 0.05 0.05 0.04 0.02 0.01 0.00 0.00 0.00 0.00 0.00 0.01 0.05 0.07 0.09 0.13 0.20 0.28 0.44 0.60 0.65 0.61 0.54 0.55 0.60
0.92 0.90 1.00 1.16 1.24 1.19 1.12 1.05 0.96 0.81 0.83 0.85 0.84 0.80 0.65 0.55 0.39 0.26 0.18 0.11 0.08 0.05 0.02 0.01 0.00 0.00 0.00 0.01 0.03 0.08 0.14 0.20 0.24 0.30 0.37 0.44 0.47 0.54 0.56 0.65 0.71 0.68 0.70
0.50 0.52 0.58 0.63 0.63 0.66 0.77 0.77 0.65 0.56 0.58 0.58 0.58 0.60 0.70 0.56 0.41 0.35 0.33 0.26 0.20 0.13 0.09 0.07 0.06 0.06 0.05 0.06 0.09 0.16 0.21 0.27 0.29 0.33 0.36 0.41 0.46 0.46 0.42 0.50 0.74 0.94 1.19
0.31 0.34 0.37 0.38 0.42 0.46 0.47 0.46 0.42 0.39 0.39 0.36 0.34 0.36 0.37 0.40 0.34 0.32 0.37 0.37 0.35 0.24 0.15 0.09 0.06 0.08 0.11 0.11 0.15 0.21 0.24 0.36 0.41 0.47 0.56 0.65 0.72 0.73 0.71 0.70 0.82 1.12 1.04
0.26 0.36 0.34 0.32 0.32 0.38 0.44 0.46 0.37 0.36 0.37 0.30 0.29 0.29 0.24 0.21 0.23 0.24 0.26 0.30 0.37 0.34 0.23 0.15 0.15 0.17 0.21 0.30 0.46 0.52 0.57 0.72 0.75 0.77 0.78 0.79 0.77 0.71 0.64 0.62 0.62 0.59 0.51
0.20 0.50 0.50 0.27 0.21 0.22 0.31 0.40 0.34 0.30 0.29 0.30 0.29 0.30 0.27 0.22 0.23 0.24 0.23 0.23 0.32 0.47 0.57 0.42 0.47 0.54 0.56 0.56 0.62 0.53 0.51 0.58 0.55 0.59 0.62 0.64 0.62 0.55 0.51 0.49 0.51 0.47 0.46
0.10 0.16 0.20 0.21 0.13 0.12 0.16 0.23 0.26 0.27 0.28 0.26 0.24 0.28 0.31 0.35 0.44 0.54 0.59 0.68 0.80 0.92 0.99 0.86 0.66 0.57 0.50 0.46 0.49 0.44 0.41 0.38 0.41 0.57 0.52 0.52 0.47 0.38 0.35 0.32 0.31 0.30 0.29
0.05 0.06 0.08 0.07 0.07 0.07 0.06 0.07 0.12 0.16 0.19 0.20 0.20 0.20 0.17 0.16 0.20 0.24 0.26 0.32 0.43 0.54 0.68 0.76 0.70 0.66 0.60 0.54 0.48 0.41 0.34 0.31 0.30 0.40 0.34 0.25 0.18 0.15 0.15 0.15 0.17 0.19 0.22
0.08 0.07 0.05 0.05 0.06 0.06 0.06 0.06 0.08 0.12 0.14 0.16 0.17 0.18 0.18 0.18 0.21 0.25 0.28 0.33 0.40 0.47 0.54 0.61 0.61 0.55 0.50 0.45 0.38 0.27 0.24 0.21 0.18 0.22 0.16 0.12 0.10 0.09 0.09 0.12 0.13 0.14 0.13
0.07 0.06 0.08 0.08 0.07 0.06 0.08 0.12 0.16 0.17 0.17 0.18 0.19 0.20 0.20 0.20 0.22 0.26 0.31 0.38 0.40 0.37 0.35 0.33 0.37 0.32 0.25 0.21 0.17 0.12 0.09 0.06 0.04 0.03 0.03 0.02 0.02 0.01 0.02 0.02 0.02 0.01 0.00
0.06 0.04 0.08 0.15 0.17 0.17 0.16 0.13 0.12 0.13 0.16 0.21 0.23 0.25 0.26 0.34 0.40 0.38 0.32 0.30 0.30 0.32 0.37 0.38 0.27 0.21 0.12 0.05 0.04 0.03 0.04 0.03 0.01 0.00 0.00 0.00 0.00 0.00 0.00 0.00 0.00 0.00 0.00
0.08 0.12 0.11 0.11 0.14 0.18 0.36 0.28 0.18 0.16 0.17 0.22 0.26 0.33 0.41 0.51 0.46 0.42 0.34 0.27 0.21 0.27 0.28 0.25 0.20 0.07 0.02 0.02 0.01 0.03 0.06 0.06 0.06 0.00 0.00 0.00 0.00 0.00 0.00 0.00 0.00 0.01 0.01
0.24 0.23 0.22 0.26 0.25 0.24 0.35 0.29 0.34 0.36 0.42 0.47 0.48 0.44 0.37 0.34 0.31 0.26 0.23 0.23 0.24 0.18 0.12 0.07 0.02 0.00 0.01 0.03 0.10 0.10 0.08 0.11 0.06 0.00 0.02 0.02 0.00 0.00 0.00 0.00 0.00 0.00 0.01
0.46 0.54 0.56 0.58 0.64 0.76 0.80 0.68 0.55 0.44 0.46 0.48 0.45 0.40 0.33 0.26 0.19 0.13 0.16 0.19 0.08 0.02 0.00 0.00 0.00 0.01 0.04 0.04 0.07 0.17 0.10 0.07 0.02 0.00 0.01 0.04 0.00 0.00 0.00 0.00 0.00 0.00 0.00
0.78 0.78 0.68 0.55 0.59 0.71 0.66 0.49 0.45 0.39 0.29 0.19 0.14 0.07 0.03 0.03 0.03 0.06 0.08 0.04 0.00 0.00 0.00 0.01 0.03 0.02 0.01 0.01 0.00 0.06 0.07 0.08 0.06 0.00 0.00 0.01 0.01 0.00 0.00 0.00 0.00 0.00 0.00
0.66 0.58 0.63 0.60 0.51 0.43 0.31 0.19 0.11 0.08 0.05 0.02 0.00 0.00 0.01 0.01 0.04 0.08 0.03 0.00 0.00 0.00 0.05 0.02 0.01 0.00 0.00 0.00 0.00 0.01 0.07 0.25 0.14 0.13 0.00 0.14 0.07 0.05 0.20 0.01 0.00 0.00 0.00

GFSMA_prec_precacc_093.txt.gz
Total_Precipitation_Accumulation
0.00 0.00 0.00 0.00 0.00 0.00 0.00 0.00 0.00 0.00 0.00 0.00 0.00 0.00 0.00 0.00 0.00 0.00 0.00 0.00 0.00 0.00 0.00 0.01 0.01 0.03 0.08 0.08 0.03 0.05 0.04 0.03 0.02 0.03 0.04 0.04 0.04 0.02 0.02 0.04 0.06 0.07 0.08
0.00 0.00 0.00 0.00 0.00 0.00 0.00 0.00 0.00 0.00 0.00 0.00 0.00 0.00 0.00 0.00 0.00 0.00 0.00 0.00 0.00 0.00 0.00 0.00 0.00 0.03 0.14 0.14 0.09 0.16 0.16 0.04 0.01 0.01 0.01 0.01 0.01 0.02 0.01 0.03 0.05 0.06 0.07
0.00 0.00 0.00 0.00 0.00 0.00 0.00 0.00 0.00 0.00 0.00 0.00 0.00 0.00 0.00 0.00 0.00 0.00 0.00 0.00 0.00 0.00 0.00 0.00 0.00 0.00 0.01 0.04 0.18 0.31 0.24 0.18 0.12 0.06 0.02 0.01 0.00 0.00 0.00 0.00 0.01 0.03 0.05
0.00 0.00 0.00 0.00 0.00 0.00 0.00 0.00 0.00 0.00 0.00 0.00 0.00 0.00 0.00 0.00 0.00 0.00 0.00 0.00 0.00 0.00 0.00 0.00 0.00 0.00 0.00 0.02 0.10 0.29 0.31 0.31 0.14 0.10 0.09 0.06 0.02 0.01 0.01 0.01 0.01 0.00 0.00
0.00 0.00 0.00 0.00 0.00 0.00 0.00 0.00 0.00 0.00 0.00 0.00 0.00 0.00 0.00 0.00 0.00 0.00 0.00 0.00 0.00 0.00 0.00 0.00 0.00 0.00 0.01 0.00 0.02 0.13 0.22 0.29 0.28 0.17 0.16 0.15 0.08 0.03 0.03 0.06 0.05 0.03 0.03
0.03 0.02 0.01 0.00 0.00 0.00 0.00 0.00 0.00 0.00 0.00 0.01 0.01 0.01 0.00 0.00 0.00 0.00 0.00 0.01 0.02 0.01 0.00 0.00 0.00 0.00 0.00 0.00 0.00 0.04 0.05 0.17 0.31 0.28 0.23 0.22 0.17 0.13 0.10 0.12 0.10 0.08 0.07
0.30 0.18 0.07 0.03 0.01 0.00 0.01 0.01 0.01 0.01 0.01 0.05 0.06 0.01 0.00 0.00 0.00 0.00 0.00 0.02 0.01 0.01 0.00 0.00 0.00 0.00 0.00 0.00 0.00 0.00 0.01 0.10 0.20 0.31 0.32 0.34 0.30 0.29 0.28 0.23 0.20 0.18 0.10
0.63 0.52 0.38 0.25 0.11 0.06 0.04 0.04 0.06 0.08 0.08 0.14 0.22 0.10 0.03 0.00 0.00 0.00 0.00 0.00 0.00 0.00 0.00 0.00 0.00 0.00 0.00 0.00 0.00 0.00 0.01 0.06 0.11 0.23 0.36 0.45 0.47 0.43 0.40 0.40 0.36 0.29 0.23
0.91 0.91 0.91 0.94 0.87 0.61 0.42 0.40 0.32 0.30 0.33 0.28 0.26 0.28 0.10 0.02 0.01 0.00 0.00 0.00 0.00 0.00 0.00 0.01 0.01 0.01 0.01 0.00 0.00 0.00 0.00 0.01 0.05 0.09 0.17 0.30 0.39 0.44 0.50 0.55 0.54 0.61 0.82
1.15 1.25 1.37 1.50 1.43 1.10 1.13 1.25 1.25 1.07 0.98 0.75 0.60 0.45 0.33 0.18 0.11 0.05 0.01 0.01 0.01 0.00 0.00 0.01 0.01 0.01 0.01 0.00 0.00 0.00 0.00 0.01 0.03 0.07 0.16 0.29 0.52 0.61 0.53 0.42 0.38 0.33 0.49
1.21 1.18 1.32 1.55 1.68 1.64 1.39 1.32 1.44 1.48 1.37 1.33 1.13 0.88 0.64 0.49 0.34 0.22 0.07 0.05 0.05 0.04 0.02 0.01 0.00 0.00 0.00 0.00 0.00 0.01 0.05 0.07 0.09 0.13 0.22 0.29 0.44 0.60 0.65 0.61 0.54 0.55 0.60
0.98 0.94 1.06 1.21 1.28 1.23 1.20 1.10 0.97 0.84 0.85 0.87 0.86 0.82 0.74 0.73 0.59 0.52 0.36 0.16 0.11 0.07 0.02 0.01 0.00 0.00 0.00 0.01 0.03 0.08 0.14 0.20 0.24 0.30 0.38 0.45 0.47 0.54 0.56 0.65 0.71 0.69 0.70
0.63 0.57 0.59 0.64 0.65 0.68 0.82 0.82 0.66 0.56 0.58 0.59 0.60 0.63 0.75 0.72 0.63 0.59 0.61 0.40 0.22 0.13 0.09 0.07 0.06 0.06 0.05 0.06 0.09 0.16 0.21 0.27 0.29 0.33 0.37 0.42 0.46 0.46 0.42 0.50 0.74 0.94 1.19
0.37 0.40 0.42 0.40 0.43 0.47 0.49 0.48 0.43 0.40 0.40 0.37 0.36 0.40 0.46 0.52 0.49 0.46 0.53 0.50 0.39 0.24 0.15 0.09 0.06 0.08 0.11 0.11 0.15 0.21 0.24 0.36 0.41 0.48 0.57 0.65 0.72 0.73 0.71 0.70 0.82 1.12 1.04
0.30 0.39 0.37 0.34 0.33 0.39 0.48 0.47 0.40 0.39 0.43 0.38 0.34 0.32 0.29 0.28 0.29 0.27 0.28 0.31 0.38 0.34 0.23 0.15 0.15 0.17 0.21 0.30 0.46 0.52 0.57 0.72 0.75 0.77 0.78 0.79 0.77 0.71 0.64 0.62 0.62 0.59 0.51
0.32 0.69 0.70 0.36 0.24 0.26 0.36 0.43 0.38 0.36 0.36 0.43 0.42 0.36 0.31 0.25 0.24 0.25 0.24 0.23 0.32 0.47 0.57 0.42 0.47 0.54 0.56 0.56 0.62 0.53 0.51 0.58 0.55 0.59 0.62 0.64 0.62 0.55 0.51 0.49 0.51 0.47 0.46
0.23 0.33 0.46 0.49 0.34 0.23 0.26 0.32 0.33 0.33 0.36 0.34 0.32 0.35 0.37 0.38 0.44 0.54 0.61 0.69 0.80 0.92 0.99 0.86 0.66 0.57 0.50 0.46 0.49 0.44 0.41 0.38 0.41 0.58 0.52 0.52 0.47 0.38 0.35 0.32 0.31 0.30 0.29
0.05 0.07 0.09 0.09 0.08 0.09 0.10 0.10 0.14 0.19 0.23 0.26 0.26 0.25 0.22 0.19 0.21 0.25 0.27 0.32 0.43 0.54 0.68 0.76 0.70 0.66 0.60 0.54 0.48 0.41 0.34 0.31 0.30 0.40 0.34 0.25 0.18 0.15 0.15 0.15 0.17 0.19 0.22
0.08 0.07 0.05 0.05 0.06 0.06 0.07 0.08 0.10 0.14 0.17 0.18 0.20 0.21 0.21 0.20 0.23 0.25 0.28 0.33 0.40 0.47 0.54 0.61 0.61 0.55 0.50 0.45 0.38 0.27 0.24 0.21 0.18 0.22 0.16 0.12 0.10 0.09 0.09 0.12 0.13 0.14 0.13
0.07 0.06 0.08 0.08 0.07 0.06 0.08 0.13 0.17 0.19 0.21 0.22 0.24 0.26 0.24 0.22 0.23 0.26 0.31 0.38 0.40 0.37 0.35 0.33 0.37 0.32 0.25 0.21 0.17 0.12 0.09 0.06 0.04 0.03 0.03 0.02 0.02 0.01 0.02 0.02 0.02 0.01 0.00
0.06 0.04 0.08 0.15 0.17 0.17 0.16 0.13 0.13 0.14 0.18 0.22 0.26 0.28 0.28 0.35 0.41 0.38 0.32 0.31 0.30 0.32 0.37 0.38 0.27 0.21 0.12 0.05 0.04 0.03 0.04 0.03 0.01 0.00 0.00 0.00 0.00 0.00 0.00 0.00 0.00 0.00 0.00
0.08 0.12 0.11 0.11 0.14 0.18 0.36 0.28 0.18 0.16 0.18 0.23 0.28 0.35 0.43 0.53 0.48 0.44 0.35 0.28 0.22 0.27 0.28 0.25 0.20 0.07 0.02 0.02 0.01 0.03 0.06 0.06 0.06 0.00 0.00 0.00 0.00 0.00 0.00 0.00 0.00 0.01 0.01
0.24 0.23 0.22 0.26 0.25 0.24 0.35 0.29 0.34 0.36 0.42 0.47 0.48 0.45 0.37 0.35 0.32 0.26 0.24 0.23 0.24 0.18 0.12 0.07 0.02 0.00 0.01 0.03 0.10 0.10 0.08 0.11 0.06 0.00 0.02 0.02 0.00 0.00 0.00 0.00 0.00 0.00 0.01
0.46 0.54 0.56 0.58 0.64 0.76 0.80 0.68 0.55 0.44 0.46 0.48 0.45 0.40 0.33 0.26 0.19 0.13 0.16 0.19 0.08 0.02 0.00 0.00 0.00 0.01 0.04 0.04 0.07 0.17 0.10 0.07 0.02 0.00 0.01 0.04 0.00 0.00 0.00 0.00 0.00 0.00 0.00
0.78 0.78 0.68 0.55 0.59 0.71 0.66 0.49 0.45 0.39 0.29 0.19 0.14 0.07 0.03 0.03 0.03 0.06 0.08 0.04 0.00 0.00 0.00 0.01 0.03 0.02 0.01 0.01 0.00 0.06 0.07 0.08 0.06 0.00 0.00 0.01 0.01 0.00 0.00 0.00 0.00 0.00 0.00
0.66 0.58 0.63 0.60 0.51 0.43 0.31 0.19 0.11 0.08 0.05 0.02 0.00 0.00 0.01 0.01 0.04 0.08 0.03 0.00 0.00 0.00 0.05 0.02 0.01 0.00 0.00 0.00 0.00 0.01 0.07 0.25 0.14 0.13 0.00 0.14 0.07 0.05 0.20 0.01 0.00 0.00 0.00

GFSMA_prec_precacc_096.txt.gz
Total_Precipitation_Accumulation
0.12 0.05 0.01 0.00 0.00 0.00 0.00 0.00 0.00 0.00 0.00 0.00 0.00 0.00 0.00 0.00 0.00 0.00 0.00 0.00 0.00 0.00 0.00 0.01 0.01 0.03 0.08 0.08 0.04 0.05 0.04 0.03 0.02 0.03 0.04 0.04 0.04 0.02 0.02 0.04 0.06 0.07 0.08
0.17 0.05 0.03 0.00 0.00 0.00 0.00 0.00 0.00 0.00 0.00 0.00 0.00 0.00 0.00 0.00 0.00 0.00 0.00 0.00 0.00 0.00 0.00 0.00 0.00 0.03 0.14 0.14 0.09 0.16 0.17 0.05 0.02 0.01 0.01 0.01 0.01 0.02 0.01 0.03 0.05 0.06 0.07
0.05 0.04 0.02 0.00 0.00 0.00 0.00 0.00 0.00 0.00 0.00 0.00 0.00 0.00 0.00 0.00 0.00 0.00 0.00 0.00 0.00 0.00 0.00 0.00 0.00 0.00 0.01 0.04 0.18 0.31 0.25 0.21 0.13 0.07 0.02 0.01 0.00 0.00 0.00 0.00 0.01 0.03 0.05
0.02 0.03 0.02 0.00 0.00 0.00 0.00 0.00 0.00 0.00 0.00 0.00 0.00 0.00 0.00 0.00 0.00 0.00 0.00 0.00 0.00 0.00 0.00 0.00 0.00 0.00 0.00 0.02 0.10 0.29 0.31 0.32 0.14 0.10 0.09 0.06 0.02 0.01 0.01 0.02 0.01 0.00 0.01
0.01 0.01 0.01 0.01 0.00 0.00 0.00 0.00 0.00 0.00 0.00 0.00 0.00 0.00 0.00 0.00 0.00 0.00 0.00 0.00 0.00 0.00 0.00 0.00 0.00 0.00 0.01 0.00 0.02 0.13 0.22 0.30 0.28 0.17 0.16 0.15 0.08 0.03 0.03 0.06 0.05 0.03 0.04
0.04 0.03 0.01 0.01 0.00 0.00 0.00 0.00 0.00 0.00 0.00 0.01 0.01 0.01 0.00 0.00 0.00 0.00 0.00 0.01 0.02 0.01 0.00 0.00 0.00 0.00 0.00 0.00 0.00 0.04 0.05 0.17 0.31 0.28 0.23 0.22 0.17 0.13 0.10 0.12 0.10 0.08 0.08
0.31 0.19 0.07 0.03 0.02 0.00 0.01 0.01 0.01 0.01 0.01 0.05 0.06 0.01 0.00 0.00 0.00 0.00 0.00 0.02 0.01 0.01 0.00 0.00 0.00 0.00 0.00 0.00 0.00 0.00 0.01 0.10 0.21 0.32 0.33 0.34 0.30 0.29 0.28 0.23 0.20 0.18 0.10
0.64 0.52 0.38 0.25 0.11 0.06 0.04 0.05 0.06 0.08 0.08 0.14 0.22 0.10 0.03 0.00 0.00 0.00 0.00 0.00 0.00 0.00 0.00 0.00 0.00 0.00 0.00 0.00 0.00 0.00 0.01 0.06 0.12 0.24 0.36 0.45 0.47 0.43 0.40 0.40 0.36 0.29 0.23
0.97 0.95 0.92 0.94 0.87 0.61 0.42 0.41 0.33 0.30 0.34 0.29 0.26 0.28 0.10 0.02 0.01 0.00 0.00 0.00 0.00 0.00 0.00 0.01 0.01 0.01 0.01 0.00 0.00 0.00 0.00 0.01 0.05 0.09 0.18 0.31 0.39 0.44 0.50 0.55 0.54 0.61 0.82
1.32 1.47 1.56 1.67 1.57 1.15 1.15 1.26 1.29 1.13 1.05 0.87 0.67 0.49 0.34 0.18 0.11 0.05 0.02 0.02 0.01 0.01 0.00 0.01 0.01 0.01 0.01 0.00 0.00 0.00 0.00 0.01 0.03 0.08 0.17 0.32 0.52 0.61 0.53 0.42 0.38 0.33 0.49
1.36 1.33 1.50 1.77 1.94 1.90 1.55 1.45 1.59 1.61 1.47 1.47 1.24 1.01 0.75 0.56 0.38 0.28 0.14 0.10 0.08 0.05 0.03 0.01 0.00 0.00 0.00 0.00 0.00 0.01 0.05 0.07 0.09 0.14 0.23 0.33 0.46 0.60 0.65 0.61 0.54 0.55 0.60
1.18 1.10 1.23 1.42 1.47 1.44 1.38 1.26 1.16 0.98 0.95 0.94 0.92 0.87 0.78 0.77 0.62 0.55 0.41 0.24 0.21 0.15 0.06 0.01 0.00 0.00 0.00 0.01 0.03 0.08 0.14 0.20 0.24 0.30 0.39 0.47 0.48 0.54 0.56 0.65 0.71 0.69 0.71
0.90 0.84 0.74 0.78 0.79 0.79 0.94 0.92 0.78 0.69 0.67 0.66 0.66 0.67 0.77 0.72 0.63 0.59 0.64 0.46 0.29 0.17 0.11 0.08 0.06 0.06 0.05 0.06 0.09 0.16 0.21 0.27 0.29 0.33 0.39 0.44 0.46 0.46 0.42 0.50 0.74 0.94 1.19
0.68 0.69 0.76 0.58 0.55 0.57 0.61 0.59 0.50 0.47 0.47 0.46 0.44 0.45 0.47 0.52 0.50 0.46 0.57 0.67 0.54 0.32 0.19 0.10 0.06 0.08 0.11 0.11 0.15 0.21 0.24 0.36 0.41 0.48 0.58 0.65 0.73 0.73 0.71 0.70 0.82 1.12 1.05
0.56 0.52 0.50 0.50 0.48 0.50 0.54 0.52 0.44 0.43 0.48 0.43 0.39 0.36 0.31 0.29 0.30 0.28 0.29 0.36 0.46 0.40 0.25 0.15 0.15 0.17 0.21 0.30 0.46 0.52 0.57 0.72 0.75 0.77 0.78 0.79 0.77 0.71 0.64 0.62 0.62 0.59 0.51
0.46 0.84 0.83 0.47 0.34 0.34 0.43 0.50 0.42 0.38 0.38 0.44 0.47 0.51 0.52 0.50 0.44 0.33 0.26 0.26 0.34 0.48 0.60 0.43 0.47 0.54 0.56 0.56 0.62 0.53 0.51 0.58 0.55 0.59 0.62 0.64 0.62 0.55 0.51 0.49 0.51 0.47 0.46
0.31 0.48 0.65 0.80 0.66 0.44 0.38 0.42 0.44 0.45 0.46 0.44 0.40 0.38 0.43 0.55 0.67 0.64 0.64 0.70 0.81 0.92 0.99 0.86 0.66 0.57 0.50 0.46 0.49 0.44 0.41 0.38 0.41 0.58 0.52 0.52 0.47 0.38 0.35 0.32 0.31 0.30 0.29
0.05 0.08 0.11 0.13 0.15 0.29 0.33 0.28 0.28 0.27 0.30 0.34 0.36 0.34 0.26 0.23 0.25 0.29 0.31 0.39 0.47 0.56 0.69 0.77 0.70 0.66 0.60 0.54 0.48 0.41 0.34 0.31 0.30 0.40 0.34 0.25 0.18 0.15 0.15 0.15 0.17 0.19 0.22
0.08 0.07 0.05 0.05 0.06 0.06 0.07 0.08 0.11 0.15 0.18 0.20 0.22 0.24 0.25 0.25 0.25 0.28 0.31 0.39 0.47 0.48 0.54 0.61 0.61 0.55 0.50 0.45 0.38 0.27 0.24 0.21 0.18 0.23 0.16 0.12 0.10 0.09 0.09 0.12 0.13 0.14 0.13
0.07 0.06 0.08 0.08 0.07 0.06 0.08 0.13 0.17 0.20 0.22 0.24 0.26 0.28 0.27 0.29 0.36 0.44 0.43 0.41 0.44 0.38 0.35 0.33 0.37 0.32 0.25 0.21 0.17 0.12 0.09 0.06 0.04 0.03 0.03 0.02 0.02 0.01 0.02 0.02 0.02 0.01 0.00
0.06 0.04 0.08 0.15 0.17 0.17 0.16 0.13 0.13 0.14 0.18 0.23 0.27 0.29 0.31 0.39 0.47 0.48 0.49 0.36 0.31 0.33 0.37 0.38 0.27 0.21 0.12 0.05 0.04 0.03 0.04 0.03 0.01 0.00 0.00 0.00 0.00 0.00 0.00 0.00 0.00 0.00 0.00
0.08 0.12 0.11 0.11 0.14 0.18 0.36 0.28 0.18 0.16 0.18 0.23 0.28 0.36 0.44 0.55 0.49 0.45 0.38 0.29 0.23 0.28 0.28 0.25 0.20 0.07 0.02 0.02 0.01 0.03 0.06 0.06 0.06 0.00 0.00 0.00 0.00 0.00 0.00 0.00 0.00 0.01 0.01
0.24 0.23 0.22 0.26 0.25 0.24 0.35 0.29 0.34 0.36 0.42 0.47 0.48 0.45 0.37 0.35 0.34 0.28 0.26 0.26 0.27 0.22 0.17 0.09 0.05 0.03 0.01 0.03 0.10 0.10 0.08 0.11 0.06 0.00 0.02 0.02 0.00 0.00 0.00 0.00 0.00 0.00 0.01
0.46 0.54 0.56 0.58 0.64 0.76 0.80 0.68 0.55 0.44 0.46 0.48 0.45 0.40 0.33 0.26 0.19 0.14 0.16 0.20 0.08 0.03 0.01 0.00 0.00 0.01 0.04 0.04 0.07 0.17 0.10 0.07 0.02 0.00 0.01 0.04 0.00 0.00 0.00 0.00 0.00 0.00 0.00
0.78 0.78 0.68 0.55 0.59 0.71 0.67 0.50 0.45 0.39 0.29 0.19 0.14 0.07 0.03 0.03 0.04 0.08 0.08 0.04 0.00 0.00 0.00 0.01 0.03 0.02 0.01 0.01 0.00 0.06 0.07 0.08 0.06 0.00 0.00 0.01 0.01 0.00 0.00 0.00 0.00 0.00 0.00
0.66 0.58 0.63 0.60 0.51 0.43 0.31 0.20 0.11 0.08 0.05 0.02 0.00 0.00 0.01 0.01 0.05 0.08 0.03 0.00 0.00 0.00 0.05 0.02 0.01 0.00 0.00 0.00 0.00 0.01 0.07 0.25 0.14 0.13 0.00 0.14 0.07 0.05 0.20 0.01 0.00 0.00 0.00

GFSMA_prec_precacc_099.txt.gz
Total_Precipitation_Accumulation
0.16 0.08 0.03 0.01 0.00 0.00 0.00 0.00 0.00 0.00 0.00 0.00 0.00 0.00 0.00 0.00 0.00 0.00 0.00 0.00 0.00 0.00 0.00 0.01 0.01 0.03 0.08 0.08 0.04 0.06 0.04 0.03 0.02 0.03 0.04 0.04 0.04 0.02 0.02 0.04 0.06 0.07 0.08
0.20 0.29 0.17 0.07 0.01 0.00 0.00 0.00 0.00 0.00 0.00 0.00 0.00 0.00 0.00 0.00 0.00 0.00 0.00 0.00 0.00 0.00 0.00 0.00 0.00 0.03 0.14 0.14 0.09 0.16 0.17 0.06 0.03 0.01 0.01 0.01 0.01 0.02 0.01 0.03 0.05 0.06 0.07
0.06 0.13 0.35 0.27 0.12 0.02 0.00 0.00 0.00 0.00 0.00 0.00 0.00 0.00 0.00 0.00 0.00 0.00 0.00 0.00 0.00 0.00 0.00 0.00 0.00 0.00 0.01 0.04 0.18 0.31 0.26 0.23 0.14 0.08 0.03 0.01 0.00 0.00 0.00 0.00 0.01 0.03 0.05
0.02 0.04 0.04 0.10 0.10 0.06 0.00 0.00 0.00 0.00 0.00 0.00 0.00 0.00 0.00 0.00 0.00 0.00 0.00 0.00 0.00 0.00 0.00 0.00 0.00 0.00 0.00 0.02 0.10 0.29 0.31 0.32 0.15 0.11 0.10 0.07 0.03 0.01 0.01 0.02 0.01 0.00 0.01
0.01 0.02 0.02 0.02 0.00 0.01 0.01 0.00 0.00 0.00 0.00 0.00 0.00 0.00 0.00 0.00 0.00 0.00 0.00 0.00 0.00 0.00 0.00 0.00 0.00 0.00 0.01 0.00 0.02 0.13 0.22 0.30 0.29 0.18 0.16 0.16 0.08 0.03 0.03 0.06 0.05 0.03 0.04
0.04 0.04 0.01 0.01 0.03 0.00 0.00 0.00 0.00 0.00 0.00 0.01 0.01 0.01 0.00 0.00 0.00 0.00 0.00 0.01 0.02 0.01 0.00 0.00 0.00 0.00 0.00 0.00 0.00 0.04 0.05 0.17 0.32 0.29 0.24 0.23 0.17 0.13 0.10 0.12 0.10 0.08 0.08
0.31 0.19 0.08 0.05 0.03 0.01 0.01 0.01 0.01 0.01 0.01 0.05 0.06 0.01 0.00 0.00 0.00 0.00 0.00 0.02 0.01 0.01 0.00 0.00 0.00 0.00 0.00 0.00 0.00 0.00 0.01 0.10 0.21 0.32 0.33 0.34 0.30 0.29 0.28 0.23 0.20 0.18 0.10
0.65 0.56 0.40 0.26 0.13 0.08 0.05 0.05 0.06 0.08 0.08 0.14 0.22 0.10 0.03 0.00 0.00 0.00 0.00 0.00 0.00 0.00 0.00 0.00 0.00 0.00 0.00 0.00 0.00 0.00 0.01 0.06 0.12 0.24 0.36 0.45 0.47 0.43 0.40 0.40 0.36 0.29 0.23
1.02 0.98 0.96 0.97 0.89 0.62 0.42 0.42 0.33 0.30 0.34 0.29 0.26 0.28 0.10 0.02 0.01 0.00 0.00 0.00 0.00 0.00 0.00 0.01 0.01 0.01 0.01 0.00 0.00 0.00 0.00 0.01 0.06 0.10 0.18 0.31 0.39 0.44 0.50 0.55 0.54 0.61 0.82
1.50 1.60 1.62 1.71 1.60 1.16 1.15 1.26 1.30 1.14 1.05 0.87 0.67 0.49 0.34 0.18 0.11 0.05 0.02 0.02 0.01 0.01 0.01 0.01 0.01 0.01 0.01 0.00 0.00 0.00 0.00 0.01 0.03 0.09 0.18 0.33 0.53 0.61 0.53 0.42 0.38 0.33 0.49
1.55 1.58 1.77 1.91 2.02 1.96 1.58 1.49 1.65 1.65 1.51 1.52 1.29 1.04 0.77 0.58 0.41 0.31 0.17 0.14 0.10 0.07 0.04 0.01 0.01 0.00 0.00 0.00 0.00 0.01 0.05 0.07 0.09 0.14 0.25 0.37 0.50 0.61 0.65 0.61 0.54 0.55 0.60
1.37 1.28 1.42 1.64 1.73 1.57 1.45 1.33 1.26 1.12 1.11 1.08 1.04 0.96 0.85 0.82 0.67 0.61 0.47 0.29 0.24 0.16 0.07 0.03 0.01 0.00 0.00 0.01 0.03 0.08 0.14 0.20 0.24 0.30 0.40 0.49 0.50 0.54 0.56 0.65 0.71 0.69 0.71
1.05 1.06 0.95 0.96 1.00 1.09 1.11 1.03 0.88 0.77 0.77 0.78 0.78 0.78 0.87 0.78 0.66 0.61 0.66 0.48 0.29 0.17 0.11 0.08 0.08 0.07 0.06 0.07 0.09 0.16 0.21 0.27 0.29 0.33 0.39 0.46 0.46 0.46 0.42 0.50 0.74 0.94 1.20
0.88 0.91 0.96 0.82 0.76 0.78 0.87 0.81 0.66 0.59 0.56 0.52 0.50 0.51 0.55 0.60 0.55 0.50 0.60 0.69 0.54 0.32 0.19 0.10 0.07 0.09 0.11 0.12 0.16 0.21 0.24 0.36 0.41 0.48 0.58 0.66 0.73 0.73 0.71 0.70 0.82 1.12 1.05
0.89 0.88 0.94 0.98 0.85 0.87 0.84 0.73 0.62 0.59 0.63 0.54 0.47 0.43 0.38 0.34 0.34 0.32 0.32 0.39 0.48 0.41 0.27 0.17 0.17 0.20 0.23 0.32 0.46 0.52 0.57 0.72 0.75 0.77 0.78 0.79 0.77 0.71 0.64 0.62 0.62 0.59 0.51
0.64 1.14 1.06 0.68 0.57 0.58 0.71 0.81 0.67 0.54 0.55 0.58 0.57 0.60 0.60 0.57 0.53 0.44 0.39 0.37 0.48 0.61 0.70 0.48 0.51 0.58 0.60 0.57 0.62 0.53 0.51 0.58 0.55 0.59 0.62 0.64 0.62 0.55 0.51 0.49 0.51 0.47 0.46
0.39 0.65 0.91 1.03 0.87 0.68 0.60 0.62 0.64 0.66 0.66 0.60 0.54 0.46 0.46 0.60 0.84 0.90 0.86 0.86 0.96 1.08 1.14 0.98 0.75 0.63 0.53 0.47 0.49 0.44 0.41 0.38 0.41 0.58 0.52 0.52 0.47 0.38 0.35 0.32 0.31 0.30 0.29
0.06 0.09 0.14 0.19 0.25 0.40 0.50 0.46 0.42 0.40 0.43 0.45 0.47 0.50 0.40 0.31 0.29 0.34 0.37 0.44 0.49 0.58 0.73 0.79 0.74 0.71 0.63 0.55 0.48 0.41 0.34 0.31 0.30 0.40 0.34 0.25 0.18 0.15 0.15 0.15 0.17 0.19 0.22
0.08 0.07 0.05 0.05 0.06 0.06 0.07 0.10 0.16 0.22 0.24 0.25 0.26 0.28 0.30 0.33 0.32 0.32 0.34 0.41 0.48 0.55 0.62 0.64 0.62 0.55 0.50 0.45 0.38 0.27 0.24 0.21 0.18 0.23 0.16 0.12 0.10 0.09 0.09 0.12 0.13 0.14 0.13
0.07 0.06 0.08 0.08 0.07 0.06 0.08 0.13 0.17 0.20 0.23 0.26 0.30 0.31 0.31 0.33 0.41 0.49 0.50 0.51 0.52 0.55 0.55 0.51 0.45 0.34 0.25 0.21 0.17 0.12 0.09 0.06 0.04 0.03 0.03 0.02 0.02 0.01 0.02 0.02 0.02 0.01 0.00
0.06 0.04 0.08 0.15 0.17 0.17 0.16 0.13 0.13 0.14 0.18 0.23 0.27 0.31 0.33 0.43 0.51 0.52 0.60 0.64 0.61 0.62 0.64 0.61 0.36 0.25 0.13 0.05 0.04 0.03 0.04 0.03 0.01 0.00 0.00 0.00 0.00 0.00 0.00 0.00 0.00 0.00 0.00
0.08 0.12 0.11 0.11 0.14 0.18 0.36 0.28 0.18 0.16 0.18 0.23 0.28 0.36 0.45 0.59 0.52 0.49 0.40 0.35 0.35 0.46 0.46 0.38 0.28 0.08 0.02 0.02 0.01 0.03 0.06 0.06 0.06 0.00 0.00 0.00 0.00 0.00 0.00 0.00 0.00 0.01 0.01
0.24 0.23 0.22 0.26 0.25 0.24 0.35 0.29 0.34 0.36 0.42 0.47 0.48 0.45 0.37 0.35 0.35 0.29 0.28 0.29 0.30 0.26 0.25 0.22 0.15 0.05 0.05 0.05 0.10 0.10 0.08 0.11 0.06 0.00 0.02 0.02 0.00 0.00 0.00 0.00 0.00 0.00 0.01
0.46 0.54 0.56 0.58 0.64 0.76 0.80 0.68 0.55 0.44 0.46 0.48 0.45 0.40 0.33 0.26 0.19 0.14 0.16 0.21 0.11 0.07 0.09 0.13 0.14 0.14 0.18 0.17 0.16 0.21 0.11 0.07 0.02 0.00 0.01 0.04 0.00 0.00 0.00 0.00 0.00 0.00 0.00
0.78 0.78 0.68 0.55 0.59 0.71 0.67 0.50 0.45 0.39 0.29 0.19 0.14 0.07 0.03 0.03 0.05 0.08 0.09 0.04 0.01 0.02 0.06 0.09 0.15 0.10 0.06 0.04 0.03 0.06 0.07 0.08 0.06 0.00 0.00 0.01 0.01 0.00 0.00 0.00 0.00 0.00 0.00
0.66 0.58 0.63 0.60 0.51 0.43 0.31 0.20 0.11 0.08 0.05 0.02 0.00 0.00 0.01 0.02 0.05 0.09 0.04 0.00 0.00 0.00 0.06 0.03 0.01 0.01 0.01 0.00 0.00 0.01 0.07 0.25 0.14 0.13 0.00 0.14 0.07 0.05 0.20 0.01 0.00 0.00 0.00

GFSMA_prec_precacc_102.txt.gz
Total_Precipitation_Accumulation
0.23 0.14 0.09 0.04 0.01 0.00 0.00 0.00 0.00 0.00 0.00 0.00 0.00 0.00 0.00 0.00 0.00 0.00 0.00 0.00 0.00 0.00 0.00 0.01 0.01 0.03 0.08 0.08 0.04 0.06 0.04 0.03 0.02 0.03 0.04 0.04 0.04 0.02 0.02 0.04 0.06 0.07 0.08
0.24 0.33 0.24 0.17 0.05 0.01 0.00 0.00 0.00 0.00 0.00 0.00 0.00 0.00 0.00 0.00 0.00 0.00 0.00 0.00 0.00 0.00 0.00 0.00 0.00 0.03 0.14 0.14 0.09 0.17 0.18 0.07 0.04 0.02 0.01 0.01 0.01 0.02 0.01 0.03 0.05 0.06 0.07
0.06 0.15 0.37 0.33 0.23 0.12 0.03 0.00 0.00 0.00 0.00 0.00 0.00 0.00 0.00 0.00 0.00 0.00 0.00 0.00 0.00 0.00 0.00 0.00 0.00 0.00 0.01 0.04 0.18 0.32 0.27 0.23 0.16 0.09 0.03 0.01 0.00 0.00 0.00 0.00 0.01 0.03 0.05
0.02 0.05 0.05 0.11 0.16 0.20 0.17 0.07 0.01 0.00 0.00 0.00 0.00 0.00 0.00 0.00 0.00 0.00 0.00 0.00 0.00 0.00 0.00 0.00 0.00 0.00 0.01 0.02 0.11 0.30 0.31 0.32 0.15 0.12 0.11 0.08 0.05 0.03 0.01 0.02 0.02 0.01 0.02
0.01 0.03 0.05 0.06 0.07 0.10 0.12 0.15 0.07 0.01 0.00 0.00 0.00 0.00 0.00 0.00 0.00 0.00 0.00 0.00 0.00 0.00 0.00 0.00 0.00 0.00 0.01 0.00 0.02 0.13 0.22 0.30 0.29 0.19 0.17 0.16 0.09 0.03 0.03 0.06 0.05 0.03 0.04
0.05 0.08 0.06 0.05 0.05 0.04 0.03 0.03 0.04 0.02 0.01 0.01 0.01 0.01 0.00 0.00 0.00 0.00 0.00 0.01 0.02 0.01 0.00 0.00 0.00 0.00 0.00 0.00 0.00 0.04 0.05 0.17 0.32 0.29 0.24 0.23 0.17 0.13 0.10 0.12 0.10 0.08 0.08
0.32 0.23 0.16 0.11 0.06 0.02 0.02 0.02 0.03 0.03 0.02 0.06 0.06 0.01 0.00 0.00 0.00 0.00 0.00 0.02 0.01 0.01 0.00 0.00 0.00 0.00 0.00 0.00 0.00 0.00 0.01 0.10 0.21 0.32 0.33 0.34 0.30 0.29 0.28 0.23 0.20 0.18 0.10
0.66 0.56 0.45 0.36 0.22 0.14 0.08 0.08 0.07 0.09 0.08 0.15 0.22 0.10 0.03 0.00 0.00 0.00 0.00 0.00 0.00 0.00 0.00 0.00 0.00 0.00 0.00 0.00 0.00 0.00 0.01 0.06 0.12 0.24 0.36 0.45 0.47 0.43 0.40 0.40 0.36 0.29 0.23
1.03 1.00 0.96 1.00 0.95 0.69 0.47 0.44 0.34 0.30 0.34 0.29 0.26 0.28 0.10 0.02 0.01 0.00 0.00 0.00 0.00 0.00 0.00 0.01 0.01 0.01 0.01 0.00 0.00 0.00 0.00 0.01 0.06 0.10 0.19 0.31 0.39 0.44 0.50 0.55 0.54 0.61 0.83
1.50 1.62 1.65 1.72 1.62 1.21 1.21 1.31 1.34 1.16 1.05 0.87 0.67 0.49 0.34 0.18 0.11 0.05 0.02 0.02 0.01 0.01 0.01 0.02 0.02 0.01 0.01 0.00 0.00 0.00 0.00 0.01 0.03 0.09 0.19 0.34 0.54 0.62 0.53 0.42 0.38 0.33 0.49
1.55 1.59 1.82 2.03 2.11 2.03 1.63 1.54 1.70 1.71 1.55 1.54 1.29 1.04 0.77 0.58 0.41 0.31 0.17 0.14 0.10 0.07 0.05 0.03 0.03 0.02 0.01 0.01 0.00 0.01 0.05 0.07 0.09 0.14 0.25 0.39 0.54 0.64 0.66 0.61 0.54 0.55 0.61
1.37 1.28 1.43 1.77 1.98 1.78 1.56 1.39 1.32 1.18 1.16 1.13 1.09 1.02 0.87 0.84 0.69 0.64 0.48 0.31 0.25 0.17 0.07 0.03 0.01 0.01 0.01 0.01 0.03 0.08 0.14 0.20 0.24 0.30 0.40 0.50 0.52 0.55 0.56 0.65 0.71 0.69 0.71
1.05 1.06 0.97 1.02 1.12 1.30 1.38 1.24 0.99 0.84 0.84 0.84 0.83 0.85 0.95 0.86 0.73 0.68 0.72 0.51 0.31 0.18 0.11 0.08 0.08 0.07 0.06 0.07 0.09 0.16 0.21 0.27 0.29 0.33 0.39 0.47 0.47 0.47 0.42 0.50 0.74 0.94 1.20
0.91 0.95 1.00 0.86 0.81 0.87 1.04 1.09 0.85 0.67 0.62 0.56 0.53 0.54 0.60 0.65 0.62 0.56 0.65 0.74 0.58 0.33 0.19 0.10 0.07 0.09 0.11 0.12 0.16 0.22 0.24 0.37 0.41 0.48 0.58 0.66 0.73 0.73 0.71 0.70 0.82 1.12 1.05
0.94 1.04 1.12 1.20 1.11 1.08 1.08 1.04 0.96 0.79 0.74 0.61 0.53 0.52 0.48 0.40 0.39 0.37 0.38 0.44 0.55 0.48 0.30 0.17 0.17 0.20 0.24 0.33 0.49 0.55 0.58 0.73 0.76 0.77 0.78 0.79 0.77 0.71 0.64 0.62 0.62 0.59 0.51
0.68 1.18 1.13 0.84 0.84 0.87 1.02 1.27 1.16 0.88 0.77 0.73 0.68 0.70 0.71 0.68 0.62 0.52 0.48 0.47 0.56 0.68 0.76 0.51 0.52 0.59 0.65 0.69 0.76 0.63 0.54 0.59 0.55 0.59 0.62 0.64 0.62 0.55 0.51 0.49 0.51 0.47 0.46
0.45 0.71 1.00 1.14 1.00 0.84 0.80 0.83 0.81 0.93 1.06 0.92 0.76 0.68 0.64 0.73 0.99 1.02 0.94 0.94 1.09 1.27 1.37 1.17 0.85 0.74 0.66 0.61 0.62 0.51 0.44 0.39 0.41 0.58 0.52 0.52 0.47 0.38 0.35 0.32 0.31 0.30 0.29
0.06 0.09 0.14 0.22 0.30 0.46 0.58 0.60 0.61 0.62 0.63 0.63 0.65 0.68 0.60 0.53 0.52 0.49 0.47 0.51 0.58 0.71 0.91 0.95 0.88 0.85 0.79 0.73 0.67 0.53 0.42 0.34 0.30 0.40 0.34 0.25 0.18 0.15 0.15 0.15 0.17 0.19 0.22
0.08 0.07 0.05 0.05 0.06 0.06 0.07 0.11 0.20 0.33 0.43 0.52 0.54 0.48 0.41 0.46 0.48 0.53 0.51 0.53 0.55 0.61 0.68 0.70 0.69 0.61 0.55 0.53 0.47 0.34 0.29 0.24 0.20 0.23 0.16 0.12 0.10 0.09 0.09 0.12 0.13 0.14 0.13
0.07 0.06 0.08 0.08 0.07 0.06 0.08 0.13 0.17 0.20 0.23 0.28 0.36 0.47 0.52 0.58 0.58 0.60 0.62 0.63 0.64 0.67 0.62 0.56 0.50 0.40 0.29 0.23 0.19 0.15 0.11 0.06 0.04 0.03 0.03 0.02 0.02 0.01 0.02 0.03 0.02 0.01 0.00
0.06 0.04 0.08 0.15 0.17 0.17 0.16 0.13 0.13 0.14 0.18 0.23 0.27 0.31 0.33 0.46 0.57 0.59 0.66 0.68 0.74 0.84 0.86 0.81 0.64 0.52 0.35 0.20 0.13 0.06 0.07 0.05 0.02 0.00 0.00 0.00 0.00 0.00 0.00 0.00 0.00 0.00 0.00
0.08 0.12 0.11 0.11 0.14 0.18 0.36 0.28 0.18 0.16 0.18 0.23 0.28 0.36 0.45 0.59 0.53 0.51 0.46 0.41 0.40 0.54 0.67 0.68 0.61 0.43 0.31 0.26 0.22 0.17 0.15 0.11 0.06 0.00 0.00 0.00 0.00 0.00 0.00 0.00 0.00 0.01 0.01
0.24 0.23 0.22 0.26 0.25 0.24 0.35 0.29 0.34 0.36 0.42 0.47 0.48 0.45 0.37 0.35 0.35 0.29 0.29 0.31 0.34 0.31 0.31 0.26 0.20 0.14 0.13 0.15 0.22 0.22 0.14 0.12 0.06 0.00 0.02 0.02 0.00 0.00 0.00 0.00 0.00 0.00 0.01
0.46 0.54 0.56 0.58 0.64 0.76 0.80 0.68 0.55 0.44 0.46 0.48 0.45 0.40 0.33 0.26 0.19 0.14 0.16 0.21 0.11 0.08 0.12 0.16 0.17 0.23 0.32 0.35 0.37 0.42 0.28 0.16 0.04 0.00 0.01 0.04 0.00 0.00 0.00 0.00 0.00 0.00 0.00
0.78 0.78 0.68 0.55 0.59 0.71 0.67 0.50 0.45 0.39 0.29 0.19 0.14 0.07 0.03 0.03 0.05 0.09 0.09 0.04 0.02 0.02 0.09 0.15 0.21 0.22 0.22 0.24 0.22 0.24 0.25 0.20 0.15 0.04 0.01 0.01 0.01 0.00 0.00 0.00 0.00 0.00 0.00
0.66 0.58 0.63 0.60 0.51 0.43 0.31 0.20 0.11 0.08 0.05 0.02 0.00 0.00 0.02 0.02 0.05 0.09 0.04 0.00 0.01 0.01 0.06 0.04 0.03 0.05 0.08 0.11 0.15 0.14 0.18 0.36 0.19 0.15 0.00 0.14 0.07 0.05 0.20 0.01 0.00 0.00 0.00

GFSMA_prec_precacc_105.txt.gz
Total_Precipitation_Accumulation
0.30 0.21 0.18 0.14 0.05 0.02 0.01 0.00 0.00 0.00 0.00 0.00 0.00 0.00 0.00 0.00 0.00 0.00 0.00 0.00 0.00 0.00 0.00 0.01 0.01 0.03 0.08 0.08 0.04 0.06 0.04 0.03 0.02 0.03 0.04 0.04 0.04 0.02 0.02 0.04 0.06 0.07 0.08
0.26 0.36 0.28 0.26 0.17 0.10 0.04 0.01 0.00 0.00 0.00 0.00 0.00 0.00 0.00 0.00 0.00 0.00 0.00 0.00 0.00 0.00 0.00 0.00 0.00 0.03 0.14 0.14 0.09 0.17 0.18 0.09 0.05 0.03 0.01 0.01 0.01 0.02 0.01 0.03 0.05 0.06 0.07
0.07 0.15 0.38 0.34 0.25 0.16 0.08 0.05 0.05 0.01 0.00 0.00 0.00 0.00 0.00 0.00 0.00 0.00 0.00 0.00 0.00 0.00 0.00 0.00 0.00 0.00 0.01 0.04 0.19 0.33 0.28 0.26 0.17 0.12 0.04 0.01 0.00 0.00 0.00 0.00 0.02 0.03 0.05
0.02 0.05 0.05 0.11 0.16 0.20 0.18 0.13 0.14 0.12 0.02 0.00 0.00 0.00 0.00 0.00 0.00 0.00 0.00 0.00 0.00 0.00 0.00 0.00 0.00 0.00 0.01 0.03 0.12 0.31 0.33 0.32 0.15 0.13 0.12 0.11 0.07 0.04 0.02 0.02 0.02 0.01 0.02
0.01 0.03 0.05 0.06 0.09 0.12 0.14 0.18 0.19 0.17 0.12 0.04 0.01 0.00 0.00 0.00 0.00 0.00 0.00 0.00 0.00 0.00 0.00 0.00 0.00 0.00 0.01 0.00 0.02 0.13 0.22 0.30 0.29 0.19 0.18 0.18 0.11 0.03 0.03 0.06 0.05 0.03 0.04
0.05 0.08 0.06 0.06 0.08 0.08 0.09 0.09 0.13 0.13 0.09 0.06 0.03 0.01 0.00 0.00 0.00 0.00 0.00 0.01 0.02 0.01 0.00 0.00 0.00 0.00 0.00 0.00 0.00 0.04 0.05 0.17 0.32 0.29 0.24 0.23 0.17 0.13 0.10 0.12 0.10 0.08 0.08
0.32 0.23 0.17 0.12 0.09 0.03 0.02 0.03 0.07 0.07 0.05 0.08 0.09 0.02 0.00 0.00 0.00 0.00 0.00 0.02 0.01 0.01 0.00 0.00 0.00 0.00 0.00 0.00 0.00 0.00 0.01 0.10 0.21 0.32 0.33 0.34 0.30 0.29 0.28 0.23 0.20 0.18 0.10
0.66 0.56 0.45 0.36 0.23 0.17 0.10 0.08 0.07 0.09 0.09 0.17 0.25 0.12 0.03 0.00 0.00 0.00 0.00 0.00 0.00 0.00 0.00 0.00 0.00 0.00 0.00 0.00 0.00 0.00 0.01 0.06 0.12 0.24 0.36 0.45 0.47 0.43 0.40 0.40 0.36 0.29 0.23
1.03 1.00 0.96 1.00 0.97 0.72 0.48 0.45 0.35 0.31 0.34 0.29 0.27 0.28 0.10 0.02 0.01 0.00 0.00 0.00 0.00 0.00 0.00 0.01 0.01 0.01 0.01 0.00 0.00 0.00 0.00 0.01 0.06 0.10 0.19 0.31 0.39 0.44 0.50 0.55 0.54 0.61 0.83
1.50 1.62 1.65 1.72 1.63 1.23 1.25 1.35 1.37 1.18 1.08 0.88 0.68 0.50 0.34 0.18 0.11 0.05 0.02 0.02 0.01 0.01 0.01 0.02 0.02 0.01 0.01 0.00 0.00 0.00 0.00 0.01 0.03 0.09 0.19 0.34 0.54 0.62 0.53 0.42 0.38 0.33 0.49
1.55 1.59 1.82 2.03 2.11 2.03 1.64 1.57 1.75 1.77 1.60 1.58 1.31 1.05 0.77 0.58 0.41 0.31 0.17 0.14 0.10 0.07 0.05 0.04 0.05 0.05 0.06 0.05 0.04 0.03 0.05 0.07 0.09 0.14 0.25 0.40 0.55 0.65 0.67 0.62 0.54 0.55 0.61
1.37 1.28 1.43 1.77 1.99 1.78 1.56 1.40 1.34 1.22 1.20 1.17 1.12 1.04 0.89 0.85 0.69 0.64 0.49 0.31 0.27 0.19 0.09 0.05 0.04 0.04 0.04 0.04 0.04 0.08 0.15 0.20 0.24 0.30 0.40 0.52 0.58 0.62 0.61 0.66 0.71 0.69 0.71
1.05 1.06 0.97 1.02 1.13 1.31 1.38 1.27 1.06 0.93 0.91 0.89 0.87 0.88 1.00 0.91 0.75 0.69 0.73 0.52 0.32 0.20 0.14 0.09 0.09 0.08 0.09 0.08 0.10 0.17 0.22 0.27 0.29 0.33 0.39 0.47 0.50 0.52 0.44 0.50 0.74 0.94 1.20
0.92 0.95 1.01 0.88 0.83 0.89 1.06 1.13 0.95 0.79 0.76 0.73 0.67 0.63 0.66 0.75 0.71 0.63 0.72 0.81 0.63 0.34 0.19 0.11 0.07 0.09 0.12 0.12 0.17 0.23 0.24 0.37 0.41 0.48 0.59 0.68 0.74 0.74 0.71 0.70 0.82 1.12 1.05
0.97 1.06 1.16 1.23 1.15 1.15 1.22 1.24 1.14 0.97 0.89 0.76 0.67 0.63 0.55 0.46 0.45 0.46 0.47 0.56 0.67 0.59 0.34 0.18 0.18 0.21 0.24 0.34 0.50 0.56 0.59 0.76 0.78 0.78 0.79 0.80 0.77 0.71 0.64 0.62 0.62 0.59 0.51
0.70 1.21 1.16 0.88 0.88 0.94 1.11 1.40 1.36 1.17 1.11 1.01 0.82 0.79 0.78 0.72 0.67 0.57 0.54 0.55 0.68 0.83 0.88 0.53 0.52 0.60 0.65 0.70 0.78 0.66 0.60 0.69 0.61 0.62 0.63 0.64 0.62 0.55 0.51 0.49 0.51 0.47 0.46
0.45 0.72 1.00 1.16 1.04 0.89 0.87 0.91 0.92 1.02 1.21 1.22 1.22 1.09 0.85 0.81 1.03 1.08 1.01 1.03 1.18 1.37 1.49 1.22 0.86 0.75 0.68 0.63 0.67 0.61 0.54 0.47 0.47 0.62 0.53 0.52 0.47 0.38 0.35 0.32 0.31 0.30 0.29
0.06 0.09 0.14 0.22 0.30 0.47 0.60 0.62 0.64 0.67 0.73 0.81 0.86 0.94 0.86 0.76 0.71 0.64 0.62 0.66 0.73 0.84 1.05 1.07 0.92 0.88 0.83 0.78 0.75 0.67 0.58 0.47 0.38 0.45 0.37 0.26 0.19 0.15 0.15 0.15 0.17 0.19 0.22
0.08 0.07 0.05 0.05 0.06 0.06 0.07 0.11 0.20 0.33 0.47 0.60 0.68 0.68 0.62 0.69 0.68 0.70 0.75 0.80 0.81 0.89 0.99 0.97 0.81 0.66 0.60 0.60 0.57 0.48 0.45 0.39 0.29 0.30 0.20 0.13 0.10 0.09 0.09 0.12 0.13 0.14 0.13
0.07 0.06 0.08 0.08 0.07 0.06 0.08 0.13 0.17 0.20 0.23 0.28 0.36 0.48 0.58 0.72 0.81 0.92 0.96 0.91 0.92 0.95 0.88 0.79 0.64 0.47 0.35 0.30 0.26 0.21 0.18 0.12 0.09 0.07 0.05 0.02 0.02 0.01 0.02 0.03 0.02 0.01 0.00
0.06 0.04 0.08 0.15 0.17 0.17 0.16 0.13 0.13 0.14 0.18 0.23 0.27 0.31 0.33 0.46 0.57 0.62 0.77 0.85 0.96 1.07 1.16 1.12 0.87 0.67 0.43 0.26 0.18 0.11 0.12 0.11 0.10 0.04 0.01 0.00 0.00 0.00 0.00 0.00 0.00 0.00 0.00
0.08 0.12 0.11 0.11 0.14 0.18 0.36 0.28 0.18 0.16 0.18 0.23 0.28 0.36 0.45 0.59 0.53 0.51 0.46 0.42 0.42 0.58 0.73 0.78 0.79 0.66 0.52 0.45 0.47 0.46 0.46 0.42 0.30 0.07 0.03 0.01 0.00 0.00 0.00 0.00 0.00 0.01 0.01
0.24 0.23 0.22 0.26 0.25 0.24 0.35 0.29 0.34 0.36 0.42 0.47 0.48 0.45 0.37 0.35 0.35 0.29 0.29 0.31 0.34 0.34 0.35 0.30 0.23 0.16 0.18 0.22 0.33 0.38 0.35 0.34 0.25 0.14 0.16 0.10 0.01 0.00 0.00 0.00 0.00 0.00 0.01
0.46 0.54 0.56 0.58 0.64 0.76 0.80 0.68 0.55 0.44 0.46 0.48 0.45 0.40 0.33 0.26 0.19 0.14 0.16 0.21 0.11 0.08 0.13 0.19 0.19 0.24 0.34 0.39 0.47 0.57 0.44 0.31 0.18 0.12 0.12 0.10 0.01 0.00 0.00 0.00 0.00 0.00 0.00
0.78 0.78 0.68 0.55 0.59 0.71 0.67 0.50 0.45 0.39 0.29 0.19 0.14 0.07 0.03 0.03 0.05 0.09 0.09 0.04 0.02 0.02 0.09 0.16 0.24 0.29 0.29 0.28 0.27 0.33 0.41 0.41 0.38 0.22 0.15 0.11 0.06 0.01 0.00 0.00 0.00 0.00 0.00
0.66 0.58 0.63 0.60 0.51 0.43 0.31 0.20 0.11 0.08 0.05 0.02 0.00 0.00 0.02 0.02 0.06 0.10 0.05 0.01 0.01 0.01 0.06 0.05 0.05 0.07 0.11 0.14 0.18 0.18 0.24 0.47 0.34 0.33 0.17 0.29 0.17 0.10 0.20 0.01 0.00 0.00 0.00

GFSMA_prec_precacc_108.txt.gz
Total_Precipitation_Accumulation
0.31 0.22 0.24 0.20 0.14 0.09 0.06 0.04 0.02 0.01 0.00 0.00 0.00 0.00 0.00 0.00 0.00 0.00 0.00 0.00 0.00 0.00 0.00 0.01 0.01 0.03 0.08 0.08 0.04 0.06 0.04 0.03 0.02 0.03 0.04 0.04 0.04 0.02 0.02 0.04 0.06 0.07 0.08
0.27 0.36 0.30 0.29 0.21 0.15 0.08 0.03 0.05 0.02 0.00 0.00 0.00 0.00 0.00 0.00 0.00 0.00 0.00 0.00 0.00 0.00 0.00 0.00 0.01 0.03 0.15 0.15 0.10 0.18 0.19 0.09 0.06 0.04 0.01 0.01 0.01 0.02 0.01 0.03 0.05 0.06 0.07
0.10 0.16 0.38 0.34 0.26 0.20 0.17 0.09 0.12 0.10 0.03 0.00 0.00 0.00 0.00 0.00 0.00 0.00 0.00 0.00 0.00 0.00 0.00 0.00 0.00 0.00 0.01 0.05 0.20 0.33 0.30 0.28 0.20 0.15 0.06 0.02 0.00 0.00 0.00 0.00 0.02 0.03 0.05
0.05 0.08 0.06 0.11 0.16 0.20 0.19 0.14 0.16 0.23 0.19 0.09 0.01 0.00 0.00 0.00 0.00 0.00 0.00 0.00 0.00 0.00 0.00 0.00 0.00 0.00 0.01 0.03 0.12 0.32 0.36 0.35 0.15 0.13 0.12 0.11 0.08 0.04 0.02 0.02 0.02 0.01 0.02
0.02 0.03 0.05 0.06 0.09 0.13 0.17 0.21 0.23 0.22 0.24 0.18 0.08 0.02 0.00 0.00 0.00 0.00 0.00 0.00 0.00 0.00 0.00 0.00 0.00 0.00 0.01 0.00 0.02 0.13 0.23 0.30 0.29 0.19 0.18 0.18 0.11 0.04 0.03 0.06 0.05 0.03 0.04
0.05 0.08 0.06 0.06 0.08 0.08 0.11 0.14 0.18 0.16 0.13 0.11 0.09 0.03 0.00 0.00 0.00 0.00 0.00 0.01 0.02 0.01 0.00 0.00 0.00 0.00 0.00 0.00 0.00 0.04 0.05 0.17 0.32 0.29 0.24 0.23 0.17 0.13 0.10 0.12 0.10 0.08 0.08
0.35 0.23 0.17 0.12 0.09 0.04 0.03 0.06 0.12 0.12 0.08 0.12 0.15 0.05 0.01 0.00 0.00 0.00 0.00 0.02 0.01 0.01 0.00 0.00 0.00 0.00 0.00 0.00 0.00 0.00 0.01 0.10 0.21 0.32 0.33 0.34 0.30 0.29 0.28 0.23 0.20 0.18 0.10
0.66 0.56 0.45 0.37 0.24 0.18 0.11 0.09 0.10 0.11 0.10 0.18 0.25 0.12 0.03 0.00 0.00 0.00 0.00 0.00 0.00 0.00 0.00 0.00 0.00 0.00 0.00 0.00 0.00 0.00 0.01 0.06 0.12 0.24 0.36 0.45 0.47 0.43 0.40 0.40 0.36 0.29 0.23
1.03 1.00 0.96 1.01 0.98 0.74 0.51 0.47 0.37 0.32 0.35 0.29 0.27 0.29 0.11 0.03 0.01 0.00 0.00 0.00 0.00 0.00 0.00 0.01 0.01 0.01 0.01 0.00 0.00 0.00 0.00 0.01 0.06 0.10 0.19 0.31 0.40 0.45 0.50 0.56 0.54 0.61 0.83
1.50 1.62 1.65 1.73 1.64 1.26 1.29 1.40 1.41 1.21 1.08 0.88 0.68 0.50 0.34 0.18 0.12 0.05 0.02 0.02 0.01 0.01 0.01 0.02 0.02 0.01 0.01 0.01 0.02 0.03 0.03 0.03 0.03 0.09 0.19 0.34 0.55 0.62 0.54 0.43 0.38 0.33 0.49
1.55 1.59 1.82 2.03 2.12 2.05 1.66 1.60 1.78 1.79 1.62 1.59 1.32 1.05 0.77 0.58 0.41 0.32 0.18 0.14 0.10 0.07 0.05 0.04 0.05 0.05 0.07 0.10 0.10 0.11 0.15 0.14 0.11 0.14 0.25 0.40 0.56 0.66 0.69 0.63 0.55 0.55 0.61
1.39 1.29 1.44 1.78 2.00 1.80 1.58 1.41 1.36 1.25 1.22 1.18 1.13 1.05 0.90 0.85 0.70 0.64 0.49 0.31 0.27 0.19 0.09 0.05 0.05 0.05 0.06 0.08 0.11 0.15 0.20 0.22 0.25 0.30 0.40 0.53 0.62 0.69 0.70 0.72 0.72 0.69 0.71
1.07 1.06 0.97 1.02 1.14 1.32 1.41 1.30 1.09 0.95 0.93 0.91 0.88 0.89 1.02 0.91 0.76 0.70 0.75 0.53 0.33 0.21 0.14 0.10 0.09 0.09 0.10 0.11 0.14 0.22 0.25 0.29 0.30 0.33 0.39 0.47 0.54 0.60 0.56 0.60 0.77 0.94 1.20
0.93 0.95 1.01 0.89 0.85 0.91 1.08 1.14 0.96 0.81 0.77 0.75 0.69 0.65 0.68 0.76 0.74 0.66 0.76 0.86 0.68 0.36 0.19 0.11 0.07 0.10 0.13 0.14 0.19 0.27 0.26 0.38 0.41 0.48 0.59 0.68 0.75 0.75 0.74 0.73 0.84 1.13 1.05
0.98 1.07 1.16 1.24 1.15 1.15 1.23 1.25 1.19 1.06 1.00 0.83 0.72 0.71 0.70 0.60 0.56 0.56 0.60 0.67 0.79 0.68 0.37 0.18 0.18 0.21 0.26 0.36 0.54 0.61 0.62 0.78 0.79 0.78 0.79 0.80 0.78 0.71 0.64 0.62 0.62 0.59 0.51
0.70 1.21 1.17 0.88 0.89 0.94 1.12 1.41 1.39 1.21 1.16 1.14 1.04 0.98 0.93 0.82 0.78 0.71 0.71 0.72 0.84 0.97 0.94 0.54 0.52 0.61 0.69 0.77 0.84 0.72 0.63 0.72 0.62 0.63 0.64 0.65 0.63 0.56 0.52 0.49 0.51 0.47 0.46
0.46 0.72 1.00 1.16 1.04 0.89 0.87 0.93 0.94 1.03 1.22 1.24 1.26 1.24 1.12 1.16 1.41 1.34 1.20 1.20 1.35 1.50 1.59 1.25 0.87 0.75 0.69 0.64 0.69 0.65 0.61 0.52 0.51 0.67 0.57 0.54 0.48 0.39 0.36 0.32 0.31 0.30 0.29
0.06 0.09 0.14 0.22 0.30 0.47 0.60 0.62 0.64 0.67 0.74 0.82 0.89 1.01 0.96 0.94 0.95 0.90 0.86 0.87 0.88 0.96 1.17 1.15 0.94 0.89 0.83 0.78 0.75 0.69 0.63 0.55 0.47 0.58 0.46 0.31 0.22 0.17 0.16 0.15 0.17 0.19 0.22
0.08 0.07 0.05 0.05 0.06 0.06 0.07 0.11 0.20 0.33 0.47 0.60 0.68 0.70 0.65 0.76 0.80 0.88 0.98 1.07 1.06 1.08 1.17 1.16 0.94 0.74 0.64 0.62 0.60 0.54 0.53 0.51 0.44 0.50 0.33 0.21 0.16 0.12 0.10 0.13 0.13 0.14 0.13
0.07 0.06 0.08 0.08 0.07 0.06 0.08 0.13 0.17 0.20 0.23 0.28 0.36 0.48 0.58 0.72 0.84 0.96 1.04 1.01 1.05 1.13 1.08 1.01 0.82 0.60 0.43 0.37 0.33 0.27 0.26 0.23 0.22 0.24 0.19 0.12 0.09 0.05 0.04 0.04 0.02 0.01 0.00
0.06 0.04 0.08 0.15 0.17 0.17 0.16 0.13 0.13 0.14 0.18 0.23 0.27 0.31 0.33 0.46 0.57 0.62 0.77 0.86 0.99 1.17 1.29 1.28 1.01 0.77 0.50 0.31 0.21 0.14 0.16 0.18 0.22 0.17 0.11 0.07 0.04 0.02 0.00 0.01 0.00 0.00 0.00
0.08 0.12 0.11 0.11 0.14 0.18 0.36 0.28 0.18 0.16 0.18 0.23 0.28 0.36 0.45 0.59 0.53 0.51 0.46 0.42 0.42 0.58 0.76 0.83 0.83 0.69 0.55 0.50 0.55 0.58 0.57 0.53 0.43 0.14 0.09 0.06 0.02 0.00 0.00 0.00 0.00 0.01 0.01
0.24 0.23 0.22 0.26 0.25 0.24 0.35 0.29 0.34 0.36 0.42 0.47 0.48 0.45 0.37 0.35 0.35 0.29 0.29 0.31 0.34 0.34 0.36 0.32 0.27 0.19 0.20 0.25 0.40 0.50 0.51 0.47 0.38 0.22 0.29 0.26 0.14 0.05 0.01 0.00 0.00 0.00 0.01
0.46 0.54 0.56 0.58 0.64 0.76 0.80 0.68 0.55 0.44 0.46 0.48 0.45 0.40 0.33 0.26 0.19 0.14 0.16 0.21 0.11 0.08 0.13 0.19 0.20 0.27 0.37 0.41 0.52 0.65 0.55 0.46 0.36 0.27 0.25 0.23 0.10 0.08 0.04 0.01 0.01 0.00 0.00
0.78 0.78 0.68 0.55 0.59 0.71 0.67 0.50 0.45 0.39 0.29 0.19 0.14 0.07 0.03 0.03 0.05 0.09 0.09 0.05 0.02 0.02 0.09 0.16 0.24 0.29 0.32 0.33 0.31 0.38 0.56 0.63 0.57 0.35 0.26 0.20 0.13 0.11 0.08 0.04 0.01 0.00 0.01
0.66 0.58 0.63 0.60 0.51 0.43 0.31 0.20 0.11 0.08 0.05 0.02 0.00 0.00 0.02 0.02 0.06 0.10 0.05 0.01 0.02 0.01 0.06 0.05 0.05 0.08 0.11 0.16 0.22 0.22 0.28 0.51 0.39 0.38 0.23 0.36 0.26 0.25 0.38 0.10 0.02 0.01 0.00

GFSMA_prec_precacc_111.txt.gz
Total_Precipitation_Accumulation
0.32 0.24 0.25 0.24 0.18 0.13 0.10 0.10 0.08 0.05 0.01 0.00 0.00 0.00 0.00 0.00 0.00 0.00 0.00 0.00 0.00 0.00 0.00 0.01 0.01 0.03 0.08 0.08 0.04 0.06 0.04 0.03 0.02 0.03 0.04 0.04 0.04 0.02 0.02 0.04 0.06 0.07 0.08
0.33 0.43 0.37 0.36 0.28 0.20 0.15 0.08 0.10 0.08 0.03 0.01 0.00 0.00 0.00 0.00 0.00 0.00 0.00 0.00 0.00 0.00 0.00 0.00 0.01 0.04 0.16 0.16 0.10 0.18 0.19 0.09 0.06 0.05 0.01 0.01 0.01 0.02 0.01 0.03 0.05 0.06 0.07
0.14 0.20 0.41 0.39 0.30 0.27 0.28 0.23 0.29 0.23 0.20 0.10 0.03 0.00 0.00 0.00 0.00 0.00 0.00 0.00 0.00 0.00 0.00 0.00 0.00 0.00 0.02 0.08 0.24 0.35 0.31 0.30 0.23 0.19 0.08 0.02 0.00 0.00 0.00 0.00 0.02 0.03 0.05
0.10 0.15 0.12 0.16 0.20 0.25 0.24 0.17 0.18 0.27 0.30 0.26 0.09 0.01 0.00 0.00 0.00 0.00 0.00 0.00 0.00 0.00 0.00 0.00 0.00 0.00 0.01 0.03 0.12 0.33 0.39 0.38 0.18 0.15 0.13 0.11 0.08 0.04 0.02 0.02 0.02 0.01 0.02
0.07 0.13 0.15 0.17 0.16 0.17 0.20 0.24 0.29 0.27 0.26 0.21 0.10 0.03 0.00 0.00 0.00 0.00 0.00 0.00 0.00 0.00 0.00 0.00 0.00 0.00 0.01 0.00 0.02 0.13 0.25 0.34 0.31 0.19 0.18 0.18 0.11 0.04 0.03 0.06 0.05 0.03 0.04
0.06 0.12 0.17 0.20 0.19 0.13 0.12 0.15 0.21 0.21 0.17 0.14 0.12 0.07 0.03 0.00 0.00 0.00 0.00 0.01 0.02 0.01 0.00 0.00 0.00 0.00 0.00 0.00 0.00 0.04 0.06 0.21 0.34 0.30 0.24 0.23 0.17 0.13 0.10 0.13 0.10 0.08 0.08
0.36 0.25 0.17 0.13 0.11 0.05 0.04 0.07 0.14 0.16 0.12 0.16 0.21 0.08 0.03 0.01 0.00 0.00 0.00 0.02 0.01 0.01 0.00 0.00 0.00 0.00 0.00 0.00 0.00 0.00 0.01 0.10 0.24 0.34 0.33 0.34 0.30 0.29 0.28 0.23 0.20 0.18 0.10
0.66 0.59 0.46 0.39 0.25 0.18 0.11 0.09 0.11 0.13 0.12 0.20 0.28 0.15 0.05 0.01 0.00 0.00 0.00 0.00 0.00 0.00 0.00 0.00 0.00 0.00 0.00 0.00 0.00 0.00 0.01 0.06 0.13 0.29 0.38 0.46 0.47 0.43 0.40 0.40 0.36 0.29 0.23
1.03 1.01 0.97 1.02 1.02 0.77 0.51 0.47 0.38 0.35 0.39 0.32 0.29 0.30 0.12 0.03 0.01 0.00 0.00 0.00 0.00 0.00 0.00 0.01 0.01 0.01 0.01 0.00 0.00 0.00 0.01 0.02 0.06 0.16 0.23 0.33 0.40 0.45 0.50 0.56 0.54 0.61 0.83
1.53 1.65 1.67 1.74 1.65 1.30 1.30 1.41 1.43 1.25 1.15 0.93 0.71 0.51 0.35 0.19 0.12 0.05 0.02 0.02 0.01 0.01 0.01 0.02 0.02 0.01 0.01 0.01 0.02 0.03 0.04 0.09 0.04 0.10 0.24 0.38 0.55 0.63 0.55 0.43 0.39 0.34 0.49
1.58 1.64 1.87 2.09 2.18 2.11 1.70 1.65 1.83 1.84 1.68 1.65 1.34 1.06 0.77 0.59 0.42 0.32 0.18 0.14 0.10 0.07 0.05 0.04 0.05 0.05 0.07 0.10 0.10 0.11 0.16 0.19 0.12 0.14 0.27 0.41 0.56 0.67 0.74 0.67 0.58 0.57 0.61
1.43 1.32 1.46 1.80 2.03 1.84 1.63 1.47 1.41 1.31 1.29 1.24 1.18 1.07 0.91 0.86 0.70 0.65 0.50 0.31 0.27 0.19 0.09 0.05 0.05 0.05 0.06 0.08 0.11 0.16 0.21 0.25 0.26 0.31 0.40 0.53 0.62 0.73 0.81 0.84 0.80 0.72 0.71
1.08 1.08 0.99 1.03 1.14 1.33 1.43 1.33 1.12 0.98 0.97 0.94 0.91 0.92 1.03 0.93 0.77 0.72 0.77 0.54 0.33 0.21 0.14 0.10 0.09 0.09 0.10 0.11 0.14 0.23 0.28 0.33 0.34 0.34 0.39 0.47 0.57 0.68 0.70 0.76 0.92 1.01 1.20
0.93 0.96 1.01 0.89 0.85 0.92 1.09 1.15 0.97 0.81 0.79 0.77 0.72 0.68 0.71 0.79 0.76 0.69 0.80 0.91 0.73 0.38 0.20 0.11 0.07 0.10 0.13 0.14 0.20 0.28 0.29 0.41 0.45 0.50 0.59 0.69 0.77 0.80 0.84 0.88 1.00 1.31 1.14
0.98 1.07 1.16 1.24 1.15 1.15 1.23 1.26 1.20 1.07 1.01 0.85 0.77 0.79 0.80 0.69 0.65 0.63 0.66 0.74 0.88 0.79 0.44 0.19 0.19 0.22 0.26 0.36 0.54 0.61 0.63 0.79 0.81 0.79 0.80 0.80 0.78 0.72 0.65 0.65 0.68 0.65 0.57
0.70 1.21 1.17 0.88 0.89 0.94 1.12 1.41 1.39 1.22 1.18 1.16 1.07 1.04 1.02 0.97 0.94 0.84 0.80 0.83 1.00 1.15 1.11 0.58 0.54 0.63 0.71 0.78 0.84 0.72 0.63 0.73 0.63 0.64 0.65 0.66 0.64 0.56 0.52 0.51 0.54 0.50 0.47
0.46 0.72 1.00 1.16 1.04 0.89 0.87 0.93 0.94 1.03 1.22 1.24 1.26 1.25 1.13 1.18 1.47 1.53 1.48 1.50 1.62 1.72 1.82 1.31 0.88 0.78 0.72 0.67 0.71 0.66 0.62 0.53 0.51 0.67 0.57 0.54 0.49 0.40 0.37 0.34 0.33 0.32 0.31
0.06 0.09 0.14 0.22 0.30 0.47 0.60 0.62 0.64 0.68 0.74 0.82 0.89 1.02 0.97 0.96 0.99 0.96 1.02 1.11 1.19 1.26 1.45 1.33 1.02 0.96 0.90 0.82 0.79 0.74 0.66 0.56 0.47 0.59 0.46 0.32 0.24 0.21 0.22 0.22 0.23 0.23 0.25
0.08 0.07 0.05 0.05 0.06 0.06 0.07 0.11 0.20 0.33 0.47 0.60 0.68 0.70 0.65 0.76 0.81 0.91 1.05 1.18 1.23 1.34 1.48 1.43 1.11 0.88 0.72 0.65 0.65 0.60 0.56 0.53 0.45 0.52 0.37 0.26 0.22 0.20 0.19 0.22 0.21 0.19 0.16
0.07 0.06 0.08 0.08 0.07 0.06 0.08 0.13 0.17 0.20 0.23 0.28 0.36 0.48 0.58 0.72 0.84 0.97 1.04 1.03 1.09 1.19 1.17 1.16 0.96 0.69 0.48 0.39 0.39 0.32 0.29 0.24 0.25 0.28 0.28 0.21 0.21 0.19 0.18 0.14 0.11 0.08 0.04
0.06 0.04 0.08 0.15 0.17 0.17 0.16 0.13 0.13 0.14 0.18 0.23 0.27 0.31 0.33 0.46 0.57 0.62 0.77 0.86 0.99 1.17 1.30 1.29 1.02 0.78 0.52 0.33 0.24 0.17 0.21 0.21 0.24 0.20 0.15 0.14 0.12 0.10 0.08 0.07 0.05 0.04 0.02
0.08 0.12 0.11 0.11 0.14 0.18 0.36 0.28 0.18 0.16 0.18 0.23 0.28 0.36 0.45 0.59 0.53 0.51 0.46 0.42 0.42 0.59 0.76 0.83 0.84 0.70 0.56 0.51 0.56 0.60 0.60 0.56 0.45 0.16 0.11 0.08 0.04 0.02 0.01 0.01 0.02 0.02 0.02
0.24 0.23 0.22 0.26 0.25 0.24 0.35 0.29 0.34 0.36 0.42 0.47 0.48 0.45 0.37 0.35 0.35 0.29 0.29 0.31 0.34 0.34 0.36 0.32 0.28 0.20 0.21 0.26 0.41 0.53 0.54 0.50 0.39 0.22 0.31 0.28 0.15 0.06 0.02 0.01 0.01 0.01 0.01
0.46 0.54 0.56 0.58 0.64 0.76 0.80 0.68 0.55 0.44 0.46 0.48 0.45 0.40 0.33 0.26 0.19 0.14 0.16 0.21 0.11 0.08 0.13 0.19 0.20 0.27 0.38 0.42 0.53 0.68 0.58 0.50 0.45 0.35 0.31 0.29 0.12 0.10 0.06 0.03 0.04 0.01 0.01
0.78 0.78 0.68 0.55 0.59 0.71 0.67 0.50 0.45 0.39 0.29 0.19 0.14 0.07 0.03 0.03 0.05 0.09 0.09 0.05 0.02 0.02 0.09 0.16 0.24 0.30 0.32 0.33 0.32 0.40 0.58 0.67 0.63 0.41 0.31 0.29 0.16 0.14 0.11 0.09 0.07 0.06 0.02
0.66 0.58 0.63 0.60 0.51 0.43 0.31 0.20 0.11 0.08 0.05 0.02 0.00 0.00 0.02 0.02 0.06 0.10 0.05 0.01 0.02 0.01 0.06 0.05 0.05 0.08 0.11 0.16 0.23 0.23 0.29 0.54 0.42 0.43 0.29 0.45 0.34 0.31 0.50 0.20 0.11 0.10 0.06

GFSMA_prec_precacc_114.txt.gz
Total_Precipitation_Accumulation
0.32 0.24 0.25 0.25 0.21 0.16 0.12 0.12 0.11 0.12 0.06 0.00 0.00 0.00 0.00 0.00 0.00 0.00 0.00 0.00 0.00 0.00 0.00 0.01 0.01 0.03 0.08 0.08 0.04 0.06 0.04 0.03 0.02 0.03 0.04 0.04 0.04 0.02 0.02 0.04 0.06 0.07 0.08
0.33 0.44 0.38 0.38 0.30 0.23 0.19 0.13 0.14 0.16 0.13 0.04 0.01 0.00 0.00 0.00 0.00 0.00 0.00 0.00 0.00 0.00 0.00 0.00 0.01 0.05 0.16 0.16 0.10 0.18 0.19 0.09 0.06 0.05 0.01 0.01 0.01 0.02 0.01 0.03 0.05 0.06 0.07
0.14 0.21 0.42 0.43 0.36 0.35 0.40 0.37 0.41 0.33 0.30 0.14 0.05 0.01 0.00 0.00 0.00 0.00 0.00 0.00 0.00 0.00 0.00 0.00 0.00 0.00 0.02 0.09 0.25 0.37 0.32 0.31 0.24 0.20 0.09 0.04 0.01 0.00 0.00 0.00 0.02 0.03 0.05
0.10 0.15 0.13 0.19 0.30 0.39 0.40 0.32 0.33 0.42 0.44 0.35 0.15 0.03 0.00 0.00 0.00 0.00 0.00 0.00 0.00 0.00 0.00 0.00 0.00 0.00 0.01 0.03 0.13 0.34 0.41 0.41 0.20 0.17 0.14 0.13 0.08 0.05 0.02 0.02 0.02 0.01 0.02
0.09 0.14 0.18 0.23 0.25 0.27 0.27 0.32 0.41 0.38 0.39 0.31 0.17 0.06 0.01 0.00 0.00 0.00 0.00 0.00 0.00 0.00 0.00 0.00 0.00 0.00 0.01 0.00 0.02 0.13 0.26 0.35 0.32 0.20 0.18 0.18 0.11 0.04 0.03 0.06 0.05 0.03 0.04
0.06 0.14 0.18 0.20 0.22 0.20 0.20 0.25 0.32 0.34 0.28 0.21 0.20 0.13 0.06 0.01 0.00 0.00 0.00 0.01 0.02 0.01 0.00 0.00 0.00 0.00 0.00 0.00 0.00 0.04 0.06 0.22 0.34 0.30 0.24 0.23 0.17 0.13 0.11 0.13 0.11 0.08 0.08
0.36 0.25 0.17 0.14 0.12 0.07 0.06 0.08 0.17 0.19 0.14 0.19 0.28 0.11 0.05 0.03 0.02 0.00 0.00 0.02 0.01 0.01 0.00 0.00 0.00 0.00 0.00 0.00 0.00 0.00 0.01 0.10 0.25 0.35 0.34 0.35 0.30 0.29 0.28 0.24 0.21 0.18 0.10
0.67 0.60 0.47 0.39 0.25 0.19 0.12 0.10 0.11 0.13 0.13 0.23 0.32 0.19 0.08 0.02 0.01 0.00 0.00 0.00 0.00 0.00 0.00 0.00 0.00 0.00 0.00 0.00 0.00 0.00 0.01 0.06 0.13 0.32 0.41 0.48 0.51 0.44 0.40 0.40 0.37 0.30 0.23
1.16 1.06 0.99 1.02 1.02 0.78 0.53 0.49 0.39 0.38 0.40 0.35 0.32 0.33 0.13 0.03 0.01 0.00 0.00 0.00 0.00 0.00 0.00 0.01 0.01 0.01 0.01 0.00 0.00 0.00 0.01 0.02 0.06 0.16 0.31 0.38 0.49 0.47 0.51 0.56 0.55 0.62 0.83
1.63 1.80 1.81 1.76 1.69 1.34 1.36 1.48 1.47 1.28 1.20 0.94 0.78 0.56 0.38 0.22 0.13 0.05 0.02 0.02 0.01 0.01 0.01 0.02 0.02 0.01 0.01 0.01 0.02 0.03 0.04 0.09 0.04 0.10 0.26 0.43 0.61 0.67 0.58 0.44 0.40 0.35 0.50
1.93 1.76 1.95 2.16 2.23 2.17 1.81 1.74 1.92 1.95 1.84 1.77 1.47 1.17 0.84 0.64 0.46 0.34 0.18 0.14 0.10 0.07 0.05 0.04 0.05 0.05 0.07 0.10 0.10 0.11 0.16 0.19 0.12 0.14 0.27 0.46 0.62 0.68 0.74 0.69 0.62 0.60 0.63
1.91 1.56 1.59 1.89 2.09 1.87 1.65 1.48 1.44 1.35 1.34 1.32 1.27 1.18 0.98 0.88 0.71 0.66 0.50 0.31 0.27 0.19 0.09 0.05 0.05 0.05 0.06 0.08 0.11 0.16 0.21 0.25 0.26 0.31 0.42 0.60 0.69 0.78 0.83 0.89 0.93 0.88 0.81
1.56 1.27 1.04 1.05 1.15 1.33 1.43 1.33 1.13 1.00 1.00 0.97 0.94 0.95 1.09 0.96 0.80 0.74 0.79 0.55 0.33 0.21 0.14 0.10 0.09 0.09 0.10 0.11 0.14 0.23 0.28 0.33 0.34 0.34 0.46 0.57 0.64 0.71 0.73 0.84 1.08 1.24 1.42
1.11 1.02 1.02 0.89 0.85 0.92 1.09 1.15 0.98 0.83 0.80 0.78 0.74 0.71 0.75 0.83 0.82 0.74 0.84 0.95 0.77 0.39 0.20 0.11 0.07 0.10 0.13 0.14 0.20 0.29 0.29 0.41 0.45 0.50 0.60 0.76 0.78 0.81 0.85 0.91 1.09 1.46 1.40
0.98 1.07 1.16 1.24 1.15 1.15 1.23 1.26 1.20 1.08 1.02 0.87 0.79 0.80 0.83 0.73 0.74 0.78 0.87 1.03 1.15 0.93 0.49 0.20 0.19 0.23 0.26 0.37 0.55 0.64 0.65 0.80 0.81 0.80 0.80 0.81 0.82 0.73 0.65 0.66 0.71 0.71 0.68
0.70 1.21 1.17 0.88 0.89 0.94 1.12 1.41 1.39 1.22 1.19 1.17 1.08 1.06 1.03 0.98 0.95 0.88 0.88 0.93 1.12 1.29 1.21 0.60 0.55 0.65 0.74 0.81 0.88 0.77 0.65 0.75 0.65 0.65 0.65 0.66 0.65 0.57 0.52 0.51 0.54 0.52 0.51
0.46 0.72 1.00 1.16 1.04 0.89 0.87 0.93 0.94 1.03 1.22 1.24 1.26 1.25 1.13 1.18 1.48 1.54 1.50 1.53 1.67 1.88 2.03 1.43 1.00 0.91 0.84 0.76 0.79 0.76 0.68 0.57 0.53 0.70 0.59 0.57 0.50 0.40 0.37 0.34 0.34 0.34 0.34
0.06 0.09 0.14 0.22 0.30 0.47 0.60 0.62 0.64 0.68 0.74 0.82 0.89 1.02 0.97 0.96 0.99 0.97 1.03 1.12 1.22 1.34 1.61 1.45 1.08 1.04 1.00 0.90 0.88 0.85 0.79 0.68 0.54 0.62 0.48 0.33 0.24 0.21 0.22 0.22 0.24 0.26 0.28
0.08 0.07 0.05 0.05 0.06 0.06 0.07 0.11 0.20 0.33 0.47 0.60 0.69 0.70 0.66 0.77 0.81 0.92 1.06 1.19 1.25 1.39 1.57 1.58 1.25 1.07 0.98 0.93 0.91 0.81 0.72 0.67 0.54 0.59 0.43 0.29 0.25 0.22 0.19 0.23 0.24 0.24 0.20
0.07 0.06 0.08 0.08 0.07 0.06 0.08 0.13 0.17 0.20 0.23 0.28 0.36 0.48 0.58 0.72 0.84 0.97 1.04 1.03 1.09 1.20 1.20 1.20 1.03 0.77 0.59 0.51 0.54 0.44 0.38 0.34 0.31 0.33 0.35 0.25 0.23 0.22 0.21 0.19 0.16 0.15 0.12
0.06 0.04 0.08 0.15 0.17 0.17 0.16 0.13 0.13 0.14 0.18 0.23 0.27 0.31 0.33 0.46 0.57 0.62 0.77 0.86 1.00 1.17 1.30 1.29 1.03 0.78 0.52 0.34 0.27 0.20 0.24 0.22 0.25 0.20 0.16 0.14 0.12 0.11 0.11 0.12 0.11 0.12 0.15
0.08 0.12 0.11 0.11 0.14 0.18 0.36 0.28 0.18 0.16 0.18 0.23 0.28 0.36 0.45 0.59 0.53 0.51 0.46 0.42 0.42 0.59 0.76 0.84 0.85 0.71 0.56 0.51 0.57 0.61 0.61 0.57 0.45 0.16 0.11 0.08 0.04 0.03 0.03 0.04 0.07 0.09 0.10
0.24 0.23 0.22 0.26 0.25 0.24 0.35 0.29 0.34 0.36 0.42 0.47 0.48 0.45 0.37 0.35 0.35 0.29 0.29 0.31 0.34 0.34 0.36 0.32 0.28 0.20 0.21 0.26 0.42 0.54 0.55 0.51 0.40 0.22 0.31 0.29 0.16 0.07 0.02 0.05 0.10 0.06 0.06
0.46 0.54 0.56 0.58 0.64 0.76 0.80 0.68 0.55 0.44 0.46 0.48 0.45 0.40 0.33 0.26 0.19 0.14 0.16 0.21 0.11 0.08 0.13 0.19 0.20 0.27 0.38 0.42 0.53 0.69 0.59 0.51 0.46 0.35 0.32 0.31 0.13 0.11 0.06 0.04 0.07 0.03 0.03
0.78 0.78 0.68 0.55 0.59 0.71 0.67 0.50 0.45 0.39 0.29 0.19 0.14 0.07 0.03 0.03 0.05 0.09 0.09 0.05 0.02 0.02 0.09 0.16 0.24 0.30 0.32 0.33 0.32 0.40 0.58 0.67 0.64 0.41 0.31 0.31 0.18 0.17 0.14 0.11 0.08 0.07 0.03
0.66 0.58 0.63 0.60 0.51 0.43 0.31 0.20 0.11 0.08 0.05 0.02 0.00 0.00 0.02 0.02 0.06 0.10 0.05 0.01 0.02 0.01 0.06 0.05 0.05 0.08 0.11 0.16 0.23 0.23 0.30 0.54 0.43 0.44 0.29 0.46 0.36 0.35 0.59 0.27 0.16 0.14 0.09

GFSMA_prec_precacc_117.txt.gz
Total_Precipitation_Accumulation
0.33 0.24 0.25 0.25 0.21 0.16 0.12 0.12 0.11 0.12 0.06 0.01 0.00 0.00 0.00 0.00 0.00 0.00 0.00 0.00 0.00 0.00 0.00 0.01 0.01 0.03 0.08 0.08 0.04 0.06 0.04 0.03 0.02 0.03 0.04 0.04 0.04 0.02 0.02 0.04 0.06 0.07 0.08
0.36 0.46 0.39 0.38 0.30 0.24 0.20 0.16 0.18 0.17 0.17 0.08 0.01 0.00 0.00 0.00 0.00 0.00 0.00 0.00 0.00 0.00 0.00 0.00 0.01 0.05 0.16 0.16 0.10 0.18 0.19 0.09 0.06 0.05 0.01 0.01 0.01 0.02 0.01 0.03 0.05 0.06 0.07
0.22 0.26 0.46 0.47 0.38 0.39 0.50 0.49 0.55 0.40 0.35 0.19 0.07 0.01 0.01 0.00 0.00 0.00 0.00 0.00 0.00 0.00 0.00 0.00 0.00 0.00 0.02 0.09 0.25 0.37 0.32 0.31 0.24 0.20 0.09 0.04 0.01 0.00 0.00 0.00 0.02 0.03 0.05
0.14 0.19 0.15 0.20 0.31 0.41 0.46 0.40 0.45 0.58 0.60 0.48 0.23 0.06 0.01 0.00 0.00 0.00 0.00 0.00 0.00 0.00 0.00 0.00 0.00 0.00 0.01 0.03 0.13 0.34 0.42 0.42 0.21 0.18 0.15 0.14 0.09 0.05 0.02 0.02 0.02 0.01 0.02
0.15 0.17 0.19 0.24 0.27 0.29 0.32 0.35 0.44 0.47 0.51 0.43 0.36 0.36 0.37 0.24 0.05 0.01 0.00 0.00 0.00 0.00 0.00 0.00 0.00 0.00 0.01 0.00 0.02 0.13 0.26 0.36 0.32 0.21 0.18 0.18 0.12 0.04 0.03 0.06 0.05 0.03 0.04
0.16 0.23 0.22 0.24 0.28 0.26 0.23 0.28 0.34 0.38 0.35 0.31 0.31 0.26 0.19 0.15 0.05 0.01 0.00 0.01 0.02 0.01 0.00 0.00 0.00 0.00 0.00 0.00 0.00 0.04 0.06 0.22 0.34 0.30 0.24 0.23 0.18 0.13 0.11 0.13 0.12 0.09 0.08
0.40 0.29 0.24 0.19 0.15 0.12 0.10 0.11 0.17 0.20 0.17 0.26 0.36 0.16 0.10 0.08 0.05 0.01 0.00 0.02 0.01 0.01 0.00 0.00 0.00 0.00 0.00 0.00 0.00 0.00 0.01 0.10 0.25 0.35 0.34 0.35 0.31 0.29 0.28 0.24 0.21 0.19 0.11
0.78 0.65 0.48 0.41 0.27 0.23 0.16 0.12 0.11 0.14 0.15 0.30 0.42 0.32 0.16 0.05 0.01 0.00 0.00 0.00 0.00 0.00 0.00 0.00 0.00 0.00 0.00 0.00 0.00 0.00 0.01 0.06 0.13 0.32 0.41 0.49 0.52 0.45 0.40 0.40 0.37 0.31 0.24
1.28 1.32 1.19 1.13 1.06 0.81 0.56 0.52 0.42 0.40 0.42 0.37 0.37 0.41 0.17 0.05 0.01 0.00 0.00 0.00 0.00 0.00 0.00 0.01 0.01 0.01 0.01 0.00 0.00 0.00 0.01 0.02 0.06 0.16 0.31 0.39 0.50 0.48 0.51 0.57 0.56 0.62 0.84
1.82 2.19 2.31 2.10 1.91 1.53 1.46 1.56 1.55 1.35 1.30 0.98 0.85 0.67 0.48 0.26 0.14 0.06 0.02 0.02 0.01 0.01 0.01 0.02 0.02 0.01 0.01 0.01 0.02 0.03 0.04 0.09 0.04 0.10 0.27 0.45 0.64 0.71 0.62 0.48 0.41 0.35 0.50
2.06 2.00 2.27 2.69 2.59 2.44 2.09 1.91 2.00 1.99 1.87 1.80 1.54 1.31 1.01 0.84 0.61 0.42 0.21 0.15 0.11 0.07 0.05 0.04 0.05 0.05 0.07 0.10 0.10 0.11 0.16 0.19 0.12 0.14 0.27 0.46 0.67 0.77 0.82 0.77 0.68 0.64 0.64
2.13 1.92 2.39 2.64 2.71 2.16 1.82 1.63 1.53 1.39 1.36 1.34 1.30 1.24 1.08 0.98 0.80 0.77 0.56 0.32 0.27 0.19 0.09 0.05 0.05 0.05 0.06 0.08 0.11 0.16 0.21 0.25 0.26 0.31 0.42 0.61 0.72 0.83 0.92 0.95 0.96 0.91 0.90
1.98 1.98 1.57 1.92 1.95 1.75 1.54 1.36 1.15 1.01 1.00 0.98 0.95 0.97 1.11 1.01 0.86 0.78 0.81 0.55 0.34 0.21 0.14 0.10 0.09 0.09 0.10 0.11 0.14 0.23 0.28 0.33 0.34 0.34 0.46 0.58 0.66 0.77 0.76 0.86 1.10 1.29 1.49
1.37 1.37 1.40 1.20 1.15 1.11 1.14 1.16 0.98 0.83 0.80 0.78 0.74 0.71 0.75 0.84 0.85 0.80 0.93 1.02 0.81 0.42 0.21 0.11 0.07 0.10 0.13 0.14 0.20 0.29 0.30 0.43 0.46 0.51 0.62 0.79 0.83 0.85 0.89 0.94 1.13 1.56 1.48
1.05 1.12 1.20 1.26 1.17 1.16 1.23 1.26 1.20 1.08 1.02 0.87 0.80 0.81 0.83 0.74 0.75 0.81 0.91 1.09 1.29 1.08 0.56 0.22 0.20 0.23 0.26 0.37 0.55 0.64 0.66 0.82 0.83 0.81 0.83 0.85 0.87 0.79 0.71 0.71 0.77 0.77 0.77
0.70 1.21 1.17 0.88 0.89 0.94 1.12 1.41 1.39 1.22 1.19 1.17 1.08 1.06 1.03 0.98 0.95 0.89 0.89 0.95 1.14 1.32 1.23 0.62 0.56 0.65 0.74 0.81 0.88 0.78 0.66 0.78 0.69 0.69 0.69 0.68 0.66 0.63 0.60 0.58 0.60 0.57 0.55
0.46 0.72 1.00 1.16 1.04 0.89 0.87 0.93 0.94 1.03 1.22 1.24 1.26 1.25 1.13 1.18 1.48 1.55 1.51 1.55 1.71 1.93 2.08 1.45 1.01 0.92 0.87 0.79 0.83 0.81 0.73 0.61 0.56 0.72 0.61 0.58 0.53 0.46 0.47 0.45 0.42 0.39 0.37
0.06 0.09 0.14 0.22 0.30 0.47 0.60 0.62 0.64 0.68 0.74 0.82 0.89 1.02 0.97 0.96 0.99 0.97 1.03 1.13 1.23 1.35 1.63 1.46 1.08 1.05 1.02 0.96 0.94 0.93 0.88 0.81 0.69 0.70 0.56 0.39 0.29 0.25 0.26 0.25 0.27 0.28 0.29
0.08 0.07 0.05 0.05 0.06 0.06 0.07 0.11 0.20 0.33 0.47 0.60 0.69 0.70 0.66 0.77 0.82 0.93 1.07 1.21 1.27 1.39 1.58 1.59 1.25 1.08 1.01 0.98 1.02 0.99 0.93 0.90 0.82 0.94 0.74 0.55 0.47 0.34 0.26 0.27 0.27 0.26 0.21
0.07 0.06 0.08 0.08 0.07 0.06 0.08 0.13 0.17 0.20 0.23 0.28 0.36 0.48 0.58 0.72 0.84 0.97 1.05 1.04 1.10 1.22 1.21 1.21 1.03 0.77 0.61 0.56 0.66 0.61 0.56 0.50 0.48 0.53 0.58 0.47 0.42 0.34 0.31 0.25 0.19 0.17 0.14
0.06 0.04 0.08 0.15 0.17 0.17 0.16 0.13 0.13 0.14 0.18 0.23 0.27 0.31 0.33 0.46 0.57 0.62 0.77 0.86 1.00 1.17 1.30 1.29 1.03 0.78 0.52 0.35 0.29 0.26 0.33 0.30 0.31 0.26 0.21 0.19 0.19 0.15 0.12 0.13 0.11 0.12 0.17
0.08 0.12 0.11 0.11 0.14 0.18 0.36 0.28 0.18 0.16 0.18 0.23 0.28 0.36 0.45 0.59 0.53 0.51 0.46 0.42 0.42 0.59 0.76 0.84 0.85 0.71 0.56 0.51 0.57 0.61 0.61 0.57 0.46 0.18 0.13 0.08 0.05 0.04 0.03 0.04 0.08 0.10 0.12
0.24 0.23 0.22 0.26 0.25 0.24 0.35 0.29 0.34 0.36 0.42 0.47 0.48 0.45 0.37 0.35 0.35 0.29 0.29 0.31 0.34 0.34 0.36 0.32 0.28 0.20 0.21 0.26 0.42 0.54 0.55 0.51 0.40 0.23 0.31 0.29 0.16 0.07 0.02 0.06 0.11 0.08 0.10
0.46 0.54 0.56 0.58 0.64 0.76 0.80 0.68 0.55 0.44 0.46 0.48 0.45 0.40 0.33 0.26 0.19 0.14 0.16 0.21 0.11 0.08 0.13 0.19 0.20 0.27 0.38 0.42 0.53 0.69 0.59 0.51 0.46 0.35 0.32 0.32 0.13 0.11 0.06 0.05 0.11 0.06 0.09
0.78 0.78 0.68 0.55 0.59 0.71 0.67 0.50 0.45 0.39 0.29 0.19 0.14 0.07 0.03 0.03 0.05 0.09 0.09 0.05 0.02 0.02 0.09 0.16 0.24 0.30 0.32 0.33 0.32 0.40 0.58 0.68 0.64 0.41 0.31 0.31 0.18 0.17 0.15 0.11 0.10 0.11 0.06
0.66 0.58 0.63 0.60 0.51 0.43 0.31 0.20 0.11 0.08 0.05 0.02 0.00 0.00 0.02 0.02 0.06 0.10 0.05 0.01 0.02 0.01 0.06 0.05 0.05 0.08 0.11 0.16 0.23 0.23 0.30 0.55 0.43 0.44 0.29 0.47 0.36 0.36 0.60 0.27 0.16 0.16 0.13

GFSMA_prec_precacc_120.txt.gz
Total_Precipitation_Accumulation
0.34 0.24 0.25 0.25 0.21 0.16 0.12 0.12 0.11 0.12 0.06 0.01 0.00 0.00 0.00 0.00 0.00 0.00 0.00 0.00 0.00 0.00 0.00 0.01 0.01 0.03 0.08 0.08 0.04 0.06 0.04 0.03 0.02 0.03 0.04 0.04 0.04 0.02 0.02 0.04 0.06 0.07 0.08
0.39 0.49 0.40 0.38 0.30 0.24 0.21 0.20 0.25 0.21 0.17 0.09 0.03 0.01 0.00 0.01 0.00 0.00 0.00 0.00 0.00 0.00 0.00 0.00 0.01 0.05 0.16 0.16 0.10 0.18 0.19 0.09 0.06 0.05 0.01 0.01 0.01 0.02 0.01 0.03 0.05 0.06 0.07
0.27 0.33 0.53 0.53 0.41 0.41 0.56 0.59 0.69 0.56 0.40 0.21 0.09 0.02 0.01 0.01 0.01 0.00 0.00 0.00 0.00 0.00 0.00 0.00 0.00 0.00 0.02 0.09 0.25 0.37 0.32 0.31 0.24 0.20 0.09 0.04 0.01 0.00 0.00 0.00 0.02 0.03 0.05
0.16 0.25 0.21 0.24 0.37 0.47 0.52 0.48 0.53 0.64 0.65 0.57 0.30 0.12 0.06 0.03 0.01 0.00 0.00 0.00 0.00 0.00 0.00 0.00 0.00 0.01 0.01 0.03 0.13 0.35 0.43 0.42 0.21 0.18 0.15 0.14 0.10 0.06 0.02 0.02 0.02 0.01 0.02
0.15 0.20 0.24 0.29 0.34 0.37 0.39 0.43 0.52 0.55 0.59 0.53 0.45 0.50 0.70 0.68 0.42 0.19 0.06 0.01 0.00 0.00 0.00 0.00 0.00 0.00 0.01 0.00 0.02 0.13 0.28 0.38 0.33 0.21 0.19 0.19 0.12 0.04 0.04 0.07 0.06 0.03 0.04
0.16 0.25 0.25 0.28 0.36 0.34 0.33 0.35 0.41 0.44 0.39 0.35 0.34 0.29 0.26 0.39 0.61 0.61 0.37 0.18 0.07 0.02 0.00 0.00 0.00 0.00 0.00 0.00 0.00 0.04 0.06 0.23 0.36 0.31 0.24 0.23 0.18 0.13 0.11 0.14 0.12 0.09 0.09
0.40 0.29 0.26 0.22 0.20 0.17 0.17 0.22 0.28 0.27 0.20 0.28 0.36 0.17 0.12 0.11 0.09 0.07 0.11 0.13 0.07 0.03 0.00 0.00 0.00 0.00 0.00 0.00 0.00 0.00 0.01 0.10 0.25 0.36 0.36 0.36 0.31 0.30 0.29 0.24 0.21 0.19 0.12
0.78 0.67 0.49 0.43 0.32 0.31 0.28 0.22 0.20 0.21 0.19 0.32 0.43 0.32 0.16 0.06 0.04 0.05 0.06 0.05 0.04 0.05 0.03 0.01 0.00 0.00 0.00 0.00 0.00 0.00 0.01 0.06 0.13 0.32 0.43 0.51 0.54 0.47 0.42 0.42 0.37 0.31 0.24
1.28 1.33 1.23 1.19 1.10 0.86 0.63 0.61 0.49 0.45 0.45 0.40 0.39 0.42 0.17 0.06 0.02 0.03 0.03 0.02 0.02 0.02 0.01 0.03 0.02 0.02 0.01 0.00 0.00 0.00 0.01 0.02 0.06 0.16 0.31 0.40 0.52 0.52 0.55 0.62 0.58 0.63 0.84
1.82 2.19 2.32 2.16 2.00 1.63 1.52 1.63 1.62 1.40 1.34 1.00 0.89 0.72 0.54 0.29 0.15 0.07 0.03 0.03 0.04 0.03 0.03 0.05 0.03 0.02 0.01 0.01 0.02 0.03 0.04 0.09 0.04 0.10 0.27 0.47 0.65 0.73 0.66 0.53 0.46 0.39 0.55
2.07 2.00 2.27 2.70 2.73 2.86 2.56 2.20 2.16 2.13 1.99 1.91 1.61 1.33 1.04 0.87 0.66 0.49 0.28 0.18 0.15 0.09 0.07 0.06 0.07 0.05 0.07 0.10 0.10 0.11 0.16 0.19 0.12 0.14 0.27 0.48 0.69 0.78 0.84 0.82 0.76 0.77 0.77
2.16 1.97 2.40 2.65 2.90 2.60 2.37 2.51 2.32 1.86 1.62 1.46 1.36 1.28 1.10 1.00 0.83 0.82 0.65 0.39 0.32 0.23 0.14 0.08 0.05 0.05 0.06 0.08 0.11 0.16 0.21 0.25 0.26 0.31 0.43 0.63 0.75 0.86 0.95 0.99 1.00 0.95 0.96
1.99 1.99 1.57 1.94 2.12 2.29 2.48 2.18 1.97 1.64 1.38 1.24 1.04 1.00 1.13 1.02 0.87 0.80 0.85 0.58 0.35 0.21 0.14 0.10 0.09 0.09 0.10 0.11 0.14 0.23 0.28 0.33 0.34 0.34 0.47 0.63 0.73 0.84 0.82 0.91 1.14 1.33 1.56
1.37 1.37 1.41 1.23 1.23 1.35 1.57 1.70 1.53 1.28 1.07 0.91 0.78 0.72 0.76 0.85 0.85 0.81 0.94 1.03 0.82 0.42 0.22 0.11 0.07 0.10 0.13 0.14 0.20 0.29 0.30 0.43 0.46 0.51 0.64 0.85 0.90 0.93 1.00 1.04 1.19 1.63 1.58
1.05 1.12 1.22 1.30 1.21 1.23 1.29 1.34 1.29 1.16 1.06 0.89 0.80 0.81 0.83 0.74 0.75 0.81 0.92 1.10 1.31 1.10 0.57 0.23 0.21 0.23 0.26 0.37 0.56 0.64 0.66 0.82 0.83 0.81 0.83 0.87 0.91 0.85 0.80 0.83 0.88 0.91 0.94
0.70 1.21 1.17 0.88 0.89 0.94 1.12 1.41 1.40 1.22 1.19 1.17 1.08 1.06 1.03 0.99 0.96 0.89 0.89 0.95 1.15 1.33 1.24 0.62 0.56 0.65 0.74 0.81 0.88 0.78 0.66 0.78 0.69 0.71 0.71 0.70 0.69 0.65 0.63 0.62 0.67 0.66 0.67
0.46 0.72 1.00 1.16 1.04 0.89 0.87 0.93 0.94 1.03 1.22 1.24 1.26 1.25 1.13 1.18 1.48 1.55 1.51 1.55 1.71 1.93 2.08 1.45 1.01 0.92 0.87 0.79 0.83 0.81 0.73 0.61 0.57 0.74 0.62 0.60 0.56 0.50 0.51 0.50 0.49 0.49 0.48
0.06 0.09 0.14 0.22 0.30 0.47 0.60 0.62 0.64 0.68 0.74 0.82 0.89 1.02 0.97 0.96 0.99 0.97 1.03 1.13 1.24 1.36 1.63 1.46 1.08 1.05 1.02 0.96 0.94 0.94 0.89 0.83 0.76 0.92 0.80 0.58 0.42 0.31 0.30 0.28 0.30 0.33 0.36
0.08 0.07 0.05 0.05 0.06 0.06 0.07 0.11 0.20 0.33 0.47 0.60 0.69 0.70 0.66 0.77 0.82 0.93 1.07 1.21 1.27 1.40 1.58 1.59 1.25 1.08 1.01 0.98 1.02 0.99 0.94 0.90 0.84 0.98 0.85 0.69 0.66 0.58 0.45 0.41 0.37 0.32 0.26
0.07 0.06 0.08 0.08 0.07 0.06 0.08 0.13 0.17 0.20 0.23 0.28 0.36 0.48 0.58 0.72 0.84 0.97 1.05 1.04 1.10 1.22 1.23 1.23 1.04 0.78 0.61 0.57 0.67 0.62 0.56 0.51 0.49 0.56 0.62 0.53 0.54 0.51 0.48 0.42 0.37 0.29 0.22
0.06 0.04 0.08 0.15 0.17 0.17 0.16 0.13 0.13 0.14 0.18 0.23 0.27 0.31 0.33 0.46 0.57 0.62 0.77 0.86 1.00 1.17 1.30 1.29 1.03 0.78 0.53 0.35 0.29 0.26 0.33 0.31 0.34 0.33 0.31 0.32 0.31 0.25 0.22 0.23 0.20 0.23 0.26
0.08 0.12 0.11 0.11 0.14 0.18 0.36 0.28 0.18 0.16 0.18 0.23 0.28 0.36 0.45 0.59 0.53 0.51 0.46 0.42 0.42 0.59 0.76 0.84 0.85 0.71 0.56 0.51 0.57 0.61 0.61 0.57 0.46 0.19 0.15 0.12 0.12 0.10 0.12 0.14 0.19 0.19 0.18
0.24 0.23 0.22 0.26 0.25 0.24 0.35 0.29 0.34 0.36 0.42 0.47 0.48 0.45 0.37 0.35 0.35 0.29 0.29 0.31 0.34 0.34 0.36 0.32 0.28 0.20 0.21 0.26 0.42 0.54 0.55 0.51 0.40 0.23 0.32 0.29 0.16 0.07 0.04 0.09 0.15 0.10 0.12
0.46 0.54 0.56 0.58 0.64 0.76 0.80 0.68 0.55 0.44 0.46 0.48 0.45 0.40 0.33 0.26 0.19 0.14 0.16 0.21 0.11 0.08 0.13 0.19 0.20 0.27 0.38 0.42 0.53 0.69 0.59 0.51 0.46 0.35 0.32 0.32 0.13 0.12 0.06 0.05 0.11 0.07 0.10
0.78 0.78 0.68 0.55 0.59 0.71 0.67 0.50 0.45 0.39 0.29 0.19 0.14 0.07 0.03 0.03 0.05 0.09 0.09 0.05 0.02 0.02 0.09 0.16 0.24 0.30 0.32 0.33 0.32 0.40 0.58 0.68 0.65 0.41 0.31 0.31 0.19 0.17 0.15 0.11 0.10 0.11 0.07
0.66 0.58 0.63 0.60 0.51 0.43 0.31 0.20 0.11 0.08 0.05 0.02 0.00 0.00 0.02 0.02 0.06 0.10 0.06 0.01 0.02 0.01 0.06 0.05 0.05 0.08 0.11 0.16 0.23 0.23 0.30 0.55 0.44 0.45 0.29 0.47 0.37 0.36 0.61 0.27 0.16 0.16 0.13

GFSMA_prec_precacc_123.txt.gz
Total_Precipitation_Accumulation
0.34 0.26 0.27 0.27 0.22 0.16 0.12 0.13 0.15 0.14 0.07 0.01 0.00 0.00 0.00 0.01 0.01 0.00 0.00 0.00 0.00 0.00 0.00 0.02 0.01 0.03 0.08 0.08 0.04 0.06 0.04 0.03 0.02 0.03 0.04 0.04 0.04 0.02 0.02 0.04 0.06 0.07 0.08
0.39 0.49 0.42 0.41 0.31 0.25 0.23 0.22 0.31 0.31 0.24 0.13 0.04 0.01 0.01 0.03 0.08 0.03 0.00 0.00 0.00 0.00 0.00 0.01 0.02 0.05 0.16 0.16 0.10 0.18 0.19 0.09 0.06 0.05 0.01 0.01 0.01 0.02 0.01 0.03 0.05 0.06 0.07
0.27 0.33 0.53 0.54 0.43 0.44 0.61 0.67 0.78 0.65 0.52 0.32 0.15 0.05 0.02 0.03 0.05 0.11 0.07 0.01 0.00 0.00 0.00 0.01 0.04 0.03 0.03 0.09 0.25 0.37 0.32 0.31 0.24 0.20 0.09 0.04 0.01 0.00 0.00 0.00 0.02 0.03 0.05
0.16 0.25 0.21 0.24 0.38 0.50 0.57 0.55 0.61 0.72 0.75 0.65 0.40 0.22 0.17 0.12 0.11 0.09 0.06 0.02 0.00 0.00 0.00 0.00 0.03 0.05 0.04 0.04 0.13 0.35 0.44 0.42 0.21 0.18 0.15 0.14 0.10 0.06 0.02 0.02 0.02 0.01 0.02
0.15 0.20 0.24 0.29 0.35 0.39 0.43 0.48 0.59 0.62 0.70 0.61 0.51 0.56 0.74 0.76 0.49 0.31 0.16 0.07 0.03 0.01 0.00 0.00 0.01 0.04 0.05 0.05 0.04 0.14 0.29 0.41 0.35 0.23 0.21 0.19 0.12 0.05 0.04 0.07 0.08 0.05 0.05
0.16 0.25 0.25 0.28 0.36 0.34 0.34 0.38 0.46 0.52 0.48 0.46 0.46 0.36 0.30 0.44 0.68 0.76 0.67 0.54 0.37 0.22 0.10 0.04 0.03 0.02 0.02 0.04 0.04 0.06 0.07 0.24 0.37 0.32 0.26 0.26 0.19 0.14 0.11 0.15 0.14 0.11 0.10
0.40 0.29 0.26 0.22 0.20 0.17 0.17 0.23 0.32 0.34 0.27 0.38 0.46 0.21 0.15 0.11 0.10 0.09 0.17 0.30 0.32 0.26 0.22 0.15 0.09 0.05 0.02 0.02 0.02 0.03 0.03 0.12 0.27 0.37 0.37 0.37 0.33 0.31 0.29 0.25 0.22 0.20 0.13
0.78 0.67 0.49 0.43 0.32 0.31 0.28 0.24 0.24 0.26 0.26 0.42 0.52 0.37 0.18 0.07 0.04 0.05 0.08 0.08 0.09 0.15 0.16 0.14 0.14 0.09 0.05 0.01 0.00 0.00 0.03 0.08 0.15 0.34 0.45 0.52 0.55 0.48 0.43 0.43 0.39 0.32 0.26
1.28 1.33 1.23 1.19 1.10 0.87 0.64 0.61 0.51 0.49 0.50 0.48 0.47 0.48 0.20 0.07 0.02 0.03 0.04 0.04 0.03 0.04 0.04 0.08 0.10 0.12 0.10 0.07 0.03 0.01 0.01 0.03 0.07 0.18 0.34 0.42 0.54 0.52 0.56 0.65 0.61 0.66 0.85
1.82 2.19 2.32 2.17 2.00 1.63 1.53 1.63 1.63 1.44 1.40 1.07 0.97 0.79 0.59 0.31 0.16 0.07 0.03 0.03 0.06 0.05 0.06 0.10 0.08 0.05 0.03 0.03 0.05 0.05 0.06 0.10 0.04 0.10 0.29 0.52 0.68 0.75 0.66 0.55 0.49 0.41 0.57
2.07 2.00 2.29 2.74 2.76 2.87 2.56 2.21 2.20 2.17 2.05 1.99 1.71 1.43 1.14 0.95 0.71 0.51 0.29 0.18 0.15 0.10 0.09 0.09 0.09 0.07 0.09 0.12 0.12 0.12 0.18 0.20 0.12 0.14 0.29 0.54 0.77 0.84 0.87 0.84 0.79 0.78 0.79
2.17 1.97 2.41 2.67 2.93 2.64 2.39 2.51 2.42 2.17 1.99 1.69 1.56 1.50 1.29 1.11 0.90 0.85 0.67 0.41 0.33 0.23 0.15 0.10 0.08 0.08 0.10 0.12 0.13 0.16 0.22 0.25 0.26 0.31 0.43 0.67 0.81 0.92 0.98 1.01 1.03 0.97 0.99
2.00 2.00 1.58 1.94 2.12 2.30 2.49 2.19 2.00 1.88 1.90 2.04 1.88 1.72 1.66 1.29 1.00 0.87 0.87 0.59 0.36 0.22 0.14 0.10 0.11 0.14 0.17 0.16 0.16 0.23 0.28 0.33 0.34 0.34 0.47 0.64 0.77 0.88 0.87 0.95 1.18 1.35 1.59
1.37 1.37 1.41 1.25 1.26 1.38 1.57 1.70 1.56 1.42 1.36 1.35 1.34 1.36 1.34 1.24 1.02 0.88 0.97 1.03 0.82 0.42 0.22 0.12 0.08 0.11 0.13 0.14 0.20 0.29 0.30 0.43 0.46 0.51 0.64 0.86 0.90 0.94 1.02 1.08 1.25 1.69 1.68
1.05 1.12 1.22 1.32 1.26 1.29 1.33 1.34 1.29 1.20 1.15 1.01 0.95 0.99 1.02 0.89 0.81 0.83 0.92 1.10 1.31 1.10 0.57 0.23 0.22 0.24 0.27 0.37 0.56 0.64 0.66 0.82 0.83 0.81 0.83 0.87 0.91 0.85 0.80 0.84 0.90 0.93 1.00
0.70 1.21 1.17 0.88 0.89 0.94 1.13 1.41 1.40 1.22 1.19 1.18 1.09 1.08 1.05 1.00 0.96 0.89 0.89 0.95 1.15 1.33 1.24 0.62 0.56 0.65 0.74 0.81 0.88 0.78 0.66 0.78 0.69 0.71 0.71 0.70 0.69 0.65 0.63 0.62 0.68 0.67 0.69
0.46 0.72 1.00 1.16 1.04 0.89 0.87 0.93 0.94 1.03 1.22 1.24 1.26 1.25 1.13 1.18 1.48 1.55 1.51 1.55 1.71 1.93 2.08 1.45 1.01 0.92 0.87 0.79 0.83 0.81 0.73 0.61 0.57 0.74 0.63 0.61 0.57 0.50 0.52 0.52 0.51 0.50 0.48
0.06 0.09 0.14 0.22 0.30 0.47 0.60 0.62 0.64 0.68 0.74 0.82 0.89 1.02 0.97 0.96 0.99 0.97 1.03 1.13 1.24 1.36 1.63 1.46 1.08 1.05 1.02 0.96 0.94 0.94 0.89 0.83 0.76 0.92 0.80 0.58 0.42 0.32 0.31 0.31 0.34 0.37 0.39
0.08 0.07 0.05 0.05 0.06 0.06 0.07 0.11 0.20 0.33 0.47 0.60 0.69 0.70 0.66 0.77 0.82 0.93 1.07 1.21 1.27 1.40 1.58 1.59 1.25 1.08 1.01 0.98 1.02 0.99 0.94 0.90 0.84 0.98 0.85 0.69 0.67 0.60 0.49 0.46 0.42 0.37 0.28
0.07 0.06 0.08 0.08 0.07 0.06 0.08 0.13 0.17 0.20 0.23 0.28 0.36 0.48 0.58 0.72 0.84 0.97 1.05 1.04 1.10 1.22 1.23 1.23 1.04 0.78 0.61 0.57 0.67 0.62 0.56 0.51 0.49 0.56 0.62 0.53 0.54 0.52 0.50 0.47 0.45 0.44 0.40
0.06 0.04 0.08 0.15 0.17 0.17 0.16 0.13 0.13 0.14 0.18 0.23 0.27 0.31 0.33 0.46 0.57 0.62 0.77 0.86 1.00 1.17 1.30 1.29 1.03 0.78 0.53 0.35 0.29 0.26 0.33 0.31 0.34 0.33 0.31 0.32 0.31 0.26 0.23 0.26 0.25 0.32 0.38
0.08 0.12 0.11 0.11 0.14 0.18 0.36 0.28 0.18 0.16 0.18 0.23 0.28 0.36 0.45 0.59 0.53 0.51 0.46 0.42 0.42 0.59 0.76 0.84 0.85 0.71 0.56 0.51 0.57 0.61 0.61 0.57 0.47 0.19 0.15 0.12 0.12 0.11 0.13 0.19 0.30 0.32 0.29
0.24 0.23 0.22 0.26 0.25 0.24 0.35 0.29 0.34 0.36 0.42 0.47 0.48 0.45 0.37 0.35 0.35 0.29 0.29 0.31 0.34 0.34 0.36 0.32 0.28 0.20 0.21 0.26 0.42 0.54 0.55 0.51 0.40 0.23 0.32 0.30 0.16 0.08 0.04 0.12 0.23 0.21 0.25
0.46 0.54 0.56 0.58 0.64 0.76 0.80 0.68 0.55 0.44 0.46 0.48 0.45 0.40 0.33 0.26 0.19 0.14 0.16 0.21 0.11 0.08 0.13 0.19 0.20 0.27 0.38 0.42 0.53 0.69 0.59 0.51 0.46 0.35 0.32 0.32 0.13 0.12 0.06 0.05 0.12 0.09 0.16
0.78 0.78 0.68 0.55 0.59 0.71 0.67 0.50 0.45 0.39 0.29 0.19 0.14 0.07 0.03 0.03 0.05 0.09 0.09 0.05 0.02 0.02 0.09 0.16 0.24 0.30 0.32 0.33 0.32 0.40 0.58 0.68 0.65 0.41 0.31 0.31 0.19 0.17 0.15 0.11 0.10 0.12 0.07
0.66 0.58 0.63 0.60 0.51 0.43 0.31 0.20 0.11 0.08 0.05 0.02 0.00 0.00 0.02 0.02 0.06 0.10 0.06 0.02 0.03 0.01 0.06 0.05 0.05 0.08 0.11 0.16 0.23 0.23 0.30 0.55 0.44 0.45 0.29 0.47 0.37 0.36 0.61 0.27 0.16 0.16 0.13

GFSMA_prec_precacc_126.txt.gz
Total_Precipitation_Accumulation
0.34 0.26 0.27 0.27 0.22 0.16 0.12 0.13 0.16 0.18 0.14 0.09 0.06 0.03 0.01 0.01 0.02 0.01 0.00 0.00 0.00 0.00 0.00 0.02 0.02 0.03 0.08 0.08 0.04 0.06 0.04 0.03 0.02 0.03 0.04 0.04 0.04 0.02 0.02 0.04 0.06 0.07 0.08
0.39 0.49 0.42 0.41 0.31 0.25 0.23 0.23 0.33 0.35 0.29 0.21 0.12 0.07 0.04 0.04 0.08 0.05 0.04 0.04 0.00 0.00 0.00 0.01 0.03 0.09 0.18 0.16 0.10 0.18 0.19 0.09 0.06 0.05 0.01 0.01 0.01 0.02 0.01 0.03 0.05 0.06 0.07
0.27 0.33 0.53 0.54 0.43 0.44 0.61 0.67 0.80 0.70 0.58 0.38 0.21 0.12 0.10 0.08 0.08 0.13 0.14 0.11 0.04 0.01 0.00 0.02 0.05 0.05 0.06 0.11 0.26 0.37 0.33 0.32 0.25 0.21 0.09 0.04 0.01 0.00 0.00 0.00 0.02 0.03 0.05
0.16 0.25 0.21 0.24 0.38 0.50 0.57 0.55 0.62 0.77 0.79 0.72 0.47 0.29 0.24 0.21 0.18 0.17 0.16 0.11 0.07 0.03 0.01 0.01 0.05 0.08 0.06 0.06 0.16 0.37 0.45 0.42 0.21 0.18 0.15 0.14 0.10 0.06 0.02 0.02 0.02 0.01 0.02
0.15 0.20 0.24 0.29 0.35 0.39 0.43 0.48 0.61 0.65 0.74 0.66 0.55 0.62 0.80 0.79 0.55 0.40 0.25 0.15 0.11 0.08 0.04 0.02 0.02 0.09 0.12 0.11 0.08 0.19 0.34 0.44 0.37 0.26 0.24 0.21 0.13 0.05 0.04 0.07 0.08 0.06 0.06
0.16 0.25 0.25 0.28 0.36 0.35 0.34 0.38 0.47 0.53 0.51 0.51 0.55 0.49 0.44 0.53 0.74 0.80 0.70 0.60 0.42 0.27 0.17 0.12 0.12 0.12 0.12 0.12 0.11 0.12 0.14 0.31 0.44 0.36 0.30 0.31 0.22 0.16 0.12 0.16 0.15 0.12 0.12
0.40 0.29 0.26 0.22 0.20 0.17 0.18 0.23 0.32 0.34 0.28 0.40 0.53 0.26 0.19 0.13 0.11 0.11 0.20 0.31 0.33 0.28 0.24 0.22 0.23 0.23 0.24 0.24 0.20 0.14 0.10 0.16 0.31 0.41 0.41 0.40 0.36 0.33 0.30 0.28 0.25 0.22 0.14
0.78 0.67 0.49 0.43 0.32 0.32 0.29 0.24 0.25 0.27 0.27 0.45 0.58 0.44 0.21 0.09 0.05 0.06 0.09 0.10 0.12 0.15 0.16 0.16 0.19 0.19 0.20 0.23 0.21 0.17 0.14 0.16 0.21 0.40 0.50 0.58 0.59 0.50 0.44 0.45 0.42 0.35 0.27
1.28 1.33 1.23 1.19 1.11 0.87 0.65 0.62 0.52 0.50 0.52 0.50 0.53 0.59 0.30 0.11 0.03 0.04 0.04 0.04 0.04 0.05 0.04 0.08 0.10 0.14 0.16 0.17 0.16 0.18 0.17 0.14 0.14 0.22 0.40 0.48 0.59 0.56 0.58 0.67 0.63 0.68 0.86
1.82 2.19 2.32 2.17 2.01 1.64 1.55 1.66 1.66 1.47 1.43 1.10 1.01 0.84 0.69 0.38 0.19 0.08 0.03 0.04 0.06 0.05 0.06 0.10 0.09 0.07 0.07 0.11 0.19 0.28 0.30 0.32 0.24 0.22 0.37 0.60 0.75 0.78 0.70 0.58 0.52 0.45 0.59
2.07 2.00 2.29 2.74 2.77 2.89 2.57 2.23 2.23 2.21 2.10 2.04 1.77 1.50 1.23 1.09 0.86 0.63 0.36 0.22 0.17 0.13 0.12 0.13 0.15 0.11 0.11 0.14 0.17 0.18 0.24 0.25 0.17 0.18 0.33 0.61 0.85 0.94 0.95 0.90 0.83 0.80 0.81
2.17 1.97 2.42 2.67 2.93 2.64 2.42 2.55 2.44 2.19 2.02 1.72 1.62 1.55 1.37 1.21 1.01 1.01 0.81 0.49 0.39 0.29 0.21 0.17 0.14 0.14 0.17 0.17 0.19 0.22 0.25 0.27 0.28 0.32 0.44 0.69 0.83 0.97 1.07 1.09 1.08 1.02 1.02
2.00 2.00 1.59 1.94 2.12 2.30 2.51 2.23 2.02 1.88 1.90 2.05 1.89 1.74 1.76 1.62 1.45 1.29 1.21 0.81 0.49 0.29 0.18 0.16 0.13 0.16 0.20 0.17 0.17 0.24 0.29 0.35 0.36 0.35 0.47 0.65 0.77 0.89 0.89 0.98 1.22 1.40 1.65
1.37 1.37 1.41 1.25 1.27 1.40 1.61 1.73 1.58 1.43 1.36 1.35 1.34 1.37 1.39 1.37 1.27 1.26 1.48 1.59 1.27 0.60 0.28 0.16 0.11 0.11 0.13 0.14 0.20 0.30 0.30 0.43 0.47 0.52 0.65 0.86 0.91 0.94 1.02 1.09 1.26 1.71 1.72
1.05 1.12 1.22 1.32 1.26 1.29 1.35 1.36 1.31 1.22 1.15 1.01 0.95 0.99 1.04 0.96 0.95 0.97 1.09 1.30 1.49 1.25 0.66 0.30 0.26 0.24 0.27 0.37 0.57 0.64 0.66 0.82 0.83 0.82 0.84 0.88 0.91 0.85 0.80 0.84 0.90 0.94 1.00
0.70 1.21 1.17 0.88 0.89 0.94 1.13 1.41 1.40 1.22 1.19 1.18 1.09 1.08 1.08 1.05 1.00 0.93 0.94 1.01 1.23 1.41 1.28 0.64 0.57 0.66 0.74 0.81 0.88 0.78 0.66 0.78 0.69 0.71 0.71 0.70 0.69 0.65 0.63 0.62 0.68 0.67 0.69
0.46 0.72 1.00 1.16 1.04 0.89 0.87 0.93 0.94 1.03 1.22 1.24 1.26 1.25 1.13 1.19 1.48 1.55 1.51 1.55 1.71 1.93 2.08 1.45 1.01 0.92 0.87 0.79 0.83 0.81 0.73 0.61 0.57 0.74 0.63 0.61 0.57 0.51 0.52 0.52 0.51 0.51 0.49
0.06 0.09 0.14 0.22 0.30 0.47 0.60 0.62 0.64 0.68 0.74 0.82 0.89 1.02 0.97 0.96 0.99 0.97 1.03 1.13 1.24 1.36 1.63 1.46 1.08 1.05 1.02 0.96 0.94 0.94 0.89 0.83 0.76 0.92 0.80 0.58 0.42 0.32 0.31 0.31 0.35 0.37 0.40
0.08 0.07 0.05 0.05 0.06 0.06 0.07 0.11 0.20 0.33 0.47 0.60 0.69 0.70 0.66 0.77 0.82 0.93 1.07 1.21 1.27 1.40 1.58 1.59 1.25 1.08 1.01 0.98 1.02 0.99 0.94 0.90 0.84 0.98 0.85 0.69 0.67 0.60 0.49 0.46 0.42 0.37 0.28
0.07 0.06 0.08 0.08 0.07 0.06 0.08 0.13 0.17 0.20 0.23 0.28 0.36 0.48 0.58 0.72 0.84 0.97 1.05 1.04 1.10 1.22 1.23 1.23 1.04 0.78 0.61 0.57 0.67 0.62 0.56 0.51 0.49 0.56 0.62 0.53 0.54 0.52 0.50 0.47 0.45 0.44 0.40
0.06 0.04 0.08 0.15 0.17 0.17 0.16 0.13 0.13 0.14 0.18 0.23 0.27 0.31 0.33 0.46 0.57 0.62 0.77 0.86 1.00 1.17 1.30 1.29 1.03 0.78 0.53 0.35 0.29 0.26 0.33 0.31 0.34 0.33 0.31 0.32 0.31 0.26 0.23 0.26 0.25 0.32 0.40
0.08 0.12 0.11 0.11 0.14 0.18 0.36 0.28 0.18 0.16 0.18 0.23 0.28 0.36 0.45 0.59 0.53 0.51 0.46 0.42 0.42 0.59 0.76 0.84 0.85 0.71 0.56 0.51 0.57 0.61 0.61 0.57 0.47 0.19 0.15 0.12 0.12 0.11 0.13 0.19 0.30 0.33 0.31
0.24 0.23 0.22 0.26 0.25 0.24 0.35 0.29 0.34 0.36 0.42 0.47 0.48 0.45 0.37 0.35 0.35 0.29 0.29 0.31 0.34 0.34 0.36 0.32 0.28 0.20 0.21 0.26 0.42 0.54 0.55 0.51 0.40 0.23 0.32 0.30 0.16 0.08 0.04 0.12 0.23 0.22 0.29
0.46 0.54 0.56 0.58 0.64 0.76 0.80 0.68 0.55 0.44 0.46 0.48 0.45 0.40 0.33 0.26 0.19 0.14 0.16 0.21 0.11 0.08 0.13 0.19 0.20 0.27 0.38 0.42 0.53 0.69 0.59 0.51 0.46 0.35 0.32 0.32 0.13 0.12 0.06 0.05 0.12 0.10 0.17
0.78 0.78 0.68 0.55 0.59 0.71 0.67 0.50 0.45 0.39 0.29 0.19 0.14 0.07 0.03 0.03 0.05 0.09 0.09 0.05 0.02 0.02 0.09 0.16 0.24 0.30 0.33 0.34 0.32 0.40 0.58 0.68 0.65 0.41 0.31 0.31 0.19 0.17 0.15 0.11 0.10 0.12 0.07
0.66 0.58 0.63 0.60 0.51 0.43 0.31 0.20 0.11 0.08 0.05 0.02 0.00 0.00 0.02 0.02 0.06 0.10 0.06 0.02 0.03 0.01 0.06 0.05 0.05 0.08 0.11 0.16 0.23 0.23 0.30 0.55 0.44 0.45 0.29 0.47 0.37 0.36 0.61 0.27 0.16 0.16 0.13

GFSMA_prec_precacc_129.txt.gz
Total_Precipitation_Accumulation
0.34 0.26 0.27 0.27 0.22 0.16 0.12 0.13 0.16 0.18 0.14 0.09 0.08 0.07 0.04 0.03 0.02 0.01 0.00 0.01 0.01 0.00 0.00 0.02 0.03 0.05 0.10 0.09 0.04 0.06 0.04 0.03 0.02 0.03 0.04 0.04 0.04 0.02 0.02 0.04 0.06 0.07 0.08
0.39 0.49 0.42 0.41 0.31 0.25 0.23 0.23 0.33 0.35 0.30 0.21 0.13 0.08 0.06 0.06 0.11 0.07 0.05 0.07 0.05 0.02 0.01 0.02 0.03 0.11 0.23 0.18 0.11 0.18 0.19 0.09 0.06 0.05 0.01 0.01 0.01 0.02 0.01 0.03 0.05 0.06 0.07
0.27 0.33 0.53 0.54 0.43 0.44 0.61 0.67 0.80 0.70 0.58 0.39 0.21 0.13 0.13 0.11 0.10 0.16 0.17 0.13 0.09 0.07 0.04 0.03 0.06 0.05 0.09 0.16 0.32 0.40 0.34 0.32 0.25 0.21 0.09 0.04 0.01 0.00 0.00 0.00 0.02 0.03 0.05
0.16 0.25 0.21 0.24 0.38 0.50 0.57 0.55 0.62 0.77 0.79 0.72 0.47 0.31 0.28 0.26 0.23 0.20 0.20 0.13 0.10 0.07 0.08 0.04 0.07 0.09 0.07 0.08 0.21 0.42 0.49 0.44 0.22 0.19 0.15 0.14 0.10 0.06 0.02 0.02 0.02 0.01 0.02
0.15 0.20 0.24 0.29 0.35 0.39 0.43 0.48 0.61 0.65 0.74 0.66 0.56 0.63 0.81 0.81 0.57 0.42 0.30 0.19 0.15 0.13 0.10 0.10 0.06 0.11 0.12 0.12 0.11 0.25 0.41 0.51 0.43 0.30 0.27 0.25 0.15 0.06 0.04 0.08 0.09 0.06 0.06
0.16 0.25 0.25 0.28 0.36 0.35 0.34 0.39 0.47 0.53 0.51 0.51 0.55 0.50 0.48 0.60 0.80 0.83 0.73 0.65 0.47 0.32 0.24 0.22 0.22 0.19 0.16 0.14 0.14 0.16 0.21 0.40 0.53 0.45 0.36 0.38 0.29 0.21 0.15 0.17 0.17 0.13 0.12
0.40 0.29 0.26 0.22 0.20 0.17 0.18 0.23 0.33 0.35 0.28 0.41 0.54 0.27 0.21 0.19 0.16 0.12 0.22 0.34 0.37 0.31 0.27 0.30 0.31 0.31 0.30 0.26 0.23 0.22 0.22 0.30 0.43 0.52 0.50 0.48 0.45 0.41 0.34 0.31 0.30 0.25 0.16
0.78 0.67 0.49 0.43 0.32 0.32 0.29 0.24 0.25 0.28 0.28 0.47 0.62 0.47 0.23 0.12 0.08 0.08 0.11 0.12 0.17 0.30 0.27 0.23 0.23 0.22 0.21 0.23 0.23 0.22 0.23 0.29 0.35 0.54 0.61 0.65 0.64 0.56 0.50 0.52 0.49 0.41 0.31
1.28 1.33 1.23 1.19 1.11 0.87 0.65 0.62 0.53 0.52 0.53 0.51 0.60 0.71 0.39 0.18 0.10 0.08 0.05 0.06 0.08 0.13 0.17 0.14 0.12 0.14 0.16 0.17 0.17 0.19 0.20 0.20 0.23 0.32 0.49 0.54 0.64 0.60 0.62 0.72 0.70 0.76 0.91
1.82 2.19 2.32 2.17 2.01 1.64 1.55 1.66 1.67 1.47 1.45 1.12 1.06 0.97 0.87 0.54 0.30 0.12 0.04 0.04 0.07 0.07 0.09 0.13 0.10 0.08 0.08 0.11 0.20 0.29 0.33 0.38 0.32 0.35 0.52 0.74 0.89 0.90 0.78 0.65 0.58 0.50 0.64
2.07 2.00 2.29 2.74 2.77 2.89 2.57 2.23 2.23 2.22 2.12 2.08 1.85 1.63 1.43 1.29 1.02 0.75 0.42 0.26 0.20 0.15 0.16 0.19 0.20 0.16 0.14 0.17 0.18 0.21 0.28 0.31 0.26 0.31 0.48 0.79 1.09 1.24 1.27 1.15 0.98 0.88 0.87
2.17 1.97 2.42 2.67 2.93 2.64 2.42 2.55 2.46 2.20 2.03 1.76 1.68 1.64 1.47 1.31 1.07 1.03 0.83 0.52 0.41 0.30 0.23 0.27 0.28 0.24 0.25 0.24 0.24 0.32 0.35 0.33 0.31 0.35 0.49 0.75 0.90 1.04 1.17 1.25 1.28 1.22 1.16
2.00 2.00 1.59 1.94 2.12 2.30 2.51 2.23 2.04 1.88 1.91 2.06 1.91 1.77 1.79 1.64 1.47 1.29 1.21 0.82 0.57 0.49 0.61 0.65 0.57 0.51 0.52 0.52 0.43 0.39 0.35 0.39 0.41 0.41 0.52 0.67 0.79 0.90 0.90 0.99 1.23 1.45 1.73
1.37 1.37 1.41 1.25 1.27 1.40 1.61 1.73 1.58 1.44 1.36 1.35 1.34 1.37 1.39 1.37 1.27 1.26 1.48 1.60 1.34 0.79 0.52 0.58 0.64 0.49 0.40 0.41 0.47 0.54 0.39 0.48 0.48 0.53 0.66 0.87 0.91 0.94 1.02 1.09 1.26 1.71 1.72
1.05 1.12 1.22 1.32 1.26 1.29 1.35 1.36 1.31 1.22 1.16 1.01 0.95 0.99 1.04 0.96 0.95 0.97 1.09 1.30 1.53 1.36 0.90 0.64 0.67 0.67 0.63 0.62 0.68 0.68 0.66 0.83 0.84 0.82 0.84 0.88 0.91 0.85 0.81 0.84 0.90 0.94 1.00
0.70 1.21 1.17 0.88 0.89 0.94 1.13 1.41 1.40 1.22 1.19 1.18 1.09 1.08 1.08 1.05 1.00 0.93 0.94 1.01 1.24 1.45 1.37 0.78 0.78 0.85 0.88 0.93 0.96 0.82 0.68 0.78 0.69 0.71 0.71 0.70 0.69 0.65 0.63 0.62 0.68 0.67 0.69
0.46 0.72 1.00 1.16 1.04 0.89 0.87 0.93 0.94 1.03 1.22 1.24 1.26 1.25 1.13 1.19 1.48 1.55 1.51 1.56 1.72 1.94 2.10 1.47 1.05 0.96 0.91 0.83 0.85 0.81 0.73 0.61 0.57 0.74 0.63 0.61 0.57 0.51 0.52 0.52 0.51 0.51 0.49
0.06 0.09 0.14 0.22 0.30 0.47 0.60 0.62 0.64 0.68 0.74 0.82 0.89 1.02 0.97 0.96 0.99 0.97 1.03 1.13 1.24 1.36 1.63 1.46 1.08 1.05 1.02 0.96 0.94 0.94 0.89 0.83 0.76 0.92 0.80 0.58 0.42 0.32 0.31 0.31 0.35 0.37 0.40
0.08 0.07 0.05 0.05 0.06 0.06 0.07 0.11 0.20 0.33 0.47 0.60 0.69 0.70 0.66 0.77 0.82 0.93 1.07 1.21 1.27 1.40 1.58 1.59 1.25 1.08 1.01 0.98 1.02 0.99 0.94 0.90 0.84 0.98 0.85 0.69 0.67 0.60 0.49 0.46 0.42 0.37 0.28
0.07 0.06 0.08 0.08 0.07 0.06 0.08 0.13 0.17 0.20 0.23 0.28 0.36 0.48 0.58 0.72 0.84 0.97 1.05 1.04 1.10 1.22 1.23 1.23 1.04 0.78 0.61 0.57 0.67 0.62 0.56 0.51 0.49 0.56 0.62 0.53 0.54 0.52 0.50 0.47 0.45 0.44 0.40
0.06 0.04 0.08 0.15 0.17 0.17 0.16 0.13 0.13 0.14 0.18 0.23 0.27 0.31 0.33 0.46 0.57 0.62 0.77 0.86 1.00 1.17 1.30 1.29 1.03 0.78 0.53 0.35 0.29 0.26 0.33 0.31 0.34 0.33 0.31 0.32 0.31 0.26 0.23 0.26 0.25 0.32 0.40
0.08 0.12 0.11 0.11 0.14 0.18 0.36 0.28 0.18 0.16 0.18 0.23 0.28 0.36 0.45 0.59 0.53 0.51 0.46 0.42 0.42 0.59 0.76 0.84 0.85 0.71 0.56 0.51 0.57 0.61 0.61 0.57 0.47 0.19 0.15 0.12 0.12 0.11 0.13 0.19 0.30 0.33 0.31
0.24 0.23 0.22 0.26 0.25 0.24 0.35 0.29 0.34 0.36 0.42 0.47 0.48 0.45 0.37 0.35 0.35 0.29 0.29 0.31 0.34 0.34 0.36 0.32 0.28 0.20 0.21 0.26 0.42 0.54 0.55 0.51 0.40 0.23 0.32 0.30 0.16 0.08 0.04 0.12 0.23 0.22 0.29
0.46 0.54 0.56 0.58 0.64 0.76 0.80 0.68 0.55 0.44 0.46 0.48 0.45 0.40 0.33 0.26 0.19 0.14 0.16 0.21 0.11 0.08 0.13 0.19 0.20 0.27 0.38 0.42 0.54 0.69 0.59 0.51 0.46 0.35 0.32 0.32 0.13 0.12 0.06 0.05 0.12 0.10 0.17
0.78 0.78 0.68 0.55 0.59 0.71 0.67 0.50 0.45 0.39 0.29 0.19 0.14 0.07 0.03 0.03 0.05 0.09 0.09 0.05 0.02 0.02 0.09 0.16 0.24 0.30 0.33 0.34 0.33 0.41 0.59 0.68 0.65 0.41 0.31 0.31 0.19 0.17 0.15 0.11 0.10 0.12 0.07
0.66 0.58 0.63 0.60 0.51 0.43 0.31 0.20 0.11 0.08 0.05 0.02 0.00 0.00 0.02 0.02 0.06 0.10 0.06 0.02 0.03 0.01 0.06 0.05 0.05 0.08 0.11 0.16 0.23 0.23 0.30 0.55 0.44 0.45 0.29 0.47 0.37 0.36 0.61 0.27 0.16 0.16 0.13

GFSMA_prec_precacc_132.txt.gz
Total_Precipitation_Accumulation
0.34 0.26 0.27 0.27 0.22 0.16 0.12 0.13 0.16 0.18 0.14 0.09 0.08 0.07 0.05 0.05 0.04 0.02 0.01 0.01 0.01 0.00 0.00 0.02 0.03 0.06 0.12 0.11 0.05 0.06 0.04 0.03 0.02 0.03 0.04 0.04 0.04 0.02 0.02 0.04 0.06 0.07 0.08
0.39 0.49 0.42 0.41 0.31 0.25 0.23 0.23 0.33 0.35 0.30 0.21 0.13 0.08 0.06 0.08 0.13 0.09 0.07 0.09 0.06 0.03 0.01 0.02 0.03 0.12 0.24 0.21 0.14 0.20 0.20 0.10 0.07 0.05 0.01 0.01 0.01 0.02 0.01 0.03 0.05 0.06 0.07
0.27 0.33 0.53 0.54 0.43 0.44 0.61 0.67 0.80 0.70 0.58 0.39 0.21 0.13 0.13 0.11 0.10 0.17 0.18 0.14 0.11 0.09 0.06 0.03 0.06 0.06 0.09 0.17 0.35 0.45 0.36 0.33 0.26 0.21 0.09 0.04 0.01 0.01 0.00 0.00 0.02 0.03 0.05
0.16 0.25 0.21 0.24 0.38 0.50 0.57 0.55 0.62 0.77 0.79 0.72 0.47 0.31 0.28 0.26 0.23 0.21 0.20 0.14 0.10 0.08 0.09 0.06 0.08 0.10 0.07 0.08 0.21 0.46 0.54 0.49 0.25 0.20 0.16 0.14 0.10 0.06 0.02 0.02 0.02 0.01 0.02
0.15 0.20 0.24 0.29 0.35 0.39 0.43 0.48 0.61 0.65 0.74 0.66 0.56 0.63 0.81 0.81 0.58 0.43 0.31 0.20 0.16 0.14 0.10 0.12 0.12 0.15 0.13 0.12 0.11 0.29 0.47 0.58 0.49 0.35 0.32 0.28 0.17 0.08 0.06 0.08 0.09 0.06 0.06
0.16 0.25 0.25 0.28 0.36 0.35 0.34 0.39 0.47 0.53 0.51 0.51 0.55 0.50 0.48 0.60 0.81 0.85 0.76 0.67 0.48 0.33 0.26 0.24 0.25 0.24 0.22 0.18 0.15 0.17 0.26 0.48 0.66 0.57 0.45 0.44 0.34 0.26 0.19 0.21 0.19 0.13 0.12
0.40 0.29 0.26 0.22 0.20 0.17 0.18 0.23 0.33 0.35 0.28 0.41 0.55 0.27 0.21 0.19 0.16 0.13 0.24 0.37 0.39 0.34 0.31 0.34 0.39 0.41 0.42 0.41 0.35 0.32 0.31 0.39 0.51 0.58 0.58 0.55 0.49 0.43 0.38 0.35 0.35 0.29 0.20
0.78 0.67 0.49 0.43 0.32 0.32 0.29 0.24 0.25 0.28 0.28 0.47 0.63 0.49 0.24 0.12 0.09 0.09 0.14 0.16 0.20 0.36 0.34 0.30 0.32 0.34 0.35 0.38 0.37 0.33 0.32 0.39 0.46 0.64 0.71 0.76 0.72 0.60 0.52 0.54 0.54 0.48 0.39
1.28 1.33 1.23 1.19 1.11 0.87 0.65 0.62 0.53 0.52 0.54 0.51 0.61 0.74 0.42 0.21 0.17 0.18 0.16 0.18 0.19 0.24 0.28 0.41 0.38 0.31 0.29 0.31 0.27 0.26 0.24 0.23 0.29 0.40 0.58 0.62 0.69 0.63 0.64 0.73 0.72 0.80 0.99
1.82 2.19 2.32 2.17 2.01 1.64 1.55 1.66 1.67 1.48 1.46 1.12 1.06 0.99 0.92 0.65 0.51 0.40 0.29 0.31 0.21 0.21 0.34 0.38 0.35 0.38 0.40 0.39 0.39 0.36 0.35 0.40 0.34 0.40 0.62 0.86 0.99 0.96 0.81 0.69 0.62 0.54 0.69
2.07 2.00 2.29 2.74 2.77 2.89 2.57 2.23 2.23 2.22 2.12 2.09 1.85 1.63 1.44 1.34 1.38 1.26 0.82 0.46 0.36 0.35 0.35 0.47 0.52 0.50 0.58 0.60 0.68 0.48 0.34 0.34 0.29 0.35 0.58 0.93 1.24 1.39 1.42 1.29 1.11 1.00 0.96
2.17 1.97 2.42 2.67 2.93 2.64 2.42 2.55 2.46 2.20 2.03 1.76 1.68 1.64 1.48 1.31 1.15 1.16 0.90 0.55 0.42 0.34 0.27 0.32 0.38 0.38 0.42 0.42 0.38 0.44 0.42 0.39 0.36 0.40 0.55 0.87 1.04 1.17 1.30 1.43 1.61 1.69 1.56
2.00 2.00 1.59 1.94 2.12 2.30 2.51 2.23 2.04 1.88 1.91 2.06 1.91 1.77 1.79 1.64 1.47 1.31 1.22 0.82 0.57 0.49 0.62 0.65 0.61 0.60 0.58 0.56 0.49 0.51 0.48 0.58 0.64 0.63 0.66 0.72 0.81 0.94 0.94 1.03 1.25 1.50 1.91
1.37 1.37 1.41 1.25 1.27 1.40 1.61 1.73 1.58 1.44 1.36 1.35 1.34 1.37 1.40 1.37 1.27 1.27 1.48 1.60 1.34 0.79 0.53 0.58 0.66 0.65 0.67 0.65 0.72 0.80 0.68 0.79 0.82 0.83 0.85 0.99 1.02 0.98 1.04 1.10 1.27 1.72 1.72
1.05 1.12 1.22 1.32 1.26 1.29 1.35 1.36 1.31 1.22 1.16 1.01 0.95 0.99 1.04 0.96 0.95 0.97 1.09 1.30 1.53 1.36 0.91 0.65 0.67 0.68 0.70 0.78 0.94 0.99 1.00 1.13 1.11 1.08 1.05 1.00 1.01 0.90 0.82 0.84 0.91 0.94 1.01
0.70 1.21 1.17 0.88 0.89 0.94 1.13 1.41 1.40 1.22 1.19 1.18 1.09 1.08 1.08 1.05 1.00 0.93 0.94 1.01 1.24 1.45 1.37 0.79 0.78 0.85 0.89 0.96 1.04 0.92 0.81 0.95 0.86 0.84 0.83 0.82 0.76 0.68 0.64 0.62 0.68 0.67 0.69
0.46 0.72 1.00 1.16 1.04 0.89 0.87 0.93 0.94 1.03 1.22 1.24 1.26 1.25 1.13 1.19 1.48 1.55 1.51 1.56 1.72 1.94 2.10 1.47 1.05 0.96 0.91 0.84 0.86 0.83 0.75 0.63 0.59 0.77 0.66 0.63 0.58 0.51 0.52 0.52 0.51 0.51 0.49
0.06 0.09 0.14 0.22 0.30 0.47 0.60 0.62 0.64 0.68 0.74 0.82 0.89 1.02 0.97 0.96 0.99 0.97 1.03 1.13 1.24 1.36 1.63 1.46 1.08 1.05 1.02 0.96 0.95 0.94 0.89 0.83 0.76 0.92 0.81 0.58 0.42 0.32 0.31 0.31 0.35 0.37 0.40
0.08 0.07 0.05 0.05 0.06 0.06 0.07 0.11 0.20 0.33 0.47 0.60 0.69 0.70 0.66 0.77 0.82 0.93 1.07 1.21 1.27 1.40 1.58 1.59 1.25 1.08 1.01 0.98 1.02 0.99 0.94 0.90 0.84 0.98 0.85 0.69 0.67 0.60 0.49 0.46 0.42 0.37 0.28
0.07 0.06 0.08 0.08 0.07 0.06 0.08 0.13 0.17 0.20 0.23 0.28 0.36 0.48 0.58 0.72 0.84 0.97 1.05 1.04 1.10 1.22 1.23 1.23 1.04 0.78 0.61 0.57 0.67 0.62 0.56 0.51 0.49 0.56 0.62 0.53 0.54 0.52 0.50 0.47 0.45 0.44 0.40
0.06 0.04 0.08 0.15 0.17 0.17 0.16 0.13 0.13 0.14 0.18 0.23 0.27 0.31 0.33 0.46 0.57 0.62 0.77 0.86 1.00 1.17 1.30 1.29 1.03 0.78 0.53 0.35 0.29 0.26 0.33 0.31 0.34 0.33 0.31 0.32 0.31 0.26 0.23 0.26 0.25 0.32 0.40
0.08 0.12 0.11 0.11 0.14 0.18 0.36 0.28 0.18 0.16 0.18 0.23 0.28 0.36 0.45 0.59 0.53 0.51 0.46 0.42 0.42 0.59 0.76 0.84 0.85 0.71 0.56 0.51 0.57 0.61 0.61 0.57 0.47 0.19 0.15 0.12 0.12 0.11 0.13 0.19 0.30 0.33 0.31
0.24 0.23 0.22 0.26 0.25 0.24 0.35 0.29 0.34 0.36 0.42 0.47 0.48 0.45 0.37 0.35 0.35 0.29 0.29 0.31 0.34 0.34 0.36 0.32 0.28 0.20 0.21 0.26 0.42 0.54 0.55 0.51 0.40 0.23 0.32 0.30 0.16 0.08 0.04 0.12 0.23 0.22 0.29
0.46 0.54 0.56 0.58 0.64 0.76 0.80 0.68 0.55 0.44 0.46 0.48 0.45 0.40 0.33 0.26 0.19 0.14 0.16 0.21 0.11 0.08 0.13 0.19 0.20 0.27 0.38 0.42 0.54 0.70 0.60 0.52 0.46 0.35 0.32 0.32 0.13 0.12 0.06 0.05 0.12 0.10 0.17
0.78 0.78 0.68 0.55 0.60 0.71 0.67 0.50 0.45 0.39 0.29 0.19 0.14 0.07 0.03 0.03 0.05 0.09 0.09 0.05 0.02 0.02 0.09 0.16 0.24 0.30 0.34 0.35 0.33 0.42 0.60 0.69 0.65 0.41 0.31 0.31 0.19 0.17 0.15 0.11 0.10 0.12 0.07
0.66 0.58 0.63 0.60 0.51 0.43 0.31 0.20 0.11 0.08 0.05 0.02 0.00 0.00 0.02 0.02 0.06 0.10 0.06 0.02 0.03 0.01 0.06 0.06 0.06 0.08 0.11 0.16 0.23 0.23 0.30 0.55 0.44 0.46 0.29 0.47 0.37 0.36 0.61 0.27 0.16 0.16 0.13

GFSMA_prec_precacc_135.txt.gz
Total_Precipitation_Accumulation
0.34 0.26 0.27 0.27 0.22 0.16 0.12 0.13 0.16 0.18 0.14 0.09 0.08 0.07 0.05 0.05 0.05 0.04 0.02 0.03 0.02 0.01 0.01 0.02 0.03 0.06 0.12 0.11 0.06 0.07 0.05 0.03 0.03 0.03 0.04 0.04 0.04 0.02 0.02 0.04 0.06 0.07 0.08
0.39 0.49 0.42 0.41 0.31 0.25 0.23 0.23 0.33 0.35 0.30 0.21 0.13 0.08 0.06 0.08 0.13 0.09 0.08 0.11 0.07 0.04 0.02 0.03 0.04 0.12 0.24 0.21 0.15 0.22 0.21 0.10 0.07 0.05 0.02 0.01 0.01 0.02 0.01 0.03 0.05 0.06 0.07
0.27 0.33 0.53 0.54 0.43 0.44 0.61 0.67 0.80 0.70 0.58 0.39 0.21 0.13 0.13 0.11 0.10 0.17 0.19 0.16 0.13 0.10 0.07 0.06 0.10 0.07 0.09 0.17 0.36 0.47 0.38 0.35 0.26 0.22 0.10 0.04 0.02 0.01 0.00 0.00 0.02 0.03 0.05
0.16 0.25 0.21 0.24 0.38 0.50 0.57 0.55 0.62 0.77 0.79 0.72 0.47 0.31 0.28 0.26 0.23 0.21 0.20 0.15 0.12 0.10 0.11 0.09 0.13 0.13 0.08 0.08 0.22 0.48 0.57 0.52 0.27 0.22 0.17 0.15 0.10 0.06 0.02 0.02 0.02 0.01 0.02
0.15 0.20 0.24 0.29 0.35 0.39 0.43 0.48 0.61 0.65 0.74 0.66 0.56 0.63 0.81 0.81 0.58 0.43 0.31 0.20 0.17 0.16 0.12 0.16 0.18 0.22 0.23 0.19 0.13 0.30 0.51 0.62 0.55 0.40 0.37 0.32 0.20 0.10 0.07 0.08 0.09 0.06 0.06
0.16 0.25 0.25 0.28 0.36 0.35 0.34 0.39 0.47 0.53 0.51 0.51 0.55 0.50 0.48 0.60 0.81 0.85 0.76 0.68 0.49 0.35 0.28 0.27 0.29 0.31 0.31 0.23 0.18 0.19 0.30 0.55 0.73 0.66 0.51 0.51 0.38 0.29 0.22 0.24 0.21 0.15 0.13
0.40 0.29 0.26 0.22 0.20 0.17 0.18 0.23 0.33 0.35 0.28 0.41 0.55 0.27 0.21 0.19 0.16 0.13 0.24 0.37 0.40 0.35 0.33 0.36 0.41 0.45 0.49 0.54 0.43 0.33 0.33 0.43 0.59 0.69 0.68 0.66 0.62 0.53 0.43 0.39 0.37 0.31 0.22
0.78 0.67 0.49 0.43 0.32 0.32 0.29 0.24 0.25 0.28 0.28 0.47 0.64 0.50 0.24 0.12 0.09 0.09 0.14 0.17 0.21 0.40 0.40 0.39 0.41 0.42 0.41 0.43 0.51 0.46 0.36 0.44 0.54 0.77 0.86 0.90 0.86 0.74 0.65 0.64 0.60 0.51 0.41
1.28 1.33 1.23 1.19 1.11 0.87 0.65 0.62 0.53 0.52 0.54 0.51 0.61 0.76 0.44 0.22 0.17 0.18 0.16 0.20 0.27 0.36 0.45 0.63 0.68 0.52 0.44 0.40 0.42 0.45 0.43 0.40 0.49 0.54 0.73 0.80 0.87 0.76 0.73 0.78 0.76 0.83 1.00
1.82 2.19 2.32 2.17 2.01 1.64 1.55 1.66 1.67 1.48 1.46 1.13 1.06 0.99 0.92 0.66 0.55 0.40 0.30 0.34 0.48 1.09 1.35 1.03 0.73 0.83 1.00 0.76 0.58 0.73 0.83 0.87 0.68 0.57 0.77 1.06 1.29 1.18 0.90 0.75 0.66 0.56 0.70
2.07 2.00 2.29 2.74 2.77 2.89 2.57 2.23 2.23 2.22 2.12 2.09 1.85 1.64 1.44 1.34 1.38 1.26 0.85 0.63 0.56 0.97 0.82 0.72 0.66 0.58 0.92 1.25 1.12 0.83 0.60 0.58 0.72 0.88 1.02 1.26 1.59 1.94 1.72 1.40 1.19 1.06 0.99
2.17 1.97 2.42 2.67 2.93 2.64 2.42 2.55 2.46 2.20 2.03 1.76 1.68 1.64 1.48 1.31 1.15 1.16 0.91 0.55 0.42 0.35 0.30 0.35 0.50 0.58 0.55 0.56 0.70 0.92 1.03 0.87 0.58 0.61 0.87 1.14 1.20 1.31 1.55 1.81 1.92 1.94 1.79
2.00 2.00 1.59 1.94 2.12 2.30 2.51 2.23 2.04 1.88 1.91 2.06 1.91 1.77 1.79 1.64 1.47 1.31 1.23 0.82 0.57 0.50 0.63 0.66 0.61 0.60 0.59 0.58 0.54 0.63 0.66 0.93 1.18 1.04 0.85 0.81 0.87 1.02 1.03 1.15 1.41 1.61 2.14
1.37 1.37 1.41 1.25 1.27 1.40 1.61 1.73 1.58 1.44 1.36 1.35 1.34 1.37 1.40 1.37 1.27 1.27 1.48 1.60 1.34 0.80 0.53 0.59 0.66 0.65 0.67 0.65 0.72 0.84 0.75 0.91 1.00 1.14 1.12 1.21 1.18 1.09 1.17 1.24 1.40 1.78 1.75
1.05 1.12 1.22 1.32 1.26 1.29 1.35 1.36 1.31 1.22 1.16 1.01 0.95 0.99 1.04 0.96 0.95 0.97 1.09 1.30 1.53 1.37 0.91 0.65 0.67 0.68 0.70 0.78 0.94 0.99 1.01 1.14 1.13 1.13 1.14 1.19 1.28 1.17 1.06 1.01 1.07 1.08 1.08
0.70 1.21 1.17 0.88 0.89 0.94 1.13 1.41 1.40 1.22 1.19 1.18 1.09 1.08 1.08 1.05 1.00 0.93 0.94 1.01 1.24 1.45 1.37 0.79 0.78 0.85 0.89 0.96 1.04 0.92 0.81 0.96 0.88 0.87 0.90 0.92 0.87 0.82 0.81 0.82 0.82 0.76 0.76
0.46 0.72 1.00 1.16 1.04 0.89 0.87 0.93 0.94 1.03 1.22 1.24 1.26 1.25 1.13 1.19 1.48 1.55 1.51 1.56 1.72 1.94 2.10 1.47 1.05 0.96 0.91 0.84 0.86 0.83 0.75 0.63 0.59 0.77 0.68 0.66 0.62 0.57 0.60 0.60 0.57 0.56 0.52
0.06 0.09 0.14 0.22 0.30 0.47 0.60 0.62 0.64 0.68 0.74 0.82 0.89 1.02 0.97 0.96 0.99 0.97 1.03 1.13 1.24 1.36 1.63 1.46 1.08 1.05 1.02 0.96 0.95 0.94 0.89 0.83 0.76 0.92 0.81 0.58 0.42 0.32 0.31 0.32 0.36 0.38 0.40
0.08 0.07 0.05 0.05 0.06 0.06 0.07 0.11 0.20 0.33 0.47 0.60 0.69 0.70 0.66 0.77 0.82 0.93 1.07 1.21 1.27 1.40 1.58 1.59 1.25 1.08 1.01 0.98 1.02 0.99 0.94 0.90 0.84 0.98 0.85 0.69 0.67 0.60 0.49 0.46 0.43 0.37 0.28
0.07 0.06 0.08 0.08 0.07 0.06 0.08 0.13 0.17 0.20 0.23 0.28 0.36 0.48 0.58 0.72 0.84 0.97 1.05 1.04 1.10 1.22 1.23 1.23 1.04 0.78 0.61 0.57 0.67 0.62 0.56 0.51 0.49 0.56 0.62 0.53 0.54 0.52 0.50 0.47 0.45 0.44 0.40
0.06 0.04 0.08 0.15 0.17 0.17 0.16 0.13 0.13 0.14 0.18 0.23 0.27 0.31 0.33 0.46 0.57 0.62 0.77 0.86 1.00 1.17 1.30 1.29 1.03 0.78 0.53 0.35 0.29 0.26 0.33 0.31 0.34 0.33 0.31 0.32 0.31 0.26 0.23 0.26 0.25 0.32 0.40
0.08 0.12 0.11 0.11 0.14 0.18 0.36 0.28 0.18 0.16 0.18 0.23 0.28 0.36 0.45 0.59 0.53 0.51 0.46 0.42 0.42 0.59 0.76 0.84 0.85 0.71 0.56 0.51 0.57 0.61 0.61 0.57 0.47 0.19 0.15 0.12 0.12 0.11 0.13 0.19 0.30 0.33 0.31
0.24 0.23 0.22 0.26 0.25 0.24 0.35 0.29 0.34 0.36 0.42 0.47 0.48 0.45 0.37 0.35 0.35 0.29 0.29 0.31 0.34 0.34 0.36 0.32 0.28 0.20 0.21 0.26 0.42 0.54 0.55 0.52 0.41 0.23 0.32 0.30 0.16 0.08 0.04 0.12 0.23 0.22 0.29
0.46 0.54 0.56 0.58 0.64 0.76 0.80 0.68 0.55 0.44 0.46 0.48 0.45 0.40 0.33 0.26 0.19 0.14 0.16 0.21 0.11 0.08 0.13 0.19 0.20 0.27 0.38 0.42 0.55 0.71 0.61 0.53 0.46 0.35 0.32 0.32 0.13 0.12 0.06 0.05 0.12 0.10 0.17
0.78 0.78 0.68 0.55 0.60 0.71 0.67 0.50 0.45 0.39 0.29 0.19 0.14 0.07 0.03 0.03 0.05 0.09 0.09 0.05 0.02 0.02 0.09 0.16 0.24 0.30 0.34 0.36 0.34 0.43 0.60 0.69 0.66 0.41 0.31 0.31 0.19 0.17 0.15 0.11 0.10 0.12 0.07
0.66 0.58 0.63 0.60 0.51 0.43 0.31 0.20 0.11 0.08 0.05 0.02 0.00 0.00 0.02 0.02 0.06 0.10 0.06 0.02 0.03 0.01 0.06 0.06 0.06 0.08 0.11 0.16 0.23 0.23 0.30 0.56 0.44 0.46 0.29 0.47 0.37 0.36 0.61 0.27 0.16 0.16 0.13

GFSMA_prec_precacc_138.txt.gz
Total_Precipitation_Accumulation
0.34 0.26 0.27 0.27 0.22 0.16 0.12 0.13 0.16 0.18 0.14 0.09 0.08 0.07 0.05 0.05 0.05 0.04 0.03 0.03 0.03 0.05 0.04 0.06 0.06 0.08 0.13 0.12 0.06 0.07 0.05 0.03 0.03 0.03 0.04 0.04 0.04 0.02 0.02 0.04 0.06 0.07 0.08
0.39 0.49 0.42 0.41 0.31 0.25 0.23 0.23 0.33 0.35 0.30 0.21 0.13 0.08 0.06 0.08 0.13 0.09 0.08 0.11 0.08 0.06 0.06 0.07 0.09 0.15 0.28 0.23 0.16 0.23 0.22 0.10 0.07 0.05 0.02 0.01 0.01 0.02 0.01 0.03 0.05 0.06 0.07
0.27 0.33 0.53 0.54 0.43 0.44 0.61 0.67 0.80 0.70 0.58 0.39 0.21 0.13 0.13 0.11 0.10 0.17 0.19 0.16 0.13 0.11 0.08 0.09 0.14 0.12 0.13 0.20 0.41 0.52 0.43 0.37 0.26 0.22 0.10 0.05 0.02 0.01 0.00 0.00 0.02 0.03 0.05
0.16 0.25 0.21 0.24 0.38 0.50 0.57 0.55 0.62 0.77 0.79 0.72 0.47 0.31 0.28 0.26 0.23 0.21 0.20 0.15 0.12 0.11 0.12 0.10 0.17 0.19 0.13 0.13 0.28 0.54 0.63 0.56 0.29 0.22 0.17 0.15 0.10 0.06 0.02 0.03 0.02 0.01 0.02
0.15 0.20 0.24 0.29 0.35 0.39 0.43 0.48 0.61 0.65 0.74 0.66 0.56 0.63 0.81 0.81 0.58 0.43 0.31 0.20 0.17 0.16 0.13 0.16 0.19 0.27 0.32 0.28 0.20 0.39 0.60 0.70 0.61 0.42 0.39 0.33 0.21 0.10 0.07 0.09 0.09 0.06 0.06
0.16 0.25 0.25 0.28 0.36 0.35 0.34 0.39 0.47 0.53 0.51 0.51 0.55 0.50 0.48 0.60 0.81 0.85 0.76 0.68 0.49 0.35 0.28 0.27 0.30 0.31 0.33 0.29 0.28 0.29 0.41 0.66 0.83 0.73 0.56 0.55 0.40 0.30 0.23 0.25 0.22 0.15 0.13
0.40 0.29 0.26 0.22 0.20 0.17 0.18 0.23 0.33 0.35 0.28 0.41 0.55 0.27 0.21 0.19 0.16 0.13 0.24 0.37 0.40 0.35 0.33 0.37 0.43 0.47 0.52 0.61 0.49 0.40 0.43 0.58 0.73 0.82 0.79 0.73 0.67 0.57 0.46 0.41 0.39 0.33 0.23
0.78 0.67 0.49 0.43 0.32 0.32 0.29 0.24 0.25 0.28 0.28 0.47 0.64 0.50 0.24 0.12 0.09 0.09 0.14 0.17 0.21 0.40 0.40 0.40 0.46 0.47 0.48 0.52 0.67 0.63 0.45 0.59 0.76 0.95 1.01 1.07 1.04 0.84 0.72 0.72 0.67 0.57 0.45
1.28 1.33 1.23 1.19 1.11 0.87 0.65 0.62 0.53 0.52 0.54 0.51 0.61 0.76 0.44 0.22 0.18 0.18 0.16 0.21 0.27 0.36 0.45 0.63 0.75 0.59 0.52 0.56 0.67 0.70 0.63 0.52 0.65 0.82 0.99 1.05 1.07 0.94 0.86 0.89 0.83 0.90 1.06
1.82 2.19 2.32 2.17 2.01 1.64 1.55 1.66 1.67 1.48 1.46 1.13 1.06 0.99 0.92 0.67 0.56 0.41 0.30 0.34 0.48 1.09 1.37 1.21 1.08 1.26 1.28 1.01 0.99 1.09 1.23 1.19 0.92 0.93 1.31 1.77 1.98 1.75 1.15 0.87 0.72 0.61 0.74
2.07 2.00 2.29 2.74 2.77 2.89 2.57 2.23 2.23 2.22 2.12 2.09 1.85 1.64 1.44 1.34 1.38 1.27 0.85 0.63 0.56 0.97 0.83 0.77 0.75 0.72 1.04 1.43 1.67 1.42 1.01 0.93 1.07 1.17 1.40 1.93 2.30 2.71 2.99 2.29 1.46 1.35 1.14
2.17 1.97 2.42 2.67 2.93 2.64 2.42 2.55 2.46 2.20 2.03 1.76 1.68 1.64 1.48 1.31 1.15 1.16 0.91 0.55 0.42 0.35 0.30 0.35 0.50 0.58 0.55 0.57 0.76 1.03 1.22 1.15 0.85 0.88 1.09 1.39 1.49 1.58 1.88 2.79 3.23 2.79 2.35
2.00 2.00 1.59 1.94 2.12 2.30 2.51 2.23 2.04 1.88 1.91 2.06 1.91 1.77 1.79 1.64 1.47 1.31 1.23 0.82 0.57 0.50 0.64 0.66 0.61 0.60 0.59 0.58 0.54 0.63 0.67 0.97 1.25 1.20 1.14 1.09 1.12 1.22 1.29 1.59 1.97 2.69 3.56
1.37 1.37 1.41 1.25 1.27 1.40 1.61 1.73 1.58 1.44 1.36 1.35 1.34 1.37 1.40 1.37 1.27 1.27 1.48 1.60 1.34 0.80 0.53 0.59 0.66 0.65 0.67 0.65 0.72 0.84 0.75 0.92 1.02 1.19 1.30 1.42 1.46 1.37 1.37 1.43 1.65 2.00 1.97
1.05 1.12 1.22 1.32 1.26 1.29 1.35 1.36 1.31 1.22 1.16 1.01 0.95 0.99 1.04 0.96 0.95 0.97 1.09 1.30 1.53 1.37 0.91 0.65 0.67 0.68 0.70 0.78 0.94 0.99 1.01 1.14 1.13 1.13 1.16 1.21 1.30 1.22 1.14 1.13 1.21 1.22 1.21
0.70 1.21 1.17 0.88 0.89 0.94 1.13 1.41 1.40 1.22 1.19 1.18 1.09 1.08 1.08 1.05 1.00 0.93 0.94 1.01 1.24 1.45 1.37 0.79 0.78 0.85 0.89 0.96 1.04 0.92 0.81 0.96 0.88 0.87 0.90 0.92 0.87 0.82 0.82 0.84 0.88 0.85 0.90
0.46 0.72 1.00 1.16 1.04 0.89 0.87 0.93 0.94 1.03 1.22 1.24 1.26 1.25 1.13 1.19 1.48 1.55 1.51 1.56 1.72 1.94 2.10 1.47 1.05 0.96 0.91 0.84 0.86 0.83 0.75 0.63 0.59 0.77 0.68 0.66 0.62 0.57 0.60 0.60 0.59 0.59 0.58
0.06 0.09 0.14 0.22 0.30 0.47 0.60 0.62 0.64 0.68 0.74 0.82 0.89 1.02 0.97 0.96 0.99 0.97 1.03 1.13 1.24 1.36 1.63 1.46 1.08 1.05 1.02 0.96 0.95 0.94 0.89 0.83 0.76 0.92 0.81 0.58 0.42 0.32 0.31 0.32 0.36 0.40 0.42
0.08 0.07 0.05 0.05 0.06 0.06 0.07 0.11 0.20 0.33 0.47 0.60 0.69 0.70 0.66 0.77 0.82 0.93 1.07 1.21 1.27 1.40 1.58 1.59 1.25 1.08 1.01 0.98 1.02 0.99 0.94 0.90 0.84 0.98 0.85 0.69 0.67 0.60 0.49 0.46 0.43 0.37 0.29
0.07 0.06 0.08 0.08 0.07 0.06 0.08 0.13 0.17 0.20 0.23 0.28 0.36 0.48 0.58 0.72 0.84 0.97 1.05 1.04 1.10 1.22 1.23 1.23 1.04 0.78 0.61 0.57 0.67 0.62 0.56 0.51 0.49 0.56 0.62 0.53 0.54 0.52 0.50 0.47 0.45 0.44 0.40
0.06 0.04 0.08 0.15 0.17 0.17 0.16 0.13 0.13 0.14 0.18 0.23 0.27 0.31 0.33 0.46 0.57 0.62 0.77 0.86 1.00 1.17 1.30 1.29 1.03 0.78 0.53 0.35 0.29 0.26 0.33 0.31 0.34 0.33 0.31 0.32 0.31 0.26 0.23 0.26 0.25 0.32 0.40
0.08 0.12 0.11 0.11 0.14 0.18 0.36 0.28 0.18 0.16 0.18 0.23 0.28 0.36 0.45 0.59 0.53 0.51 0.46 0.42 0.42 0.59 0.76 0.84 0.85 0.71 0.56 0.51 0.57 0.61 0.61 0.57 0.47 0.19 0.15 0.12 0.12 0.11 0.13 0.19 0.30 0.33 0.31
0.24 0.23 0.22 0.26 0.25 0.24 0.35 0.29 0.34 0.36 0.42 0.47 0.48 0.45 0.37 0.35 0.35 0.29 0.29 0.31 0.34 0.34 0.36 0.32 0.28 0.20 0.21 0.26 0.42 0.54 0.55 0.52 0.41 0.23 0.32 0.30 0.16 0.08 0.04 0.12 0.23 0.22 0.29
0.46 0.54 0.56 0.58 0.64 0.76 0.80 0.68 0.55 0.44 0.46 0.48 0.45 0.40 0.33 0.26 0.19 0.14 0.16 0.21 0.11 0.08 0.13 0.19 0.20 0.27 0.38 0.42 0.55 0.71 0.61 0.53 0.46 0.35 0.32 0.32 0.13 0.12 0.06 0.05 0.12 0.10 0.17
0.78 0.78 0.68 0.55 0.60 0.71 0.67 0.50 0.45 0.39 0.29 0.19 0.14 0.07 0.03 0.03 0.05 0.09 0.09 0.05 0.02 0.02 0.09 0.16 0.24 0.30 0.34 0.36 0.34 0.43 0.60 0.69 0.66 0.41 0.31 0.31 0.19 0.17 0.15 0.11 0.10 0.12 0.07
0.66 0.58 0.63 0.60 0.51 0.43 0.32 0.20 0.11 0.08 0.05 0.02 0.00 0.00 0.02 0.02 0.06 0.10 0.06 0.02 0.03 0.01 0.06 0.06 0.06 0.08 0.11 0.16 0.23 0.23 0.30 0.56 0.44 0.46 0.29 0.47 0.37 0.36 0.61 0.27 0.16 0.16 0.13

GFSMA_prec_precacc_141.txt.gz
Total_Precipitation_Accumulation
0.34 0.26 0.27 0.27 0.22 0.16 0.12 0.13 0.16 0.18 0.14 0.09 0.08 0.07 0.05 0.05 0.05 0.04 0.03 0.03 0.03 0.05 0.06 0.08 0.08 0.12 0.18 0.17 0.11 0.12 0.08 0.05 0.04 0.04 0.04 0.04 0.04 0.02 0.02 0.04 0.06 0.08 0.09
0.39 0.49 0.42 0.41 0.31 0.25 0.23 0.23 0.33 0.35 0.30 0.21 0.13 0.08 0.06 0.08 0.13 0.09 0.08 0.11 0.08 0.06 0.07 0.08 0.10 0.18 0.33 0.31 0.25 0.31 0.29 0.15 0.10 0.06 0.02 0.01 0.01 0.02 0.01 0.03 0.05 0.06 0.08
0.27 0.33 0.53 0.54 0.43 0.44 0.61 0.67 0.80 0.70 0.58 0.39 0.21 0.13 0.13 0.11 0.10 0.17 0.19 0.16 0.13 0.11 0.08 0.09 0.15 0.13 0.15 0.25 0.48 0.61 0.52 0.45 0.33 0.25 0.11 0.05 0.02 0.01 0.00 0.00 0.02 0.03 0.05
0.16 0.25 0.21 0.24 0.38 0.50 0.57 0.55 0.62 0.77 0.79 0.72 0.47 0.31 0.28 0.26 0.23 0.21 0.20 0.15 0.12 0.11 0.12 0.10 0.17 0.19 0.14 0.15 0.32 0.62 0.74 0.66 0.38 0.30 0.23 0.17 0.10 0.07 0.02 0.03 0.02 0.01 0.02
0.15 0.20 0.24 0.29 0.35 0.39 0.43 0.48 0.61 0.65 0.74 0.66 0.56 0.63 0.81 0.81 0.58 0.43 0.31 0.20 0.17 0.16 0.13 0.16 0.19 0.27 0.32 0.28 0.21 0.42 0.67 0.81 0.74 0.56 0.51 0.43 0.25 0.11 0.07 0.09 0.09 0.06 0.06
0.16 0.25 0.25 0.28 0.36 0.35 0.34 0.39 0.47 0.53 0.51 0.51 0.55 0.50 0.48 0.60 0.81 0.85 0.76 0.68 0.49 0.35 0.28 0.27 0.30 0.31 0.33 0.30 0.28 0.29 0.43 0.72 0.92 0.86 0.73 0.74 0.54 0.34 0.24 0.25 0.22 0.15 0.13
0.40 0.29 0.26 0.22 0.20 0.17 0.18 0.23 0.33 0.35 0.28 0.41 0.55 0.27 0.21 0.19 0.16 0.13 0.24 0.37 0.40 0.35 0.33 0.37 0.43 0.47 0.52 0.61 0.49 0.40 0.44 0.60 0.78 0.92 0.92 0.91 0.90 0.69 0.49 0.43 0.40 0.33 0.24
0.78 0.67 0.49 0.43 0.32 0.32 0.29 0.24 0.25 0.28 0.28 0.47 0.64 0.50 0.24 0.12 0.09 0.09 0.14 0.17 0.21 0.40 0.40 0.40 0.46 0.47 0.48 0.52 0.68 0.64 0.46 0.61 0.81 1.05 1.14 1.25 1.31 1.19 1.02 0.80 0.71 0.60 0.47
1.28 1.33 1.23 1.19 1.11 0.87 0.65 0.62 0.53 0.52 0.54 0.51 0.61 0.77 0.45 0.22 0.18 0.18 0.16 0.21 0.27 0.36 0.45 0.63 0.75 0.59 0.52 0.56 0.68 0.71 0.64 0.54 0.67 0.88 1.09 1.22 1.44 1.56 1.67 1.45 1.11 0.98 1.10
1.82 2.19 2.32 2.17 2.01 1.64 1.55 1.66 1.67 1.48 1.46 1.13 1.06 0.99 0.92 0.67 0.56 0.41 0.30 0.34 0.48 1.09 1.37 1.21 1.08 1.26 1.29 1.04 1.02 1.12 1.25 1.20 0.96 1.07 1.42 1.87 2.21 2.50 2.53 2.28 1.52 0.93 0.94
2.07 2.00 2.29 2.74 2.77 2.89 2.57 2.23 2.23 2.22 2.12 2.09 1.85 1.64 1.44 1.34 1.38 1.27 0.85 0.63 0.56 0.97 0.83 0.77 0.75 0.72 1.05 1.45 1.68 1.43 1.03 0.94 1.17 1.32 1.56 2.18 2.48 2.85 3.65 4.05 2.96 2.76 2.32
2.17 1.97 2.42 2.67 2.93 2.64 2.42 2.55 2.46 2.20 2.03 1.76 1.68 1.64 1.48 1.31 1.15 1.16 0.91 0.55 0.42 0.35 0.30 0.35 0.50 0.58 0.55 0.57 0.76 1.03 1.22 1.15 0.90 0.98 1.25 1.51 1.57 1.71 2.08 3.20 3.88 3.77 3.41
2.00 2.00 1.59 1.94 2.12 2.30 2.51 2.23 2.04 1.88 1.91 2.06 1.91 1.77 1.79 1.64 1.47 1.31 1.23 0.82 0.57 0.50 0.64 0.66 0.61 0.60 0.59 0.58 0.54 0.63 0.67 0.97 1.25 1.22 1.19 1.17 1.19 1.27 1.36 1.68 2.12 2.95 3.95
1.37 1.37 1.41 1.25 1.27 1.40 1.61 1.73 1.58 1.44 1.36 1.35 1.34 1.37 1.40 1.37 1.27 1.27 1.48 1.60 1.34 0.80 0.53 0.59 0.66 0.65 0.67 0.65 0.72 0.84 0.75 0.92 1.02 1.19 1.30 1.43 1.48 1.39 1.40 1.49 1.72 2.17 2.19
1.05 1.12 1.22 1.32 1.26 1.29 1.35 1.36 1.31 1.22 1.16 1.01 0.95 0.99 1.04 0.96 0.95 0.97 1.09 1.30 1.53 1.37 0.91 0.65 0.67 0.68 0.70 0.78 0.94 0.99 1.01 1.14 1.13 1.13 1.16 1.21 1.30 1.22 1.14 1.13 1.24 1.28 1.31
0.70 1.21 1.17 0.88 0.89 0.94 1.13 1.41 1.40 1.22 1.19 1.18 1.09 1.08 1.08 1.05 1.00 0.93 0.94 1.01 1.24 1.45 1.37 0.79 0.78 0.85 0.89 0.96 1.04 0.92 0.81 0.96 0.88 0.87 0.90 0.92 0.87 0.82 0.82 0.84 0.88 0.86 0.90
0.46 0.72 1.00 1.16 1.04 0.89 0.87 0.93 0.94 1.03 1.22 1.24 1.26 1.25 1.13 1.19 1.48 1.55 1.51 1.56 1.72 1.94 2.10 1.47 1.05 0.96 0.91 0.84 0.86 0.83 0.75 0.63 0.59 0.77 0.68 0.66 0.62 0.57 0.60 0.60 0.59 0.59 0.58
0.06 0.09 0.14 0.22 0.30 0.47 0.60 0.62 0.64 0.68 0.74 0.82 0.89 1.02 0.97 0.96 0.99 0.97 1.03 1.13 1.24 1.36 1.63 1.46 1.08 1.05 1.02 0.96 0.95 0.94 0.89 0.83 0.76 0.92 0.81 0.58 0.42 0.32 0.31 0.32 0.36 0.40 0.42
0.08 0.07 0.05 0.05 0.06 0.06 0.07 0.11 0.20 0.33 0.47 0.60 0.69 0.70 0.66 0.77 0.82 0.93 1.07 1.21 1.27 1.40 1.58 1.59 1.25 1.08 1.01 0.98 1.02 0.99 0.94 0.90 0.84 0.98 0.85 0.69 0.67 0.60 0.49 0.46 0.43 0.37 0.29
0.07 0.06 0.08 0.08 0.07 0.06 0.08 0.13 0.17 0.20 0.23 0.28 0.36 0.48 0.58 0.72 0.84 0.97 1.05 1.04 1.10 1.22 1.23 1.23 1.04 0.78 0.61 0.57 0.67 0.62 0.56 0.51 0.49 0.56 0.62 0.53 0.54 0.52 0.50 0.47 0.45 0.44 0.40
0.06 0.04 0.08 0.15 0.17 0.17 0.16 0.13 0.13 0.14 0.18 0.23 0.27 0.31 0.33 0.46 0.57 0.62 0.77 0.86 1.00 1.17 1.30 1.29 1.03 0.78 0.53 0.35 0.29 0.26 0.33 0.31 0.34 0.33 0.31 0.32 0.31 0.26 0.23 0.26 0.25 0.32 0.40
0.08 0.12 0.11 0.11 0.14 0.18 0.36 0.28 0.18 0.16 0.18 0.23 0.28 0.36 0.45 0.59 0.53 0.51 0.46 0.42 0.42 0.59 0.76 0.84 0.85 0.71 0.56 0.51 0.57 0.61 0.61 0.57 0.47 0.19 0.15 0.12 0.12 0.11 0.13 0.19 0.30 0.33 0.31
0.24 0.23 0.22 0.26 0.25 0.24 0.35 0.29 0.34 0.36 0.42 0.47 0.48 0.45 0.37 0.35 0.35 0.29 0.29 0.31 0.34 0.34 0.36 0.32 0.28 0.20 0.21 0.26 0.42 0.54 0.55 0.52 0.41 0.23 0.32 0.30 0.16 0.08 0.04 0.12 0.23 0.22 0.29
0.46 0.54 0.56 0.58 0.64 0.76 0.80 0.68 0.55 0.44 0.46 0.48 0.45 0.40 0.33 0.26 0.19 0.14 0.16 0.21 0.11 0.08 0.13 0.19 0.20 0.27 0.38 0.42 0.55 0.71 0.61 0.53 0.46 0.35 0.32 0.32 0.13 0.12 0.06 0.05 0.12 0.10 0.17
0.78 0.78 0.68 0.55 0.60 0.71 0.67 0.50 0.45 0.39 0.29 0.19 0.14 0.07 0.03 0.03 0.05 0.09 0.09 0.05 0.02 0.02 0.09 0.16 0.24 0.30 0.34 0.36 0.34 0.43 0.60 0.69 0.66 0.41 0.31 0.31 0.19 0.17 0.15 0.11 0.10 0.12 0.07
0.66 0.58 0.63 0.60 0.51 0.43 0.32 0.20 0.12 0.08 0.06 0.02 0.00 0.00 0.02 0.02 0.06 0.10 0.06 0.02 0.03 0.01 0.06 0.06 0.06 0.08 0.11 0.16 0.23 0.23 0.30 0.56 0.44 0.46 0.29 0.47 0.37 0.36 0.62 0.27 0.16 0.16 0.13

GFSMA_prec_precacc_144.txt.gz
Total_Precipitation_Accumulation
0.34 0.26 0.27 0.27 0.22 0.16 0.12 0.13 0.16 0.18 0.14 0.09 0.08 0.07 0.05 0.05 0.05 0.04 0.03 0.03 0.03 0.05 0.06 0.08 0.08 0.13 0.20 0.21 0.17 0.18 0.15 0.12 0.10 0.08 0.05 0.05 0.04 0.02 0.02 0.04 0.06 0.08 0.10
0.39 0.49 0.42 0.41 0.31 0.25 0.23 0.23 0.33 0.35 0.30 0.21 0.13 0.08 0.06 0.08 0.13 0.09 0.08 0.11 0.08 0.06 0.07 0.08 0.10 0.18 0.33 0.31 0.28 0.36 0.35 0.23 0.18 0.14 0.08 0.04 0.02 0.02 0.01 0.03 0.05 0.06 0.08
0.27 0.33 0.53 0.54 0.43 0.44 0.61 0.67 0.80 0.70 0.58 0.39 0.21 0.13 0.13 0.11 0.10 0.17 0.19 0.16 0.13 0.11 0.08 0.09 0.15 0.13 0.15 0.25 0.48 0.63 0.55 0.50 0.40 0.34 0.20 0.15 0.08 0.03 0.00 0.00 0.02 0.03 0.05
0.16 0.25 0.21 0.24 0.38 0.50 0.57 0.55 0.62 0.77 0.79 0.72 0.47 0.31 0.28 0.26 0.23 0.21 0.20 0.15 0.12 0.11 0.12 0.10 0.17 0.19 0.14 0.15 0.32 0.62 0.74 0.69 0.43 0.37 0.32 0.30 0.23 0.14 0.06 0.03 0.02 0.01 0.02
0.15 0.20 0.24 0.29 0.35 0.39 0.43 0.48 0.61 0.65 0.74 0.66 0.56 0.63 0.81 0.81 0.58 0.43 0.31 0.20 0.17 0.16 0.13 0.16 0.19 0.27 0.32 0.29 0.21 0.43 0.67 0.81 0.74 0.58 0.56 0.51 0.37 0.23 0.17 0.14 0.10 0.06 0.06
0.16 0.25 0.25 0.28 0.36 0.35 0.34 0.39 0.47 0.53 0.51 0.51 0.55 0.50 0.48 0.60 0.81 0.85 0.76 0.68 0.49 0.35 0.28 0.27 0.30 0.31 0.33 0.30 0.29 0.30 0.44 0.72 0.92 0.87 0.74 0.77 0.62 0.48 0.41 0.39 0.30 0.17 0.13
0.40 0.29 0.26 0.22 0.20 0.17 0.18 0.23 0.33 0.35 0.28 0.41 0.55 0.27 0.21 0.19 0.16 0.13 0.24 0.37 0.40 0.35 0.33 0.37 0.43 0.47 0.52 0.61 0.50 0.41 0.45 0.61 0.79 0.93 0.92 0.92 0.95 0.96 0.99 0.98 0.98 0.72 0.32
0.78 0.67 0.49 0.43 0.32 0.32 0.29 0.24 0.25 0.28 0.28 0.47 0.64 0.50 0.24 0.12 0.09 0.09 0.14 0.17 0.21 0.40 0.40 0.40 0.46 0.47 0.48 0.52 0.68 0.65 0.46 0.62 0.85 1.11 1.18 1.27 1.33 1.24 1.24 1.33 1.27 1.07 0.76
1.28 1.33 1.23 1.19 1.11 0.87 0.65 0.62 0.53 0.52 0.54 0.51 0.61 0.77 0.45 0.22 0.18 0.18 0.16 0.21 0.27 0.36 0.45 0.63 0.75 0.59 0.52 0.56 0.68 0.71 0.64 0.54 0.69 0.93 1.17 1.26 1.46 1.57 1.75 1.90 1.93 1.77 1.87
1.82 2.19 2.32 2.17 2.01 1.64 1.55 1.66 1.67 1.48 1.46 1.13 1.06 0.99 0.93 0.67 0.56 0.41 0.30 0.34 0.48 1.09 1.37 1.21 1.08 1.26 1.29 1.04 1.02 1.12 1.25 1.21 0.97 1.11 1.49 1.89 2.23 2.51 2.55 2.45 2.21 1.90 1.97
2.07 2.00 2.29 2.74 2.77 2.89 2.57 2.23 2.23 2.22 2.12 2.09 1.85 1.64 1.44 1.34 1.38 1.27 0.85 0.63 0.56 0.97 0.83 0.77 0.75 0.72 1.05 1.45 1.68 1.43 1.03 0.95 1.18 1.35 1.60 2.21 2.51 2.87 3.66 4.07 3.11 3.13 3.08
2.17 1.97 2.42 2.67 2.93 2.64 2.42 2.55 2.46 2.20 2.03 1.76 1.68 1.64 1.48 1.31 1.15 1.16 0.91 0.55 0.42 0.35 0.30 0.35 0.50 0.58 0.55 0.57 0.76 1.03 1.22 1.15 0.90 0.99 1.26 1.52 1.58 1.71 2.09 3.22 3.99 3.93 3.76
2.00 2.00 1.59 1.94 2.12 2.30 2.51 2.23 2.04 1.88 1.91 2.06 1.91 1.77 1.79 1.64 1.47 1.31 1.23 0.82 0.57 0.50 0.64 0.66 0.61 0.60 0.59 0.58 0.54 0.63 0.67 0.97 1.25 1.22 1.19 1.17 1.19 1.27 1.36 1.71 2.18 3.03 4.07
1.37 1.37 1.41 1.25 1.27 1.40 1.61 1.73 1.58 1.44 1.36 1.35 1.34 1.37 1.40 1.37 1.27 1.27 1.48 1.60 1.34 0.80 0.53 0.59 0.66 0.65 0.67 0.65 0.72 0.84 0.75 0.92 1.02 1.19 1.30 1.43 1.48 1.39 1.40 1.49 1.72 2.17 2.20
1.05 1.12 1.22 1.32 1.26 1.29 1.35 1.36 1.31 1.22 1.16 1.01 0.95 0.99 1.04 0.96 0.95 0.97 1.09 1.30 1.53 1.37 0.91 0.65 0.67 0.68 0.70 0.78 0.94 0.99 1.01 1.14 1.13 1.13 1.16 1.21 1.30 1.22 1.14 1.13 1.24 1.28 1.31
0.70 1.21 1.17 0.88 0.89 0.94 1.13 1.41 1.40 1.22 1.19 1.18 1.09 1.08 1.08 1.05 1.00 0.93 0.94 1.01 1.24 1.45 1.37 0.79 0.78 0.85 0.89 0.96 1.04 0.92 0.81 0.96 0.88 0.87 0.90 0.92 0.87 0.82 0.82 0.84 0.88 0.86 0.90
0.46 0.72 1.00 1.16 1.04 0.89 0.87 0.93 0.94 1.03 1.22 1.24 1.26 1.25 1.13 1.19 1.48 1.55 1.51 1.56 1.72 1.94 2.10 1.47 1.05 0.96 0.91 0.84 0.86 0.83 0.75 0.63 0.59 0.77 0.68 0.66 0.62 0.57 0.60 0.60 0.59 0.59 0.58
0.06 0.09 0.14 0.22 0.30 0.47 0.60 0.62 0.64 0.68 0.74 0.82 0.89 1.02 0.97 0.96 0.99 0.97 1.03 1.13 1.24 1.36 1.63 1.46 1.08 1.05 1.02 0.96 0.95 0.94 0.89 0.83 0.76 0.92 0.81 0.58 0.42 0.32 0.31 0.32 0.36 0.40 0.42
0.08 0.07 0.05 0.05 0.06 0.06 0.07 0.11 0.20 0.33 0.47 0.60 0.69 0.70 0.66 0.77 0.82 0.93 1.07 1.21 1.27 1.40 1.58 1.59 1.25 1.08 1.01 0.98 1.02 0.99 0.94 0.90 0.84 0.98 0.85 0.69 0.67 0.60 0.49 0.46 0.43 0.37 0.29
0.07 0.06 0.08 0.08 0.07 0.06 0.08 0.13 0.17 0.20 0.23 0.28 0.36 0.48 0.58 0.72 0.84 0.97 1.05 1.04 1.10 1.22 1.23 1.23 1.04 0.78 0.61 0.57 0.67 0.62 0.56 0.51 0.49 0.56 0.62 0.53 0.54 0.52 0.50 0.47 0.45 0.44 0.40
0.06 0.04 0.08 0.15 0.17 0.17 0.16 0.13 0.13 0.14 0.18 0.23 0.27 0.31 0.33 0.46 0.57 0.62 0.77 0.86 1.00 1.17 1.30 1.29 1.03 0.78 0.53 0.35 0.29 0.26 0.33 0.31 0.34 0.33 0.31 0.32 0.31 0.26 0.23 0.26 0.25 0.32 0.40
0.08 0.12 0.11 0.11 0.14 0.18 0.36 0.28 0.18 0.16 0.18 0.23 0.28 0.36 0.45 0.59 0.53 0.51 0.46 0.42 0.42 0.59 0.76 0.84 0.85 0.71 0.56 0.51 0.57 0.61 0.61 0.57 0.47 0.19 0.15 0.12 0.12 0.11 0.13 0.19 0.30 0.33 0.31
0.24 0.23 0.22 0.26 0.25 0.24 0.35 0.29 0.34 0.36 0.42 0.47 0.48 0.45 0.37 0.35 0.35 0.29 0.29 0.31 0.34 0.34 0.36 0.32 0.28 0.20 0.21 0.26 0.42 0.54 0.55 0.52 0.41 0.23 0.32 0.30 0.16 0.08 0.04 0.12 0.23 0.22 0.29
0.46 0.54 0.56 0.58 0.64 0.76 0.80 0.68 0.55 0.44 0.46 0.48 0.45 0.40 0.33 0.26 0.19 0.14 0.16 0.21 0.11 0.08 0.13 0.19 0.20 0.27 0.38 0.42 0.55 0.71 0.61 0.53 0.46 0.35 0.32 0.32 0.13 0.12 0.06 0.05 0.12 0.10 0.17
0.78 0.78 0.68 0.55 0.60 0.71 0.67 0.50 0.45 0.39 0.29 0.19 0.14 0.07 0.03 0.03 0.05 0.09 0.09 0.05 0.02 0.02 0.09 0.16 0.24 0.30 0.34 0.36 0.34 0.43 0.60 0.69 0.66 0.41 0.31 0.31 0.19 0.17 0.15 0.11 0.10 0.12 0.07
0.66 0.58 0.63 0.60 0.51 0.43 0.32 0.20 0.12 0.08 0.06 0.02 0.01 0.00 0.02 0.02 0.06 0.10 0.06 0.02 0.03 0.01 0.06 0.06 0.06 0.08 0.11 0.16 0.23 0.23 0.30 0.56 0.44 0.46 0.29 0.47 0.37 0.36 0.62 0.27 0.16 0.16 0.13